<?xml version="1.0" encoding="UTF-8" standalone="no" ?>
<gpx xmlns="http://www.topografix.com/GPX/1/1" xmlns:xsi="http://www.w3.org/2001/XMLSchema-instance" xsi:schemaLocation="http://www.topografix.com/GPX/1/1 http://www.topografix.com/GPX/1/1/gpx.xsd" version="1.1" creator="VisuGPX - https://www.visugpx.com">
  <metadata>
    <name>CMC Marche nordique Lasserre</name>
    <desc><![CDATA[CMC Marche nordique Lasserre]]></desc>
  </metadata>
  <wpt lat="43.61385" lon="1.19816">
    <ele>191</ele>
    <name><![CDATA[Pause à 11/06/2016 à 11:44]]></name>
    <desc><![CDATA[Pause de 2min 54s]]></desc>
  </wpt>
  <wpt lat="43.61126" lon="1.33516">
    <ele>149</ele>
    <name><![CDATA[Pause à 11/06/2016 à 12:16]]></name>
    <desc><![CDATA[Pause de 2min 44s]]></desc>
  </wpt>
  <wpt lat="43.6139" lon="1.19833">
    <ele>174</ele>
    <name><![CDATA[Pause à 11/06/2016 à 11:58]]></name>
    <desc><![CDATA[Pause de 2min 8s]]></desc>
  </wpt>
  <wpt lat="43.61255" lon="1.1779">
    <ele>216</ele>
    <name><![CDATA[Pause à 11/06/2016 à 11:00]]></name>
    <desc><![CDATA[Pause de 2min 18s]]></desc>
  </wpt>
  <wpt lat="43.59999" lon="1.18748">
    <ele>198</ele>
    <name><![CDATA[Pause à 11/06/2016 à 10:11]]></name>
    <desc><![CDATA[Pause de 3min 41s]]></desc>
  </wpt>
  <wpt lat="43.60569" lon="1.19505">
    <ele>215</ele>
    <name><![CDATA[Pause à 11/06/2016 à 9:53]]></name>
    <desc><![CDATA[Pause de 4min 26s]]></desc>
  </wpt>
  <wpt lat="43.60332" lon="1.17688">
    <ele>232</ele>
    <name><![CDATA[Pause à 11/06/2016 à 10:24]]></name>
    <desc><![CDATA[Pause de 6min 47s]]></desc>
  </wpt>
  <wpt lat="43.61396" lon="1.19813">
    <ele>181</ele>
    <name><![CDATA[Pause à 11/06/2016 à 11:48]]></name>
    <desc><![CDATA[Pause de 2min 2s]]></desc>
  </wpt>
  <wpt lat="43.61402" lon="1.19827">
    <ele>175</ele>
    <name><![CDATA[Pause à 11/06/2016 à 11:55]]></name>
    <desc><![CDATA[Pause de 2min 14s]]></desc>
  </wpt>
  <wpt lat="43.61837" lon="1.19033">
    <ele>199</ele>
    <name><![CDATA[Pause à 11/06/2016 à 11:20]]></name>
    <desc><![CDATA[Pause de 3min 10s]]></desc>
  </wpt>
  <trk>
    <name><![CDATA[Lasserre]]></name>
    <trkseg>
      <trkpt lat="43.6138" lon="1.19833">
        <ele>149</ele>
        <time>2016-06-11T07:32:34Z</time>
      </trkpt>
      <trkpt lat="43.6138" lon="1.19835">
        <ele>150</ele>
        <time>2016-06-11T07:32:53Z</time>
      </trkpt>
      <trkpt lat="43.6138" lon="1.19835">
        <ele>150</ele>
        <time>2016-06-11T07:32:55Z</time>
      </trkpt>
      <trkpt lat="43.6138" lon="1.19835">
        <ele>151</ele>
        <time>2016-06-11T07:33:12Z</time>
      </trkpt>
      <trkpt lat="43.6138" lon="1.19835">
        <ele>151</ele>
        <time>2016-06-11T07:33:14Z</time>
      </trkpt>
      <trkpt lat="43.61373" lon="1.19828">
        <ele>152</ele>
        <time>2016-06-11T07:33:19Z</time>
      </trkpt>
      <trkpt lat="43.61376" lon="1.19828">
        <ele>154</ele>
        <time>2016-06-11T07:33:50Z</time>
      </trkpt>
      <trkpt lat="43.61376" lon="1.19828">
        <ele>156</ele>
        <time>2016-06-11T07:33:52Z</time>
      </trkpt>
      <trkpt lat="43.61376" lon="1.19828">
        <ele>158</ele>
        <time>2016-06-11T07:34:10Z</time>
      </trkpt>
      <trkpt lat="43.61376" lon="1.19828">
        <ele>159</ele>
        <time>2016-06-11T07:34:12Z</time>
      </trkpt>
      <trkpt lat="43.61376" lon="1.19828">
        <ele>160</ele>
        <time>2016-06-11T07:34:31Z</time>
      </trkpt>
      <trkpt lat="43.61376" lon="1.19828">
        <ele>160</ele>
        <time>2016-06-11T07:34:32Z</time>
      </trkpt>
      <trkpt lat="43.61376" lon="1.19828">
        <ele>160</ele>
        <time>2016-06-11T07:34:52Z</time>
      </trkpt>
      <trkpt lat="43.61376" lon="1.19828">
        <ele>160</ele>
        <time>2016-06-11T07:34:54Z</time>
      </trkpt>
      <trkpt lat="43.61373" lon="1.19817">
        <ele>164</ele>
        <time>2016-06-11T07:35:01Z</time>
      </trkpt>
      <trkpt lat="43.61372" lon="1.19816">
        <ele>168</ele>
        <time>2016-06-11T07:35:03Z</time>
      </trkpt>
      <trkpt lat="43.61372" lon="1.19816">
        <ele>172</ele>
        <time>2016-06-11T07:35:04Z</time>
      </trkpt>
      <trkpt lat="43.61373" lon="1.19818">
        <ele>176</ele>
        <time>2016-06-11T07:35:15Z</time>
      </trkpt>
      <trkpt lat="43.61373" lon="1.19819">
        <ele>180</ele>
        <time>2016-06-11T07:35:16Z</time>
      </trkpt>
      <trkpt lat="43.61372" lon="1.19819">
        <ele>181</ele>
        <time>2016-06-11T07:35:21Z</time>
      </trkpt>
      <trkpt lat="43.61372" lon="1.19819">
        <ele>182</ele>
        <time>2016-06-11T07:35:23Z</time>
      </trkpt>
      <trkpt lat="43.61371" lon="1.19819">
        <ele>183</ele>
        <time>2016-06-11T07:35:26Z</time>
      </trkpt>
      <trkpt lat="43.61369" lon="1.1982">
        <ele>183</ele>
        <time>2016-06-11T07:35:28Z</time>
      </trkpt>
      <trkpt lat="43.61367" lon="1.19819">
        <ele>184</ele>
        <time>2016-06-11T07:35:29Z</time>
      </trkpt>
      <trkpt lat="43.61363" lon="1.19824">
        <ele>184</ele>
        <time>2016-06-11T07:35:33Z</time>
      </trkpt>
      <trkpt lat="43.61362" lon="1.19825">
        <ele>184</ele>
        <time>2016-06-11T07:35:34Z</time>
      </trkpt>
      <trkpt lat="43.6136" lon="1.19823">
        <ele>185</ele>
        <time>2016-06-11T07:35:36Z</time>
      </trkpt>
      <trkpt lat="43.61359" lon="1.19823">
        <ele>185</ele>
        <time>2016-06-11T07:35:37Z</time>
      </trkpt>
      <trkpt lat="43.61358" lon="1.19821">
        <ele>185</ele>
        <time>2016-06-11T07:35:40Z</time>
      </trkpt>
      <trkpt lat="43.61356" lon="1.19821">
        <ele>186</ele>
        <time>2016-06-11T07:35:42Z</time>
      </trkpt>
      <trkpt lat="43.61354" lon="1.1982">
        <ele>186</ele>
        <time>2016-06-11T07:35:43Z</time>
      </trkpt>
      <trkpt lat="43.61352" lon="1.1982">
        <ele>186</ele>
        <time>2016-06-11T07:35:46Z</time>
      </trkpt>
      <trkpt lat="43.61346" lon="1.19819">
        <ele>187</ele>
        <time>2016-06-11T07:35:50Z</time>
      </trkpt>
      <trkpt lat="43.61344" lon="1.1982">
        <ele>187</ele>
        <time>2016-06-11T07:35:52Z</time>
      </trkpt>
      <trkpt lat="43.61342" lon="1.19822">
        <ele>188</ele>
        <time>2016-06-11T07:35:54Z</time>
      </trkpt>
      <trkpt lat="43.61335" lon="1.19827">
        <ele>188</ele>
        <time>2016-06-11T07:35:58Z</time>
      </trkpt>
      <trkpt lat="43.61333" lon="1.19828">
        <ele>188</ele>
        <time>2016-06-11T07:35:59Z</time>
      </trkpt>
      <trkpt lat="43.61326" lon="1.19827">
        <ele>188</ele>
        <time>2016-06-11T07:36:02Z</time>
      </trkpt>
      <trkpt lat="43.61306" lon="1.19845">
        <ele>188</ele>
        <time>2016-06-11T07:36:14Z</time>
      </trkpt>
      <trkpt lat="43.61306" lon="1.19847">
        <ele>189</ele>
        <time>2016-06-11T07:36:15Z</time>
      </trkpt>
      <trkpt lat="43.61305" lon="1.19849">
        <ele>189</ele>
        <time>2016-06-11T07:36:17Z</time>
      </trkpt>
      <trkpt lat="43.61302" lon="1.19855">
        <ele>189</ele>
        <time>2016-06-11T07:36:21Z</time>
      </trkpt>
      <trkpt lat="43.61301" lon="1.19857">
        <ele>189</ele>
        <time>2016-06-11T07:36:22Z</time>
      </trkpt>
      <trkpt lat="43.61301" lon="1.19859">
        <ele>190</ele>
        <time>2016-06-11T07:36:24Z</time>
      </trkpt>
      <trkpt lat="43.613" lon="1.19862">
        <ele>190</ele>
        <time>2016-06-11T07:36:26Z</time>
      </trkpt>
      <trkpt lat="43.61297" lon="1.19866">
        <ele>191</ele>
        <time>2016-06-11T07:36:28Z</time>
      </trkpt>
      <trkpt lat="43.61296" lon="1.1987">
        <ele>191</ele>
        <time>2016-06-11T07:36:30Z</time>
      </trkpt>
      <trkpt lat="43.61296" lon="1.19872">
        <ele>191</ele>
        <time>2016-06-11T07:36:31Z</time>
      </trkpt>
      <trkpt lat="43.61295" lon="1.19874">
        <ele>191</ele>
        <time>2016-06-11T07:36:32Z</time>
      </trkpt>
      <trkpt lat="43.61295" lon="1.19883">
        <ele>191</ele>
        <time>2016-06-11T07:36:36Z</time>
      </trkpt>
      <trkpt lat="43.61292" lon="1.19891">
        <ele>191</ele>
        <time>2016-06-11T07:36:40Z</time>
      </trkpt>
      <trkpt lat="43.6129" lon="1.19892">
        <ele>192</ele>
        <time>2016-06-11T07:36:42Z</time>
      </trkpt>
      <trkpt lat="43.61289" lon="1.19893">
        <ele>192</ele>
        <time>2016-06-11T07:36:43Z</time>
      </trkpt>
      <trkpt lat="43.61287" lon="1.19897">
        <ele>192</ele>
        <time>2016-06-11T07:36:45Z</time>
      </trkpt>
      <trkpt lat="43.61284" lon="1.19904">
        <ele>193</ele>
        <time>2016-06-11T07:36:50Z</time>
      </trkpt>
      <trkpt lat="43.61284" lon="1.19904">
        <ele>194</ele>
        <time>2016-06-11T07:36:51Z</time>
      </trkpt>
      <trkpt lat="43.61284" lon="1.19905">
        <ele>194</ele>
        <time>2016-06-11T07:36:52Z</time>
      </trkpt>
      <trkpt lat="43.61282" lon="1.19908">
        <ele>195</ele>
        <time>2016-06-11T07:36:54Z</time>
      </trkpt>
      <trkpt lat="43.61281" lon="1.19915">
        <ele>197</ele>
        <time>2016-06-11T07:36:58Z</time>
      </trkpt>
      <trkpt lat="43.6128" lon="1.1992">
        <ele>198</ele>
        <time>2016-06-11T07:37:01Z</time>
      </trkpt>
      <trkpt lat="43.6128" lon="1.19925">
        <ele>199</ele>
        <time>2016-06-11T07:37:03Z</time>
      </trkpt>
      <trkpt lat="43.61281" lon="1.19935">
        <ele>200</ele>
        <time>2016-06-11T07:37:07Z</time>
      </trkpt>
      <trkpt lat="43.6128" lon="1.19938">
        <ele>201</ele>
        <time>2016-06-11T07:37:08Z</time>
      </trkpt>
      <trkpt lat="43.61279" lon="1.19944">
        <ele>202</ele>
        <time>2016-06-11T07:37:12Z</time>
      </trkpt>
      <trkpt lat="43.61277" lon="1.19951">
        <ele>203</ele>
        <time>2016-06-11T07:37:16Z</time>
      </trkpt>
      <trkpt lat="43.61275" lon="1.19954">
        <ele>204</ele>
        <time>2016-06-11T07:37:18Z</time>
      </trkpt>
      <trkpt lat="43.61274" lon="1.19956">
        <ele>205</ele>
        <time>2016-06-11T07:37:19Z</time>
      </trkpt>
      <trkpt lat="43.61273" lon="1.19963">
        <ele>206</ele>
        <time>2016-06-11T07:37:23Z</time>
      </trkpt>
      <trkpt lat="43.61271" lon="1.19965">
        <ele>207</ele>
        <time>2016-06-11T07:37:25Z</time>
      </trkpt>
      <trkpt lat="43.61271" lon="1.19966">
        <ele>207</ele>
        <time>2016-06-11T07:37:26Z</time>
      </trkpt>
      <trkpt lat="43.61264" lon="1.19974">
        <ele>208</ele>
        <time>2016-06-11T07:37:33Z</time>
      </trkpt>
      <trkpt lat="43.61259" lon="1.19981">
        <ele>210</ele>
        <time>2016-06-11T07:37:37Z</time>
      </trkpt>
      <trkpt lat="43.61258" lon="1.19985">
        <ele>211</ele>
        <time>2016-06-11T07:37:39Z</time>
      </trkpt>
      <trkpt lat="43.61256" lon="1.19987">
        <ele>212</ele>
        <time>2016-06-11T07:37:41Z</time>
      </trkpt>
      <trkpt lat="43.61252" lon="1.19991">
        <ele>214</ele>
        <time>2016-06-11T07:37:45Z</time>
      </trkpt>
      <trkpt lat="43.61251" lon="1.19994">
        <ele>215</ele>
        <time>2016-06-11T07:37:47Z</time>
      </trkpt>
      <trkpt lat="43.61251" lon="1.19999">
        <ele>215</ele>
        <time>2016-06-11T07:37:49Z</time>
      </trkpt>
      <trkpt lat="43.61248" lon="1.20009">
        <ele>216</ele>
        <time>2016-06-11T07:37:54Z</time>
      </trkpt>
      <trkpt lat="43.61247" lon="1.20014">
        <ele>217</ele>
        <time>2016-06-11T07:37:57Z</time>
      </trkpt>
      <trkpt lat="43.61244" lon="1.20021">
        <ele>218</ele>
        <time>2016-06-11T07:38:01Z</time>
      </trkpt>
      <trkpt lat="43.61242" lon="1.20023">
        <ele>219</ele>
        <time>2016-06-11T07:38:03Z</time>
      </trkpt>
      <trkpt lat="43.6124" lon="1.20025">
        <ele>220</ele>
        <time>2016-06-11T07:38:05Z</time>
      </trkpt>
      <trkpt lat="43.61238" lon="1.2003">
        <ele>220</ele>
        <time>2016-06-11T07:38:07Z</time>
      </trkpt>
      <trkpt lat="43.61236" lon="1.20036">
        <ele>221</ele>
        <time>2016-06-11T07:38:09Z</time>
      </trkpt>
      <trkpt lat="43.61235" lon="1.20037">
        <ele>222</ele>
        <time>2016-06-11T07:38:10Z</time>
      </trkpt>
      <trkpt lat="43.61232" lon="1.20041">
        <ele>222</ele>
        <time>2016-06-11T07:38:14Z</time>
      </trkpt>
      <trkpt lat="43.61228" lon="1.20043">
        <ele>223</ele>
        <time>2016-06-11T07:38:16Z</time>
      </trkpt>
      <trkpt lat="43.61223" lon="1.20048">
        <ele>223</ele>
        <time>2016-06-11T07:38:20Z</time>
      </trkpt>
      <trkpt lat="43.61219" lon="1.20053">
        <ele>224</ele>
        <time>2016-06-11T07:38:24Z</time>
      </trkpt>
      <trkpt lat="43.61217" lon="1.2006">
        <ele>224</ele>
        <time>2016-06-11T07:38:27Z</time>
      </trkpt>
      <trkpt lat="43.61215" lon="1.20062">
        <ele>223</ele>
        <time>2016-06-11T07:38:29Z</time>
      </trkpt>
      <trkpt lat="43.61211" lon="1.20065">
        <ele>223</ele>
        <time>2016-06-11T07:38:32Z</time>
      </trkpt>
      <trkpt lat="43.61208" lon="1.20067">
        <ele>223</ele>
        <time>2016-06-11T07:38:34Z</time>
      </trkpt>
      <trkpt lat="43.61206" lon="1.20073">
        <ele>223</ele>
        <time>2016-06-11T07:38:38Z</time>
      </trkpt>
      <trkpt lat="43.61205" lon="1.20076">
        <ele>223</ele>
        <time>2016-06-11T07:38:40Z</time>
      </trkpt>
      <trkpt lat="43.61204" lon="1.20081">
        <ele>223</ele>
        <time>2016-06-11T07:38:42Z</time>
      </trkpt>
      <trkpt lat="43.61204" lon="1.20091">
        <ele>223</ele>
        <time>2016-06-11T07:38:45Z</time>
      </trkpt>
      <trkpt lat="43.61202" lon="1.20097">
        <ele>223</ele>
        <time>2016-06-11T07:38:48Z</time>
      </trkpt>
      <trkpt lat="43.61201" lon="1.20099">
        <ele>222</ele>
        <time>2016-06-11T07:38:49Z</time>
      </trkpt>
      <trkpt lat="43.612" lon="1.20105">
        <ele>222</ele>
        <time>2016-06-11T07:38:52Z</time>
      </trkpt>
      <trkpt lat="43.61195" lon="1.20111">
        <ele>222</ele>
        <time>2016-06-11T07:38:56Z</time>
      </trkpt>
      <trkpt lat="43.61194" lon="1.20116">
        <ele>222</ele>
        <time>2016-06-11T07:38:58Z</time>
      </trkpt>
      <trkpt lat="43.61193" lon="1.20118">
        <ele>222</ele>
        <time>2016-06-11T07:39:00Z</time>
      </trkpt>
      <trkpt lat="43.6119" lon="1.20122">
        <ele>222</ele>
        <time>2016-06-11T07:39:03Z</time>
      </trkpt>
      <trkpt lat="43.6119" lon="1.20129">
        <ele>222</ele>
        <time>2016-06-11T07:39:06Z</time>
      </trkpt>
      <trkpt lat="43.61187" lon="1.20131">
        <ele>222</ele>
        <time>2016-06-11T07:39:08Z</time>
      </trkpt>
      <trkpt lat="43.61185" lon="1.20135">
        <ele>222</ele>
        <time>2016-06-11T07:39:10Z</time>
      </trkpt>
      <trkpt lat="43.61182" lon="1.20142">
        <ele>222</ele>
        <time>2016-06-11T07:39:14Z</time>
      </trkpt>
      <trkpt lat="43.61181" lon="1.20148">
        <ele>222</ele>
        <time>2016-06-11T07:39:15Z</time>
      </trkpt>
      <trkpt lat="43.61179" lon="1.20152">
        <ele>222</ele>
        <time>2016-06-11T07:39:17Z</time>
      </trkpt>
      <trkpt lat="43.61182" lon="1.20159">
        <ele>222</ele>
        <time>2016-06-11T07:39:19Z</time>
      </trkpt>
      <trkpt lat="43.61183" lon="1.20165">
        <ele>222</ele>
        <time>2016-06-11T07:39:21Z</time>
      </trkpt>
      <trkpt lat="43.61184" lon="1.20171">
        <ele>221</ele>
        <time>2016-06-11T07:39:23Z</time>
      </trkpt>
      <trkpt lat="43.61182" lon="1.20175">
        <ele>221</ele>
        <time>2016-06-11T07:39:25Z</time>
      </trkpt>
      <trkpt lat="43.61181" lon="1.20177">
        <ele>221</ele>
        <time>2016-06-11T07:39:27Z</time>
      </trkpt>
      <trkpt lat="43.61178" lon="1.20179">
        <ele>221</ele>
        <time>2016-06-11T07:39:29Z</time>
      </trkpt>
      <trkpt lat="43.61171" lon="1.20179">
        <ele>221</ele>
        <time>2016-06-11T07:39:34Z</time>
      </trkpt>
      <trkpt lat="43.61169" lon="1.20178">
        <ele>221</ele>
        <time>2016-06-11T07:39:36Z</time>
      </trkpt>
      <trkpt lat="43.61164" lon="1.20176">
        <ele>221</ele>
        <time>2016-06-11T07:39:40Z</time>
      </trkpt>
      <trkpt lat="43.61162" lon="1.20174">
        <ele>220</ele>
        <time>2016-06-11T07:39:42Z</time>
      </trkpt>
      <trkpt lat="43.61159" lon="1.20174">
        <ele>220</ele>
        <time>2016-06-11T07:39:44Z</time>
      </trkpt>
      <trkpt lat="43.61156" lon="1.20174">
        <ele>220</ele>
        <time>2016-06-11T07:39:46Z</time>
      </trkpt>
      <trkpt lat="43.6115" lon="1.20172">
        <ele>220</ele>
        <time>2016-06-11T07:39:50Z</time>
      </trkpt>
      <trkpt lat="43.61149" lon="1.2017">
        <ele>220</ele>
        <time>2016-06-11T07:39:52Z</time>
      </trkpt>
      <trkpt lat="43.61147" lon="1.20168">
        <ele>220</ele>
        <time>2016-06-11T07:39:54Z</time>
      </trkpt>
      <trkpt lat="43.61143" lon="1.20165">
        <ele>219</ele>
        <time>2016-06-11T07:39:57Z</time>
      </trkpt>
      <trkpt lat="43.61139" lon="1.20162">
        <ele>219</ele>
        <time>2016-06-11T07:40:01Z</time>
      </trkpt>
      <trkpt lat="43.61136" lon="1.2016">
        <ele>219</ele>
        <time>2016-06-11T07:40:03Z</time>
      </trkpt>
      <trkpt lat="43.6113" lon="1.20155">
        <ele>218</ele>
        <time>2016-06-11T07:40:07Z</time>
      </trkpt>
      <trkpt lat="43.61128" lon="1.20153">
        <ele>218</ele>
        <time>2016-06-11T07:40:09Z</time>
      </trkpt>
      <trkpt lat="43.61123" lon="1.20151">
        <ele>217</ele>
        <time>2016-06-11T07:40:12Z</time>
      </trkpt>
      <trkpt lat="43.61118" lon="1.20149">
        <ele>217</ele>
        <time>2016-06-11T07:40:15Z</time>
      </trkpt>
      <trkpt lat="43.61113" lon="1.20144">
        <ele>217</ele>
        <time>2016-06-11T07:40:19Z</time>
      </trkpt>
      <trkpt lat="43.61107" lon="1.20139">
        <ele>217</ele>
        <time>2016-06-11T07:40:23Z</time>
      </trkpt>
      <trkpt lat="43.61105" lon="1.20136">
        <ele>217</ele>
        <time>2016-06-11T07:40:25Z</time>
      </trkpt>
      <trkpt lat="43.61102" lon="1.20133">
        <ele>217</ele>
        <time>2016-06-11T07:40:27Z</time>
      </trkpt>
      <trkpt lat="43.611" lon="1.20133">
        <ele>217</ele>
        <time>2016-06-11T07:40:28Z</time>
      </trkpt>
      <trkpt lat="43.61099" lon="1.20128">
        <ele>217</ele>
        <time>2016-06-11T07:40:30Z</time>
      </trkpt>
      <trkpt lat="43.61097" lon="1.20126">
        <ele>217</ele>
        <time>2016-06-11T07:40:32Z</time>
      </trkpt>
      <trkpt lat="43.61094" lon="1.2012">
        <ele>217</ele>
        <time>2016-06-11T07:40:36Z</time>
      </trkpt>
      <trkpt lat="43.61088" lon="1.20114">
        <ele>216</ele>
        <time>2016-06-11T07:40:40Z</time>
      </trkpt>
      <trkpt lat="43.61083" lon="1.20108">
        <ele>215</ele>
        <time>2016-06-11T07:40:44Z</time>
      </trkpt>
      <trkpt lat="43.6108" lon="1.20106">
        <ele>214</ele>
        <time>2016-06-11T07:40:46Z</time>
      </trkpt>
      <trkpt lat="43.61076" lon="1.20104">
        <ele>213</ele>
        <time>2016-06-11T07:40:48Z</time>
      </trkpt>
      <trkpt lat="43.61074" lon="1.20102">
        <ele>212</ele>
        <time>2016-06-11T07:40:50Z</time>
      </trkpt>
      <trkpt lat="43.61071" lon="1.201">
        <ele>212</ele>
        <time>2016-06-11T07:40:52Z</time>
      </trkpt>
      <trkpt lat="43.61068" lon="1.20097">
        <ele>211</ele>
        <time>2016-06-11T07:40:54Z</time>
      </trkpt>
      <trkpt lat="43.61065" lon="1.20094">
        <ele>211</ele>
        <time>2016-06-11T07:40:58Z</time>
      </trkpt>
      <trkpt lat="43.61062" lon="1.20093">
        <ele>211</ele>
        <time>2016-06-11T07:41:00Z</time>
      </trkpt>
      <trkpt lat="43.61059" lon="1.2009">
        <ele>211</ele>
        <time>2016-06-11T07:41:03Z</time>
      </trkpt>
      <trkpt lat="43.61055" lon="1.20087">
        <ele>211</ele>
        <time>2016-06-11T07:41:06Z</time>
      </trkpt>
      <trkpt lat="43.61052" lon="1.20083">
        <ele>211</ele>
        <time>2016-06-11T07:41:09Z</time>
      </trkpt>
      <trkpt lat="43.61051" lon="1.20081">
        <ele>211</ele>
        <time>2016-06-11T07:41:10Z</time>
      </trkpt>
      <trkpt lat="43.61049" lon="1.20078">
        <ele>212</ele>
        <time>2016-06-11T07:41:12Z</time>
      </trkpt>
      <trkpt lat="43.61042" lon="1.20074">
        <ele>212</ele>
        <time>2016-06-11T07:41:16Z</time>
      </trkpt>
      <trkpt lat="43.61039" lon="1.20072">
        <ele>212</ele>
        <time>2016-06-11T07:41:18Z</time>
      </trkpt>
      <trkpt lat="43.61038" lon="1.20071">
        <ele>212</ele>
        <time>2016-06-11T07:41:20Z</time>
      </trkpt>
      <trkpt lat="43.61035" lon="1.20068">
        <ele>212</ele>
        <time>2016-06-11T07:41:22Z</time>
      </trkpt>
      <trkpt lat="43.61029" lon="1.20066">
        <ele>212</ele>
        <time>2016-06-11T07:41:26Z</time>
      </trkpt>
      <trkpt lat="43.61027" lon="1.20065">
        <ele>213</ele>
        <time>2016-06-11T07:41:27Z</time>
      </trkpt>
      <trkpt lat="43.61023" lon="1.20061">
        <ele>213</ele>
        <time>2016-06-11T07:41:30Z</time>
      </trkpt>
      <trkpt lat="43.61021" lon="1.20058">
        <ele>213</ele>
        <time>2016-06-11T07:41:32Z</time>
      </trkpt>
      <trkpt lat="43.61018" lon="1.20056">
        <ele>213</ele>
        <time>2016-06-11T07:41:34Z</time>
      </trkpt>
      <trkpt lat="43.61014" lon="1.20052">
        <ele>213</ele>
        <time>2016-06-11T07:41:38Z</time>
      </trkpt>
      <trkpt lat="43.61009" lon="1.20049">
        <ele>213</ele>
        <time>2016-06-11T07:41:42Z</time>
      </trkpt>
      <trkpt lat="43.61005" lon="1.20047">
        <ele>213</ele>
        <time>2016-06-11T07:41:44Z</time>
      </trkpt>
      <trkpt lat="43.61" lon="1.20042">
        <ele>213</ele>
        <time>2016-06-11T07:41:48Z</time>
      </trkpt>
      <trkpt lat="43.60996" lon="1.20038">
        <ele>213</ele>
        <time>2016-06-11T07:41:52Z</time>
      </trkpt>
      <trkpt lat="43.60994" lon="1.20037">
        <ele>213</ele>
        <time>2016-06-11T07:41:54Z</time>
      </trkpt>
      <trkpt lat="43.60989" lon="1.20034">
        <ele>213</ele>
        <time>2016-06-11T07:41:57Z</time>
      </trkpt>
      <trkpt lat="43.60982" lon="1.20028">
        <ele>213</ele>
        <time>2016-06-11T07:42:01Z</time>
      </trkpt>
      <trkpt lat="43.60978" lon="1.20025">
        <ele>212</ele>
        <time>2016-06-11T07:42:04Z</time>
      </trkpt>
      <trkpt lat="43.60976" lon="1.20021">
        <ele>212</ele>
        <time>2016-06-11T07:42:06Z</time>
      </trkpt>
      <trkpt lat="43.60973" lon="1.20019">
        <ele>211</ele>
        <time>2016-06-11T07:42:08Z</time>
      </trkpt>
      <trkpt lat="43.60967" lon="1.20015">
        <ele>211</ele>
        <time>2016-06-11T07:42:12Z</time>
      </trkpt>
      <trkpt lat="43.60965" lon="1.20014">
        <ele>211</ele>
        <time>2016-06-11T07:42:14Z</time>
      </trkpt>
      <trkpt lat="43.60964" lon="1.20013">
        <ele>210</ele>
        <time>2016-06-11T07:42:16Z</time>
      </trkpt>
      <trkpt lat="43.6096" lon="1.20011">
        <ele>210</ele>
        <time>2016-06-11T07:42:18Z</time>
      </trkpt>
      <trkpt lat="43.60957" lon="1.20009">
        <ele>209</ele>
        <time>2016-06-11T07:42:20Z</time>
      </trkpt>
      <trkpt lat="43.60953" lon="1.20006">
        <ele>208</ele>
        <time>2016-06-11T07:42:26Z</time>
      </trkpt>
      <trkpt lat="43.60943" lon="1.20005">
        <ele>206</ele>
        <time>2016-06-11T07:42:39Z</time>
      </trkpt>
      <trkpt lat="43.60942" lon="1.20005">
        <ele>203</ele>
        <time>2016-06-11T07:42:40Z</time>
      </trkpt>
      <trkpt lat="43.60942" lon="1.20005">
        <ele>202</ele>
        <time>2016-06-11T07:42:41Z</time>
      </trkpt>
      <trkpt lat="43.60939" lon="1.20006">
        <ele>200</ele>
        <time>2016-06-11T07:42:45Z</time>
      </trkpt>
      <trkpt lat="43.60937" lon="1.20006">
        <ele>199</ele>
        <time>2016-06-11T07:42:48Z</time>
      </trkpt>
      <trkpt lat="43.60936" lon="1.20006">
        <ele>199</ele>
        <time>2016-06-11T07:42:52Z</time>
      </trkpt>
      <trkpt lat="43.60934" lon="1.20005">
        <ele>199</ele>
        <time>2016-06-11T07:42:54Z</time>
      </trkpt>
      <trkpt lat="43.60931" lon="1.20003">
        <ele>199</ele>
        <time>2016-06-11T07:42:56Z</time>
      </trkpt>
      <trkpt lat="43.6093" lon="1.20001">
        <ele>199</ele>
        <time>2016-06-11T07:42:58Z</time>
      </trkpt>
      <trkpt lat="43.60927" lon="1.20001">
        <ele>199</ele>
        <time>2016-06-11T07:43:00Z</time>
      </trkpt>
      <trkpt lat="43.60926" lon="1.2">
        <ele>199</ele>
        <time>2016-06-11T07:43:01Z</time>
      </trkpt>
      <trkpt lat="43.60923" lon="1.19999">
        <ele>199</ele>
        <time>2016-06-11T07:43:03Z</time>
      </trkpt>
      <trkpt lat="43.60918" lon="1.19995">
        <ele>199</ele>
        <time>2016-06-11T07:43:07Z</time>
      </trkpt>
      <trkpt lat="43.60916" lon="1.19994">
        <ele>199</ele>
        <time>2016-06-11T07:43:08Z</time>
      </trkpt>
      <trkpt lat="43.60911" lon="1.1999">
        <ele>199</ele>
        <time>2016-06-11T07:43:12Z</time>
      </trkpt>
      <trkpt lat="43.60909" lon="1.19988">
        <ele>199</ele>
        <time>2016-06-11T07:43:14Z</time>
      </trkpt>
      <trkpt lat="43.60907" lon="1.19987">
        <ele>199</ele>
        <time>2016-06-11T07:43:15Z</time>
      </trkpt>
      <trkpt lat="43.60906" lon="1.19986">
        <ele>199</ele>
        <time>2016-06-11T07:43:16Z</time>
      </trkpt>
      <trkpt lat="43.60905" lon="1.19985">
        <ele>199</ele>
        <time>2016-06-11T07:43:17Z</time>
      </trkpt>
      <trkpt lat="43.60901" lon="1.19982">
        <ele>199</ele>
        <time>2016-06-11T07:43:19Z</time>
      </trkpt>
      <trkpt lat="43.609" lon="1.19981">
        <ele>199</ele>
        <time>2016-06-11T07:43:20Z</time>
      </trkpt>
      <trkpt lat="43.60897" lon="1.1998">
        <ele>199</ele>
        <time>2016-06-11T07:43:22Z</time>
      </trkpt>
      <trkpt lat="43.60895" lon="1.19978">
        <ele>199</ele>
        <time>2016-06-11T07:43:24Z</time>
      </trkpt>
      <trkpt lat="43.60893" lon="1.19976">
        <ele>199</ele>
        <time>2016-06-11T07:43:26Z</time>
      </trkpt>
      <trkpt lat="43.60891" lon="1.19975">
        <ele>199</ele>
        <time>2016-06-11T07:43:28Z</time>
      </trkpt>
      <trkpt lat="43.60888" lon="1.19971">
        <ele>199</ele>
        <time>2016-06-11T07:43:30Z</time>
      </trkpt>
      <trkpt lat="43.60885" lon="1.19969">
        <ele>199</ele>
        <time>2016-06-11T07:43:32Z</time>
      </trkpt>
      <trkpt lat="43.60881" lon="1.19968">
        <ele>199</ele>
        <time>2016-06-11T07:43:34Z</time>
      </trkpt>
      <trkpt lat="43.60878" lon="1.19966">
        <ele>199</ele>
        <time>2016-06-11T07:43:36Z</time>
      </trkpt>
      <trkpt lat="43.60877" lon="1.19965">
        <ele>199</ele>
        <time>2016-06-11T07:43:37Z</time>
      </trkpt>
      <trkpt lat="43.60875" lon="1.19964">
        <ele>200</ele>
        <time>2016-06-11T07:43:38Z</time>
      </trkpt>
      <trkpt lat="43.60873" lon="1.19961">
        <ele>200</ele>
        <time>2016-06-11T07:43:40Z</time>
      </trkpt>
      <trkpt lat="43.60871" lon="1.19959">
        <ele>200</ele>
        <time>2016-06-11T07:43:42Z</time>
      </trkpt>
      <trkpt lat="43.60869" lon="1.19957">
        <ele>200</ele>
        <time>2016-06-11T07:43:44Z</time>
      </trkpt>
      <trkpt lat="43.60865" lon="1.19954">
        <ele>201</ele>
        <time>2016-06-11T07:43:46Z</time>
      </trkpt>
      <trkpt lat="43.60863" lon="1.19952">
        <ele>201</ele>
        <time>2016-06-11T07:43:48Z</time>
      </trkpt>
      <trkpt lat="43.6086" lon="1.1995">
        <ele>201</ele>
        <time>2016-06-11T07:43:50Z</time>
      </trkpt>
      <trkpt lat="43.60858" lon="1.19948">
        <ele>201</ele>
        <time>2016-06-11T07:43:52Z</time>
      </trkpt>
      <trkpt lat="43.60856" lon="1.19945">
        <ele>201</ele>
        <time>2016-06-11T07:43:54Z</time>
      </trkpt>
      <trkpt lat="43.60854" lon="1.19944">
        <ele>201</ele>
        <time>2016-06-11T07:43:55Z</time>
      </trkpt>
      <trkpt lat="43.60853" lon="1.19943">
        <ele>201</ele>
        <time>2016-06-11T07:43:56Z</time>
      </trkpt>
      <trkpt lat="43.60848" lon="1.19939">
        <ele>202</ele>
        <time>2016-06-11T07:43:59Z</time>
      </trkpt>
      <trkpt lat="43.60846" lon="1.19938">
        <ele>202</ele>
        <time>2016-06-11T07:44:00Z</time>
      </trkpt>
      <trkpt lat="43.60843" lon="1.19936">
        <ele>202</ele>
        <time>2016-06-11T07:44:02Z</time>
      </trkpt>
      <trkpt lat="43.60842" lon="1.19935">
        <ele>202</ele>
        <time>2016-06-11T07:44:03Z</time>
      </trkpt>
      <trkpt lat="43.60841" lon="1.19934">
        <ele>202</ele>
        <time>2016-06-11T07:44:04Z</time>
      </trkpt>
      <trkpt lat="43.6084" lon="1.19933">
        <ele>202</ele>
        <time>2016-06-11T07:44:05Z</time>
      </trkpt>
      <trkpt lat="43.60835" lon="1.1993">
        <ele>202</ele>
        <time>2016-06-11T07:44:08Z</time>
      </trkpt>
      <trkpt lat="43.60832" lon="1.19928">
        <ele>202</ele>
        <time>2016-06-11T07:44:10Z</time>
      </trkpt>
      <trkpt lat="43.6083" lon="1.19926">
        <ele>202</ele>
        <time>2016-06-11T07:44:12Z</time>
      </trkpt>
      <trkpt lat="43.60827" lon="1.19923">
        <ele>202</ele>
        <time>2016-06-11T07:44:14Z</time>
      </trkpt>
      <trkpt lat="43.60825" lon="1.19922">
        <ele>202</ele>
        <time>2016-06-11T07:44:15Z</time>
      </trkpt>
      <trkpt lat="43.60823" lon="1.19919">
        <ele>202</ele>
        <time>2016-06-11T07:44:17Z</time>
      </trkpt>
      <trkpt lat="43.60822" lon="1.19918">
        <ele>202</ele>
        <time>2016-06-11T07:44:18Z</time>
      </trkpt>
      <trkpt lat="43.60819" lon="1.19916">
        <ele>203</ele>
        <time>2016-06-11T07:44:20Z</time>
      </trkpt>
      <trkpt lat="43.60817" lon="1.19914">
        <ele>203</ele>
        <time>2016-06-11T07:44:22Z</time>
      </trkpt>
      <trkpt lat="43.60812" lon="1.1991">
        <ele>204</ele>
        <time>2016-06-11T07:44:25Z</time>
      </trkpt>
      <trkpt lat="43.60809" lon="1.19909">
        <ele>204</ele>
        <time>2016-06-11T07:44:27Z</time>
      </trkpt>
      <trkpt lat="43.60806" lon="1.19905">
        <ele>204</ele>
        <time>2016-06-11T07:44:30Z</time>
      </trkpt>
      <trkpt lat="43.608" lon="1.199">
        <ele>204</ele>
        <time>2016-06-11T07:44:34Z</time>
      </trkpt>
      <trkpt lat="43.60799" lon="1.19897">
        <ele>205</ele>
        <time>2016-06-11T07:44:36Z</time>
      </trkpt>
      <trkpt lat="43.60798" lon="1.19896">
        <ele>205</ele>
        <time>2016-06-11T07:44:37Z</time>
      </trkpt>
      <trkpt lat="43.60794" lon="1.19894">
        <ele>205</ele>
        <time>2016-06-11T07:44:39Z</time>
      </trkpt>
      <trkpt lat="43.60793" lon="1.19892">
        <ele>205</ele>
        <time>2016-06-11T07:44:40Z</time>
      </trkpt>
      <trkpt lat="43.60791" lon="1.19891">
        <ele>204</ele>
        <time>2016-06-11T07:44:41Z</time>
      </trkpt>
      <trkpt lat="43.60789" lon="1.19889">
        <ele>204</ele>
        <time>2016-06-11T07:44:43Z</time>
      </trkpt>
      <trkpt lat="43.60788" lon="1.19888">
        <ele>204</ele>
        <time>2016-06-11T07:44:44Z</time>
      </trkpt>
      <trkpt lat="43.60785" lon="1.19886">
        <ele>204</ele>
        <time>2016-06-11T07:44:46Z</time>
      </trkpt>
      <trkpt lat="43.60782" lon="1.19884">
        <ele>204</ele>
        <time>2016-06-11T07:44:48Z</time>
      </trkpt>
      <trkpt lat="43.60778" lon="1.19882">
        <ele>204</ele>
        <time>2016-06-11T07:44:50Z</time>
      </trkpt>
      <trkpt lat="43.60777" lon="1.19881">
        <ele>204</ele>
        <time>2016-06-11T07:44:51Z</time>
      </trkpt>
      <trkpt lat="43.60775" lon="1.19881">
        <ele>203</ele>
        <time>2016-06-11T07:44:52Z</time>
      </trkpt>
      <trkpt lat="43.60774" lon="1.1988">
        <ele>203</ele>
        <time>2016-06-11T07:44:53Z</time>
      </trkpt>
      <trkpt lat="43.60771" lon="1.19878">
        <ele>203</ele>
        <time>2016-06-11T07:44:55Z</time>
      </trkpt>
      <trkpt lat="43.60768" lon="1.19876">
        <ele>203</ele>
        <time>2016-06-11T07:44:57Z</time>
      </trkpt>
      <trkpt lat="43.60767" lon="1.19875">
        <ele>203</ele>
        <time>2016-06-11T07:44:58Z</time>
      </trkpt>
      <trkpt lat="43.60764" lon="1.19873">
        <ele>203</ele>
        <time>2016-06-11T07:45:00Z</time>
      </trkpt>
      <trkpt lat="43.60762" lon="1.19872">
        <ele>202</ele>
        <time>2016-06-11T07:45:01Z</time>
      </trkpt>
      <trkpt lat="43.6076" lon="1.1987">
        <ele>202</ele>
        <time>2016-06-11T07:45:03Z</time>
      </trkpt>
      <trkpt lat="43.60758" lon="1.19867">
        <ele>202</ele>
        <time>2016-06-11T07:45:05Z</time>
      </trkpt>
      <trkpt lat="43.60755" lon="1.19866">
        <ele>201</ele>
        <time>2016-06-11T07:45:07Z</time>
      </trkpt>
      <trkpt lat="43.60752" lon="1.19863">
        <ele>201</ele>
        <time>2016-06-11T07:45:09Z</time>
      </trkpt>
      <trkpt lat="43.60749" lon="1.19861">
        <ele>201</ele>
        <time>2016-06-11T07:45:11Z</time>
      </trkpt>
      <trkpt lat="43.60749" lon="1.19861">
        <ele>200</ele>
        <time>2016-06-11T07:45:12Z</time>
      </trkpt>
      <trkpt lat="43.60747" lon="1.1986">
        <ele>200</ele>
        <time>2016-06-11T07:45:13Z</time>
      </trkpt>
      <trkpt lat="43.60745" lon="1.19858">
        <ele>200</ele>
        <time>2016-06-11T07:45:15Z</time>
      </trkpt>
      <trkpt lat="43.60743" lon="1.19857">
        <ele>200</ele>
        <time>2016-06-11T07:45:16Z</time>
      </trkpt>
      <trkpt lat="43.6074" lon="1.19855">
        <ele>200</ele>
        <time>2016-06-11T07:45:18Z</time>
      </trkpt>
      <trkpt lat="43.60738" lon="1.19853">
        <ele>199</ele>
        <time>2016-06-11T07:45:20Z</time>
      </trkpt>
      <trkpt lat="43.60735" lon="1.19851">
        <ele>199</ele>
        <time>2016-06-11T07:45:22Z</time>
      </trkpt>
      <trkpt lat="43.60733" lon="1.1985">
        <ele>199</ele>
        <time>2016-06-11T07:45:23Z</time>
      </trkpt>
      <trkpt lat="43.60731" lon="1.19847">
        <ele>198</ele>
        <time>2016-06-11T07:45:25Z</time>
      </trkpt>
      <trkpt lat="43.6073" lon="1.19845">
        <ele>198</ele>
        <time>2016-06-11T07:45:27Z</time>
      </trkpt>
      <trkpt lat="43.60729" lon="1.19844">
        <ele>197</ele>
        <time>2016-06-11T07:45:28Z</time>
      </trkpt>
      <trkpt lat="43.60726" lon="1.19841">
        <ele>197</ele>
        <time>2016-06-11T07:45:30Z</time>
      </trkpt>
      <trkpt lat="43.60725" lon="1.1984">
        <ele>196</ele>
        <time>2016-06-11T07:45:31Z</time>
      </trkpt>
      <trkpt lat="43.60722" lon="1.19838">
        <ele>196</ele>
        <time>2016-06-11T07:45:33Z</time>
      </trkpt>
      <trkpt lat="43.60719" lon="1.19836">
        <ele>196</ele>
        <time>2016-06-11T07:45:35Z</time>
      </trkpt>
      <trkpt lat="43.60716" lon="1.19834">
        <ele>195</ele>
        <time>2016-06-11T07:45:37Z</time>
      </trkpt>
      <trkpt lat="43.60713" lon="1.19832">
        <ele>195</ele>
        <time>2016-06-11T07:45:39Z</time>
      </trkpt>
      <trkpt lat="43.60712" lon="1.19831">
        <ele>194</ele>
        <time>2016-06-11T07:45:40Z</time>
      </trkpt>
      <trkpt lat="43.60709" lon="1.19829">
        <ele>193</ele>
        <time>2016-06-11T07:45:42Z</time>
      </trkpt>
      <trkpt lat="43.60708" lon="1.19828">
        <ele>193</ele>
        <time>2016-06-11T07:45:43Z</time>
      </trkpt>
      <trkpt lat="43.60705" lon="1.19826">
        <ele>192</ele>
        <time>2016-06-11T07:45:45Z</time>
      </trkpt>
      <trkpt lat="43.60702" lon="1.19824">
        <ele>192</ele>
        <time>2016-06-11T07:45:47Z</time>
      </trkpt>
      <trkpt lat="43.607" lon="1.19822">
        <ele>192</ele>
        <time>2016-06-11T07:45:49Z</time>
      </trkpt>
      <trkpt lat="43.60698" lon="1.19821">
        <ele>191</ele>
        <time>2016-06-11T07:45:50Z</time>
      </trkpt>
      <trkpt lat="43.60696" lon="1.1982">
        <ele>191</ele>
        <time>2016-06-11T07:45:51Z</time>
      </trkpt>
      <trkpt lat="43.60695" lon="1.19819">
        <ele>191</ele>
        <time>2016-06-11T07:45:52Z</time>
      </trkpt>
      <trkpt lat="43.60694" lon="1.19818">
        <ele>191</ele>
        <time>2016-06-11T07:45:53Z</time>
      </trkpt>
      <trkpt lat="43.60691" lon="1.19815">
        <ele>190</ele>
        <time>2016-06-11T07:45:55Z</time>
      </trkpt>
      <trkpt lat="43.60688" lon="1.19813">
        <ele>190</ele>
        <time>2016-06-11T07:45:57Z</time>
      </trkpt>
      <trkpt lat="43.60685" lon="1.19811">
        <ele>189</ele>
        <time>2016-06-11T07:45:59Z</time>
      </trkpt>
      <trkpt lat="43.60683" lon="1.19809">
        <ele>188</ele>
        <time>2016-06-11T07:46:01Z</time>
      </trkpt>
      <trkpt lat="43.6068" lon="1.19807">
        <ele>187</ele>
        <time>2016-06-11T07:46:03Z</time>
      </trkpt>
      <trkpt lat="43.60679" lon="1.19806">
        <ele>186</ele>
        <time>2016-06-11T07:46:04Z</time>
      </trkpt>
      <trkpt lat="43.60676" lon="1.19803">
        <ele>186</ele>
        <time>2016-06-11T07:46:06Z</time>
      </trkpt>
      <trkpt lat="43.60675" lon="1.19802">
        <ele>185</ele>
        <time>2016-06-11T07:46:07Z</time>
      </trkpt>
      <trkpt lat="43.60672" lon="1.198">
        <ele>184</ele>
        <time>2016-06-11T07:46:09Z</time>
      </trkpt>
      <trkpt lat="43.60671" lon="1.19799">
        <ele>184</ele>
        <time>2016-06-11T07:46:10Z</time>
      </trkpt>
      <trkpt lat="43.60669" lon="1.19798">
        <ele>184</ele>
        <time>2016-06-11T07:46:11Z</time>
      </trkpt>
      <trkpt lat="43.60667" lon="1.19796">
        <ele>183</ele>
        <time>2016-06-11T07:46:13Z</time>
      </trkpt>
      <trkpt lat="43.60664" lon="1.19794">
        <ele>183</ele>
        <time>2016-06-11T07:46:15Z</time>
      </trkpt>
      <trkpt lat="43.60661" lon="1.19792">
        <ele>183</ele>
        <time>2016-06-11T07:46:17Z</time>
      </trkpt>
      <trkpt lat="43.6066" lon="1.19791">
        <ele>182</ele>
        <time>2016-06-11T07:46:18Z</time>
      </trkpt>
      <trkpt lat="43.60656" lon="1.19788">
        <ele>182</ele>
        <time>2016-06-11T07:46:20Z</time>
      </trkpt>
      <trkpt lat="43.60654" lon="1.19786">
        <ele>182</ele>
        <time>2016-06-11T07:46:22Z</time>
      </trkpt>
      <trkpt lat="43.60651" lon="1.19783">
        <ele>181</ele>
        <time>2016-06-11T07:46:24Z</time>
      </trkpt>
      <trkpt lat="43.60648" lon="1.19781">
        <ele>181</ele>
        <time>2016-06-11T07:46:26Z</time>
      </trkpt>
      <trkpt lat="43.60642" lon="1.19775">
        <ele>180</ele>
        <time>2016-06-11T07:46:31Z</time>
      </trkpt>
      <trkpt lat="43.6064" lon="1.19774">
        <ele>180</ele>
        <time>2016-06-11T07:46:32Z</time>
      </trkpt>
      <trkpt lat="43.60639" lon="1.19773">
        <ele>180</ele>
        <time>2016-06-11T07:46:33Z</time>
      </trkpt>
      <trkpt lat="43.60637" lon="1.19771">
        <ele>180</ele>
        <time>2016-06-11T07:46:35Z</time>
      </trkpt>
      <trkpt lat="43.60634" lon="1.19769">
        <ele>180</ele>
        <time>2016-06-11T07:46:37Z</time>
      </trkpt>
      <trkpt lat="43.60631" lon="1.19767">
        <ele>181</ele>
        <time>2016-06-11T07:46:39Z</time>
      </trkpt>
      <trkpt lat="43.6063" lon="1.19766">
        <ele>181</ele>
        <time>2016-06-11T07:46:40Z</time>
      </trkpt>
      <trkpt lat="43.60627" lon="1.19764">
        <ele>181</ele>
        <time>2016-06-11T07:46:42Z</time>
      </trkpt>
      <trkpt lat="43.60626" lon="1.19763">
        <ele>181</ele>
        <time>2016-06-11T07:46:43Z</time>
      </trkpt>
      <trkpt lat="43.60624" lon="1.19762">
        <ele>181</ele>
        <time>2016-06-11T07:46:44Z</time>
      </trkpt>
      <trkpt lat="43.60622" lon="1.1976">
        <ele>181</ele>
        <time>2016-06-11T07:46:46Z</time>
      </trkpt>
      <trkpt lat="43.60619" lon="1.19758">
        <ele>181</ele>
        <time>2016-06-11T07:46:48Z</time>
      </trkpt>
      <trkpt lat="43.60617" lon="1.19757">
        <ele>181</ele>
        <time>2016-06-11T07:46:49Z</time>
      </trkpt>
      <trkpt lat="43.60615" lon="1.19755">
        <ele>181</ele>
        <time>2016-06-11T07:46:51Z</time>
      </trkpt>
      <trkpt lat="43.60614" lon="1.19754">
        <ele>181</ele>
        <time>2016-06-11T07:46:52Z</time>
      </trkpt>
      <trkpt lat="43.60612" lon="1.19753">
        <ele>182</ele>
        <time>2016-06-11T07:46:53Z</time>
      </trkpt>
      <trkpt lat="43.60609" lon="1.1975">
        <ele>182</ele>
        <time>2016-06-11T07:46:55Z</time>
      </trkpt>
      <trkpt lat="43.60607" lon="1.19748">
        <ele>182</ele>
        <time>2016-06-11T07:46:57Z</time>
      </trkpt>
      <trkpt lat="43.60606" lon="1.19747">
        <ele>182</ele>
        <time>2016-06-11T07:46:58Z</time>
      </trkpt>
      <trkpt lat="43.60603" lon="1.19745">
        <ele>182</ele>
        <time>2016-06-11T07:47:00Z</time>
      </trkpt>
      <trkpt lat="43.60601" lon="1.19744">
        <ele>182</ele>
        <time>2016-06-11T07:47:01Z</time>
      </trkpt>
      <trkpt lat="43.60599" lon="1.19742">
        <ele>182</ele>
        <time>2016-06-11T07:47:03Z</time>
      </trkpt>
      <trkpt lat="43.60598" lon="1.1974">
        <ele>183</ele>
        <time>2016-06-11T07:47:04Z</time>
      </trkpt>
      <trkpt lat="43.60595" lon="1.19738">
        <ele>183</ele>
        <time>2016-06-11T07:47:06Z</time>
      </trkpt>
      <trkpt lat="43.60592" lon="1.19736">
        <ele>183</ele>
        <time>2016-06-11T07:47:08Z</time>
      </trkpt>
      <trkpt lat="43.6059" lon="1.19734">
        <ele>183</ele>
        <time>2016-06-11T07:47:10Z</time>
      </trkpt>
      <trkpt lat="43.60588" lon="1.19733">
        <ele>183</ele>
        <time>2016-06-11T07:47:11Z</time>
      </trkpt>
      <trkpt lat="43.60585" lon="1.19731">
        <ele>184</ele>
        <time>2016-06-11T07:47:13Z</time>
      </trkpt>
      <trkpt lat="43.60583" lon="1.19729">
        <ele>184</ele>
        <time>2016-06-11T07:47:15Z</time>
      </trkpt>
      <trkpt lat="43.60582" lon="1.19728">
        <ele>184</ele>
        <time>2016-06-11T07:47:16Z</time>
      </trkpt>
      <trkpt lat="43.6058" lon="1.19727">
        <ele>184</ele>
        <time>2016-06-11T07:47:17Z</time>
      </trkpt>
      <trkpt lat="43.60578" lon="1.19726">
        <ele>184</ele>
        <time>2016-06-11T07:47:19Z</time>
      </trkpt>
      <trkpt lat="43.60575" lon="1.19724">
        <ele>184</ele>
        <time>2016-06-11T07:47:21Z</time>
      </trkpt>
      <trkpt lat="43.60572" lon="1.19722">
        <ele>184</ele>
        <time>2016-06-11T07:47:23Z</time>
      </trkpt>
      <trkpt lat="43.60571" lon="1.19721">
        <ele>185</ele>
        <time>2016-06-11T07:47:24Z</time>
      </trkpt>
      <trkpt lat="43.60569" lon="1.19719">
        <ele>185</ele>
        <time>2016-06-11T07:47:26Z</time>
      </trkpt>
      <trkpt lat="43.60568" lon="1.19718">
        <ele>185</ele>
        <time>2016-06-11T07:47:27Z</time>
      </trkpt>
      <trkpt lat="43.60565" lon="1.19716">
        <ele>185</ele>
        <time>2016-06-11T07:47:29Z</time>
      </trkpt>
      <trkpt lat="43.60563" lon="1.19714">
        <ele>186</ele>
        <time>2016-06-11T07:47:31Z</time>
      </trkpt>
      <trkpt lat="43.60561" lon="1.19713">
        <ele>186</ele>
        <time>2016-06-11T07:47:32Z</time>
      </trkpt>
      <trkpt lat="43.6056" lon="1.19712">
        <ele>186</ele>
        <time>2016-06-11T07:47:33Z</time>
      </trkpt>
      <trkpt lat="43.60558" lon="1.1971">
        <ele>187</ele>
        <time>2016-06-11T07:47:35Z</time>
      </trkpt>
      <trkpt lat="43.60555" lon="1.19708">
        <ele>187</ele>
        <time>2016-06-11T07:47:37Z</time>
      </trkpt>
      <trkpt lat="43.60553" lon="1.19705">
        <ele>187</ele>
        <time>2016-06-11T07:47:39Z</time>
      </trkpt>
      <trkpt lat="43.60552" lon="1.19704">
        <ele>187</ele>
        <time>2016-06-11T07:47:40Z</time>
      </trkpt>
      <trkpt lat="43.60549" lon="1.19702">
        <ele>188</ele>
        <time>2016-06-11T07:47:42Z</time>
      </trkpt>
      <trkpt lat="43.60548" lon="1.19701">
        <ele>188</ele>
        <time>2016-06-11T07:47:43Z</time>
      </trkpt>
      <trkpt lat="43.60546" lon="1.19699">
        <ele>188</ele>
        <time>2016-06-11T07:47:45Z</time>
      </trkpt>
      <trkpt lat="43.60545" lon="1.19699">
        <ele>188</ele>
        <time>2016-06-11T07:47:46Z</time>
      </trkpt>
      <trkpt lat="43.60542" lon="1.19697">
        <ele>189</ele>
        <time>2016-06-11T07:47:48Z</time>
      </trkpt>
      <trkpt lat="43.60539" lon="1.19695">
        <ele>189</ele>
        <time>2016-06-11T07:47:50Z</time>
      </trkpt>
      <trkpt lat="43.60538" lon="1.19694">
        <ele>189</ele>
        <time>2016-06-11T07:47:51Z</time>
      </trkpt>
      <trkpt lat="43.60537" lon="1.19693">
        <ele>190</ele>
        <time>2016-06-11T07:47:52Z</time>
      </trkpt>
      <trkpt lat="43.60536" lon="1.19692">
        <ele>190</ele>
        <time>2016-06-11T07:47:53Z</time>
      </trkpt>
      <trkpt lat="43.60534" lon="1.1969">
        <ele>190</ele>
        <time>2016-06-11T07:47:55Z</time>
      </trkpt>
      <trkpt lat="43.60533" lon="1.19689">
        <ele>191</ele>
        <time>2016-06-11T07:47:56Z</time>
      </trkpt>
      <trkpt lat="43.6053" lon="1.19687">
        <ele>191</ele>
        <time>2016-06-11T07:47:58Z</time>
      </trkpt>
      <trkpt lat="43.60528" lon="1.19685">
        <ele>191</ele>
        <time>2016-06-11T07:48:01Z</time>
      </trkpt>
      <trkpt lat="43.60525" lon="1.19683">
        <ele>191</ele>
        <time>2016-06-11T07:48:03Z</time>
      </trkpt>
      <trkpt lat="43.60523" lon="1.19681">
        <ele>191</ele>
        <time>2016-06-11T07:48:05Z</time>
      </trkpt>
      <trkpt lat="43.60521" lon="1.19679">
        <ele>192</ele>
        <time>2016-06-11T07:48:07Z</time>
      </trkpt>
      <trkpt lat="43.60519" lon="1.19677">
        <ele>192</ele>
        <time>2016-06-11T07:48:09Z</time>
      </trkpt>
      <trkpt lat="43.60516" lon="1.19676">
        <ele>192</ele>
        <time>2016-06-11T07:48:11Z</time>
      </trkpt>
      <trkpt lat="43.60513" lon="1.19674">
        <ele>192</ele>
        <time>2016-06-11T07:48:13Z</time>
      </trkpt>
      <trkpt lat="43.60511" lon="1.19672">
        <ele>192</ele>
        <time>2016-06-11T07:48:15Z</time>
      </trkpt>
      <trkpt lat="43.60511" lon="1.1967">
        <ele>192</ele>
        <time>2016-06-11T07:48:16Z</time>
      </trkpt>
      <trkpt lat="43.60508" lon="1.19668">
        <ele>192</ele>
        <time>2016-06-11T07:48:18Z</time>
      </trkpt>
      <trkpt lat="43.60507" lon="1.19664">
        <ele>192</ele>
        <time>2016-06-11T07:48:20Z</time>
      </trkpt>
      <trkpt lat="43.60507" lon="1.1966">
        <ele>192</ele>
        <time>2016-06-11T07:48:22Z</time>
      </trkpt>
      <trkpt lat="43.60507" lon="1.19656">
        <ele>192</ele>
        <time>2016-06-11T07:48:24Z</time>
      </trkpt>
      <trkpt lat="43.60508" lon="1.19653">
        <ele>192</ele>
        <time>2016-06-11T07:48:26Z</time>
      </trkpt>
      <trkpt lat="43.6051" lon="1.1965">
        <ele>192</ele>
        <time>2016-06-11T07:48:28Z</time>
      </trkpt>
      <trkpt lat="43.60511" lon="1.19647">
        <ele>192</ele>
        <time>2016-06-11T07:48:30Z</time>
      </trkpt>
      <trkpt lat="43.60512" lon="1.19644">
        <ele>193</ele>
        <time>2016-06-11T07:48:32Z</time>
      </trkpt>
      <trkpt lat="43.60513" lon="1.19641">
        <ele>193</ele>
        <time>2016-06-11T07:48:34Z</time>
      </trkpt>
      <trkpt lat="43.60514" lon="1.19639">
        <ele>193</ele>
        <time>2016-06-11T07:48:36Z</time>
      </trkpt>
      <trkpt lat="43.60515" lon="1.19636">
        <ele>193</ele>
        <time>2016-06-11T07:48:38Z</time>
      </trkpt>
      <trkpt lat="43.60515" lon="1.19633">
        <ele>193</ele>
        <time>2016-06-11T07:48:40Z</time>
      </trkpt>
      <trkpt lat="43.60516" lon="1.19629">
        <ele>194</ele>
        <time>2016-06-11T07:48:42Z</time>
      </trkpt>
      <trkpt lat="43.60515" lon="1.19624">
        <ele>194</ele>
        <time>2016-06-11T07:48:44Z</time>
      </trkpt>
      <trkpt lat="43.60515" lon="1.19621">
        <ele>194</ele>
        <time>2016-06-11T07:48:46Z</time>
      </trkpt>
      <trkpt lat="43.60516" lon="1.19619">
        <ele>194</ele>
        <time>2016-06-11T07:48:47Z</time>
      </trkpt>
      <trkpt lat="43.60518" lon="1.19615">
        <ele>195</ele>
        <time>2016-06-11T07:48:49Z</time>
      </trkpt>
      <trkpt lat="43.60519" lon="1.19613">
        <ele>195</ele>
        <time>2016-06-11T07:48:51Z</time>
      </trkpt>
      <trkpt lat="43.60521" lon="1.19611">
        <ele>196</ele>
        <time>2016-06-11T07:48:52Z</time>
      </trkpt>
      <trkpt lat="43.60522" lon="1.19609">
        <ele>196</ele>
        <time>2016-06-11T07:48:53Z</time>
      </trkpt>
      <trkpt lat="43.60524" lon="1.19606">
        <ele>197</ele>
        <time>2016-06-11T07:48:56Z</time>
      </trkpt>
      <trkpt lat="43.60527" lon="1.19602">
        <ele>198</ele>
        <time>2016-06-11T07:48:59Z</time>
      </trkpt>
      <trkpt lat="43.60527" lon="1.196">
        <ele>198</ele>
        <time>2016-06-11T07:49:00Z</time>
      </trkpt>
      <trkpt lat="43.60528" lon="1.19599">
        <ele>199</ele>
        <time>2016-06-11T07:49:01Z</time>
      </trkpt>
      <trkpt lat="43.6053" lon="1.19596">
        <ele>200</ele>
        <time>2016-06-11T07:49:03Z</time>
      </trkpt>
      <trkpt lat="43.60531" lon="1.19594">
        <ele>201</ele>
        <time>2016-06-11T07:49:04Z</time>
      </trkpt>
      <trkpt lat="43.60533" lon="1.19591">
        <ele>201</ele>
        <time>2016-06-11T07:49:06Z</time>
      </trkpt>
      <trkpt lat="43.60534" lon="1.19589">
        <ele>202</ele>
        <time>2016-06-11T07:49:08Z</time>
      </trkpt>
      <trkpt lat="43.60535" lon="1.19586">
        <ele>203</ele>
        <time>2016-06-11T07:49:10Z</time>
      </trkpt>
      <trkpt lat="43.60535" lon="1.19585">
        <ele>203</ele>
        <time>2016-06-11T07:49:11Z</time>
      </trkpt>
      <trkpt lat="43.60536" lon="1.19582">
        <ele>204</ele>
        <time>2016-06-11T07:49:13Z</time>
      </trkpt>
      <trkpt lat="43.60539" lon="1.19577">
        <ele>205</ele>
        <time>2016-06-11T07:49:15Z</time>
      </trkpt>
      <trkpt lat="43.6054" lon="1.19574">
        <ele>205</ele>
        <time>2016-06-11T07:49:17Z</time>
      </trkpt>
      <trkpt lat="43.6054" lon="1.1957">
        <ele>206</ele>
        <time>2016-06-11T07:49:19Z</time>
      </trkpt>
      <trkpt lat="43.6054" lon="1.19566">
        <ele>207</ele>
        <time>2016-06-11T07:49:21Z</time>
      </trkpt>
      <trkpt lat="43.60542" lon="1.19563">
        <ele>207</ele>
        <time>2016-06-11T07:49:23Z</time>
      </trkpt>
      <trkpt lat="43.60543" lon="1.19559">
        <ele>208</ele>
        <time>2016-06-11T07:49:25Z</time>
      </trkpt>
      <trkpt lat="43.60546" lon="1.19556">
        <ele>208</ele>
        <time>2016-06-11T07:49:27Z</time>
      </trkpt>
      <trkpt lat="43.60548" lon="1.19553">
        <ele>209</ele>
        <time>2016-06-11T07:49:29Z</time>
      </trkpt>
      <trkpt lat="43.6055" lon="1.19551">
        <ele>210</ele>
        <time>2016-06-11T07:49:31Z</time>
      </trkpt>
      <trkpt lat="43.60552" lon="1.19548">
        <ele>211</ele>
        <time>2016-06-11T07:49:33Z</time>
      </trkpt>
      <trkpt lat="43.60555" lon="1.19544">
        <ele>212</ele>
        <time>2016-06-11T07:49:35Z</time>
      </trkpt>
      <trkpt lat="43.60555" lon="1.19543">
        <ele>212</ele>
        <time>2016-06-11T07:49:36Z</time>
      </trkpt>
      <trkpt lat="43.60555" lon="1.19541">
        <ele>213</ele>
        <time>2016-06-11T07:49:38Z</time>
      </trkpt>
      <trkpt lat="43.60557" lon="1.19538">
        <ele>213</ele>
        <time>2016-06-11T07:49:40Z</time>
      </trkpt>
      <trkpt lat="43.60557" lon="1.19534">
        <ele>214</ele>
        <time>2016-06-11T07:49:42Z</time>
      </trkpt>
      <trkpt lat="43.60558" lon="1.19531">
        <ele>215</ele>
        <time>2016-06-11T07:49:44Z</time>
      </trkpt>
      <trkpt lat="43.60561" lon="1.19528">
        <ele>216</ele>
        <time>2016-06-11T07:49:46Z</time>
      </trkpt>
      <trkpt lat="43.60562" lon="1.19521">
        <ele>217</ele>
        <time>2016-06-11T07:49:49Z</time>
      </trkpt>
      <trkpt lat="43.60563" lon="1.19517">
        <ele>217</ele>
        <time>2016-06-11T07:49:50Z</time>
      </trkpt>
      <trkpt lat="43.60563" lon="1.19515">
        <ele>218</ele>
        <time>2016-06-11T07:49:51Z</time>
      </trkpt>
      <trkpt lat="43.60562" lon="1.19514">
        <ele>217</ele>
        <time>2016-06-11T07:49:52Z</time>
      </trkpt>
      <trkpt lat="43.60562" lon="1.19513">
        <ele>217</ele>
        <time>2016-06-11T07:49:53Z</time>
      </trkpt>
      <trkpt lat="43.60562" lon="1.19511">
        <ele>216</ele>
        <time>2016-06-11T07:49:55Z</time>
      </trkpt>
      <trkpt lat="43.60561" lon="1.19511">
        <ele>216</ele>
        <time>2016-06-11T07:49:57Z</time>
      </trkpt>
      <trkpt lat="43.60561" lon="1.19511">
        <ele>216</ele>
        <time>2016-06-11T07:49:58Z</time>
      </trkpt>
      <trkpt lat="43.60561" lon="1.19512">
        <ele>215</ele>
        <time>2016-06-11T07:50:00Z</time>
      </trkpt>
      <trkpt lat="43.6056" lon="1.19512">
        <ele>215</ele>
        <time>2016-06-11T07:50:01Z</time>
      </trkpt>
      <trkpt lat="43.60559" lon="1.19512">
        <ele>215</ele>
        <time>2016-06-11T07:50:03Z</time>
      </trkpt>
      <trkpt lat="43.60558" lon="1.19513">
        <ele>215</ele>
        <time>2016-06-11T07:50:05Z</time>
      </trkpt>
      <trkpt lat="43.60557" lon="1.19513">
        <ele>215</ele>
        <time>2016-06-11T07:50:06Z</time>
      </trkpt>
      <trkpt lat="43.60556" lon="1.19515">
        <ele>215</ele>
        <time>2016-06-11T07:50:08Z</time>
      </trkpt>
      <trkpt lat="43.60555" lon="1.19516">
        <ele>215</ele>
        <time>2016-06-11T07:50:09Z</time>
      </trkpt>
      <trkpt lat="43.60554" lon="1.19519">
        <ele>215</ele>
        <time>2016-06-11T07:50:11Z</time>
      </trkpt>
      <trkpt lat="43.60553" lon="1.19522">
        <ele>215</ele>
        <time>2016-06-11T07:50:13Z</time>
      </trkpt>
      <trkpt lat="43.60552" lon="1.19526">
        <ele>215</ele>
        <time>2016-06-11T07:50:15Z</time>
      </trkpt>
      <trkpt lat="43.60552" lon="1.19528">
        <ele>216</ele>
        <time>2016-06-11T07:50:16Z</time>
      </trkpt>
      <trkpt lat="43.6055" lon="1.1953">
        <ele>216</ele>
        <time>2016-06-11T07:50:18Z</time>
      </trkpt>
      <trkpt lat="43.60547" lon="1.19531">
        <ele>216</ele>
        <time>2016-06-11T07:50:20Z</time>
      </trkpt>
      <trkpt lat="43.60545" lon="1.19533">
        <ele>216</ele>
        <time>2016-06-11T07:50:21Z</time>
      </trkpt>
      <trkpt lat="43.6054" lon="1.19541">
        <ele>216</ele>
        <time>2016-06-11T07:50:25Z</time>
      </trkpt>
      <trkpt lat="43.6054" lon="1.19542">
        <ele>217</ele>
        <time>2016-06-11T07:50:26Z</time>
      </trkpt>
      <trkpt lat="43.6054" lon="1.19546">
        <ele>217</ele>
        <time>2016-06-11T07:50:28Z</time>
      </trkpt>
      <trkpt lat="43.60539" lon="1.19547">
        <ele>217</ele>
        <time>2016-06-11T07:50:29Z</time>
      </trkpt>
      <trkpt lat="43.60537" lon="1.1955">
        <ele>217</ele>
        <time>2016-06-11T07:50:31Z</time>
      </trkpt>
      <trkpt lat="43.60537" lon="1.19552">
        <ele>217</ele>
        <time>2016-06-11T07:50:32Z</time>
      </trkpt>
      <trkpt lat="43.60536" lon="1.19554">
        <ele>217</ele>
        <time>2016-06-11T07:50:33Z</time>
      </trkpt>
      <trkpt lat="43.60535" lon="1.19556">
        <ele>217</ele>
        <time>2016-06-11T07:50:35Z</time>
      </trkpt>
      <trkpt lat="43.60534" lon="1.19558">
        <ele>217</ele>
        <time>2016-06-11T07:50:36Z</time>
      </trkpt>
      <trkpt lat="43.60531" lon="1.1956">
        <ele>218</ele>
        <time>2016-06-11T07:50:38Z</time>
      </trkpt>
      <trkpt lat="43.6053" lon="1.19563">
        <ele>218</ele>
        <time>2016-06-11T07:50:40Z</time>
      </trkpt>
      <trkpt lat="43.60528" lon="1.19564">
        <ele>218</ele>
        <time>2016-06-11T07:50:42Z</time>
      </trkpt>
      <trkpt lat="43.60529" lon="1.19567">
        <ele>218</ele>
        <time>2016-06-11T07:50:45Z</time>
      </trkpt>
      <trkpt lat="43.60531" lon="1.19569">
        <ele>218</ele>
        <time>2016-06-11T07:50:47Z</time>
      </trkpt>
      <trkpt lat="43.60529" lon="1.19573">
        <ele>217</ele>
        <time>2016-06-11T07:50:48Z</time>
      </trkpt>
      <trkpt lat="43.60528" lon="1.19576">
        <ele>217</ele>
        <time>2016-06-11T07:50:50Z</time>
      </trkpt>
      <trkpt lat="43.60529" lon="1.19577">
        <ele>217</ele>
        <time>2016-06-11T07:50:51Z</time>
      </trkpt>
      <trkpt lat="43.6053" lon="1.19578">
        <ele>216</ele>
        <time>2016-06-11T07:50:52Z</time>
      </trkpt>
      <trkpt lat="43.60531" lon="1.19577">
        <ele>216</ele>
        <time>2016-06-11T07:50:53Z</time>
      </trkpt>
      <trkpt lat="43.6053" lon="1.19576">
        <ele>216</ele>
        <time>2016-06-11T07:50:55Z</time>
      </trkpt>
      <trkpt lat="43.60534" lon="1.19575">
        <ele>216</ele>
        <time>2016-06-11T07:50:57Z</time>
      </trkpt>
      <trkpt lat="43.60536" lon="1.19573">
        <ele>216</ele>
        <time>2016-06-11T07:50:59Z</time>
      </trkpt>
      <trkpt lat="43.60537" lon="1.19569">
        <ele>216</ele>
        <time>2016-06-11T07:51:01Z</time>
      </trkpt>
      <trkpt lat="43.60537" lon="1.19565">
        <ele>216</ele>
        <time>2016-06-11T07:51:03Z</time>
      </trkpt>
      <trkpt lat="43.60538" lon="1.19563">
        <ele>216</ele>
        <time>2016-06-11T07:51:04Z</time>
      </trkpt>
      <trkpt lat="43.60539" lon="1.19562">
        <ele>216</ele>
        <time>2016-06-11T07:51:05Z</time>
      </trkpt>
      <trkpt lat="43.60541" lon="1.19559">
        <ele>216</ele>
        <time>2016-06-11T07:51:07Z</time>
      </trkpt>
      <trkpt lat="43.60543" lon="1.19556">
        <ele>216</ele>
        <time>2016-06-11T07:51:09Z</time>
      </trkpt>
      <trkpt lat="43.60544" lon="1.19555">
        <ele>216</ele>
        <time>2016-06-11T07:51:10Z</time>
      </trkpt>
      <trkpt lat="43.60545" lon="1.19553">
        <ele>216</ele>
        <time>2016-06-11T07:51:11Z</time>
      </trkpt>
      <trkpt lat="43.60546" lon="1.19552">
        <ele>216</ele>
        <time>2016-06-11T07:51:12Z</time>
      </trkpt>
      <trkpt lat="43.60548" lon="1.19548">
        <ele>216</ele>
        <time>2016-06-11T07:51:14Z</time>
      </trkpt>
      <trkpt lat="43.60551" lon="1.19545">
        <ele>216</ele>
        <time>2016-06-11T07:51:16Z</time>
      </trkpt>
      <trkpt lat="43.60552" lon="1.19543">
        <ele>216</ele>
        <time>2016-06-11T07:51:18Z</time>
      </trkpt>
      <trkpt lat="43.60554" lon="1.19542">
        <ele>216</ele>
        <time>2016-06-11T07:51:19Z</time>
      </trkpt>
      <trkpt lat="43.60556" lon="1.19539">
        <ele>216</ele>
        <time>2016-06-11T07:51:21Z</time>
      </trkpt>
      <trkpt lat="43.60559" lon="1.19536">
        <ele>217</ele>
        <time>2016-06-11T07:51:23Z</time>
      </trkpt>
      <trkpt lat="43.6056" lon="1.19532">
        <ele>217</ele>
        <time>2016-06-11T07:51:25Z</time>
      </trkpt>
      <trkpt lat="43.60561" lon="1.19531">
        <ele>218</ele>
        <time>2016-06-11T07:51:26Z</time>
      </trkpt>
      <trkpt lat="43.60562" lon="1.1953">
        <ele>218</ele>
        <time>2016-06-11T07:51:27Z</time>
      </trkpt>
      <trkpt lat="43.60563" lon="1.19528">
        <ele>218</ele>
        <time>2016-06-11T07:51:29Z</time>
      </trkpt>
      <trkpt lat="43.60564" lon="1.19526">
        <ele>219</ele>
        <time>2016-06-11T07:51:31Z</time>
      </trkpt>
      <trkpt lat="43.60566" lon="1.19525">
        <ele>219</ele>
        <time>2016-06-11T07:51:32Z</time>
      </trkpt>
      <trkpt lat="43.60566" lon="1.19525">
        <ele>219</ele>
        <time>2016-06-11T07:51:33Z</time>
      </trkpt>
      <trkpt lat="43.60568" lon="1.19523">
        <ele>220</ele>
        <time>2016-06-11T07:51:35Z</time>
      </trkpt>
      <trkpt lat="43.60566" lon="1.1952">
        <ele>220</ele>
        <time>2016-06-11T07:51:37Z</time>
      </trkpt>
      <trkpt lat="43.60566" lon="1.19517">
        <ele>219</ele>
        <time>2016-06-11T07:51:39Z</time>
      </trkpt>
      <trkpt lat="43.60569" lon="1.19505">
        <ele>217</ele>
        <time>2016-06-11T07:51:53Z</time>
      </trkpt>
      <trkpt lat="43.60569" lon="1.19505">
        <ele>215</ele>
        <time>2016-06-11T07:51:54Z</time>
      </trkpt>
      <trkpt lat="43.6057" lon="1.19504">
        <ele>213</ele>
        <time>2016-06-11T07:51:56Z</time>
      </trkpt>
      <trkpt lat="43.6057" lon="1.19504">
        <ele>211</ele>
        <time>2016-06-11T07:52:15Z</time>
      </trkpt>
      <trkpt lat="43.6057" lon="1.19504">
        <ele>210</ele>
        <time>2016-06-11T07:52:17Z</time>
      </trkpt>
      <trkpt lat="43.6057" lon="1.19504">
        <ele>210</ele>
        <time>2016-06-11T07:52:36Z</time>
      </trkpt>
      <trkpt lat="43.6057" lon="1.19504">
        <ele>209</ele>
        <time>2016-06-11T07:52:38Z</time>
      </trkpt>
      <trkpt lat="43.6057" lon="1.19504">
        <ele>209</ele>
        <time>2016-06-11T07:52:56Z</time>
      </trkpt>
      <trkpt lat="43.6057" lon="1.19504">
        <ele>209</ele>
        <time>2016-06-11T07:52:57Z</time>
      </trkpt>
      <trkpt lat="43.6057" lon="1.19504">
        <ele>209</ele>
        <time>2016-06-11T07:53:16Z</time>
      </trkpt>
      <trkpt lat="43.6057" lon="1.19504">
        <ele>209</ele>
        <time>2016-06-11T07:53:18Z</time>
      </trkpt>
      <trkpt lat="43.6057" lon="1.19504">
        <ele>209</ele>
        <time>2016-06-11T07:53:32Z</time>
      </trkpt>
      <trkpt lat="43.6057" lon="1.19504">
        <ele>209</ele>
        <time>2016-06-11T07:53:34Z</time>
      </trkpt>
      <trkpt lat="43.6057" lon="1.19498">
        <ele>206</ele>
        <time>2016-06-11T07:56:20Z</time>
      </trkpt>
      <trkpt lat="43.60569" lon="1.19497">
        <ele>203</ele>
        <time>2016-06-11T07:56:22Z</time>
      </trkpt>
      <trkpt lat="43.60569" lon="1.19497">
        <ele>199</ele>
        <time>2016-06-11T07:56:24Z</time>
      </trkpt>
      <trkpt lat="43.60569" lon="1.19496">
        <ele>196</ele>
        <time>2016-06-11T07:56:25Z</time>
      </trkpt>
      <trkpt lat="43.60569" lon="1.19495">
        <ele>193</ele>
        <time>2016-06-11T07:56:27Z</time>
      </trkpt>
      <trkpt lat="43.60568" lon="1.19494">
        <ele>193</ele>
        <time>2016-06-11T07:56:28Z</time>
      </trkpt>
      <trkpt lat="43.60567" lon="1.19493">
        <ele>193</ele>
        <time>2016-06-11T07:56:30Z</time>
      </trkpt>
      <trkpt lat="43.60566" lon="1.19492">
        <ele>193</ele>
        <time>2016-06-11T07:56:31Z</time>
      </trkpt>
      <trkpt lat="43.60566" lon="1.19492">
        <ele>193</ele>
        <time>2016-06-11T07:56:32Z</time>
      </trkpt>
      <trkpt lat="43.60565" lon="1.19491">
        <ele>193</ele>
        <time>2016-06-11T07:56:33Z</time>
      </trkpt>
      <trkpt lat="43.60563" lon="1.1949">
        <ele>193</ele>
        <time>2016-06-11T07:56:36Z</time>
      </trkpt>
      <trkpt lat="43.60561" lon="1.19488">
        <ele>193</ele>
        <time>2016-06-11T07:56:39Z</time>
      </trkpt>
      <trkpt lat="43.6056" lon="1.19487">
        <ele>193</ele>
        <time>2016-06-11T07:56:41Z</time>
      </trkpt>
      <trkpt lat="43.60559" lon="1.19486">
        <ele>193</ele>
        <time>2016-06-11T07:56:42Z</time>
      </trkpt>
      <trkpt lat="43.60556" lon="1.19484">
        <ele>193</ele>
        <time>2016-06-11T07:56:44Z</time>
      </trkpt>
      <trkpt lat="43.60554" lon="1.19482">
        <ele>193</ele>
        <time>2016-06-11T07:56:46Z</time>
      </trkpt>
      <trkpt lat="43.60553" lon="1.19481">
        <ele>194</ele>
        <time>2016-06-11T07:56:47Z</time>
      </trkpt>
      <trkpt lat="43.6055" lon="1.19479">
        <ele>194</ele>
        <time>2016-06-11T07:56:49Z</time>
      </trkpt>
      <trkpt lat="43.60547" lon="1.19477">
        <ele>194</ele>
        <time>2016-06-11T07:56:51Z</time>
      </trkpt>
      <trkpt lat="43.60546" lon="1.19476">
        <ele>194</ele>
        <time>2016-06-11T07:56:52Z</time>
      </trkpt>
      <trkpt lat="43.60545" lon="1.19475">
        <ele>194</ele>
        <time>2016-06-11T07:56:53Z</time>
      </trkpt>
      <trkpt lat="43.60542" lon="1.19474">
        <ele>194</ele>
        <time>2016-06-11T07:56:55Z</time>
      </trkpt>
      <trkpt lat="43.6054" lon="1.19473">
        <ele>194</ele>
        <time>2016-06-11T07:56:57Z</time>
      </trkpt>
      <trkpt lat="43.6054" lon="1.19472">
        <ele>195</ele>
        <time>2016-06-11T07:56:59Z</time>
      </trkpt>
      <trkpt lat="43.60539" lon="1.19472">
        <ele>195</ele>
        <time>2016-06-11T07:57:00Z</time>
      </trkpt>
      <trkpt lat="43.60537" lon="1.1947">
        <ele>195</ele>
        <time>2016-06-11T07:57:01Z</time>
      </trkpt>
      <trkpt lat="43.60531" lon="1.19466">
        <ele>195</ele>
        <time>2016-06-11T07:57:05Z</time>
      </trkpt>
      <trkpt lat="43.60529" lon="1.19463">
        <ele>195</ele>
        <time>2016-06-11T07:57:07Z</time>
      </trkpt>
      <trkpt lat="43.60527" lon="1.19461">
        <ele>196</ele>
        <time>2016-06-11T07:57:09Z</time>
      </trkpt>
      <trkpt lat="43.60524" lon="1.1946">
        <ele>196</ele>
        <time>2016-06-11T07:57:11Z</time>
      </trkpt>
      <trkpt lat="43.60521" lon="1.19459">
        <ele>196</ele>
        <time>2016-06-11T07:57:13Z</time>
      </trkpt>
      <trkpt lat="43.60519" lon="1.19457">
        <ele>196</ele>
        <time>2016-06-11T07:57:15Z</time>
      </trkpt>
      <trkpt lat="43.60518" lon="1.19455">
        <ele>197</ele>
        <time>2016-06-11T07:57:16Z</time>
      </trkpt>
      <trkpt lat="43.60514" lon="1.19453">
        <ele>197</ele>
        <time>2016-06-11T07:57:18Z</time>
      </trkpt>
      <trkpt lat="43.60512" lon="1.1945">
        <ele>197</ele>
        <time>2016-06-11T07:57:20Z</time>
      </trkpt>
      <trkpt lat="43.60511" lon="1.1945">
        <ele>197</ele>
        <time>2016-06-11T07:57:21Z</time>
      </trkpt>
      <trkpt lat="43.60508" lon="1.19447">
        <ele>197</ele>
        <time>2016-06-11T07:57:23Z</time>
      </trkpt>
      <trkpt lat="43.60506" lon="1.19446">
        <ele>198</ele>
        <time>2016-06-11T07:57:24Z</time>
      </trkpt>
      <trkpt lat="43.60504" lon="1.19444">
        <ele>198</ele>
        <time>2016-06-11T07:57:26Z</time>
      </trkpt>
      <trkpt lat="43.60503" lon="1.19443">
        <ele>198</ele>
        <time>2016-06-11T07:57:27Z</time>
      </trkpt>
      <trkpt lat="43.60502" lon="1.19442">
        <ele>198</ele>
        <time>2016-06-11T07:57:28Z</time>
      </trkpt>
      <trkpt lat="43.60501" lon="1.19442">
        <ele>198</ele>
        <time>2016-06-11T07:57:29Z</time>
      </trkpt>
      <trkpt lat="43.60498" lon="1.1944">
        <ele>198</ele>
        <time>2016-06-11T07:57:31Z</time>
      </trkpt>
      <trkpt lat="43.60497" lon="1.1944">
        <ele>198</ele>
        <time>2016-06-11T07:57:32Z</time>
      </trkpt>
      <trkpt lat="43.60496" lon="1.19439">
        <ele>198</ele>
        <time>2016-06-11T07:57:33Z</time>
      </trkpt>
      <trkpt lat="43.60494" lon="1.19437">
        <ele>198</ele>
        <time>2016-06-11T07:57:35Z</time>
      </trkpt>
      <trkpt lat="43.60492" lon="1.19436">
        <ele>199</ele>
        <time>2016-06-11T07:57:37Z</time>
      </trkpt>
      <trkpt lat="43.60491" lon="1.19434">
        <ele>199</ele>
        <time>2016-06-11T07:57:39Z</time>
      </trkpt>
      <trkpt lat="43.6049" lon="1.19434">
        <ele>200</ele>
        <time>2016-06-11T07:57:41Z</time>
      </trkpt>
      <trkpt lat="43.60488" lon="1.19432">
        <ele>201</ele>
        <time>2016-06-11T07:57:43Z</time>
      </trkpt>
      <trkpt lat="43.60486" lon="1.1943">
        <ele>201</ele>
        <time>2016-06-11T07:57:45Z</time>
      </trkpt>
      <trkpt lat="43.60485" lon="1.19428">
        <ele>202</ele>
        <time>2016-06-11T07:57:46Z</time>
      </trkpt>
      <trkpt lat="43.60484" lon="1.19423">
        <ele>202</ele>
        <time>2016-06-11T07:57:48Z</time>
      </trkpt>
      <trkpt lat="43.60482" lon="1.1942">
        <ele>202</ele>
        <time>2016-06-11T07:57:50Z</time>
      </trkpt>
      <trkpt lat="43.60481" lon="1.1942">
        <ele>202</ele>
        <time>2016-06-11T07:57:51Z</time>
      </trkpt>
      <trkpt lat="43.60479" lon="1.19418">
        <ele>202</ele>
        <time>2016-06-11T07:57:52Z</time>
      </trkpt>
      <trkpt lat="43.60478" lon="1.19417">
        <ele>202</ele>
        <time>2016-06-11T07:57:53Z</time>
      </trkpt>
      <trkpt lat="43.60477" lon="1.19414">
        <ele>203</ele>
        <time>2016-06-11T07:57:55Z</time>
      </trkpt>
      <trkpt lat="43.60475" lon="1.19411">
        <ele>203</ele>
        <time>2016-06-11T07:57:57Z</time>
      </trkpt>
      <trkpt lat="43.60473" lon="1.1941">
        <ele>203</ele>
        <time>2016-06-11T07:57:58Z</time>
      </trkpt>
      <trkpt lat="43.60466" lon="1.19407">
        <ele>203</ele>
        <time>2016-06-11T07:58:02Z</time>
      </trkpt>
      <trkpt lat="43.60464" lon="1.19406">
        <ele>204</ele>
        <time>2016-06-11T07:58:03Z</time>
      </trkpt>
      <trkpt lat="43.60463" lon="1.19405">
        <ele>204</ele>
        <time>2016-06-11T07:58:04Z</time>
      </trkpt>
      <trkpt lat="43.60459" lon="1.19403">
        <ele>204</ele>
        <time>2016-06-11T07:58:06Z</time>
      </trkpt>
      <trkpt lat="43.60458" lon="1.19402">
        <ele>204</ele>
        <time>2016-06-11T07:58:07Z</time>
      </trkpt>
      <trkpt lat="43.60454" lon="1.19401">
        <ele>204</ele>
        <time>2016-06-11T07:58:09Z</time>
      </trkpt>
      <trkpt lat="43.60451" lon="1.19401">
        <ele>204</ele>
        <time>2016-06-11T07:58:11Z</time>
      </trkpt>
      <trkpt lat="43.60449" lon="1.19398">
        <ele>205</ele>
        <time>2016-06-11T07:58:13Z</time>
      </trkpt>
      <trkpt lat="43.60445" lon="1.19396">
        <ele>205</ele>
        <time>2016-06-11T07:58:15Z</time>
      </trkpt>
      <trkpt lat="43.60443" lon="1.19395">
        <ele>205</ele>
        <time>2016-06-11T07:58:17Z</time>
      </trkpt>
      <trkpt lat="43.60433" lon="1.19389">
        <ele>207</ele>
        <time>2016-06-11T07:58:23Z</time>
      </trkpt>
      <trkpt lat="43.6043" lon="1.19387">
        <ele>207</ele>
        <time>2016-06-11T07:58:25Z</time>
      </trkpt>
      <trkpt lat="43.60429" lon="1.19386">
        <ele>207</ele>
        <time>2016-06-11T07:58:26Z</time>
      </trkpt>
      <trkpt lat="43.60428" lon="1.19384">
        <ele>208</ele>
        <time>2016-06-11T07:58:28Z</time>
      </trkpt>
      <trkpt lat="43.60427" lon="1.19383">
        <ele>208</ele>
        <time>2016-06-11T07:58:29Z</time>
      </trkpt>
      <trkpt lat="43.60425" lon="1.1938">
        <ele>208</ele>
        <time>2016-06-11T07:58:31Z</time>
      </trkpt>
      <trkpt lat="43.60423" lon="1.19379">
        <ele>208</ele>
        <time>2016-06-11T07:58:32Z</time>
      </trkpt>
      <trkpt lat="43.60422" lon="1.19377">
        <ele>208</ele>
        <time>2016-06-11T07:58:33Z</time>
      </trkpt>
      <trkpt lat="43.60415" lon="1.19374">
        <ele>207</ele>
        <time>2016-06-11T07:58:37Z</time>
      </trkpt>
      <trkpt lat="43.60412" lon="1.19371">
        <ele>207</ele>
        <time>2016-06-11T07:58:39Z</time>
      </trkpt>
      <trkpt lat="43.60411" lon="1.19371">
        <ele>207</ele>
        <time>2016-06-11T07:58:40Z</time>
      </trkpt>
      <trkpt lat="43.60408" lon="1.19368">
        <ele>207</ele>
        <time>2016-06-11T07:58:42Z</time>
      </trkpt>
      <trkpt lat="43.60405" lon="1.19366">
        <ele>207</ele>
        <time>2016-06-11T07:58:44Z</time>
      </trkpt>
      <trkpt lat="43.60405" lon="1.19364">
        <ele>207</ele>
        <time>2016-06-11T07:58:45Z</time>
      </trkpt>
      <trkpt lat="43.60402" lon="1.19361">
        <ele>206</ele>
        <time>2016-06-11T07:58:47Z</time>
      </trkpt>
      <trkpt lat="43.60399" lon="1.19357">
        <ele>206</ele>
        <time>2016-06-11T07:58:49Z</time>
      </trkpt>
      <trkpt lat="43.60397" lon="1.19356">
        <ele>206</ele>
        <time>2016-06-11T07:58:50Z</time>
      </trkpt>
      <trkpt lat="43.60396" lon="1.19356">
        <ele>205</ele>
        <time>2016-06-11T07:58:51Z</time>
      </trkpt>
      <trkpt lat="43.60395" lon="1.19355">
        <ele>205</ele>
        <time>2016-06-11T07:58:52Z</time>
      </trkpt>
      <trkpt lat="43.60393" lon="1.19353">
        <ele>205</ele>
        <time>2016-06-11T07:58:53Z</time>
      </trkpt>
      <trkpt lat="43.60385" lon="1.19347">
        <ele>205</ele>
        <time>2016-06-11T07:58:58Z</time>
      </trkpt>
      <trkpt lat="43.60381" lon="1.19345">
        <ele>205</ele>
        <time>2016-06-11T07:59:00Z</time>
      </trkpt>
      <trkpt lat="43.60379" lon="1.19344">
        <ele>204</ele>
        <time>2016-06-11T07:59:01Z</time>
      </trkpt>
      <trkpt lat="43.60378" lon="1.19342">
        <ele>204</ele>
        <time>2016-06-11T07:59:03Z</time>
      </trkpt>
      <trkpt lat="43.60376" lon="1.1934">
        <ele>204</ele>
        <time>2016-06-11T07:59:04Z</time>
      </trkpt>
      <trkpt lat="43.60375" lon="1.19338">
        <ele>204</ele>
        <time>2016-06-11T07:59:05Z</time>
      </trkpt>
      <trkpt lat="43.60372" lon="1.19335">
        <ele>204</ele>
        <time>2016-06-11T07:59:07Z</time>
      </trkpt>
      <trkpt lat="43.60367" lon="1.19332">
        <ele>203</ele>
        <time>2016-06-11T07:59:10Z</time>
      </trkpt>
      <trkpt lat="43.60366" lon="1.19332">
        <ele>202</ele>
        <time>2016-06-11T07:59:11Z</time>
      </trkpt>
      <trkpt lat="43.60364" lon="1.19331">
        <ele>202</ele>
        <time>2016-06-11T07:59:12Z</time>
      </trkpt>
      <trkpt lat="43.60363" lon="1.1933">
        <ele>202</ele>
        <time>2016-06-11T07:59:13Z</time>
      </trkpt>
      <trkpt lat="43.60362" lon="1.19329">
        <ele>202</ele>
        <time>2016-06-11T07:59:15Z</time>
      </trkpt>
      <trkpt lat="43.60359" lon="1.19327">
        <ele>202</ele>
        <time>2016-06-11T07:59:17Z</time>
      </trkpt>
      <trkpt lat="43.60358" lon="1.19325">
        <ele>202</ele>
        <time>2016-06-11T07:59:18Z</time>
      </trkpt>
      <trkpt lat="43.60344" lon="1.19316">
        <ele>201</ele>
        <time>2016-06-11T07:59:24Z</time>
      </trkpt>
      <trkpt lat="43.60342" lon="1.19313">
        <ele>201</ele>
        <time>2016-06-11T07:59:26Z</time>
      </trkpt>
      <trkpt lat="43.60341" lon="1.1931">
        <ele>200</ele>
        <time>2016-06-11T07:59:28Z</time>
      </trkpt>
      <trkpt lat="43.60338" lon="1.19308">
        <ele>200</ele>
        <time>2016-06-11T07:59:30Z</time>
      </trkpt>
      <trkpt lat="43.60337" lon="1.19307">
        <ele>199</ele>
        <time>2016-06-11T07:59:31Z</time>
      </trkpt>
      <trkpt lat="43.60335" lon="1.19305">
        <ele>199</ele>
        <time>2016-06-11T07:59:32Z</time>
      </trkpt>
      <trkpt lat="43.60334" lon="1.19304">
        <ele>199</ele>
        <time>2016-06-11T07:59:33Z</time>
      </trkpt>
      <trkpt lat="43.60331" lon="1.19302">
        <ele>199</ele>
        <time>2016-06-11T07:59:35Z</time>
      </trkpt>
      <trkpt lat="43.6033" lon="1.193">
        <ele>199</ele>
        <time>2016-06-11T07:59:37Z</time>
      </trkpt>
      <trkpt lat="43.60327" lon="1.19298">
        <ele>198</ele>
        <time>2016-06-11T07:59:39Z</time>
      </trkpt>
      <trkpt lat="43.60324" lon="1.19295">
        <ele>198</ele>
        <time>2016-06-11T07:59:41Z</time>
      </trkpt>
      <trkpt lat="43.60317" lon="1.19291">
        <ele>198</ele>
        <time>2016-06-11T07:59:45Z</time>
      </trkpt>
      <trkpt lat="43.60312" lon="1.19288">
        <ele>197</ele>
        <time>2016-06-11T07:59:48Z</time>
      </trkpt>
      <trkpt lat="43.6031" lon="1.19286">
        <ele>196</ele>
        <time>2016-06-11T07:59:50Z</time>
      </trkpt>
      <trkpt lat="43.6031" lon="1.19287">
        <ele>196</ele>
        <time>2016-06-11T07:59:51Z</time>
      </trkpt>
      <trkpt lat="43.60305" lon="1.19285">
        <ele>196</ele>
        <time>2016-06-11T07:59:53Z</time>
      </trkpt>
      <trkpt lat="43.60301" lon="1.19282">
        <ele>196</ele>
        <time>2016-06-11T07:59:55Z</time>
      </trkpt>
      <trkpt lat="43.60299" lon="1.19279">
        <ele>196</ele>
        <time>2016-06-11T07:59:57Z</time>
      </trkpt>
      <trkpt lat="43.60297" lon="1.19278">
        <ele>196</ele>
        <time>2016-06-11T07:59:58Z</time>
      </trkpt>
      <trkpt lat="43.60295" lon="1.19277">
        <ele>196</ele>
        <time>2016-06-11T08:00:00Z</time>
      </trkpt>
      <trkpt lat="43.60293" lon="1.19276">
        <ele>196</ele>
        <time>2016-06-11T08:00:01Z</time>
      </trkpt>
      <trkpt lat="43.60291" lon="1.19273">
        <ele>196</ele>
        <time>2016-06-11T08:00:03Z</time>
      </trkpt>
      <trkpt lat="43.60287" lon="1.19271">
        <ele>197</ele>
        <time>2016-06-11T08:00:05Z</time>
      </trkpt>
      <trkpt lat="43.60284" lon="1.19269">
        <ele>197</ele>
        <time>2016-06-11T08:00:07Z</time>
      </trkpt>
      <trkpt lat="43.60282" lon="1.19266">
        <ele>197</ele>
        <time>2016-06-11T08:00:09Z</time>
      </trkpt>
      <trkpt lat="43.6028" lon="1.19264">
        <ele>197</ele>
        <time>2016-06-11T08:00:11Z</time>
      </trkpt>
      <trkpt lat="43.60277" lon="1.19264">
        <ele>197</ele>
        <time>2016-06-11T08:00:13Z</time>
      </trkpt>
      <trkpt lat="43.60275" lon="1.19262">
        <ele>198</ele>
        <time>2016-06-11T08:00:15Z</time>
      </trkpt>
      <trkpt lat="43.60273" lon="1.19261">
        <ele>198</ele>
        <time>2016-06-11T08:00:16Z</time>
      </trkpt>
      <trkpt lat="43.60271" lon="1.19259">
        <ele>198</ele>
        <time>2016-06-11T08:00:18Z</time>
      </trkpt>
      <trkpt lat="43.6027" lon="1.19258">
        <ele>198</ele>
        <time>2016-06-11T08:00:19Z</time>
      </trkpt>
      <trkpt lat="43.60267" lon="1.19254">
        <ele>199</ele>
        <time>2016-06-11T08:00:21Z</time>
      </trkpt>
      <trkpt lat="43.60261" lon="1.1925">
        <ele>199</ele>
        <time>2016-06-11T08:00:24Z</time>
      </trkpt>
      <trkpt lat="43.60259" lon="1.19247">
        <ele>198</ele>
        <time>2016-06-11T08:00:26Z</time>
      </trkpt>
      <trkpt lat="43.60252" lon="1.19243">
        <ele>198</ele>
        <time>2016-06-11T08:00:30Z</time>
      </trkpt>
      <trkpt lat="43.60251" lon="1.19242">
        <ele>198</ele>
        <time>2016-06-11T08:00:31Z</time>
      </trkpt>
      <trkpt lat="43.60249" lon="1.19241">
        <ele>198</ele>
        <time>2016-06-11T08:00:32Z</time>
      </trkpt>
      <trkpt lat="43.60249" lon="1.1924">
        <ele>198</ele>
        <time>2016-06-11T08:00:33Z</time>
      </trkpt>
      <trkpt lat="43.60248" lon="1.19239">
        <ele>198</ele>
        <time>2016-06-11T08:00:35Z</time>
      </trkpt>
      <trkpt lat="43.60247" lon="1.19237">
        <ele>198</ele>
        <time>2016-06-11T08:00:37Z</time>
      </trkpt>
      <trkpt lat="43.60245" lon="1.19236">
        <ele>198</ele>
        <time>2016-06-11T08:00:39Z</time>
      </trkpt>
      <trkpt lat="43.60243" lon="1.19234">
        <ele>198</ele>
        <time>2016-06-11T08:00:41Z</time>
      </trkpt>
      <trkpt lat="43.60241" lon="1.19233">
        <ele>198</ele>
        <time>2016-06-11T08:00:42Z</time>
      </trkpt>
      <trkpt lat="43.60239" lon="1.1923">
        <ele>198</ele>
        <time>2016-06-11T08:00:44Z</time>
      </trkpt>
      <trkpt lat="43.60236" lon="1.19228">
        <ele>198</ele>
        <time>2016-06-11T08:00:46Z</time>
      </trkpt>
      <trkpt lat="43.60234" lon="1.19228">
        <ele>198</ele>
        <time>2016-06-11T08:00:47Z</time>
      </trkpt>
      <trkpt lat="43.60231" lon="1.19226">
        <ele>198</ele>
        <time>2016-06-11T08:00:49Z</time>
      </trkpt>
      <trkpt lat="43.60228" lon="1.19224">
        <ele>198</ele>
        <time>2016-06-11T08:00:51Z</time>
      </trkpt>
      <trkpt lat="43.60225" lon="1.19221">
        <ele>198</ele>
        <time>2016-06-11T08:00:53Z</time>
      </trkpt>
      <trkpt lat="43.60222" lon="1.19219">
        <ele>199</ele>
        <time>2016-06-11T08:00:55Z</time>
      </trkpt>
      <trkpt lat="43.6022" lon="1.19216">
        <ele>199</ele>
        <time>2016-06-11T08:00:57Z</time>
      </trkpt>
      <trkpt lat="43.60219" lon="1.19214">
        <ele>200</ele>
        <time>2016-06-11T08:00:58Z</time>
      </trkpt>
      <trkpt lat="43.60217" lon="1.19211">
        <ele>200</ele>
        <time>2016-06-11T08:01:00Z</time>
      </trkpt>
      <trkpt lat="43.60216" lon="1.1921">
        <ele>200</ele>
        <time>2016-06-11T08:01:01Z</time>
      </trkpt>
      <trkpt lat="43.60214" lon="1.19206">
        <ele>201</ele>
        <time>2016-06-11T08:01:03Z</time>
      </trkpt>
      <trkpt lat="43.60212" lon="1.19204">
        <ele>201</ele>
        <time>2016-06-11T08:01:05Z</time>
      </trkpt>
      <trkpt lat="43.6021" lon="1.19201">
        <ele>201</ele>
        <time>2016-06-11T08:01:07Z</time>
      </trkpt>
      <trkpt lat="43.60208" lon="1.19198">
        <ele>201</ele>
        <time>2016-06-11T08:01:09Z</time>
      </trkpt>
      <trkpt lat="43.60207" lon="1.19195">
        <ele>201</ele>
        <time>2016-06-11T08:01:10Z</time>
      </trkpt>
      <trkpt lat="43.60205" lon="1.19193">
        <ele>201</ele>
        <time>2016-06-11T08:01:11Z</time>
      </trkpt>
      <trkpt lat="43.60202" lon="1.19191">
        <ele>201</ele>
        <time>2016-06-11T08:01:13Z</time>
      </trkpt>
      <trkpt lat="43.602" lon="1.19189">
        <ele>202</ele>
        <time>2016-06-11T08:01:15Z</time>
      </trkpt>
      <trkpt lat="43.60198" lon="1.19186">
        <ele>202</ele>
        <time>2016-06-11T08:01:17Z</time>
      </trkpt>
      <trkpt lat="43.60196" lon="1.19184">
        <ele>202</ele>
        <time>2016-06-11T08:01:19Z</time>
      </trkpt>
      <trkpt lat="43.60194" lon="1.19182">
        <ele>202</ele>
        <time>2016-06-11T08:01:21Z</time>
      </trkpt>
      <trkpt lat="43.60192" lon="1.1918">
        <ele>202</ele>
        <time>2016-06-11T08:01:23Z</time>
      </trkpt>
      <trkpt lat="43.60191" lon="1.19176">
        <ele>203</ele>
        <time>2016-06-11T08:01:25Z</time>
      </trkpt>
      <trkpt lat="43.60191" lon="1.19174">
        <ele>203</ele>
        <time>2016-06-11T08:01:26Z</time>
      </trkpt>
      <trkpt lat="43.60188" lon="1.19173">
        <ele>203</ele>
        <time>2016-06-11T08:01:28Z</time>
      </trkpt>
      <trkpt lat="43.60186" lon="1.19171">
        <ele>203</ele>
        <time>2016-06-11T08:01:30Z</time>
      </trkpt>
      <trkpt lat="43.60185" lon="1.1917">
        <ele>203</ele>
        <time>2016-06-11T08:01:31Z</time>
      </trkpt>
      <trkpt lat="43.60184" lon="1.19168">
        <ele>204</ele>
        <time>2016-06-11T08:01:32Z</time>
      </trkpt>
      <trkpt lat="43.60183" lon="1.19167">
        <ele>204</ele>
        <time>2016-06-11T08:01:33Z</time>
      </trkpt>
      <trkpt lat="43.60181" lon="1.19159">
        <ele>204</ele>
        <time>2016-06-11T08:01:35Z</time>
      </trkpt>
      <trkpt lat="43.6018" lon="1.19155">
        <ele>204</ele>
        <time>2016-06-11T08:01:37Z</time>
      </trkpt>
      <trkpt lat="43.60178" lon="1.19151">
        <ele>204</ele>
        <time>2016-06-11T08:01:39Z</time>
      </trkpt>
      <trkpt lat="43.60176" lon="1.19149">
        <ele>204</ele>
        <time>2016-06-11T08:01:41Z</time>
      </trkpt>
      <trkpt lat="43.60173" lon="1.19145">
        <ele>204</ele>
        <time>2016-06-11T08:01:43Z</time>
      </trkpt>
      <trkpt lat="43.60171" lon="1.19143">
        <ele>205</ele>
        <time>2016-06-11T08:01:45Z</time>
      </trkpt>
      <trkpt lat="43.60168" lon="1.19141">
        <ele>205</ele>
        <time>2016-06-11T08:01:47Z</time>
      </trkpt>
      <trkpt lat="43.60166" lon="1.19139">
        <ele>205</ele>
        <time>2016-06-11T08:01:49Z</time>
      </trkpt>
      <trkpt lat="43.60164" lon="1.19138">
        <ele>205</ele>
        <time>2016-06-11T08:01:51Z</time>
      </trkpt>
      <trkpt lat="43.60162" lon="1.19136">
        <ele>206</ele>
        <time>2016-06-11T08:01:53Z</time>
      </trkpt>
      <trkpt lat="43.60159" lon="1.19128">
        <ele>206</ele>
        <time>2016-06-11T08:01:55Z</time>
      </trkpt>
      <trkpt lat="43.60149" lon="1.19118">
        <ele>206</ele>
        <time>2016-06-11T08:02:01Z</time>
      </trkpt>
      <trkpt lat="43.60146" lon="1.19116">
        <ele>206</ele>
        <time>2016-06-11T08:02:03Z</time>
      </trkpt>
      <trkpt lat="43.60145" lon="1.19115">
        <ele>206</ele>
        <time>2016-06-11T08:02:04Z</time>
      </trkpt>
      <trkpt lat="43.60143" lon="1.19113">
        <ele>206</ele>
        <time>2016-06-11T08:02:06Z</time>
      </trkpt>
      <trkpt lat="43.6014" lon="1.19109">
        <ele>206</ele>
        <time>2016-06-11T08:02:08Z</time>
      </trkpt>
      <trkpt lat="43.60137" lon="1.19106">
        <ele>206</ele>
        <time>2016-06-11T08:02:10Z</time>
      </trkpt>
      <trkpt lat="43.60136" lon="1.19104">
        <ele>206</ele>
        <time>2016-06-11T08:02:11Z</time>
      </trkpt>
      <trkpt lat="43.60134" lon="1.19102">
        <ele>206</ele>
        <time>2016-06-11T08:02:13Z</time>
      </trkpt>
      <trkpt lat="43.60132" lon="1.191">
        <ele>206</ele>
        <time>2016-06-11T08:02:15Z</time>
      </trkpt>
      <trkpt lat="43.60129" lon="1.19097">
        <ele>206</ele>
        <time>2016-06-11T08:02:17Z</time>
      </trkpt>
      <trkpt lat="43.60127" lon="1.19095">
        <ele>206</ele>
        <time>2016-06-11T08:02:19Z</time>
      </trkpt>
      <trkpt lat="43.60124" lon="1.19093">
        <ele>206</ele>
        <time>2016-06-11T08:02:21Z</time>
      </trkpt>
      <trkpt lat="43.60122" lon="1.19091">
        <ele>206</ele>
        <time>2016-06-11T08:02:23Z</time>
      </trkpt>
      <trkpt lat="43.6012" lon="1.19089">
        <ele>206</ele>
        <time>2016-06-11T08:02:25Z</time>
      </trkpt>
      <trkpt lat="43.60117" lon="1.19088">
        <ele>206</ele>
        <time>2016-06-11T08:02:27Z</time>
      </trkpt>
      <trkpt lat="43.60112" lon="1.19084">
        <ele>207</ele>
        <time>2016-06-11T08:02:30Z</time>
      </trkpt>
      <trkpt lat="43.60109" lon="1.19081">
        <ele>207</ele>
        <time>2016-06-11T08:02:32Z</time>
      </trkpt>
      <trkpt lat="43.60108" lon="1.19079">
        <ele>207</ele>
        <time>2016-06-11T08:02:34Z</time>
      </trkpt>
      <trkpt lat="43.60105" lon="1.19077">
        <ele>207</ele>
        <time>2016-06-11T08:02:36Z</time>
      </trkpt>
      <trkpt lat="43.60104" lon="1.19076">
        <ele>207</ele>
        <time>2016-06-11T08:02:37Z</time>
      </trkpt>
      <trkpt lat="43.601" lon="1.19073">
        <ele>208</ele>
        <time>2016-06-11T08:02:41Z</time>
      </trkpt>
      <trkpt lat="43.60099" lon="1.19073">
        <ele>208</ele>
        <time>2016-06-11T08:02:42Z</time>
      </trkpt>
      <trkpt lat="43.60097" lon="1.19072">
        <ele>208</ele>
        <time>2016-06-11T08:02:44Z</time>
      </trkpt>
      <trkpt lat="43.60093" lon="1.19073">
        <ele>208</ele>
        <time>2016-06-11T08:02:47Z</time>
      </trkpt>
      <trkpt lat="43.60091" lon="1.19073">
        <ele>208</ele>
        <time>2016-06-11T08:02:48Z</time>
      </trkpt>
      <trkpt lat="43.60087" lon="1.19073">
        <ele>208</ele>
        <time>2016-06-11T08:02:50Z</time>
      </trkpt>
      <trkpt lat="43.60083" lon="1.19073">
        <ele>208</ele>
        <time>2016-06-11T08:02:52Z</time>
      </trkpt>
      <trkpt lat="43.60075" lon="1.19073">
        <ele>208</ele>
        <time>2016-06-11T08:02:56Z</time>
      </trkpt>
      <trkpt lat="43.60062" lon="1.19069">
        <ele>207</ele>
        <time>2016-06-11T08:03:00Z</time>
      </trkpt>
      <trkpt lat="43.6004" lon="1.19074">
        <ele>203</ele>
        <time>2016-06-11T08:03:12Z</time>
      </trkpt>
      <trkpt lat="43.60038" lon="1.19076">
        <ele>202</ele>
        <time>2016-06-11T08:03:14Z</time>
      </trkpt>
      <trkpt lat="43.60035" lon="1.19078">
        <ele>202</ele>
        <time>2016-06-11T08:03:16Z</time>
      </trkpt>
      <trkpt lat="43.6002" lon="1.19083">
        <ele>200</ele>
        <time>2016-06-11T08:03:25Z</time>
      </trkpt>
      <trkpt lat="43.60019" lon="1.19085">
        <ele>199</ele>
        <time>2016-06-11T08:03:27Z</time>
      </trkpt>
      <trkpt lat="43.60019" lon="1.19086">
        <ele>199</ele>
        <time>2016-06-11T08:03:28Z</time>
      </trkpt>
      <trkpt lat="43.60017" lon="1.19087">
        <ele>198</ele>
        <time>2016-06-11T08:03:30Z</time>
      </trkpt>
      <trkpt lat="43.60015" lon="1.19089">
        <ele>198</ele>
        <time>2016-06-11T08:03:32Z</time>
      </trkpt>
      <trkpt lat="43.60014" lon="1.1909">
        <ele>198</ele>
        <time>2016-06-11T08:03:34Z</time>
      </trkpt>
      <trkpt lat="43.60012" lon="1.19091">
        <ele>198</ele>
        <time>2016-06-11T08:03:36Z</time>
      </trkpt>
      <trkpt lat="43.60009" lon="1.19091">
        <ele>198</ele>
        <time>2016-06-11T08:03:38Z</time>
      </trkpt>
      <trkpt lat="43.60007" lon="1.19093">
        <ele>199</ele>
        <time>2016-06-11T08:03:40Z</time>
      </trkpt>
      <trkpt lat="43.60006" lon="1.19093">
        <ele>199</ele>
        <time>2016-06-11T08:03:41Z</time>
      </trkpt>
      <trkpt lat="43.60004" lon="1.19093">
        <ele>199</ele>
        <time>2016-06-11T08:03:42Z</time>
      </trkpt>
      <trkpt lat="43.59996" lon="1.19095">
        <ele>199</ele>
        <time>2016-06-11T08:03:47Z</time>
      </trkpt>
      <trkpt lat="43.59994" lon="1.19095">
        <ele>199</ele>
        <time>2016-06-11T08:03:49Z</time>
      </trkpt>
      <trkpt lat="43.59993" lon="1.19094">
        <ele>199</ele>
        <time>2016-06-11T08:03:51Z</time>
      </trkpt>
      <trkpt lat="43.59992" lon="1.19094">
        <ele>199</ele>
        <time>2016-06-11T08:03:52Z</time>
      </trkpt>
      <trkpt lat="43.59991" lon="1.19094">
        <ele>200</ele>
        <time>2016-06-11T08:03:53Z</time>
      </trkpt>
      <trkpt lat="43.5999" lon="1.19094">
        <ele>200</ele>
        <time>2016-06-11T08:03:54Z</time>
      </trkpt>
      <trkpt lat="43.59987" lon="1.19094">
        <ele>200</ele>
        <time>2016-06-11T08:03:56Z</time>
      </trkpt>
      <trkpt lat="43.59985" lon="1.19094">
        <ele>200</ele>
        <time>2016-06-11T08:03:57Z</time>
      </trkpt>
      <trkpt lat="43.59982" lon="1.19094">
        <ele>200</ele>
        <time>2016-06-11T08:03:59Z</time>
      </trkpt>
      <trkpt lat="43.5998" lon="1.19093">
        <ele>200</ele>
        <time>2016-06-11T08:04:01Z</time>
      </trkpt>
      <trkpt lat="43.59978" lon="1.19093">
        <ele>201</ele>
        <time>2016-06-11T08:04:03Z</time>
      </trkpt>
      <trkpt lat="43.59976" lon="1.19092">
        <ele>201</ele>
        <time>2016-06-11T08:04:04Z</time>
      </trkpt>
      <trkpt lat="43.59975" lon="1.19092">
        <ele>201</ele>
        <time>2016-06-11T08:04:05Z</time>
      </trkpt>
      <trkpt lat="43.59973" lon="1.19091">
        <ele>202</ele>
        <time>2016-06-11T08:04:07Z</time>
      </trkpt>
      <trkpt lat="43.59972" lon="1.19091">
        <ele>202</ele>
        <time>2016-06-11T08:04:08Z</time>
      </trkpt>
      <trkpt lat="43.59971" lon="1.1909">
        <ele>202</ele>
        <time>2016-06-11T08:04:09Z</time>
      </trkpt>
      <trkpt lat="43.59969" lon="1.1909">
        <ele>202</ele>
        <time>2016-06-11T08:04:11Z</time>
      </trkpt>
      <trkpt lat="43.59968" lon="1.1909">
        <ele>203</ele>
        <time>2016-06-11T08:04:12Z</time>
      </trkpt>
      <trkpt lat="43.59966" lon="1.19089">
        <ele>203</ele>
        <time>2016-06-11T08:04:14Z</time>
      </trkpt>
      <trkpt lat="43.59963" lon="1.19089">
        <ele>203</ele>
        <time>2016-06-11T08:04:16Z</time>
      </trkpt>
      <trkpt lat="43.59961" lon="1.19088">
        <ele>203</ele>
        <time>2016-06-11T08:04:17Z</time>
      </trkpt>
      <trkpt lat="43.59959" lon="1.19088">
        <ele>203</ele>
        <time>2016-06-11T08:04:19Z</time>
      </trkpt>
      <trkpt lat="43.59957" lon="1.19087">
        <ele>203</ele>
        <time>2016-06-11T08:04:20Z</time>
      </trkpt>
      <trkpt lat="43.59956" lon="1.19087">
        <ele>204</ele>
        <time>2016-06-11T08:04:21Z</time>
      </trkpt>
      <trkpt lat="43.59953" lon="1.19087">
        <ele>204</ele>
        <time>2016-06-11T08:04:23Z</time>
      </trkpt>
      <trkpt lat="43.59937" lon="1.19083">
        <ele>205</ele>
        <time>2016-06-11T08:04:31Z</time>
      </trkpt>
      <trkpt lat="43.59936" lon="1.19083">
        <ele>205</ele>
        <time>2016-06-11T08:04:32Z</time>
      </trkpt>
      <trkpt lat="43.59933" lon="1.19083">
        <ele>206</ele>
        <time>2016-06-11T08:04:34Z</time>
      </trkpt>
      <trkpt lat="43.59932" lon="1.19083">
        <ele>206</ele>
        <time>2016-06-11T08:04:36Z</time>
      </trkpt>
      <trkpt lat="43.5993" lon="1.19083">
        <ele>206</ele>
        <time>2016-06-11T08:04:38Z</time>
      </trkpt>
      <trkpt lat="43.59929" lon="1.19083">
        <ele>206</ele>
        <time>2016-06-11T08:04:40Z</time>
      </trkpt>
      <trkpt lat="43.59927" lon="1.19082">
        <ele>206</ele>
        <time>2016-06-11T08:04:42Z</time>
      </trkpt>
      <trkpt lat="43.59924" lon="1.19081">
        <ele>207</ele>
        <time>2016-06-11T08:04:44Z</time>
      </trkpt>
      <trkpt lat="43.59924" lon="1.19081">
        <ele>207</ele>
        <time>2016-06-11T08:04:45Z</time>
      </trkpt>
      <trkpt lat="43.59921" lon="1.19081">
        <ele>207</ele>
        <time>2016-06-11T08:04:47Z</time>
      </trkpt>
      <trkpt lat="43.59921" lon="1.19081">
        <ele>207</ele>
        <time>2016-06-11T08:04:48Z</time>
      </trkpt>
      <trkpt lat="43.59918" lon="1.1908">
        <ele>207</ele>
        <time>2016-06-11T08:04:50Z</time>
      </trkpt>
      <trkpt lat="43.59918" lon="1.1908">
        <ele>207</ele>
        <time>2016-06-11T08:04:51Z</time>
      </trkpt>
      <trkpt lat="43.59917" lon="1.19081">
        <ele>208</ele>
        <time>2016-06-11T08:04:52Z</time>
      </trkpt>
      <trkpt lat="43.59914" lon="1.19081">
        <ele>208</ele>
        <time>2016-06-11T08:04:54Z</time>
      </trkpt>
      <trkpt lat="43.59911" lon="1.19081">
        <ele>208</ele>
        <time>2016-06-11T08:04:56Z</time>
      </trkpt>
      <trkpt lat="43.59906" lon="1.19081">
        <ele>208</ele>
        <time>2016-06-11T08:04:58Z</time>
      </trkpt>
      <trkpt lat="43.599" lon="1.19083">
        <ele>209</ele>
        <time>2016-06-11T08:05:01Z</time>
      </trkpt>
      <trkpt lat="43.59897" lon="1.19084">
        <ele>209</ele>
        <time>2016-06-11T08:05:03Z</time>
      </trkpt>
      <trkpt lat="43.59896" lon="1.19084">
        <ele>209</ele>
        <time>2016-06-11T08:05:04Z</time>
      </trkpt>
      <trkpt lat="43.59894" lon="1.19083">
        <ele>210</ele>
        <time>2016-06-11T08:05:06Z</time>
      </trkpt>
      <trkpt lat="43.59887" lon="1.1908">
        <ele>210</ele>
        <time>2016-06-11T08:05:10Z</time>
      </trkpt>
      <trkpt lat="43.59885" lon="1.19078">
        <ele>210</ele>
        <time>2016-06-11T08:05:12Z</time>
      </trkpt>
      <trkpt lat="43.59884" lon="1.19077">
        <ele>210</ele>
        <time>2016-06-11T08:05:13Z</time>
      </trkpt>
      <trkpt lat="43.59882" lon="1.19074">
        <ele>209</ele>
        <time>2016-06-11T08:05:15Z</time>
      </trkpt>
      <trkpt lat="43.5988" lon="1.19071">
        <ele>209</ele>
        <time>2016-06-11T08:05:17Z</time>
      </trkpt>
      <trkpt lat="43.59877" lon="1.19067">
        <ele>209</ele>
        <time>2016-06-11T08:05:19Z</time>
      </trkpt>
      <trkpt lat="43.59877" lon="1.19064">
        <ele>208</ele>
        <time>2016-06-11T08:05:21Z</time>
      </trkpt>
      <trkpt lat="43.59876" lon="1.1906">
        <ele>207</ele>
        <time>2016-06-11T08:05:23Z</time>
      </trkpt>
      <trkpt lat="43.59875" lon="1.19058">
        <ele>206</ele>
        <time>2016-06-11T08:05:25Z</time>
      </trkpt>
      <trkpt lat="43.59875" lon="1.19055">
        <ele>204</ele>
        <time>2016-06-11T08:05:27Z</time>
      </trkpt>
      <trkpt lat="43.59869" lon="1.19048">
        <ele>202</ele>
        <time>2016-06-11T08:05:31Z</time>
      </trkpt>
      <trkpt lat="43.59871" lon="1.19044">
        <ele>202</ele>
        <time>2016-06-11T08:05:33Z</time>
      </trkpt>
      <trkpt lat="43.59871" lon="1.19042">
        <ele>201</ele>
        <time>2016-06-11T08:05:34Z</time>
      </trkpt>
      <trkpt lat="43.59873" lon="1.19039">
        <ele>201</ele>
        <time>2016-06-11T08:05:36Z</time>
      </trkpt>
      <trkpt lat="43.59874" lon="1.19036">
        <ele>200</ele>
        <time>2016-06-11T08:05:37Z</time>
      </trkpt>
      <trkpt lat="43.59873" lon="1.19032">
        <ele>200</ele>
        <time>2016-06-11T08:05:39Z</time>
      </trkpt>
      <trkpt lat="43.59874" lon="1.1903">
        <ele>199</ele>
        <time>2016-06-11T08:05:40Z</time>
      </trkpt>
      <trkpt lat="43.59876" lon="1.19027">
        <ele>199</ele>
        <time>2016-06-11T08:05:42Z</time>
      </trkpt>
      <trkpt lat="43.59877" lon="1.19024">
        <ele>199</ele>
        <time>2016-06-11T08:05:44Z</time>
      </trkpt>
      <trkpt lat="43.59877" lon="1.19022">
        <ele>198</ele>
        <time>2016-06-11T08:05:46Z</time>
      </trkpt>
      <trkpt lat="43.59878" lon="1.1902">
        <ele>198</ele>
        <time>2016-06-11T08:05:47Z</time>
      </trkpt>
      <trkpt lat="43.5988" lon="1.19017">
        <ele>198</ele>
        <time>2016-06-11T08:05:49Z</time>
      </trkpt>
      <trkpt lat="43.59882" lon="1.19015">
        <ele>198</ele>
        <time>2016-06-11T08:05:51Z</time>
      </trkpt>
      <trkpt lat="43.59884" lon="1.19011">
        <ele>198</ele>
        <time>2016-06-11T08:05:53Z</time>
      </trkpt>
      <trkpt lat="43.59884" lon="1.19007">
        <ele>198</ele>
        <time>2016-06-11T08:05:55Z</time>
      </trkpt>
      <trkpt lat="43.59885" lon="1.19004">
        <ele>198</ele>
        <time>2016-06-11T08:05:57Z</time>
      </trkpt>
      <trkpt lat="43.59885" lon="1.19003">
        <ele>197</ele>
        <time>2016-06-11T08:05:58Z</time>
      </trkpt>
      <trkpt lat="43.59887" lon="1.18997">
        <ele>196</ele>
        <time>2016-06-11T08:06:11Z</time>
      </trkpt>
      <trkpt lat="43.59887" lon="1.18996">
        <ele>195</ele>
        <time>2016-06-11T08:06:12Z</time>
      </trkpt>
      <trkpt lat="43.59887" lon="1.18996">
        <ele>194</ele>
        <time>2016-06-11T08:06:14Z</time>
      </trkpt>
      <trkpt lat="43.59888" lon="1.18993">
        <ele>194</ele>
        <time>2016-06-11T08:06:16Z</time>
      </trkpt>
      <trkpt lat="43.59889" lon="1.18992">
        <ele>193</ele>
        <time>2016-06-11T08:06:17Z</time>
      </trkpt>
      <trkpt lat="43.5989" lon="1.18989">
        <ele>193</ele>
        <time>2016-06-11T08:06:19Z</time>
      </trkpt>
      <trkpt lat="43.59892" lon="1.18986">
        <ele>193</ele>
        <time>2016-06-11T08:06:21Z</time>
      </trkpt>
      <trkpt lat="43.59893" lon="1.18983">
        <ele>192</ele>
        <time>2016-06-11T08:06:23Z</time>
      </trkpt>
      <trkpt lat="43.59894" lon="1.1898">
        <ele>192</ele>
        <time>2016-06-11T08:06:25Z</time>
      </trkpt>
      <trkpt lat="43.59894" lon="1.18978">
        <ele>191</ele>
        <time>2016-06-11T08:06:26Z</time>
      </trkpt>
      <trkpt lat="43.59895" lon="1.18976">
        <ele>191</ele>
        <time>2016-06-11T08:06:27Z</time>
      </trkpt>
      <trkpt lat="43.59897" lon="1.18973">
        <ele>191</ele>
        <time>2016-06-11T08:06:29Z</time>
      </trkpt>
      <trkpt lat="43.59898" lon="1.18969">
        <ele>191</ele>
        <time>2016-06-11T08:06:31Z</time>
      </trkpt>
      <trkpt lat="43.59899" lon="1.18968">
        <ele>190</ele>
        <time>2016-06-11T08:06:32Z</time>
      </trkpt>
      <trkpt lat="43.59901" lon="1.18965">
        <ele>190</ele>
        <time>2016-06-11T08:06:34Z</time>
      </trkpt>
      <trkpt lat="43.59901" lon="1.18964">
        <ele>190</ele>
        <time>2016-06-11T08:06:35Z</time>
      </trkpt>
      <trkpt lat="43.59903" lon="1.18962">
        <ele>190</ele>
        <time>2016-06-11T08:06:37Z</time>
      </trkpt>
      <trkpt lat="43.59904" lon="1.18958">
        <ele>190</ele>
        <time>2016-06-11T08:06:39Z</time>
      </trkpt>
      <trkpt lat="43.59906" lon="1.18955">
        <ele>190</ele>
        <time>2016-06-11T08:06:41Z</time>
      </trkpt>
      <trkpt lat="43.59908" lon="1.18952">
        <ele>190</ele>
        <time>2016-06-11T08:06:43Z</time>
      </trkpt>
      <trkpt lat="43.59909" lon="1.1895">
        <ele>190</ele>
        <time>2016-06-11T08:06:45Z</time>
      </trkpt>
      <trkpt lat="43.59911" lon="1.18947">
        <ele>190</ele>
        <time>2016-06-11T08:06:47Z</time>
      </trkpt>
      <trkpt lat="43.59913" lon="1.18944">
        <ele>190</ele>
        <time>2016-06-11T08:06:49Z</time>
      </trkpt>
      <trkpt lat="43.59913" lon="1.18941">
        <ele>190</ele>
        <time>2016-06-11T08:06:51Z</time>
      </trkpt>
      <trkpt lat="43.59914" lon="1.1894">
        <ele>190</ele>
        <time>2016-06-11T08:06:52Z</time>
      </trkpt>
      <trkpt lat="43.59915" lon="1.18936">
        <ele>190</ele>
        <time>2016-06-11T08:06:54Z</time>
      </trkpt>
      <trkpt lat="43.59917" lon="1.18932">
        <ele>190</ele>
        <time>2016-06-11T08:06:56Z</time>
      </trkpt>
      <trkpt lat="43.59917" lon="1.1893">
        <ele>190</ele>
        <time>2016-06-11T08:06:57Z</time>
      </trkpt>
      <trkpt lat="43.59917" lon="1.18929">
        <ele>190</ele>
        <time>2016-06-11T08:06:58Z</time>
      </trkpt>
      <trkpt lat="43.59918" lon="1.18926">
        <ele>190</ele>
        <time>2016-06-11T08:07:00Z</time>
      </trkpt>
      <trkpt lat="43.59919" lon="1.18925">
        <ele>190</ele>
        <time>2016-06-11T08:07:01Z</time>
      </trkpt>
      <trkpt lat="43.59921" lon="1.18921">
        <ele>190</ele>
        <time>2016-06-11T08:07:03Z</time>
      </trkpt>
      <trkpt lat="43.59922" lon="1.1892">
        <ele>190</ele>
        <time>2016-06-11T08:07:04Z</time>
      </trkpt>
      <trkpt lat="43.59924" lon="1.18917">
        <ele>190</ele>
        <time>2016-06-11T08:07:06Z</time>
      </trkpt>
      <trkpt lat="43.59924" lon="1.18916">
        <ele>190</ele>
        <time>2016-06-11T08:07:07Z</time>
      </trkpt>
      <trkpt lat="43.59925" lon="1.18914">
        <ele>190</ele>
        <time>2016-06-11T08:07:08Z</time>
      </trkpt>
      <trkpt lat="43.59927" lon="1.18912">
        <ele>190</ele>
        <time>2016-06-11T08:07:10Z</time>
      </trkpt>
      <trkpt lat="43.59928" lon="1.1891">
        <ele>190</ele>
        <time>2016-06-11T08:07:11Z</time>
      </trkpt>
      <trkpt lat="43.59929" lon="1.18909">
        <ele>190</ele>
        <time>2016-06-11T08:07:12Z</time>
      </trkpt>
      <trkpt lat="43.5993" lon="1.18906">
        <ele>190</ele>
        <time>2016-06-11T08:07:14Z</time>
      </trkpt>
      <trkpt lat="43.59932" lon="1.18903">
        <ele>190</ele>
        <time>2016-06-11T08:07:16Z</time>
      </trkpt>
      <trkpt lat="43.59934" lon="1.189">
        <ele>190</ele>
        <time>2016-06-11T08:07:18Z</time>
      </trkpt>
      <trkpt lat="43.59935" lon="1.18898">
        <ele>190</ele>
        <time>2016-06-11T08:07:19Z</time>
      </trkpt>
      <trkpt lat="43.59937" lon="1.18895">
        <ele>190</ele>
        <time>2016-06-11T08:07:21Z</time>
      </trkpt>
      <trkpt lat="43.59937" lon="1.18894">
        <ele>190</ele>
        <time>2016-06-11T08:07:22Z</time>
      </trkpt>
      <trkpt lat="43.59939" lon="1.18892">
        <ele>190</ele>
        <time>2016-06-11T08:07:24Z</time>
      </trkpt>
      <trkpt lat="43.5994" lon="1.1889">
        <ele>190</ele>
        <time>2016-06-11T08:07:25Z</time>
      </trkpt>
      <trkpt lat="43.59941" lon="1.18887">
        <ele>190</ele>
        <time>2016-06-11T08:07:27Z</time>
      </trkpt>
      <trkpt lat="43.59942" lon="1.18886">
        <ele>190</ele>
        <time>2016-06-11T08:07:28Z</time>
      </trkpt>
      <trkpt lat="43.59942" lon="1.18883">
        <ele>190</ele>
        <time>2016-06-11T08:07:30Z</time>
      </trkpt>
      <trkpt lat="43.59943" lon="1.18879">
        <ele>191</ele>
        <time>2016-06-11T08:07:32Z</time>
      </trkpt>
      <trkpt lat="43.59944" lon="1.18876">
        <ele>191</ele>
        <time>2016-06-11T08:07:34Z</time>
      </trkpt>
      <trkpt lat="43.59945" lon="1.18873">
        <ele>191</ele>
        <time>2016-06-11T08:07:36Z</time>
      </trkpt>
      <trkpt lat="43.59946" lon="1.18871">
        <ele>192</ele>
        <time>2016-06-11T08:07:37Z</time>
      </trkpt>
      <trkpt lat="43.59947" lon="1.18867">
        <ele>192</ele>
        <time>2016-06-11T08:07:39Z</time>
      </trkpt>
      <trkpt lat="43.59948" lon="1.18865">
        <ele>192</ele>
        <time>2016-06-11T08:07:40Z</time>
      </trkpt>
      <trkpt lat="43.5995" lon="1.18862">
        <ele>192</ele>
        <time>2016-06-11T08:07:42Z</time>
      </trkpt>
      <trkpt lat="43.59951" lon="1.1886">
        <ele>193</ele>
        <time>2016-06-11T08:07:43Z</time>
      </trkpt>
      <trkpt lat="43.59951" lon="1.18858">
        <ele>193</ele>
        <time>2016-06-11T08:07:44Z</time>
      </trkpt>
      <trkpt lat="43.59952" lon="1.18857">
        <ele>193</ele>
        <time>2016-06-11T08:07:45Z</time>
      </trkpt>
      <trkpt lat="43.59953" lon="1.18853">
        <ele>193</ele>
        <time>2016-06-11T08:07:47Z</time>
      </trkpt>
      <trkpt lat="43.59954" lon="1.18852">
        <ele>193</ele>
        <time>2016-06-11T08:07:48Z</time>
      </trkpt>
      <trkpt lat="43.59955" lon="1.18848">
        <ele>192</ele>
        <time>2016-06-11T08:07:50Z</time>
      </trkpt>
      <trkpt lat="43.59957" lon="1.18844">
        <ele>192</ele>
        <time>2016-06-11T08:07:52Z</time>
      </trkpt>
      <trkpt lat="43.59958" lon="1.18841">
        <ele>192</ele>
        <time>2016-06-11T08:07:54Z</time>
      </trkpt>
      <trkpt lat="43.5996" lon="1.18838">
        <ele>192</ele>
        <time>2016-06-11T08:07:56Z</time>
      </trkpt>
      <trkpt lat="43.59961" lon="1.18836">
        <ele>192</ele>
        <time>2016-06-11T08:07:57Z</time>
      </trkpt>
      <trkpt lat="43.59962" lon="1.18834">
        <ele>192</ele>
        <time>2016-06-11T08:07:59Z</time>
      </trkpt>
      <trkpt lat="43.59963" lon="1.1883">
        <ele>192</ele>
        <time>2016-06-11T08:08:01Z</time>
      </trkpt>
      <trkpt lat="43.59964" lon="1.18829">
        <ele>193</ele>
        <time>2016-06-11T08:08:02Z</time>
      </trkpt>
      <trkpt lat="43.59965" lon="1.18827">
        <ele>193</ele>
        <time>2016-06-11T08:08:03Z</time>
      </trkpt>
      <trkpt lat="43.59967" lon="1.18824">
        <ele>193</ele>
        <time>2016-06-11T08:08:05Z</time>
      </trkpt>
      <trkpt lat="43.59968" lon="1.18821">
        <ele>193</ele>
        <time>2016-06-11T08:08:07Z</time>
      </trkpt>
      <trkpt lat="43.59969" lon="1.18818">
        <ele>194</ele>
        <time>2016-06-11T08:08:09Z</time>
      </trkpt>
      <trkpt lat="43.59969" lon="1.18817">
        <ele>194</ele>
        <time>2016-06-11T08:08:10Z</time>
      </trkpt>
      <trkpt lat="43.5997" lon="1.18815">
        <ele>194</ele>
        <time>2016-06-11T08:08:11Z</time>
      </trkpt>
      <trkpt lat="43.59971" lon="1.18813">
        <ele>195</ele>
        <time>2016-06-11T08:08:12Z</time>
      </trkpt>
      <trkpt lat="43.59972" lon="1.1881">
        <ele>195</ele>
        <time>2016-06-11T08:08:14Z</time>
      </trkpt>
      <trkpt lat="43.59974" lon="1.18807">
        <ele>195</ele>
        <time>2016-06-11T08:08:16Z</time>
      </trkpt>
      <trkpt lat="43.59975" lon="1.18803">
        <ele>195</ele>
        <time>2016-06-11T08:08:18Z</time>
      </trkpt>
      <trkpt lat="43.59977" lon="1.188">
        <ele>196</ele>
        <time>2016-06-11T08:08:20Z</time>
      </trkpt>
      <trkpt lat="43.59977" lon="1.18798">
        <ele>196</ele>
        <time>2016-06-11T08:08:21Z</time>
      </trkpt>
      <trkpt lat="43.59979" lon="1.18795">
        <ele>196</ele>
        <time>2016-06-11T08:08:23Z</time>
      </trkpt>
      <trkpt lat="43.5998" lon="1.18792">
        <ele>196</ele>
        <time>2016-06-11T08:08:25Z</time>
      </trkpt>
      <trkpt lat="43.5998" lon="1.1879">
        <ele>196</ele>
        <time>2016-06-11T08:08:26Z</time>
      </trkpt>
      <trkpt lat="43.59982" lon="1.18788">
        <ele>197</ele>
        <time>2016-06-11T08:08:28Z</time>
      </trkpt>
      <trkpt lat="43.59984" lon="1.18785">
        <ele>197</ele>
        <time>2016-06-11T08:08:30Z</time>
      </trkpt>
      <trkpt lat="43.59985" lon="1.18783">
        <ele>197</ele>
        <time>2016-06-11T08:08:31Z</time>
      </trkpt>
      <trkpt lat="43.59985" lon="1.18782">
        <ele>197</ele>
        <time>2016-06-11T08:08:32Z</time>
      </trkpt>
      <trkpt lat="43.59987" lon="1.18779">
        <ele>197</ele>
        <time>2016-06-11T08:08:34Z</time>
      </trkpt>
      <trkpt lat="43.59988" lon="1.18775">
        <ele>197</ele>
        <time>2016-06-11T08:08:36Z</time>
      </trkpt>
      <trkpt lat="43.59989" lon="1.18772">
        <ele>198</ele>
        <time>2016-06-11T08:08:38Z</time>
      </trkpt>
      <trkpt lat="43.5999" lon="1.1877">
        <ele>198</ele>
        <time>2016-06-11T08:08:39Z</time>
      </trkpt>
      <trkpt lat="43.5999" lon="1.18769">
        <ele>198</ele>
        <time>2016-06-11T08:08:40Z</time>
      </trkpt>
      <trkpt lat="43.59992" lon="1.18766">
        <ele>198</ele>
        <time>2016-06-11T08:08:42Z</time>
      </trkpt>
      <trkpt lat="43.59994" lon="1.18764">
        <ele>198</ele>
        <time>2016-06-11T08:08:44Z</time>
      </trkpt>
      <trkpt lat="43.59995" lon="1.18761">
        <ele>198</ele>
        <time>2016-06-11T08:08:46Z</time>
      </trkpt>
      <trkpt lat="43.59997" lon="1.18758">
        <ele>198</ele>
        <time>2016-06-11T08:08:48Z</time>
      </trkpt>
      <trkpt lat="43.59998" lon="1.18755">
        <ele>198</ele>
        <time>2016-06-11T08:08:50Z</time>
      </trkpt>
      <trkpt lat="43.59999" lon="1.18753">
        <ele>198</ele>
        <time>2016-06-11T08:08:52Z</time>
      </trkpt>
      <trkpt lat="43.6" lon="1.18751">
        <ele>198</ele>
        <time>2016-06-11T08:08:54Z</time>
      </trkpt>
      <trkpt lat="43.6" lon="1.1875">
        <ele>198</ele>
        <time>2016-06-11T08:08:56Z</time>
      </trkpt>
      <trkpt lat="43.6" lon="1.18749">
        <ele>198</ele>
        <time>2016-06-11T08:08:57Z</time>
      </trkpt>
      <trkpt lat="43.6" lon="1.18749">
        <ele>198</ele>
        <time>2016-06-11T08:08:59Z</time>
      </trkpt>
      <trkpt lat="43.6" lon="1.18749">
        <ele>198</ele>
        <time>2016-06-11T08:09:31Z</time>
      </trkpt>
      <trkpt lat="43.6" lon="1.18749">
        <ele>198</ele>
        <time>2016-06-11T08:09:32Z</time>
      </trkpt>
      <trkpt lat="43.6" lon="1.18749">
        <ele>198</ele>
        <time>2016-06-11T08:09:51Z</time>
      </trkpt>
      <trkpt lat="43.6" lon="1.18749">
        <ele>198</ele>
        <time>2016-06-11T08:09:53Z</time>
      </trkpt>
      <trkpt lat="43.6" lon="1.18749">
        <ele>198</ele>
        <time>2016-06-11T08:10:12Z</time>
      </trkpt>
      <trkpt lat="43.6" lon="1.18749">
        <ele>198</ele>
        <time>2016-06-11T08:10:14Z</time>
      </trkpt>
      <trkpt lat="43.6" lon="1.18749">
        <ele>198</ele>
        <time>2016-06-11T08:10:33Z</time>
      </trkpt>
      <trkpt lat="43.6" lon="1.18749">
        <ele>198</ele>
        <time>2016-06-11T08:10:34Z</time>
      </trkpt>
      <trkpt lat="43.6" lon="1.18749">
        <ele>198</ele>
        <time>2016-06-11T08:10:52Z</time>
      </trkpt>
      <trkpt lat="43.6" lon="1.18749">
        <ele>198</ele>
        <time>2016-06-11T08:10:54Z</time>
      </trkpt>
      <trkpt lat="43.59993" lon="1.18739">
        <ele>192</ele>
        <time>2016-06-11T08:12:40Z</time>
      </trkpt>
      <trkpt lat="43.59992" lon="1.18738">
        <ele>191</ele>
        <time>2016-06-11T08:12:41Z</time>
      </trkpt>
      <trkpt lat="43.59989" lon="1.18736">
        <ele>189</ele>
        <time>2016-06-11T08:12:43Z</time>
      </trkpt>
      <trkpt lat="43.59988" lon="1.18735">
        <ele>189</ele>
        <time>2016-06-11T08:12:44Z</time>
      </trkpt>
      <trkpt lat="43.59985" lon="1.18733">
        <ele>189</ele>
        <time>2016-06-11T08:12:46Z</time>
      </trkpt>
      <trkpt lat="43.59983" lon="1.18731">
        <ele>189</ele>
        <time>2016-06-11T08:12:48Z</time>
      </trkpt>
      <trkpt lat="43.5998" lon="1.18728">
        <ele>189</ele>
        <time>2016-06-11T08:12:50Z</time>
      </trkpt>
      <trkpt lat="43.59979" lon="1.18727">
        <ele>189</ele>
        <time>2016-06-11T08:12:51Z</time>
      </trkpt>
      <trkpt lat="43.59978" lon="1.18726">
        <ele>188</ele>
        <time>2016-06-11T08:12:52Z</time>
      </trkpt>
      <trkpt lat="43.59976" lon="1.18723">
        <ele>188</ele>
        <time>2016-06-11T08:12:54Z</time>
      </trkpt>
      <trkpt lat="43.59974" lon="1.18721">
        <ele>188</ele>
        <time>2016-06-11T08:12:56Z</time>
      </trkpt>
      <trkpt lat="43.59971" lon="1.18719">
        <ele>188</ele>
        <time>2016-06-11T08:12:58Z</time>
      </trkpt>
      <trkpt lat="43.5997" lon="1.18718">
        <ele>188</ele>
        <time>2016-06-11T08:12:59Z</time>
      </trkpt>
      <trkpt lat="43.59967" lon="1.18716">
        <ele>188</ele>
        <time>2016-06-11T08:13:01Z</time>
      </trkpt>
      <trkpt lat="43.59964" lon="1.18713">
        <ele>188</ele>
        <time>2016-06-11T08:13:03Z</time>
      </trkpt>
      <trkpt lat="43.59961" lon="1.18711">
        <ele>188</ele>
        <time>2016-06-11T08:13:05Z</time>
      </trkpt>
      <trkpt lat="43.59959" lon="1.18708">
        <ele>188</ele>
        <time>2016-06-11T08:13:07Z</time>
      </trkpt>
      <trkpt lat="43.59956" lon="1.18707">
        <ele>188</ele>
        <time>2016-06-11T08:13:09Z</time>
      </trkpt>
      <trkpt lat="43.59955" lon="1.18705">
        <ele>189</ele>
        <time>2016-06-11T08:13:10Z</time>
      </trkpt>
      <trkpt lat="43.59953" lon="1.18703">
        <ele>189</ele>
        <time>2016-06-11T08:13:12Z</time>
      </trkpt>
      <trkpt lat="43.5995" lon="1.18701">
        <ele>189</ele>
        <time>2016-06-11T08:13:14Z</time>
      </trkpt>
      <trkpt lat="43.59947" lon="1.18698">
        <ele>189</ele>
        <time>2016-06-11T08:13:16Z</time>
      </trkpt>
      <trkpt lat="43.59944" lon="1.18696">
        <ele>190</ele>
        <time>2016-06-11T08:13:18Z</time>
      </trkpt>
      <trkpt lat="43.59941" lon="1.18693">
        <ele>190</ele>
        <time>2016-06-11T08:13:20Z</time>
      </trkpt>
      <trkpt lat="43.59938" lon="1.18691">
        <ele>190</ele>
        <time>2016-06-11T08:13:22Z</time>
      </trkpt>
      <trkpt lat="43.59935" lon="1.18688">
        <ele>190</ele>
        <time>2016-06-11T08:13:24Z</time>
      </trkpt>
      <trkpt lat="43.59932" lon="1.18686">
        <ele>190</ele>
        <time>2016-06-11T08:13:26Z</time>
      </trkpt>
      <trkpt lat="43.5993" lon="1.18684">
        <ele>190</ele>
        <time>2016-06-11T08:13:28Z</time>
      </trkpt>
      <trkpt lat="43.59928" lon="1.18683">
        <ele>190</ele>
        <time>2016-06-11T08:13:29Z</time>
      </trkpt>
      <trkpt lat="43.59925" lon="1.1868">
        <ele>190</ele>
        <time>2016-06-11T08:13:31Z</time>
      </trkpt>
      <trkpt lat="43.59924" lon="1.18679">
        <ele>190</ele>
        <time>2016-06-11T08:13:32Z</time>
      </trkpt>
      <trkpt lat="43.59922" lon="1.18678">
        <ele>190</ele>
        <time>2016-06-11T08:13:33Z</time>
      </trkpt>
      <trkpt lat="43.59921" lon="1.18677">
        <ele>190</ele>
        <time>2016-06-11T08:13:34Z</time>
      </trkpt>
      <trkpt lat="43.59918" lon="1.18675">
        <ele>190</ele>
        <time>2016-06-11T08:13:36Z</time>
      </trkpt>
      <trkpt lat="43.59916" lon="1.18674">
        <ele>190</ele>
        <time>2016-06-11T08:13:37Z</time>
      </trkpt>
      <trkpt lat="43.59915" lon="1.18673">
        <ele>189</ele>
        <time>2016-06-11T08:13:38Z</time>
      </trkpt>
      <trkpt lat="43.59913" lon="1.18672">
        <ele>189</ele>
        <time>2016-06-11T08:13:39Z</time>
      </trkpt>
      <trkpt lat="43.59911" lon="1.18668">
        <ele>189</ele>
        <time>2016-06-11T08:13:41Z</time>
      </trkpt>
      <trkpt lat="43.59911" lon="1.18666">
        <ele>189</ele>
        <time>2016-06-11T08:13:42Z</time>
      </trkpt>
      <trkpt lat="43.59911" lon="1.18664">
        <ele>189</ele>
        <time>2016-06-11T08:13:43Z</time>
      </trkpt>
      <trkpt lat="43.59911" lon="1.18663">
        <ele>189</ele>
        <time>2016-06-11T08:13:44Z</time>
      </trkpt>
      <trkpt lat="43.59912" lon="1.18661">
        <ele>189</ele>
        <time>2016-06-11T08:13:45Z</time>
      </trkpt>
      <trkpt lat="43.59913" lon="1.18658">
        <ele>189</ele>
        <time>2016-06-11T08:13:47Z</time>
      </trkpt>
      <trkpt lat="43.59915" lon="1.18654">
        <ele>189</ele>
        <time>2016-06-11T08:13:49Z</time>
      </trkpt>
      <trkpt lat="43.59917" lon="1.18652">
        <ele>188</ele>
        <time>2016-06-11T08:13:51Z</time>
      </trkpt>
      <trkpt lat="43.59918" lon="1.1865">
        <ele>188</ele>
        <time>2016-06-11T08:13:52Z</time>
      </trkpt>
      <trkpt lat="43.59919" lon="1.18646">
        <ele>189</ele>
        <time>2016-06-11T08:13:54Z</time>
      </trkpt>
      <trkpt lat="43.5992" lon="1.18641">
        <ele>189</ele>
        <time>2016-06-11T08:13:56Z</time>
      </trkpt>
      <trkpt lat="43.59922" lon="1.18637">
        <ele>189</ele>
        <time>2016-06-11T08:13:58Z</time>
      </trkpt>
      <trkpt lat="43.59925" lon="1.18632">
        <ele>189</ele>
        <time>2016-06-11T08:14:00Z</time>
      </trkpt>
      <trkpt lat="43.59926" lon="1.1863">
        <ele>190</ele>
        <time>2016-06-11T08:14:01Z</time>
      </trkpt>
      <trkpt lat="43.59928" lon="1.18626">
        <ele>190</ele>
        <time>2016-06-11T08:14:03Z</time>
      </trkpt>
      <trkpt lat="43.59929" lon="1.18624">
        <ele>191</ele>
        <time>2016-06-11T08:14:04Z</time>
      </trkpt>
      <trkpt lat="43.59931" lon="1.1862">
        <ele>192</ele>
        <time>2016-06-11T08:14:06Z</time>
      </trkpt>
      <trkpt lat="43.59933" lon="1.18617">
        <ele>192</ele>
        <time>2016-06-11T08:14:08Z</time>
      </trkpt>
      <trkpt lat="43.59933" lon="1.18615">
        <ele>192</ele>
        <time>2016-06-11T08:14:09Z</time>
      </trkpt>
      <trkpt lat="43.59934" lon="1.18613">
        <ele>192</ele>
        <time>2016-06-11T08:14:10Z</time>
      </trkpt>
      <trkpt lat="43.59935" lon="1.18609">
        <ele>193</ele>
        <time>2016-06-11T08:14:12Z</time>
      </trkpt>
      <trkpt lat="43.59936" lon="1.18605">
        <ele>193</ele>
        <time>2016-06-11T08:14:14Z</time>
      </trkpt>
      <trkpt lat="43.59938" lon="1.18602">
        <ele>193</ele>
        <time>2016-06-11T08:14:16Z</time>
      </trkpt>
      <trkpt lat="43.59939" lon="1.18598">
        <ele>193</ele>
        <time>2016-06-11T08:14:18Z</time>
      </trkpt>
      <trkpt lat="43.5994" lon="1.18594">
        <ele>193</ele>
        <time>2016-06-11T08:14:20Z</time>
      </trkpt>
      <trkpt lat="43.59942" lon="1.18589">
        <ele>194</ele>
        <time>2016-06-11T08:14:22Z</time>
      </trkpt>
      <trkpt lat="43.59944" lon="1.18586">
        <ele>194</ele>
        <time>2016-06-11T08:14:24Z</time>
      </trkpt>
      <trkpt lat="43.59946" lon="1.18584">
        <ele>194</ele>
        <time>2016-06-11T08:14:25Z</time>
      </trkpt>
      <trkpt lat="43.59947" lon="1.1858">
        <ele>194</ele>
        <time>2016-06-11T08:14:27Z</time>
      </trkpt>
      <trkpt lat="43.59948" lon="1.18577">
        <ele>195</ele>
        <time>2016-06-11T08:14:28Z</time>
      </trkpt>
      <trkpt lat="43.59949" lon="1.18574">
        <ele>195</ele>
        <time>2016-06-11T08:14:30Z</time>
      </trkpt>
      <trkpt lat="43.5995" lon="1.18571">
        <ele>195</ele>
        <time>2016-06-11T08:14:32Z</time>
      </trkpt>
      <trkpt lat="43.59952" lon="1.18567">
        <ele>195</ele>
        <time>2016-06-11T08:14:34Z</time>
      </trkpt>
      <trkpt lat="43.59954" lon="1.18562">
        <ele>195</ele>
        <time>2016-06-11T08:14:36Z</time>
      </trkpt>
      <trkpt lat="43.59955" lon="1.1856">
        <ele>195</ele>
        <time>2016-06-11T08:14:37Z</time>
      </trkpt>
      <trkpt lat="43.59956" lon="1.18559">
        <ele>195</ele>
        <time>2016-06-11T08:14:38Z</time>
      </trkpt>
      <trkpt lat="43.59957" lon="1.18557">
        <ele>195</ele>
        <time>2016-06-11T08:14:39Z</time>
      </trkpt>
      <trkpt lat="43.59958" lon="1.18555">
        <ele>195</ele>
        <time>2016-06-11T08:14:41Z</time>
      </trkpt>
      <trkpt lat="43.59959" lon="1.18552">
        <ele>195</ele>
        <time>2016-06-11T08:14:43Z</time>
      </trkpt>
      <trkpt lat="43.59961" lon="1.18549">
        <ele>195</ele>
        <time>2016-06-11T08:14:44Z</time>
      </trkpt>
      <trkpt lat="43.59961" lon="1.18547">
        <ele>195</ele>
        <time>2016-06-11T08:14:45Z</time>
      </trkpt>
      <trkpt lat="43.59963" lon="1.18543">
        <ele>195</ele>
        <time>2016-06-11T08:14:47Z</time>
      </trkpt>
      <trkpt lat="43.59964" lon="1.18541">
        <ele>195</ele>
        <time>2016-06-11T08:14:48Z</time>
      </trkpt>
      <trkpt lat="43.59966" lon="1.18537">
        <ele>196</ele>
        <time>2016-06-11T08:14:50Z</time>
      </trkpt>
      <trkpt lat="43.59966" lon="1.18535">
        <ele>196</ele>
        <time>2016-06-11T08:14:51Z</time>
      </trkpt>
      <trkpt lat="43.59967" lon="1.18533">
        <ele>196</ele>
        <time>2016-06-11T08:14:52Z</time>
      </trkpt>
      <trkpt lat="43.59968" lon="1.1853">
        <ele>196</ele>
        <time>2016-06-11T08:14:54Z</time>
      </trkpt>
      <trkpt lat="43.59969" lon="1.18529">
        <ele>196</ele>
        <time>2016-06-11T08:14:55Z</time>
      </trkpt>
      <trkpt lat="43.59971" lon="1.18524">
        <ele>196</ele>
        <time>2016-06-11T08:14:57Z</time>
      </trkpt>
      <trkpt lat="43.59971" lon="1.18521">
        <ele>196</ele>
        <time>2016-06-11T08:14:58Z</time>
      </trkpt>
      <trkpt lat="43.59973" lon="1.18516">
        <ele>196</ele>
        <time>2016-06-11T08:15:00Z</time>
      </trkpt>
      <trkpt lat="43.59973" lon="1.18514">
        <ele>196</ele>
        <time>2016-06-11T08:15:01Z</time>
      </trkpt>
      <trkpt lat="43.59975" lon="1.18511">
        <ele>196</ele>
        <time>2016-06-11T08:15:03Z</time>
      </trkpt>
      <trkpt lat="43.59977" lon="1.18508">
        <ele>196</ele>
        <time>2016-06-11T08:15:04Z</time>
      </trkpt>
      <trkpt lat="43.59979" lon="1.18505">
        <ele>196</ele>
        <time>2016-06-11T08:15:06Z</time>
      </trkpt>
      <trkpt lat="43.59981" lon="1.185">
        <ele>196</ele>
        <time>2016-06-11T08:15:08Z</time>
      </trkpt>
      <trkpt lat="43.59983" lon="1.18496">
        <ele>196</ele>
        <time>2016-06-11T08:15:10Z</time>
      </trkpt>
      <trkpt lat="43.59985" lon="1.18492">
        <ele>196</ele>
        <time>2016-06-11T08:15:12Z</time>
      </trkpt>
      <trkpt lat="43.59987" lon="1.18489">
        <ele>196</ele>
        <time>2016-06-11T08:15:14Z</time>
      </trkpt>
      <trkpt lat="43.59988" lon="1.18485">
        <ele>196</ele>
        <time>2016-06-11T08:15:16Z</time>
      </trkpt>
      <trkpt lat="43.59989" lon="1.18481">
        <ele>196</ele>
        <time>2016-06-11T08:15:18Z</time>
      </trkpt>
      <trkpt lat="43.5999" lon="1.18477">
        <ele>196</ele>
        <time>2016-06-11T08:15:20Z</time>
      </trkpt>
      <trkpt lat="43.59992" lon="1.18474">
        <ele>195</ele>
        <time>2016-06-11T08:15:22Z</time>
      </trkpt>
      <trkpt lat="43.59993" lon="1.1847">
        <ele>195</ele>
        <time>2016-06-11T08:15:24Z</time>
      </trkpt>
      <trkpt lat="43.59995" lon="1.18466">
        <ele>195</ele>
        <time>2016-06-11T08:15:27Z</time>
      </trkpt>
      <trkpt lat="43.59996" lon="1.18465">
        <ele>195</ele>
        <time>2016-06-11T08:15:28Z</time>
      </trkpt>
      <trkpt lat="43.59997" lon="1.18461">
        <ele>195</ele>
        <time>2016-06-11T08:15:30Z</time>
      </trkpt>
      <trkpt lat="43.59998" lon="1.1846">
        <ele>195</ele>
        <time>2016-06-11T08:15:31Z</time>
      </trkpt>
      <trkpt lat="43.59999" lon="1.18459">
        <ele>195</ele>
        <time>2016-06-11T08:15:32Z</time>
      </trkpt>
      <trkpt lat="43.60001" lon="1.18455">
        <ele>195</ele>
        <time>2016-06-11T08:15:34Z</time>
      </trkpt>
      <trkpt lat="43.60004" lon="1.18452">
        <ele>195</ele>
        <time>2016-06-11T08:15:36Z</time>
      </trkpt>
      <trkpt lat="43.60006" lon="1.18448">
        <ele>195</ele>
        <time>2016-06-11T08:15:38Z</time>
      </trkpt>
      <trkpt lat="43.60008" lon="1.18444">
        <ele>195</ele>
        <time>2016-06-11T08:15:40Z</time>
      </trkpt>
      <trkpt lat="43.60009" lon="1.1844">
        <ele>196</ele>
        <time>2016-06-11T08:15:42Z</time>
      </trkpt>
      <trkpt lat="43.6001" lon="1.18436">
        <ele>196</ele>
        <time>2016-06-11T08:15:44Z</time>
      </trkpt>
      <trkpt lat="43.60011" lon="1.18434">
        <ele>196</ele>
        <time>2016-06-11T08:15:45Z</time>
      </trkpt>
      <trkpt lat="43.60011" lon="1.18432">
        <ele>196</ele>
        <time>2016-06-11T08:15:46Z</time>
      </trkpt>
      <trkpt lat="43.60012" lon="1.1843">
        <ele>197</ele>
        <time>2016-06-11T08:15:48Z</time>
      </trkpt>
      <trkpt lat="43.60013" lon="1.18429">
        <ele>197</ele>
        <time>2016-06-11T08:15:49Z</time>
      </trkpt>
      <trkpt lat="43.60014" lon="1.18427">
        <ele>197</ele>
        <time>2016-06-11T08:15:50Z</time>
      </trkpt>
      <trkpt lat="43.60014" lon="1.18424">
        <ele>198</ele>
        <time>2016-06-11T08:15:52Z</time>
      </trkpt>
      <trkpt lat="43.60014" lon="1.18422">
        <ele>198</ele>
        <time>2016-06-11T08:15:53Z</time>
      </trkpt>
      <trkpt lat="43.60015" lon="1.1842">
        <ele>199</ele>
        <time>2016-06-11T08:15:55Z</time>
      </trkpt>
      <trkpt lat="43.60016" lon="1.18417">
        <ele>199</ele>
        <time>2016-06-11T08:15:57Z</time>
      </trkpt>
      <trkpt lat="43.60016" lon="1.18416">
        <ele>200</ele>
        <time>2016-06-11T08:15:58Z</time>
      </trkpt>
      <trkpt lat="43.60017" lon="1.18412">
        <ele>200</ele>
        <time>2016-06-11T08:16:00Z</time>
      </trkpt>
      <trkpt lat="43.60018" lon="1.1841">
        <ele>201</ele>
        <time>2016-06-11T08:16:01Z</time>
      </trkpt>
      <trkpt lat="43.60019" lon="1.18407">
        <ele>202</ele>
        <time>2016-06-11T08:16:03Z</time>
      </trkpt>
      <trkpt lat="43.60021" lon="1.18403">
        <ele>203</ele>
        <time>2016-06-11T08:16:05Z</time>
      </trkpt>
      <trkpt lat="43.60023" lon="1.18401">
        <ele>203</ele>
        <time>2016-06-11T08:16:07Z</time>
      </trkpt>
      <trkpt lat="43.60024" lon="1.18398">
        <ele>204</ele>
        <time>2016-06-11T08:16:09Z</time>
      </trkpt>
      <trkpt lat="43.60024" lon="1.18396">
        <ele>205</ele>
        <time>2016-06-11T08:16:10Z</time>
      </trkpt>
      <trkpt lat="43.60025" lon="1.18394">
        <ele>205</ele>
        <time>2016-06-11T08:16:11Z</time>
      </trkpt>
      <trkpt lat="43.60027" lon="1.18391">
        <ele>206</ele>
        <time>2016-06-11T08:16:13Z</time>
      </trkpt>
      <trkpt lat="43.60028" lon="1.1839">
        <ele>206</ele>
        <time>2016-06-11T08:16:14Z</time>
      </trkpt>
      <trkpt lat="43.60028" lon="1.18388">
        <ele>207</ele>
        <time>2016-06-11T08:16:15Z</time>
      </trkpt>
      <trkpt lat="43.6003" lon="1.18386">
        <ele>208</ele>
        <time>2016-06-11T08:16:17Z</time>
      </trkpt>
      <trkpt lat="43.60031" lon="1.18384">
        <ele>208</ele>
        <time>2016-06-11T08:16:18Z</time>
      </trkpt>
      <trkpt lat="43.60032" lon="1.18381">
        <ele>209</ele>
        <time>2016-06-11T08:16:20Z</time>
      </trkpt>
      <trkpt lat="43.60033" lon="1.1838">
        <ele>210</ele>
        <time>2016-06-11T08:16:21Z</time>
      </trkpt>
      <trkpt lat="43.60035" lon="1.18377">
        <ele>210</ele>
        <time>2016-06-11T08:16:23Z</time>
      </trkpt>
      <trkpt lat="43.60036" lon="1.18375">
        <ele>211</ele>
        <time>2016-06-11T08:16:25Z</time>
      </trkpt>
      <trkpt lat="43.60038" lon="1.18371">
        <ele>211</ele>
        <time>2016-06-11T08:16:27Z</time>
      </trkpt>
      <trkpt lat="43.60038" lon="1.1837">
        <ele>212</ele>
        <time>2016-06-11T08:16:28Z</time>
      </trkpt>
      <trkpt lat="43.60038" lon="1.18367">
        <ele>212</ele>
        <time>2016-06-11T08:16:30Z</time>
      </trkpt>
      <trkpt lat="43.60039" lon="1.18365">
        <ele>213</ele>
        <time>2016-06-11T08:16:31Z</time>
      </trkpt>
      <trkpt lat="43.6004" lon="1.18364">
        <ele>213</ele>
        <time>2016-06-11T08:16:32Z</time>
      </trkpt>
      <trkpt lat="43.60043" lon="1.18361">
        <ele>213</ele>
        <time>2016-06-11T08:16:34Z</time>
      </trkpt>
      <trkpt lat="43.60045" lon="1.18355">
        <ele>214</ele>
        <time>2016-06-11T08:16:36Z</time>
      </trkpt>
      <trkpt lat="43.60048" lon="1.18352">
        <ele>214</ele>
        <time>2016-06-11T08:16:38Z</time>
      </trkpt>
      <trkpt lat="43.60049" lon="1.18347">
        <ele>215</ele>
        <time>2016-06-11T08:16:40Z</time>
      </trkpt>
      <trkpt lat="43.60052" lon="1.18344">
        <ele>216</ele>
        <time>2016-06-11T08:16:42Z</time>
      </trkpt>
      <trkpt lat="43.60052" lon="1.18343">
        <ele>217</ele>
        <time>2016-06-11T08:16:43Z</time>
      </trkpt>
      <trkpt lat="43.60053" lon="1.18339">
        <ele>217</ele>
        <time>2016-06-11T08:16:45Z</time>
      </trkpt>
      <trkpt lat="43.60057" lon="1.18334">
        <ele>218</ele>
        <time>2016-06-11T08:16:48Z</time>
      </trkpt>
      <trkpt lat="43.60058" lon="1.1833">
        <ele>219</ele>
        <time>2016-06-11T08:16:50Z</time>
      </trkpt>
      <trkpt lat="43.60058" lon="1.18329">
        <ele>219</ele>
        <time>2016-06-11T08:16:51Z</time>
      </trkpt>
      <trkpt lat="43.60059" lon="1.18327">
        <ele>220</ele>
        <time>2016-06-11T08:16:52Z</time>
      </trkpt>
      <trkpt lat="43.60059" lon="1.18326">
        <ele>220</ele>
        <time>2016-06-11T08:16:53Z</time>
      </trkpt>
      <trkpt lat="43.6006" lon="1.18323">
        <ele>220</ele>
        <time>2016-06-11T08:16:55Z</time>
      </trkpt>
      <trkpt lat="43.60061" lon="1.18319">
        <ele>221</ele>
        <time>2016-06-11T08:16:57Z</time>
      </trkpt>
      <trkpt lat="43.60061" lon="1.18317">
        <ele>221</ele>
        <time>2016-06-11T08:16:58Z</time>
      </trkpt>
      <trkpt lat="43.60062" lon="1.18313">
        <ele>222</ele>
        <time>2016-06-11T08:17:00Z</time>
      </trkpt>
      <trkpt lat="43.60063" lon="1.18311">
        <ele>223</ele>
        <time>2016-06-11T08:17:01Z</time>
      </trkpt>
      <trkpt lat="43.60066" lon="1.18308">
        <ele>223</ele>
        <time>2016-06-11T08:17:03Z</time>
      </trkpt>
      <trkpt lat="43.60066" lon="1.18305">
        <ele>224</ele>
        <time>2016-06-11T08:17:04Z</time>
      </trkpt>
      <trkpt lat="43.60068" lon="1.18302">
        <ele>224</ele>
        <time>2016-06-11T08:17:06Z</time>
      </trkpt>
      <trkpt lat="43.60072" lon="1.18297">
        <ele>225</ele>
        <time>2016-06-11T08:17:08Z</time>
      </trkpt>
      <trkpt lat="43.60076" lon="1.18293">
        <ele>226</ele>
        <time>2016-06-11T08:17:11Z</time>
      </trkpt>
      <trkpt lat="43.60079" lon="1.1829">
        <ele>227</ele>
        <time>2016-06-11T08:17:13Z</time>
      </trkpt>
      <trkpt lat="43.60079" lon="1.18288">
        <ele>227</ele>
        <time>2016-06-11T08:17:14Z</time>
      </trkpt>
      <trkpt lat="43.6008" lon="1.18286">
        <ele>228</ele>
        <time>2016-06-11T08:17:15Z</time>
      </trkpt>
      <trkpt lat="43.60082" lon="1.18282">
        <ele>228</ele>
        <time>2016-06-11T08:17:17Z</time>
      </trkpt>
      <trkpt lat="43.60083" lon="1.18278">
        <ele>228</ele>
        <time>2016-06-11T08:17:19Z</time>
      </trkpt>
      <trkpt lat="43.60085" lon="1.18275">
        <ele>229</ele>
        <time>2016-06-11T08:17:21Z</time>
      </trkpt>
      <trkpt lat="43.60086" lon="1.18273">
        <ele>229</ele>
        <time>2016-06-11T08:17:22Z</time>
      </trkpt>
      <trkpt lat="43.60088" lon="1.1827">
        <ele>229</ele>
        <time>2016-06-11T08:17:24Z</time>
      </trkpt>
      <trkpt lat="43.6009" lon="1.18267">
        <ele>230</ele>
        <time>2016-06-11T08:17:26Z</time>
      </trkpt>
      <trkpt lat="43.60091" lon="1.18266">
        <ele>230</ele>
        <time>2016-06-11T08:17:27Z</time>
      </trkpt>
      <trkpt lat="43.60092" lon="1.18265">
        <ele>231</ele>
        <time>2016-06-11T08:17:28Z</time>
      </trkpt>
      <trkpt lat="43.60093" lon="1.18263">
        <ele>232</ele>
        <time>2016-06-11T08:17:30Z</time>
      </trkpt>
      <trkpt lat="43.60093" lon="1.18259">
        <ele>232</ele>
        <time>2016-06-11T08:17:32Z</time>
      </trkpt>
      <trkpt lat="43.60094" lon="1.18258">
        <ele>233</ele>
        <time>2016-06-11T08:17:33Z</time>
      </trkpt>
      <trkpt lat="43.60095" lon="1.18256">
        <ele>233</ele>
        <time>2016-06-11T08:17:34Z</time>
      </trkpt>
      <trkpt lat="43.60096" lon="1.18254">
        <ele>234</ele>
        <time>2016-06-11T08:17:35Z</time>
      </trkpt>
      <trkpt lat="43.60104" lon="1.18245">
        <ele>235</ele>
        <time>2016-06-11T08:17:39Z</time>
      </trkpt>
      <trkpt lat="43.60106" lon="1.18242">
        <ele>236</ele>
        <time>2016-06-11T08:17:40Z</time>
      </trkpt>
      <trkpt lat="43.60108" lon="1.18239">
        <ele>236</ele>
        <time>2016-06-11T08:17:42Z</time>
      </trkpt>
      <trkpt lat="43.60108" lon="1.18235">
        <ele>237</ele>
        <time>2016-06-11T08:17:44Z</time>
      </trkpt>
      <trkpt lat="43.60112" lon="1.18233">
        <ele>238</ele>
        <time>2016-06-11T08:17:46Z</time>
      </trkpt>
      <trkpt lat="43.60114" lon="1.18231">
        <ele>239</ele>
        <time>2016-06-11T08:17:48Z</time>
      </trkpt>
      <trkpt lat="43.60115" lon="1.18229">
        <ele>240</ele>
        <time>2016-06-11T08:17:49Z</time>
      </trkpt>
      <trkpt lat="43.60117" lon="1.18227">
        <ele>240</ele>
        <time>2016-06-11T08:17:51Z</time>
      </trkpt>
      <trkpt lat="43.60118" lon="1.18226">
        <ele>241</ele>
        <time>2016-06-11T08:17:52Z</time>
      </trkpt>
      <trkpt lat="43.60119" lon="1.18223">
        <ele>241</ele>
        <time>2016-06-11T08:17:53Z</time>
      </trkpt>
      <trkpt lat="43.6012" lon="1.1822">
        <ele>241</ele>
        <time>2016-06-11T08:17:55Z</time>
      </trkpt>
      <trkpt lat="43.60119" lon="1.18214">
        <ele>241</ele>
        <time>2016-06-11T08:17:57Z</time>
      </trkpt>
      <trkpt lat="43.60121" lon="1.18212">
        <ele>242</ele>
        <time>2016-06-11T08:17:59Z</time>
      </trkpt>
      <trkpt lat="43.60122" lon="1.1821">
        <ele>242</ele>
        <time>2016-06-11T08:18:01Z</time>
      </trkpt>
      <trkpt lat="43.60124" lon="1.18208">
        <ele>242</ele>
        <time>2016-06-11T08:18:03Z</time>
      </trkpt>
      <trkpt lat="43.60124" lon="1.18206">
        <ele>243</ele>
        <time>2016-06-11T08:18:04Z</time>
      </trkpt>
      <trkpt lat="43.60126" lon="1.18202">
        <ele>243</ele>
        <time>2016-06-11T08:18:06Z</time>
      </trkpt>
      <trkpt lat="43.60127" lon="1.18201">
        <ele>244</ele>
        <time>2016-06-11T08:18:07Z</time>
      </trkpt>
      <trkpt lat="43.60128" lon="1.18198">
        <ele>244</ele>
        <time>2016-06-11T08:18:09Z</time>
      </trkpt>
      <trkpt lat="43.6013" lon="1.18197">
        <ele>245</ele>
        <time>2016-06-11T08:18:10Z</time>
      </trkpt>
      <trkpt lat="43.60132" lon="1.18192">
        <ele>245</ele>
        <time>2016-06-11T08:18:12Z</time>
      </trkpt>
      <trkpt lat="43.60133" lon="1.1819">
        <ele>246</ele>
        <time>2016-06-11T08:18:13Z</time>
      </trkpt>
      <trkpt lat="43.60134" lon="1.18188">
        <ele>246</ele>
        <time>2016-06-11T08:18:14Z</time>
      </trkpt>
      <trkpt lat="43.60135" lon="1.18186">
        <ele>247</ele>
        <time>2016-06-11T08:18:15Z</time>
      </trkpt>
      <trkpt lat="43.60136" lon="1.18182">
        <ele>247</ele>
        <time>2016-06-11T08:18:17Z</time>
      </trkpt>
      <trkpt lat="43.60137" lon="1.18178">
        <ele>248</ele>
        <time>2016-06-11T08:18:19Z</time>
      </trkpt>
      <trkpt lat="43.60138" lon="1.18176">
        <ele>248</ele>
        <time>2016-06-11T08:18:20Z</time>
      </trkpt>
      <trkpt lat="43.60138" lon="1.18171">
        <ele>249</ele>
        <time>2016-06-11T08:18:22Z</time>
      </trkpt>
      <trkpt lat="43.6014" lon="1.18168">
        <ele>249</ele>
        <time>2016-06-11T08:18:24Z</time>
      </trkpt>
      <trkpt lat="43.60141" lon="1.18166">
        <ele>250</ele>
        <time>2016-06-11T08:18:25Z</time>
      </trkpt>
      <trkpt lat="43.60143" lon="1.18161">
        <ele>250</ele>
        <time>2016-06-11T08:18:27Z</time>
      </trkpt>
      <trkpt lat="43.60145" lon="1.18154">
        <ele>251</ele>
        <time>2016-06-11T08:18:30Z</time>
      </trkpt>
      <trkpt lat="43.60144" lon="1.18148">
        <ele>251</ele>
        <time>2016-06-11T08:18:32Z</time>
      </trkpt>
      <trkpt lat="43.60143" lon="1.18145">
        <ele>251</ele>
        <time>2016-06-11T08:18:33Z</time>
      </trkpt>
      <trkpt lat="43.60144" lon="1.18143">
        <ele>251</ele>
        <time>2016-06-11T08:18:34Z</time>
      </trkpt>
      <trkpt lat="43.60143" lon="1.18139">
        <ele>251</ele>
        <time>2016-06-11T08:18:35Z</time>
      </trkpt>
      <trkpt lat="43.60144" lon="1.18135">
        <ele>251</ele>
        <time>2016-06-11T08:18:37Z</time>
      </trkpt>
      <trkpt lat="43.60145" lon="1.18133">
        <ele>250</ele>
        <time>2016-06-11T08:18:38Z</time>
      </trkpt>
      <trkpt lat="43.60145" lon="1.18129">
        <ele>250</ele>
        <time>2016-06-11T08:18:40Z</time>
      </trkpt>
      <trkpt lat="43.60147" lon="1.18126">
        <ele>250</ele>
        <time>2016-06-11T08:18:42Z</time>
      </trkpt>
      <trkpt lat="43.60146" lon="1.18117">
        <ele>250</ele>
        <time>2016-06-11T08:18:45Z</time>
      </trkpt>
      <trkpt lat="43.60145" lon="1.18112">
        <ele>250</ele>
        <time>2016-06-11T08:18:47Z</time>
      </trkpt>
      <trkpt lat="43.60146" lon="1.18108">
        <ele>250</ele>
        <time>2016-06-11T08:18:49Z</time>
      </trkpt>
      <trkpt lat="43.60158" lon="1.18101">
        <ele>249</ele>
        <time>2016-06-11T08:18:54Z</time>
      </trkpt>
      <trkpt lat="43.60161" lon="1.18097">
        <ele>249</ele>
        <time>2016-06-11T08:18:56Z</time>
      </trkpt>
      <trkpt lat="43.60162" lon="1.18093">
        <ele>248</ele>
        <time>2016-06-11T08:18:58Z</time>
      </trkpt>
      <trkpt lat="43.60162" lon="1.18089">
        <ele>248</ele>
        <time>2016-06-11T08:19:00Z</time>
      </trkpt>
      <trkpt lat="43.60164" lon="1.18087">
        <ele>247</ele>
        <time>2016-06-11T08:19:01Z</time>
      </trkpt>
      <trkpt lat="43.60165" lon="1.18082">
        <ele>247</ele>
        <time>2016-06-11T08:19:03Z</time>
      </trkpt>
      <trkpt lat="43.60165" lon="1.18081">
        <ele>247</ele>
        <time>2016-06-11T08:19:04Z</time>
      </trkpt>
      <trkpt lat="43.60167" lon="1.18079">
        <ele>247</ele>
        <time>2016-06-11T08:19:06Z</time>
      </trkpt>
      <trkpt lat="43.6017" lon="1.18077">
        <ele>247</ele>
        <time>2016-06-11T08:19:08Z</time>
      </trkpt>
      <trkpt lat="43.6017" lon="1.18075">
        <ele>247</ele>
        <time>2016-06-11T08:19:09Z</time>
      </trkpt>
      <trkpt lat="43.60173" lon="1.18072">
        <ele>247</ele>
        <time>2016-06-11T08:19:11Z</time>
      </trkpt>
      <trkpt lat="43.60174" lon="1.1807">
        <ele>247</ele>
        <time>2016-06-11T08:19:12Z</time>
      </trkpt>
      <trkpt lat="43.60175" lon="1.18069">
        <ele>247</ele>
        <time>2016-06-11T08:19:13Z</time>
      </trkpt>
      <trkpt lat="43.60176" lon="1.18066">
        <ele>247</ele>
        <time>2016-06-11T08:19:14Z</time>
      </trkpt>
      <trkpt lat="43.60176" lon="1.18063">
        <ele>248</ele>
        <time>2016-06-11T08:19:15Z</time>
      </trkpt>
      <trkpt lat="43.60178" lon="1.18059">
        <ele>248</ele>
        <time>2016-06-11T08:19:17Z</time>
      </trkpt>
      <trkpt lat="43.60179" lon="1.18053">
        <ele>248</ele>
        <time>2016-06-11T08:19:19Z</time>
      </trkpt>
      <trkpt lat="43.60181" lon="1.18048">
        <ele>247</ele>
        <time>2016-06-11T08:19:21Z</time>
      </trkpt>
      <trkpt lat="43.60181" lon="1.18044">
        <ele>247</ele>
        <time>2016-06-11T08:19:23Z</time>
      </trkpt>
      <trkpt lat="43.60181" lon="1.18038">
        <ele>247</ele>
        <time>2016-06-11T08:19:25Z</time>
      </trkpt>
      <trkpt lat="43.60181" lon="1.18034">
        <ele>246</ele>
        <time>2016-06-11T08:19:27Z</time>
      </trkpt>
      <trkpt lat="43.60181" lon="1.18031">
        <ele>245</ele>
        <time>2016-06-11T08:19:28Z</time>
      </trkpt>
      <trkpt lat="43.60181" lon="1.18027">
        <ele>244</ele>
        <time>2016-06-11T08:19:30Z</time>
      </trkpt>
      <trkpt lat="43.60181" lon="1.18024">
        <ele>244</ele>
        <time>2016-06-11T08:19:32Z</time>
      </trkpt>
      <trkpt lat="43.60182" lon="1.18023">
        <ele>243</ele>
        <time>2016-06-11T08:19:33Z</time>
      </trkpt>
      <trkpt lat="43.60182" lon="1.1802">
        <ele>243</ele>
        <time>2016-06-11T08:19:34Z</time>
      </trkpt>
      <trkpt lat="43.60183" lon="1.18018">
        <ele>242</ele>
        <time>2016-06-11T08:19:35Z</time>
      </trkpt>
      <trkpt lat="43.60186" lon="1.18013">
        <ele>242</ele>
        <time>2016-06-11T08:19:37Z</time>
      </trkpt>
      <trkpt lat="43.60189" lon="1.18008">
        <ele>241</ele>
        <time>2016-06-11T08:19:39Z</time>
      </trkpt>
      <trkpt lat="43.6019" lon="1.18006">
        <ele>240</ele>
        <time>2016-06-11T08:19:40Z</time>
      </trkpt>
      <trkpt lat="43.60193" lon="1.18001">
        <ele>239</ele>
        <time>2016-06-11T08:19:42Z</time>
      </trkpt>
      <trkpt lat="43.60195" lon="1.17997">
        <ele>239</ele>
        <time>2016-06-11T08:19:44Z</time>
      </trkpt>
      <trkpt lat="43.60195" lon="1.17994">
        <ele>238</ele>
        <time>2016-06-11T08:19:45Z</time>
      </trkpt>
      <trkpt lat="43.60196" lon="1.17992">
        <ele>238</ele>
        <time>2016-06-11T08:19:46Z</time>
      </trkpt>
      <trkpt lat="43.60197" lon="1.17986">
        <ele>237</ele>
        <time>2016-06-11T08:19:48Z</time>
      </trkpt>
      <trkpt lat="43.60198" lon="1.17985">
        <ele>237</ele>
        <time>2016-06-11T08:19:49Z</time>
      </trkpt>
      <trkpt lat="43.60199" lon="1.1798">
        <ele>237</ele>
        <time>2016-06-11T08:19:51Z</time>
      </trkpt>
      <trkpt lat="43.602" lon="1.17979">
        <ele>236</ele>
        <time>2016-06-11T08:19:52Z</time>
      </trkpt>
      <trkpt lat="43.60204" lon="1.17974">
        <ele>236</ele>
        <time>2016-06-11T08:19:55Z</time>
      </trkpt>
      <trkpt lat="43.60206" lon="1.1797">
        <ele>235</ele>
        <time>2016-06-11T08:19:57Z</time>
      </trkpt>
      <trkpt lat="43.60209" lon="1.17965">
        <ele>235</ele>
        <time>2016-06-11T08:20:00Z</time>
      </trkpt>
      <trkpt lat="43.6021" lon="1.17964">
        <ele>234</ele>
        <time>2016-06-11T08:20:01Z</time>
      </trkpt>
      <trkpt lat="43.60211" lon="1.17961">
        <ele>234</ele>
        <time>2016-06-11T08:20:03Z</time>
      </trkpt>
      <trkpt lat="43.60213" lon="1.17959">
        <ele>233</ele>
        <time>2016-06-11T08:20:04Z</time>
      </trkpt>
      <trkpt lat="43.60215" lon="1.17956">
        <ele>233</ele>
        <time>2016-06-11T08:20:06Z</time>
      </trkpt>
      <trkpt lat="43.60216" lon="1.17952">
        <ele>233</ele>
        <time>2016-06-11T08:20:08Z</time>
      </trkpt>
      <trkpt lat="43.60218" lon="1.17949">
        <ele>233</ele>
        <time>2016-06-11T08:20:10Z</time>
      </trkpt>
      <trkpt lat="43.60218" lon="1.17948">
        <ele>233</ele>
        <time>2016-06-11T08:20:11Z</time>
      </trkpt>
      <trkpt lat="43.6022" lon="1.17944">
        <ele>232</ele>
        <time>2016-06-11T08:20:13Z</time>
      </trkpt>
      <trkpt lat="43.60221" lon="1.17942">
        <ele>232</ele>
        <time>2016-06-11T08:20:14Z</time>
      </trkpt>
      <trkpt lat="43.60222" lon="1.1794">
        <ele>232</ele>
        <time>2016-06-11T08:20:15Z</time>
      </trkpt>
      <trkpt lat="43.60223" lon="1.17936">
        <ele>232</ele>
        <time>2016-06-11T08:20:17Z</time>
      </trkpt>
      <trkpt lat="43.60225" lon="1.17932">
        <ele>232</ele>
        <time>2016-06-11T08:20:19Z</time>
      </trkpt>
      <trkpt lat="43.60227" lon="1.17928">
        <ele>231</ele>
        <time>2016-06-11T08:20:21Z</time>
      </trkpt>
      <trkpt lat="43.60228" lon="1.17924">
        <ele>231</ele>
        <time>2016-06-11T08:20:23Z</time>
      </trkpt>
      <trkpt lat="43.60229" lon="1.17922">
        <ele>230</ele>
        <time>2016-06-11T08:20:24Z</time>
      </trkpt>
      <trkpt lat="43.60231" lon="1.17919">
        <ele>230</ele>
        <time>2016-06-11T08:20:26Z</time>
      </trkpt>
      <trkpt lat="43.60232" lon="1.17915">
        <ele>230</ele>
        <time>2016-06-11T08:20:28Z</time>
      </trkpt>
      <trkpt lat="43.60234" lon="1.17912">
        <ele>229</ele>
        <time>2016-06-11T08:20:30Z</time>
      </trkpt>
      <trkpt lat="43.60235" lon="1.17908">
        <ele>229</ele>
        <time>2016-06-11T08:20:32Z</time>
      </trkpt>
      <trkpt lat="43.60236" lon="1.17907">
        <ele>229</ele>
        <time>2016-06-11T08:20:33Z</time>
      </trkpt>
      <trkpt lat="43.60238" lon="1.17905">
        <ele>229</ele>
        <time>2016-06-11T08:20:34Z</time>
      </trkpt>
      <trkpt lat="43.60238" lon="1.17903">
        <ele>229</ele>
        <time>2016-06-11T08:20:35Z</time>
      </trkpt>
      <trkpt lat="43.60239" lon="1.179">
        <ele>229</ele>
        <time>2016-06-11T08:20:37Z</time>
      </trkpt>
      <trkpt lat="43.60241" lon="1.17896">
        <ele>228</ele>
        <time>2016-06-11T08:20:39Z</time>
      </trkpt>
      <trkpt lat="43.60241" lon="1.17894">
        <ele>228</ele>
        <time>2016-06-11T08:20:40Z</time>
      </trkpt>
      <trkpt lat="43.60243" lon="1.17891">
        <ele>228</ele>
        <time>2016-06-11T08:20:42Z</time>
      </trkpt>
      <trkpt lat="43.60244" lon="1.17887">
        <ele>228</ele>
        <time>2016-06-11T08:20:44Z</time>
      </trkpt>
      <trkpt lat="43.60245" lon="1.17885">
        <ele>228</ele>
        <time>2016-06-11T08:20:45Z</time>
      </trkpt>
      <trkpt lat="43.60246" lon="1.17883">
        <ele>228</ele>
        <time>2016-06-11T08:20:46Z</time>
      </trkpt>
      <trkpt lat="43.60247" lon="1.17877">
        <ele>229</ele>
        <time>2016-06-11T08:20:50Z</time>
      </trkpt>
      <trkpt lat="43.60248" lon="1.17875">
        <ele>229</ele>
        <time>2016-06-11T08:20:51Z</time>
      </trkpt>
      <trkpt lat="43.60249" lon="1.17872">
        <ele>229</ele>
        <time>2016-06-11T08:20:53Z</time>
      </trkpt>
      <trkpt lat="43.60251" lon="1.17869">
        <ele>230</ele>
        <time>2016-06-11T08:20:55Z</time>
      </trkpt>
      <trkpt lat="43.60253" lon="1.17866">
        <ele>231</ele>
        <time>2016-06-11T08:20:57Z</time>
      </trkpt>
      <trkpt lat="43.60254" lon="1.17864">
        <ele>231</ele>
        <time>2016-06-11T08:20:58Z</time>
      </trkpt>
      <trkpt lat="43.60255" lon="1.1786">
        <ele>232</ele>
        <time>2016-06-11T08:21:00Z</time>
      </trkpt>
      <trkpt lat="43.60255" lon="1.17859">
        <ele>233</ele>
        <time>2016-06-11T08:21:01Z</time>
      </trkpt>
      <trkpt lat="43.60256" lon="1.17857">
        <ele>233</ele>
        <time>2016-06-11T08:21:02Z</time>
      </trkpt>
      <trkpt lat="43.60257" lon="1.17853">
        <ele>234</ele>
        <time>2016-06-11T08:21:04Z</time>
      </trkpt>
      <trkpt lat="43.60258" lon="1.1785">
        <ele>235</ele>
        <time>2016-06-11T08:21:06Z</time>
      </trkpt>
      <trkpt lat="43.60258" lon="1.17848">
        <ele>236</ele>
        <time>2016-06-11T08:21:07Z</time>
      </trkpt>
      <trkpt lat="43.60259" lon="1.17846">
        <ele>236</ele>
        <time>2016-06-11T08:21:08Z</time>
      </trkpt>
      <trkpt lat="43.6026" lon="1.17841">
        <ele>236</ele>
        <time>2016-06-11T08:21:10Z</time>
      </trkpt>
      <trkpt lat="43.6026" lon="1.17838">
        <ele>236</ele>
        <time>2016-06-11T08:21:12Z</time>
      </trkpt>
      <trkpt lat="43.60261" lon="1.17836">
        <ele>236</ele>
        <time>2016-06-11T08:21:13Z</time>
      </trkpt>
      <trkpt lat="43.60262" lon="1.17834">
        <ele>235</ele>
        <time>2016-06-11T08:21:14Z</time>
      </trkpt>
      <trkpt lat="43.60263" lon="1.17832">
        <ele>235</ele>
        <time>2016-06-11T08:21:15Z</time>
      </trkpt>
      <trkpt lat="43.60264" lon="1.17828">
        <ele>235</ele>
        <time>2016-06-11T08:21:17Z</time>
      </trkpt>
      <trkpt lat="43.60265" lon="1.17827">
        <ele>235</ele>
        <time>2016-06-11T08:21:18Z</time>
      </trkpt>
      <trkpt lat="43.60267" lon="1.17822">
        <ele>235</ele>
        <time>2016-06-11T08:21:20Z</time>
      </trkpt>
      <trkpt lat="43.60268" lon="1.17819">
        <ele>235</ele>
        <time>2016-06-11T08:21:22Z</time>
      </trkpt>
      <trkpt lat="43.6027" lon="1.17815">
        <ele>235</ele>
        <time>2016-06-11T08:21:24Z</time>
      </trkpt>
      <trkpt lat="43.6027" lon="1.17813">
        <ele>235</ele>
        <time>2016-06-11T08:21:25Z</time>
      </trkpt>
      <trkpt lat="43.60272" lon="1.1781">
        <ele>235</ele>
        <time>2016-06-11T08:21:27Z</time>
      </trkpt>
      <trkpt lat="43.60273" lon="1.17807">
        <ele>235</ele>
        <time>2016-06-11T08:21:29Z</time>
      </trkpt>
      <trkpt lat="43.60275" lon="1.17803">
        <ele>235</ele>
        <time>2016-06-11T08:21:31Z</time>
      </trkpt>
      <trkpt lat="43.60276" lon="1.178">
        <ele>235</ele>
        <time>2016-06-11T08:21:33Z</time>
      </trkpt>
      <trkpt lat="43.60277" lon="1.17798">
        <ele>235</ele>
        <time>2016-06-11T08:21:34Z</time>
      </trkpt>
      <trkpt lat="43.60278" lon="1.17797">
        <ele>235</ele>
        <time>2016-06-11T08:21:35Z</time>
      </trkpt>
      <trkpt lat="43.6028" lon="1.17793">
        <ele>235</ele>
        <time>2016-06-11T08:21:37Z</time>
      </trkpt>
      <trkpt lat="43.60283" lon="1.1779">
        <ele>235</ele>
        <time>2016-06-11T08:21:39Z</time>
      </trkpt>
      <trkpt lat="43.60284" lon="1.17788">
        <ele>234</ele>
        <time>2016-06-11T08:21:40Z</time>
      </trkpt>
      <trkpt lat="43.60287" lon="1.17784">
        <ele>234</ele>
        <time>2016-06-11T08:21:42Z</time>
      </trkpt>
      <trkpt lat="43.60289" lon="1.17779">
        <ele>234</ele>
        <time>2016-06-11T08:21:44Z</time>
      </trkpt>
      <trkpt lat="43.6029" lon="1.17778">
        <ele>234</ele>
        <time>2016-06-11T08:21:45Z</time>
      </trkpt>
      <trkpt lat="43.60291" lon="1.17776">
        <ele>234</ele>
        <time>2016-06-11T08:21:46Z</time>
      </trkpt>
      <trkpt lat="43.60293" lon="1.17772">
        <ele>233</ele>
        <time>2016-06-11T08:21:48Z</time>
      </trkpt>
      <trkpt lat="43.60293" lon="1.1777">
        <ele>233</ele>
        <time>2016-06-11T08:21:49Z</time>
      </trkpt>
      <trkpt lat="43.60295" lon="1.17767">
        <ele>233</ele>
        <time>2016-06-11T08:21:51Z</time>
      </trkpt>
      <trkpt lat="43.60299" lon="1.17763">
        <ele>232</ele>
        <time>2016-06-11T08:21:54Z</time>
      </trkpt>
      <trkpt lat="43.603" lon="1.17761">
        <ele>232</ele>
        <time>2016-06-11T08:21:55Z</time>
      </trkpt>
      <trkpt lat="43.60302" lon="1.17757">
        <ele>231</ele>
        <time>2016-06-11T08:21:57Z</time>
      </trkpt>
      <trkpt lat="43.60302" lon="1.17755">
        <ele>231</ele>
        <time>2016-06-11T08:21:58Z</time>
      </trkpt>
      <trkpt lat="43.60304" lon="1.17751">
        <ele>231</ele>
        <time>2016-06-11T08:22:00Z</time>
      </trkpt>
      <trkpt lat="43.60305" lon="1.17747">
        <ele>230</ele>
        <time>2016-06-11T08:22:02Z</time>
      </trkpt>
      <trkpt lat="43.60306" lon="1.17745">
        <ele>230</ele>
        <time>2016-06-11T08:22:03Z</time>
      </trkpt>
      <trkpt lat="43.60307" lon="1.17744">
        <ele>230</ele>
        <time>2016-06-11T08:22:04Z</time>
      </trkpt>
      <trkpt lat="43.60307" lon="1.17742">
        <ele>230</ele>
        <time>2016-06-11T08:22:05Z</time>
      </trkpt>
      <trkpt lat="43.6031" lon="1.17738">
        <ele>230</ele>
        <time>2016-06-11T08:22:07Z</time>
      </trkpt>
      <trkpt lat="43.6031" lon="1.17736">
        <ele>230</ele>
        <time>2016-06-11T08:22:08Z</time>
      </trkpt>
      <trkpt lat="43.60312" lon="1.17732">
        <ele>230</ele>
        <time>2016-06-11T08:22:10Z</time>
      </trkpt>
      <trkpt lat="43.60314" lon="1.17728">
        <ele>229</ele>
        <time>2016-06-11T08:22:12Z</time>
      </trkpt>
      <trkpt lat="43.60315" lon="1.17726">
        <ele>229</ele>
        <time>2016-06-11T08:22:13Z</time>
      </trkpt>
      <trkpt lat="43.60315" lon="1.17724">
        <ele>229</ele>
        <time>2016-06-11T08:22:14Z</time>
      </trkpt>
      <trkpt lat="43.60317" lon="1.17723">
        <ele>229</ele>
        <time>2016-06-11T08:22:15Z</time>
      </trkpt>
      <trkpt lat="43.60318" lon="1.17719">
        <ele>229</ele>
        <time>2016-06-11T08:22:17Z</time>
      </trkpt>
      <trkpt lat="43.6032" lon="1.17716">
        <ele>229</ele>
        <time>2016-06-11T08:22:19Z</time>
      </trkpt>
      <trkpt lat="43.60322" lon="1.17712">
        <ele>230</ele>
        <time>2016-06-11T08:22:21Z</time>
      </trkpt>
      <trkpt lat="43.60323" lon="1.1771">
        <ele>230</ele>
        <time>2016-06-11T08:22:22Z</time>
      </trkpt>
      <trkpt lat="43.60325" lon="1.17706">
        <ele>230</ele>
        <time>2016-06-11T08:22:24Z</time>
      </trkpt>
      <trkpt lat="43.60325" lon="1.17705">
        <ele>230</ele>
        <time>2016-06-11T08:22:25Z</time>
      </trkpt>
      <trkpt lat="43.60327" lon="1.17702">
        <ele>231</ele>
        <time>2016-06-11T08:22:27Z</time>
      </trkpt>
      <trkpt lat="43.60327" lon="1.177">
        <ele>231</ele>
        <time>2016-06-11T08:22:28Z</time>
      </trkpt>
      <trkpt lat="43.60329" lon="1.17697">
        <ele>232</ele>
        <time>2016-06-11T08:22:30Z</time>
      </trkpt>
      <trkpt lat="43.60329" lon="1.17695">
        <ele>232</ele>
        <time>2016-06-11T08:22:31Z</time>
      </trkpt>
      <trkpt lat="43.6033" lon="1.17692">
        <ele>232</ele>
        <time>2016-06-11T08:22:33Z</time>
      </trkpt>
      <trkpt lat="43.60331" lon="1.17691">
        <ele>232</ele>
        <time>2016-06-11T08:22:34Z</time>
      </trkpt>
      <trkpt lat="43.60332" lon="1.17689">
        <ele>232</ele>
        <time>2016-06-11T08:22:36Z</time>
      </trkpt>
      <trkpt lat="43.60332" lon="1.17688">
        <ele>232</ele>
        <time>2016-06-11T08:22:37Z</time>
      </trkpt>
      <trkpt lat="43.60333" lon="1.17688">
        <ele>232</ele>
        <time>2016-06-11T08:22:38Z</time>
      </trkpt>
      <trkpt lat="43.60332" lon="1.17687">
        <ele>232</ele>
        <time>2016-06-11T08:22:40Z</time>
      </trkpt>
      <trkpt lat="43.60332" lon="1.17686">
        <ele>232</ele>
        <time>2016-06-11T08:22:42Z</time>
      </trkpt>
      <trkpt lat="43.60332" lon="1.17686">
        <ele>232</ele>
        <time>2016-06-11T08:23:14Z</time>
      </trkpt>
      <trkpt lat="43.60332" lon="1.17686">
        <ele>232</ele>
        <time>2016-06-11T08:23:15Z</time>
      </trkpt>
      <trkpt lat="43.60332" lon="1.17686">
        <ele>232</ele>
        <time>2016-06-11T08:23:34Z</time>
      </trkpt>
      <trkpt lat="43.60332" lon="1.17686">
        <ele>232</ele>
        <time>2016-06-11T08:23:35Z</time>
      </trkpt>
      <trkpt lat="43.60332" lon="1.17686">
        <ele>232</ele>
        <time>2016-06-11T08:23:55Z</time>
      </trkpt>
      <trkpt lat="43.60332" lon="1.17686">
        <ele>232</ele>
        <time>2016-06-11T08:23:56Z</time>
      </trkpt>
      <trkpt lat="43.60332" lon="1.17686">
        <ele>232</ele>
        <time>2016-06-11T08:24:15Z</time>
      </trkpt>
      <trkpt lat="43.60332" lon="1.17686">
        <ele>232</ele>
        <time>2016-06-11T08:24:17Z</time>
      </trkpt>
      <trkpt lat="43.60326" lon="1.17676">
        <ele>229</ele>
        <time>2016-06-11T08:29:24Z</time>
      </trkpt>
      <trkpt lat="43.60325" lon="1.17675">
        <ele>228</ele>
        <time>2016-06-11T08:29:25Z</time>
      </trkpt>
      <trkpt lat="43.60322" lon="1.17673">
        <ele>226</ele>
        <time>2016-06-11T08:29:27Z</time>
      </trkpt>
      <trkpt lat="43.60321" lon="1.17672">
        <ele>225</ele>
        <time>2016-06-11T08:29:28Z</time>
      </trkpt>
      <trkpt lat="43.60319" lon="1.17671">
        <ele>225</ele>
        <time>2016-06-11T08:29:30Z</time>
      </trkpt>
      <trkpt lat="43.60316" lon="1.17669">
        <ele>225</ele>
        <time>2016-06-11T08:29:32Z</time>
      </trkpt>
      <trkpt lat="43.60315" lon="1.17667">
        <ele>225</ele>
        <time>2016-06-11T08:29:34Z</time>
      </trkpt>
      <trkpt lat="43.60314" lon="1.17667">
        <ele>226</ele>
        <time>2016-06-11T08:29:35Z</time>
      </trkpt>
      <trkpt lat="43.60312" lon="1.17665">
        <ele>226</ele>
        <time>2016-06-11T08:29:37Z</time>
      </trkpt>
      <trkpt lat="43.6031" lon="1.17663">
        <ele>226</ele>
        <time>2016-06-11T08:29:39Z</time>
      </trkpt>
      <trkpt lat="43.60308" lon="1.17662">
        <ele>226</ele>
        <time>2016-06-11T08:29:40Z</time>
      </trkpt>
      <trkpt lat="43.60305" lon="1.1766">
        <ele>227</ele>
        <time>2016-06-11T08:29:42Z</time>
      </trkpt>
      <trkpt lat="43.60304" lon="1.17659">
        <ele>227</ele>
        <time>2016-06-11T08:29:43Z</time>
      </trkpt>
      <trkpt lat="43.60303" lon="1.17657">
        <ele>227</ele>
        <time>2016-06-11T08:29:44Z</time>
      </trkpt>
      <trkpt lat="43.603" lon="1.17655">
        <ele>228</ele>
        <time>2016-06-11T08:29:46Z</time>
      </trkpt>
      <trkpt lat="43.60298" lon="1.17653">
        <ele>228</ele>
        <time>2016-06-11T08:29:48Z</time>
      </trkpt>
      <trkpt lat="43.60295" lon="1.17651">
        <ele>229</ele>
        <time>2016-06-11T08:29:50Z</time>
      </trkpt>
      <trkpt lat="43.60292" lon="1.17649">
        <ele>229</ele>
        <time>2016-06-11T08:29:52Z</time>
      </trkpt>
      <trkpt lat="43.60291" lon="1.17648">
        <ele>230</ele>
        <time>2016-06-11T08:29:53Z</time>
      </trkpt>
      <trkpt lat="43.60288" lon="1.17645">
        <ele>230</ele>
        <time>2016-06-11T08:29:55Z</time>
      </trkpt>
      <trkpt lat="43.60286" lon="1.17643">
        <ele>230</ele>
        <time>2016-06-11T08:29:57Z</time>
      </trkpt>
      <trkpt lat="43.60284" lon="1.17642">
        <ele>231</ele>
        <time>2016-06-11T08:29:58Z</time>
      </trkpt>
      <trkpt lat="43.60281" lon="1.1764">
        <ele>231</ele>
        <time>2016-06-11T08:30:00Z</time>
      </trkpt>
      <trkpt lat="43.6028" lon="1.17639">
        <ele>232</ele>
        <time>2016-06-11T08:30:01Z</time>
      </trkpt>
      <trkpt lat="43.60277" lon="1.17637">
        <ele>232</ele>
        <time>2016-06-11T08:30:03Z</time>
      </trkpt>
      <trkpt lat="43.60274" lon="1.17636">
        <ele>233</ele>
        <time>2016-06-11T08:30:05Z</time>
      </trkpt>
      <trkpt lat="43.60272" lon="1.17634">
        <ele>233</ele>
        <time>2016-06-11T08:30:07Z</time>
      </trkpt>
      <trkpt lat="43.60269" lon="1.17633">
        <ele>234</ele>
        <time>2016-06-11T08:30:09Z</time>
      </trkpt>
      <trkpt lat="43.60268" lon="1.17631">
        <ele>234</ele>
        <time>2016-06-11T08:30:10Z</time>
      </trkpt>
      <trkpt lat="43.60265" lon="1.17628">
        <ele>235</ele>
        <time>2016-06-11T08:30:12Z</time>
      </trkpt>
      <trkpt lat="43.60263" lon="1.17626">
        <ele>236</ele>
        <time>2016-06-11T08:30:13Z</time>
      </trkpt>
      <trkpt lat="43.60261" lon="1.17623">
        <ele>236</ele>
        <time>2016-06-11T08:30:15Z</time>
      </trkpt>
      <trkpt lat="43.60259" lon="1.1762">
        <ele>236</ele>
        <time>2016-06-11T08:30:17Z</time>
      </trkpt>
      <trkpt lat="43.60256" lon="1.17617">
        <ele>237</ele>
        <time>2016-06-11T08:30:19Z</time>
      </trkpt>
      <trkpt lat="43.60255" lon="1.17615">
        <ele>237</ele>
        <time>2016-06-11T08:30:20Z</time>
      </trkpt>
      <trkpt lat="43.60252" lon="1.17613">
        <ele>237</ele>
        <time>2016-06-11T08:30:22Z</time>
      </trkpt>
      <trkpt lat="43.60249" lon="1.1761">
        <ele>238</ele>
        <time>2016-06-11T08:30:24Z</time>
      </trkpt>
      <trkpt lat="43.60246" lon="1.17608">
        <ele>238</ele>
        <time>2016-06-11T08:30:26Z</time>
      </trkpt>
      <trkpt lat="43.60244" lon="1.17607">
        <ele>238</ele>
        <time>2016-06-11T08:30:27Z</time>
      </trkpt>
      <trkpt lat="43.60242" lon="1.17605">
        <ele>238</ele>
        <time>2016-06-11T08:30:29Z</time>
      </trkpt>
      <trkpt lat="43.60239" lon="1.17603">
        <ele>238</ele>
        <time>2016-06-11T08:30:31Z</time>
      </trkpt>
      <trkpt lat="43.60238" lon="1.17602">
        <ele>239</ele>
        <time>2016-06-11T08:30:32Z</time>
      </trkpt>
      <trkpt lat="43.60236" lon="1.17601">
        <ele>239</ele>
        <time>2016-06-11T08:30:33Z</time>
      </trkpt>
      <trkpt lat="43.60235" lon="1.17599">
        <ele>239</ele>
        <time>2016-06-11T08:30:34Z</time>
      </trkpt>
      <trkpt lat="43.60234" lon="1.17598">
        <ele>239</ele>
        <time>2016-06-11T08:30:35Z</time>
      </trkpt>
      <trkpt lat="43.60231" lon="1.17596">
        <ele>240</ele>
        <time>2016-06-11T08:30:37Z</time>
      </trkpt>
      <trkpt lat="43.60229" lon="1.17594">
        <ele>240</ele>
        <time>2016-06-11T08:30:39Z</time>
      </trkpt>
      <trkpt lat="43.60227" lon="1.17592">
        <ele>240</ele>
        <time>2016-06-11T08:30:41Z</time>
      </trkpt>
      <trkpt lat="43.60224" lon="1.1759">
        <ele>240</ele>
        <time>2016-06-11T08:30:43Z</time>
      </trkpt>
      <trkpt lat="43.60222" lon="1.17588">
        <ele>241</ele>
        <time>2016-06-11T08:30:45Z</time>
      </trkpt>
      <trkpt lat="43.6022" lon="1.17587">
        <ele>241</ele>
        <time>2016-06-11T08:30:46Z</time>
      </trkpt>
      <trkpt lat="43.60219" lon="1.17586">
        <ele>241</ele>
        <time>2016-06-11T08:30:47Z</time>
      </trkpt>
      <trkpt lat="43.60216" lon="1.17583">
        <ele>241</ele>
        <time>2016-06-11T08:30:49Z</time>
      </trkpt>
      <trkpt lat="43.60214" lon="1.17582">
        <ele>242</ele>
        <time>2016-06-11T08:30:50Z</time>
      </trkpt>
      <trkpt lat="43.60212" lon="1.1758">
        <ele>242</ele>
        <time>2016-06-11T08:30:52Z</time>
      </trkpt>
      <trkpt lat="43.6021" lon="1.17578">
        <ele>242</ele>
        <time>2016-06-11T08:30:53Z</time>
      </trkpt>
      <trkpt lat="43.60207" lon="1.17576">
        <ele>242</ele>
        <time>2016-06-11T08:30:55Z</time>
      </trkpt>
      <trkpt lat="43.60205" lon="1.17574">
        <ele>242</ele>
        <time>2016-06-11T08:30:57Z</time>
      </trkpt>
      <trkpt lat="43.60196" lon="1.17567">
        <ele>242</ele>
        <time>2016-06-11T08:31:02Z</time>
      </trkpt>
      <trkpt lat="43.60195" lon="1.17566">
        <ele>242</ele>
        <time>2016-06-11T08:31:03Z</time>
      </trkpt>
      <trkpt lat="43.60193" lon="1.17565">
        <ele>242</ele>
        <time>2016-06-11T08:31:05Z</time>
      </trkpt>
      <trkpt lat="43.6019" lon="1.17561">
        <ele>242</ele>
        <time>2016-06-11T08:31:07Z</time>
      </trkpt>
      <trkpt lat="43.60188" lon="1.1756">
        <ele>243</ele>
        <time>2016-06-11T08:31:08Z</time>
      </trkpt>
      <trkpt lat="43.60187" lon="1.17559">
        <ele>243</ele>
        <time>2016-06-11T08:31:09Z</time>
      </trkpt>
      <trkpt lat="43.60186" lon="1.17558">
        <ele>243</ele>
        <time>2016-06-11T08:31:10Z</time>
      </trkpt>
      <trkpt lat="43.60183" lon="1.17555">
        <ele>243</ele>
        <time>2016-06-11T08:31:13Z</time>
      </trkpt>
      <trkpt lat="43.60182" lon="1.17555">
        <ele>243</ele>
        <time>2016-06-11T08:31:14Z</time>
      </trkpt>
      <trkpt lat="43.6018" lon="1.17554">
        <ele>243</ele>
        <time>2016-06-11T08:31:16Z</time>
      </trkpt>
      <trkpt lat="43.60177" lon="1.17551">
        <ele>243</ele>
        <time>2016-06-11T08:31:19Z</time>
      </trkpt>
      <trkpt lat="43.60176" lon="1.1755">
        <ele>243</ele>
        <time>2016-06-11T08:31:20Z</time>
      </trkpt>
      <trkpt lat="43.60174" lon="1.17548">
        <ele>243</ele>
        <time>2016-06-11T08:31:22Z</time>
      </trkpt>
      <trkpt lat="43.60172" lon="1.17547">
        <ele>243</ele>
        <time>2016-06-11T08:31:24Z</time>
      </trkpt>
      <trkpt lat="43.60171" lon="1.17546">
        <ele>243</ele>
        <time>2016-06-11T08:31:25Z</time>
      </trkpt>
      <trkpt lat="43.60169" lon="1.17545">
        <ele>243</ele>
        <time>2016-06-11T08:31:27Z</time>
      </trkpt>
      <trkpt lat="43.60167" lon="1.17544">
        <ele>243</ele>
        <time>2016-06-11T08:31:28Z</time>
      </trkpt>
      <trkpt lat="43.60166" lon="1.17542">
        <ele>243</ele>
        <time>2016-06-11T08:31:30Z</time>
      </trkpt>
      <trkpt lat="43.60164" lon="1.1754">
        <ele>243</ele>
        <time>2016-06-11T08:31:32Z</time>
      </trkpt>
      <trkpt lat="43.60162" lon="1.17539">
        <ele>243</ele>
        <time>2016-06-11T08:31:33Z</time>
      </trkpt>
      <trkpt lat="43.60163" lon="1.17537">
        <ele>243</ele>
        <time>2016-06-11T08:31:34Z</time>
      </trkpt>
      <trkpt lat="43.60162" lon="1.17537">
        <ele>243</ele>
        <time>2016-06-11T08:31:35Z</time>
      </trkpt>
      <trkpt lat="43.6016" lon="1.17535">
        <ele>243</ele>
        <time>2016-06-11T08:31:37Z</time>
      </trkpt>
      <trkpt lat="43.60159" lon="1.17533">
        <ele>243</ele>
        <time>2016-06-11T08:31:39Z</time>
      </trkpt>
      <trkpt lat="43.60155" lon="1.17532">
        <ele>244</ele>
        <time>2016-06-11T08:31:41Z</time>
      </trkpt>
      <trkpt lat="43.60143" lon="1.17528">
        <ele>245</ele>
        <time>2016-06-11T08:31:48Z</time>
      </trkpt>
      <trkpt lat="43.60142" lon="1.17527">
        <ele>245</ele>
        <time>2016-06-11T08:31:49Z</time>
      </trkpt>
      <trkpt lat="43.60139" lon="1.17526">
        <ele>246</ele>
        <time>2016-06-11T08:31:51Z</time>
      </trkpt>
      <trkpt lat="43.60137" lon="1.17523">
        <ele>246</ele>
        <time>2016-06-11T08:31:53Z</time>
      </trkpt>
      <trkpt lat="43.60135" lon="1.17522">
        <ele>246</ele>
        <time>2016-06-11T08:31:55Z</time>
      </trkpt>
      <trkpt lat="43.60133" lon="1.17519">
        <ele>246</ele>
        <time>2016-06-11T08:31:57Z</time>
      </trkpt>
      <trkpt lat="43.60131" lon="1.17517">
        <ele>246</ele>
        <time>2016-06-11T08:31:58Z</time>
      </trkpt>
      <trkpt lat="43.6013" lon="1.17514">
        <ele>246</ele>
        <time>2016-06-11T08:32:00Z</time>
      </trkpt>
      <trkpt lat="43.6013" lon="1.17512">
        <ele>246</ele>
        <time>2016-06-11T08:32:01Z</time>
      </trkpt>
      <trkpt lat="43.60127" lon="1.1751">
        <ele>246</ele>
        <time>2016-06-11T08:32:03Z</time>
      </trkpt>
      <trkpt lat="43.60126" lon="1.1751">
        <ele>246</ele>
        <time>2016-06-11T08:32:04Z</time>
      </trkpt>
      <trkpt lat="43.60122" lon="1.17507">
        <ele>246</ele>
        <time>2016-06-11T08:32:06Z</time>
      </trkpt>
      <trkpt lat="43.6012" lon="1.17506">
        <ele>246</ele>
        <time>2016-06-11T08:32:08Z</time>
      </trkpt>
      <trkpt lat="43.60119" lon="1.17505">
        <ele>246</ele>
        <time>2016-06-11T08:32:09Z</time>
      </trkpt>
      <trkpt lat="43.60117" lon="1.17504">
        <ele>246</ele>
        <time>2016-06-11T08:32:11Z</time>
      </trkpt>
      <trkpt lat="43.60117" lon="1.17504">
        <ele>246</ele>
        <time>2016-06-11T08:32:12Z</time>
      </trkpt>
      <trkpt lat="43.60116" lon="1.17503">
        <ele>246</ele>
        <time>2016-06-11T08:32:13Z</time>
      </trkpt>
      <trkpt lat="43.60115" lon="1.17502">
        <ele>246</ele>
        <time>2016-06-11T08:32:14Z</time>
      </trkpt>
      <trkpt lat="43.60114" lon="1.17501">
        <ele>246</ele>
        <time>2016-06-11T08:32:15Z</time>
      </trkpt>
      <trkpt lat="43.60112" lon="1.17498">
        <ele>246</ele>
        <time>2016-06-11T08:32:17Z</time>
      </trkpt>
      <trkpt lat="43.60109" lon="1.17494">
        <ele>246</ele>
        <time>2016-06-11T08:32:19Z</time>
      </trkpt>
      <trkpt lat="43.60106" lon="1.17492">
        <ele>246</ele>
        <time>2016-06-11T08:32:21Z</time>
      </trkpt>
      <trkpt lat="43.60101" lon="1.17487">
        <ele>246</ele>
        <time>2016-06-11T08:32:25Z</time>
      </trkpt>
      <trkpt lat="43.601" lon="1.17486">
        <ele>245</ele>
        <time>2016-06-11T08:32:26Z</time>
      </trkpt>
      <trkpt lat="43.60099" lon="1.17484">
        <ele>245</ele>
        <time>2016-06-11T08:32:28Z</time>
      </trkpt>
      <trkpt lat="43.60095" lon="1.17481">
        <ele>245</ele>
        <time>2016-06-11T08:32:30Z</time>
      </trkpt>
      <trkpt lat="43.60091" lon="1.17476">
        <ele>245</ele>
        <time>2016-06-11T08:32:33Z</time>
      </trkpt>
      <trkpt lat="43.6009" lon="1.17475">
        <ele>245</ele>
        <time>2016-06-11T08:32:34Z</time>
      </trkpt>
      <trkpt lat="43.60089" lon="1.17474">
        <ele>246</ele>
        <time>2016-06-11T08:32:35Z</time>
      </trkpt>
      <trkpt lat="43.60089" lon="1.17472">
        <ele>246</ele>
        <time>2016-06-11T08:32:37Z</time>
      </trkpt>
      <trkpt lat="43.6009" lon="1.17468">
        <ele>246</ele>
        <time>2016-06-11T08:32:39Z</time>
      </trkpt>
      <trkpt lat="43.6009" lon="1.17466">
        <ele>246</ele>
        <time>2016-06-11T08:32:41Z</time>
      </trkpt>
      <trkpt lat="43.60091" lon="1.17464">
        <ele>247</ele>
        <time>2016-06-11T08:32:43Z</time>
      </trkpt>
      <trkpt lat="43.6009" lon="1.17462">
        <ele>247</ele>
        <time>2016-06-11T08:32:45Z</time>
      </trkpt>
      <trkpt lat="43.60092" lon="1.1746">
        <ele>248</ele>
        <time>2016-06-11T08:32:47Z</time>
      </trkpt>
      <trkpt lat="43.60092" lon="1.17456">
        <ele>248</ele>
        <time>2016-06-11T08:32:49Z</time>
      </trkpt>
      <trkpt lat="43.60091" lon="1.17452">
        <ele>249</ele>
        <time>2016-06-11T08:32:51Z</time>
      </trkpt>
      <trkpt lat="43.60091" lon="1.17451">
        <ele>249</ele>
        <time>2016-06-11T08:32:52Z</time>
      </trkpt>
      <trkpt lat="43.60091" lon="1.1745">
        <ele>250</ele>
        <time>2016-06-11T08:32:53Z</time>
      </trkpt>
      <trkpt lat="43.60092" lon="1.17448">
        <ele>250</ele>
        <time>2016-06-11T08:32:55Z</time>
      </trkpt>
      <trkpt lat="43.60091" lon="1.17444">
        <ele>251</ele>
        <time>2016-06-11T08:32:57Z</time>
      </trkpt>
      <trkpt lat="43.60092" lon="1.17439">
        <ele>251</ele>
        <time>2016-06-11T08:32:59Z</time>
      </trkpt>
      <trkpt lat="43.60094" lon="1.17435">
        <ele>252</ele>
        <time>2016-06-11T08:33:01Z</time>
      </trkpt>
      <trkpt lat="43.60095" lon="1.17432">
        <ele>253</ele>
        <time>2016-06-11T08:33:03Z</time>
      </trkpt>
      <trkpt lat="43.60096" lon="1.17428">
        <ele>254</ele>
        <time>2016-06-11T08:33:05Z</time>
      </trkpt>
      <trkpt lat="43.60098" lon="1.17426">
        <ele>254</ele>
        <time>2016-06-11T08:33:07Z</time>
      </trkpt>
      <trkpt lat="43.60099" lon="1.17424">
        <ele>255</ele>
        <time>2016-06-11T08:33:08Z</time>
      </trkpt>
      <trkpt lat="43.60101" lon="1.1742">
        <ele>256</ele>
        <time>2016-06-11T08:33:10Z</time>
      </trkpt>
      <trkpt lat="43.60105" lon="1.17413">
        <ele>257</ele>
        <time>2016-06-11T08:33:13Z</time>
      </trkpt>
      <trkpt lat="43.60106" lon="1.17411">
        <ele>257</ele>
        <time>2016-06-11T08:33:14Z</time>
      </trkpt>
      <trkpt lat="43.60106" lon="1.17409">
        <ele>257</ele>
        <time>2016-06-11T08:33:15Z</time>
      </trkpt>
      <trkpt lat="43.60107" lon="1.17407">
        <ele>257</ele>
        <time>2016-06-11T08:33:17Z</time>
      </trkpt>
      <trkpt lat="43.60107" lon="1.17405">
        <ele>258</ele>
        <time>2016-06-11T08:33:18Z</time>
      </trkpt>
      <trkpt lat="43.60106" lon="1.174">
        <ele>258</ele>
        <time>2016-06-11T08:33:20Z</time>
      </trkpt>
      <trkpt lat="43.60106" lon="1.17397">
        <ele>258</ele>
        <time>2016-06-11T08:33:21Z</time>
      </trkpt>
      <trkpt lat="43.60108" lon="1.17396">
        <ele>258</ele>
        <time>2016-06-11T08:33:22Z</time>
      </trkpt>
      <trkpt lat="43.60111" lon="1.17394">
        <ele>259</ele>
        <time>2016-06-11T08:33:24Z</time>
      </trkpt>
      <trkpt lat="43.60112" lon="1.17393">
        <ele>259</ele>
        <time>2016-06-11T08:33:25Z</time>
      </trkpt>
      <trkpt lat="43.60115" lon="1.17386">
        <ele>259</ele>
        <time>2016-06-11T08:33:27Z</time>
      </trkpt>
      <trkpt lat="43.60117" lon="1.17384">
        <ele>259</ele>
        <time>2016-06-11T08:33:28Z</time>
      </trkpt>
      <trkpt lat="43.60118" lon="1.1738">
        <ele>260</ele>
        <time>2016-06-11T08:33:30Z</time>
      </trkpt>
      <trkpt lat="43.60119" lon="1.17373">
        <ele>260</ele>
        <time>2016-06-11T08:33:32Z</time>
      </trkpt>
      <trkpt lat="43.60119" lon="1.17369">
        <ele>260</ele>
        <time>2016-06-11T08:33:33Z</time>
      </trkpt>
      <trkpt lat="43.6012" lon="1.17367">
        <ele>260</ele>
        <time>2016-06-11T08:33:34Z</time>
      </trkpt>
      <trkpt lat="43.60121" lon="1.17363">
        <ele>260</ele>
        <time>2016-06-11T08:33:36Z</time>
      </trkpt>
      <trkpt lat="43.60122" lon="1.17361">
        <ele>260</ele>
        <time>2016-06-11T08:33:38Z</time>
      </trkpt>
      <trkpt lat="43.60124" lon="1.17358">
        <ele>260</ele>
        <time>2016-06-11T08:33:40Z</time>
      </trkpt>
      <trkpt lat="43.60125" lon="1.17355">
        <ele>260</ele>
        <time>2016-06-11T08:33:42Z</time>
      </trkpt>
      <trkpt lat="43.60127" lon="1.1735">
        <ele>261</ele>
        <time>2016-06-11T08:33:44Z</time>
      </trkpt>
      <trkpt lat="43.60128" lon="1.17347">
        <ele>261</ele>
        <time>2016-06-11T08:33:46Z</time>
      </trkpt>
      <trkpt lat="43.6013" lon="1.17343">
        <ele>261</ele>
        <time>2016-06-11T08:33:48Z</time>
      </trkpt>
      <trkpt lat="43.6013" lon="1.1734">
        <ele>262</ele>
        <time>2016-06-11T08:33:50Z</time>
      </trkpt>
      <trkpt lat="43.60135" lon="1.17334">
        <ele>263</ele>
        <time>2016-06-11T08:33:53Z</time>
      </trkpt>
      <trkpt lat="43.60136" lon="1.17331">
        <ele>263</ele>
        <time>2016-06-11T08:33:55Z</time>
      </trkpt>
      <trkpt lat="43.60138" lon="1.1733">
        <ele>264</ele>
        <time>2016-06-11T08:33:57Z</time>
      </trkpt>
      <trkpt lat="43.60139" lon="1.17329">
        <ele>264</ele>
        <time>2016-06-11T08:33:58Z</time>
      </trkpt>
      <trkpt lat="43.6014" lon="1.17326">
        <ele>265</ele>
        <time>2016-06-11T08:34:00Z</time>
      </trkpt>
      <trkpt lat="43.60141" lon="1.17323">
        <ele>265</ele>
        <time>2016-06-11T08:34:01Z</time>
      </trkpt>
      <trkpt lat="43.60142" lon="1.17321">
        <ele>266</ele>
        <time>2016-06-11T08:34:03Z</time>
      </trkpt>
      <trkpt lat="43.60142" lon="1.17319">
        <ele>266</ele>
        <time>2016-06-11T08:34:04Z</time>
      </trkpt>
      <trkpt lat="43.60143" lon="1.17316">
        <ele>266</ele>
        <time>2016-06-11T08:34:06Z</time>
      </trkpt>
      <trkpt lat="43.60144" lon="1.17311">
        <ele>266</ele>
        <time>2016-06-11T08:34:08Z</time>
      </trkpt>
      <trkpt lat="43.60146" lon="1.17307">
        <ele>267</ele>
        <time>2016-06-11T08:34:10Z</time>
      </trkpt>
      <trkpt lat="43.60148" lon="1.17304">
        <ele>267</ele>
        <time>2016-06-11T08:34:12Z</time>
      </trkpt>
      <trkpt lat="43.60149" lon="1.173">
        <ele>268</ele>
        <time>2016-06-11T08:34:14Z</time>
      </trkpt>
      <trkpt lat="43.60151" lon="1.17296">
        <ele>268</ele>
        <time>2016-06-11T08:34:16Z</time>
      </trkpt>
      <trkpt lat="43.60152" lon="1.17293">
        <ele>269</ele>
        <time>2016-06-11T08:34:18Z</time>
      </trkpt>
      <trkpt lat="43.60152" lon="1.17289">
        <ele>269</ele>
        <time>2016-06-11T08:34:20Z</time>
      </trkpt>
      <trkpt lat="43.60153" lon="1.17285">
        <ele>269</ele>
        <time>2016-06-11T08:34:22Z</time>
      </trkpt>
      <trkpt lat="43.60156" lon="1.17283">
        <ele>269</ele>
        <time>2016-06-11T08:34:24Z</time>
      </trkpt>
      <trkpt lat="43.60157" lon="1.17279">
        <ele>269</ele>
        <time>2016-06-11T08:34:26Z</time>
      </trkpt>
      <trkpt lat="43.60158" lon="1.17277">
        <ele>270</ele>
        <time>2016-06-11T08:34:27Z</time>
      </trkpt>
      <trkpt lat="43.6016" lon="1.17272">
        <ele>270</ele>
        <time>2016-06-11T08:34:29Z</time>
      </trkpt>
      <trkpt lat="43.60161" lon="1.17268">
        <ele>270</ele>
        <time>2016-06-11T08:34:31Z</time>
      </trkpt>
      <trkpt lat="43.60163" lon="1.17266">
        <ele>271</ele>
        <time>2016-06-11T08:34:33Z</time>
      </trkpt>
      <trkpt lat="43.60164" lon="1.17264">
        <ele>271</ele>
        <time>2016-06-11T08:34:34Z</time>
      </trkpt>
      <trkpt lat="43.60165" lon="1.17261">
        <ele>272</ele>
        <time>2016-06-11T08:34:36Z</time>
      </trkpt>
      <trkpt lat="43.60166" lon="1.17256">
        <ele>272</ele>
        <time>2016-06-11T08:34:38Z</time>
      </trkpt>
      <trkpt lat="43.60169" lon="1.17251">
        <ele>272</ele>
        <time>2016-06-11T08:34:40Z</time>
      </trkpt>
      <trkpt lat="43.60172" lon="1.17248">
        <ele>272</ele>
        <time>2016-06-11T08:34:42Z</time>
      </trkpt>
      <trkpt lat="43.60174" lon="1.17245">
        <ele>273</ele>
        <time>2016-06-11T08:34:44Z</time>
      </trkpt>
      <trkpt lat="43.60175" lon="1.17242">
        <ele>273</ele>
        <time>2016-06-11T08:34:46Z</time>
      </trkpt>
      <trkpt lat="43.60177" lon="1.1724">
        <ele>273</ele>
        <time>2016-06-11T08:34:48Z</time>
      </trkpt>
      <trkpt lat="43.60177" lon="1.17238">
        <ele>274</ele>
        <time>2016-06-11T08:34:49Z</time>
      </trkpt>
      <trkpt lat="43.60178" lon="1.17236">
        <ele>274</ele>
        <time>2016-06-11T08:34:51Z</time>
      </trkpt>
      <trkpt lat="43.60178" lon="1.17235">
        <ele>275</ele>
        <time>2016-06-11T08:34:52Z</time>
      </trkpt>
      <trkpt lat="43.6018" lon="1.17232">
        <ele>276</ele>
        <time>2016-06-11T08:34:54Z</time>
      </trkpt>
      <trkpt lat="43.6018" lon="1.17227">
        <ele>276</ele>
        <time>2016-06-11T08:34:56Z</time>
      </trkpt>
      <trkpt lat="43.60181" lon="1.17224">
        <ele>277</ele>
        <time>2016-06-11T08:34:58Z</time>
      </trkpt>
      <trkpt lat="43.60181" lon="1.17219">
        <ele>277</ele>
        <time>2016-06-11T08:35:00Z</time>
      </trkpt>
      <trkpt lat="43.60182" lon="1.17217">
        <ele>278</ele>
        <time>2016-06-11T08:35:01Z</time>
      </trkpt>
      <trkpt lat="43.60185" lon="1.17214">
        <ele>279</ele>
        <time>2016-06-11T08:35:03Z</time>
      </trkpt>
      <trkpt lat="43.60186" lon="1.17212">
        <ele>279</ele>
        <time>2016-06-11T08:35:04Z</time>
      </trkpt>
      <trkpt lat="43.60188" lon="1.1721">
        <ele>280</ele>
        <time>2016-06-11T08:35:06Z</time>
      </trkpt>
      <trkpt lat="43.60189" lon="1.17207">
        <ele>280</ele>
        <time>2016-06-11T08:35:08Z</time>
      </trkpt>
      <trkpt lat="43.6019" lon="1.17206">
        <ele>281</ele>
        <time>2016-06-11T08:35:09Z</time>
      </trkpt>
      <trkpt lat="43.60191" lon="1.17205">
        <ele>282</ele>
        <time>2016-06-11T08:35:10Z</time>
      </trkpt>
      <trkpt lat="43.60192" lon="1.17203">
        <ele>283</ele>
        <time>2016-06-11T08:35:12Z</time>
      </trkpt>
      <trkpt lat="43.60193" lon="1.17201">
        <ele>283</ele>
        <time>2016-06-11T08:35:13Z</time>
      </trkpt>
      <trkpt lat="43.60193" lon="1.172">
        <ele>284</ele>
        <time>2016-06-11T08:35:14Z</time>
      </trkpt>
      <trkpt lat="43.60194" lon="1.17197">
        <ele>284</ele>
        <time>2016-06-11T08:35:16Z</time>
      </trkpt>
      <trkpt lat="43.60194" lon="1.17193">
        <ele>284</ele>
        <time>2016-06-11T08:35:18Z</time>
      </trkpt>
      <trkpt lat="43.60197" lon="1.17189">
        <ele>283</ele>
        <time>2016-06-11T08:35:20Z</time>
      </trkpt>
      <trkpt lat="43.60197" lon="1.17188">
        <ele>283</ele>
        <time>2016-06-11T08:35:21Z</time>
      </trkpt>
      <trkpt lat="43.60195" lon="1.17186">
        <ele>282</ele>
        <time>2016-06-11T08:35:22Z</time>
      </trkpt>
      <trkpt lat="43.60195" lon="1.17185">
        <ele>281</ele>
        <time>2016-06-11T08:35:24Z</time>
      </trkpt>
      <trkpt lat="43.60202" lon="1.17166">
        <ele>267</ele>
        <time>2016-06-11T08:35:54Z</time>
      </trkpt>
      <trkpt lat="43.60202" lon="1.17166">
        <ele>263</ele>
        <time>2016-06-11T08:35:56Z</time>
      </trkpt>
      <trkpt lat="43.60197" lon="1.17156">
        <ele>259</ele>
        <time>2016-06-11T08:35:58Z</time>
      </trkpt>
      <trkpt lat="43.60196" lon="1.17156">
        <ele>254</ele>
        <time>2016-06-11T08:36:00Z</time>
      </trkpt>
      <trkpt lat="43.60196" lon="1.17156">
        <ele>250</ele>
        <time>2016-06-11T08:36:31Z</time>
      </trkpt>
      <trkpt lat="43.60197" lon="1.17155">
        <ele>244</ele>
        <time>2016-06-11T08:36:33Z</time>
      </trkpt>
      <trkpt lat="43.60197" lon="1.17155">
        <ele>239</ele>
        <time>2016-06-11T08:36:34Z</time>
      </trkpt>
      <trkpt lat="43.60198" lon="1.17153">
        <ele>238</ele>
        <time>2016-06-11T08:36:36Z</time>
      </trkpt>
      <trkpt lat="43.602" lon="1.17152">
        <ele>236</ele>
        <time>2016-06-11T08:36:38Z</time>
      </trkpt>
      <trkpt lat="43.60205" lon="1.17153">
        <ele>235</ele>
        <time>2016-06-11T08:36:42Z</time>
      </trkpt>
      <trkpt lat="43.60207" lon="1.1715">
        <ele>235</ele>
        <time>2016-06-11T08:36:44Z</time>
      </trkpt>
      <trkpt lat="43.60209" lon="1.17146">
        <ele>235</ele>
        <time>2016-06-11T08:36:47Z</time>
      </trkpt>
      <trkpt lat="43.6021" lon="1.17144">
        <ele>235</ele>
        <time>2016-06-11T08:36:48Z</time>
      </trkpt>
      <trkpt lat="43.60212" lon="1.17142">
        <ele>235</ele>
        <time>2016-06-11T08:36:50Z</time>
      </trkpt>
      <trkpt lat="43.60213" lon="1.17141">
        <ele>235</ele>
        <time>2016-06-11T08:36:51Z</time>
      </trkpt>
      <trkpt lat="43.60215" lon="1.17137">
        <ele>235</ele>
        <time>2016-06-11T08:36:53Z</time>
      </trkpt>
      <trkpt lat="43.60216" lon="1.17134">
        <ele>235</ele>
        <time>2016-06-11T08:36:55Z</time>
      </trkpt>
      <trkpt lat="43.60217" lon="1.17132">
        <ele>235</ele>
        <time>2016-06-11T08:36:56Z</time>
      </trkpt>
      <trkpt lat="43.60219" lon="1.17129">
        <ele>235</ele>
        <time>2016-06-11T08:36:58Z</time>
      </trkpt>
      <trkpt lat="43.6022" lon="1.17125">
        <ele>235</ele>
        <time>2016-06-11T08:37:00Z</time>
      </trkpt>
      <trkpt lat="43.60222" lon="1.17123">
        <ele>235</ele>
        <time>2016-06-11T08:37:01Z</time>
      </trkpt>
      <trkpt lat="43.60224" lon="1.1712">
        <ele>235</ele>
        <time>2016-06-11T08:37:03Z</time>
      </trkpt>
      <trkpt lat="43.60225" lon="1.17117">
        <ele>235</ele>
        <time>2016-06-11T08:37:05Z</time>
      </trkpt>
      <trkpt lat="43.60226" lon="1.17114">
        <ele>236</ele>
        <time>2016-06-11T08:37:07Z</time>
      </trkpt>
      <trkpt lat="43.60227" lon="1.17112">
        <ele>236</ele>
        <time>2016-06-11T08:37:08Z</time>
      </trkpt>
      <trkpt lat="43.60229" lon="1.17108">
        <ele>236</ele>
        <time>2016-06-11T08:37:10Z</time>
      </trkpt>
      <trkpt lat="43.60231" lon="1.17104">
        <ele>237</ele>
        <time>2016-06-11T08:37:12Z</time>
      </trkpt>
      <trkpt lat="43.60232" lon="1.171">
        <ele>237</ele>
        <time>2016-06-11T08:37:14Z</time>
      </trkpt>
      <trkpt lat="43.60233" lon="1.17096">
        <ele>237</ele>
        <time>2016-06-11T08:37:16Z</time>
      </trkpt>
      <trkpt lat="43.60235" lon="1.17091">
        <ele>238</ele>
        <time>2016-06-11T08:37:18Z</time>
      </trkpt>
      <trkpt lat="43.60236" lon="1.17089">
        <ele>238</ele>
        <time>2016-06-11T08:37:19Z</time>
      </trkpt>
      <trkpt lat="43.60238" lon="1.17084">
        <ele>238</ele>
        <time>2016-06-11T08:37:22Z</time>
      </trkpt>
      <trkpt lat="43.6024" lon="1.17081">
        <ele>239</ele>
        <time>2016-06-11T08:37:24Z</time>
      </trkpt>
      <trkpt lat="43.60241" lon="1.1708">
        <ele>239</ele>
        <time>2016-06-11T08:37:25Z</time>
      </trkpt>
      <trkpt lat="43.60243" lon="1.17079">
        <ele>239</ele>
        <time>2016-06-11T08:37:27Z</time>
      </trkpt>
      <trkpt lat="43.60244" lon="1.17077">
        <ele>239</ele>
        <time>2016-06-11T08:37:28Z</time>
      </trkpt>
      <trkpt lat="43.60246" lon="1.17073">
        <ele>240</ele>
        <time>2016-06-11T08:37:30Z</time>
      </trkpt>
      <trkpt lat="43.60246" lon="1.17071">
        <ele>240</ele>
        <time>2016-06-11T08:37:31Z</time>
      </trkpt>
      <trkpt lat="43.60247" lon="1.17068">
        <ele>240</ele>
        <time>2016-06-11T08:37:33Z</time>
      </trkpt>
      <trkpt lat="43.60248" lon="1.17066">
        <ele>240</ele>
        <time>2016-06-11T08:37:34Z</time>
      </trkpt>
      <trkpt lat="43.60249" lon="1.17062">
        <ele>240</ele>
        <time>2016-06-11T08:37:36Z</time>
      </trkpt>
      <trkpt lat="43.6025" lon="1.17058">
        <ele>241</ele>
        <time>2016-06-11T08:37:38Z</time>
      </trkpt>
      <trkpt lat="43.60252" lon="1.17054">
        <ele>241</ele>
        <time>2016-06-11T08:37:40Z</time>
      </trkpt>
      <trkpt lat="43.60252" lon="1.1705">
        <ele>241</ele>
        <time>2016-06-11T08:37:42Z</time>
      </trkpt>
      <trkpt lat="43.60253" lon="1.17045">
        <ele>241</ele>
        <time>2016-06-11T08:37:44Z</time>
      </trkpt>
      <trkpt lat="43.60255" lon="1.17041">
        <ele>242</ele>
        <time>2016-06-11T08:37:46Z</time>
      </trkpt>
      <trkpt lat="43.60256" lon="1.17038">
        <ele>242</ele>
        <time>2016-06-11T08:37:48Z</time>
      </trkpt>
      <trkpt lat="43.60257" lon="1.17035">
        <ele>243</ele>
        <time>2016-06-11T08:37:50Z</time>
      </trkpt>
      <trkpt lat="43.60258" lon="1.17033">
        <ele>243</ele>
        <time>2016-06-11T08:37:51Z</time>
      </trkpt>
      <trkpt lat="43.60259" lon="1.17031">
        <ele>244</ele>
        <time>2016-06-11T08:37:52Z</time>
      </trkpt>
      <trkpt lat="43.6026" lon="1.17028">
        <ele>244</ele>
        <time>2016-06-11T08:37:54Z</time>
      </trkpt>
      <trkpt lat="43.60261" lon="1.17024">
        <ele>245</ele>
        <time>2016-06-11T08:37:56Z</time>
      </trkpt>
      <trkpt lat="43.60263" lon="1.17022">
        <ele>245</ele>
        <time>2016-06-11T08:37:58Z</time>
      </trkpt>
      <trkpt lat="43.60265" lon="1.17019">
        <ele>246</ele>
        <time>2016-06-11T08:38:00Z</time>
      </trkpt>
      <trkpt lat="43.60266" lon="1.17018">
        <ele>247</ele>
        <time>2016-06-11T08:38:01Z</time>
      </trkpt>
      <trkpt lat="43.60268" lon="1.17014">
        <ele>247</ele>
        <time>2016-06-11T08:38:03Z</time>
      </trkpt>
      <trkpt lat="43.60269" lon="1.17013">
        <ele>248</ele>
        <time>2016-06-11T08:38:04Z</time>
      </trkpt>
      <trkpt lat="43.6027" lon="1.17009">
        <ele>249</ele>
        <time>2016-06-11T08:38:06Z</time>
      </trkpt>
      <trkpt lat="43.60272" lon="1.17007">
        <ele>250</ele>
        <time>2016-06-11T08:38:08Z</time>
      </trkpt>
      <trkpt lat="43.60273" lon="1.17005">
        <ele>250</ele>
        <time>2016-06-11T08:38:10Z</time>
      </trkpt>
      <trkpt lat="43.60273" lon="1.17003">
        <ele>251</ele>
        <time>2016-06-11T08:38:11Z</time>
      </trkpt>
      <trkpt lat="43.60274" lon="1.16999">
        <ele>252</ele>
        <time>2016-06-11T08:38:13Z</time>
      </trkpt>
      <trkpt lat="43.60274" lon="1.16998">
        <ele>253</ele>
        <time>2016-06-11T08:38:14Z</time>
      </trkpt>
      <trkpt lat="43.60275" lon="1.16996">
        <ele>253</ele>
        <time>2016-06-11T08:38:16Z</time>
      </trkpt>
      <trkpt lat="43.60276" lon="1.16993">
        <ele>254</ele>
        <time>2016-06-11T08:38:18Z</time>
      </trkpt>
      <trkpt lat="43.60277" lon="1.16992">
        <ele>255</ele>
        <time>2016-06-11T08:38:19Z</time>
      </trkpt>
      <trkpt lat="43.60277" lon="1.1699">
        <ele>255</ele>
        <time>2016-06-11T08:38:20Z</time>
      </trkpt>
      <trkpt lat="43.60278" lon="1.16989">
        <ele>256</ele>
        <time>2016-06-11T08:38:21Z</time>
      </trkpt>
      <trkpt lat="43.6028" lon="1.16984">
        <ele>256</ele>
        <time>2016-06-11T08:38:23Z</time>
      </trkpt>
      <trkpt lat="43.60281" lon="1.1698">
        <ele>257</ele>
        <time>2016-06-11T08:38:25Z</time>
      </trkpt>
      <trkpt lat="43.60283" lon="1.16977">
        <ele>257</ele>
        <time>2016-06-11T08:38:27Z</time>
      </trkpt>
      <trkpt lat="43.60284" lon="1.16976">
        <ele>258</ele>
        <time>2016-06-11T08:38:29Z</time>
      </trkpt>
      <trkpt lat="43.60285" lon="1.16975">
        <ele>258</ele>
        <time>2016-06-11T08:38:30Z</time>
      </trkpt>
      <trkpt lat="43.60287" lon="1.16974">
        <ele>259</ele>
        <time>2016-06-11T08:38:32Z</time>
      </trkpt>
      <trkpt lat="43.60288" lon="1.16973">
        <ele>259</ele>
        <time>2016-06-11T08:38:33Z</time>
      </trkpt>
      <trkpt lat="43.60291" lon="1.16972">
        <ele>259</ele>
        <time>2016-06-11T08:38:35Z</time>
      </trkpt>
      <trkpt lat="43.60293" lon="1.1697">
        <ele>260</ele>
        <time>2016-06-11T08:38:37Z</time>
      </trkpt>
      <trkpt lat="43.60296" lon="1.16967">
        <ele>260</ele>
        <time>2016-06-11T08:38:39Z</time>
      </trkpt>
      <trkpt lat="43.60297" lon="1.16964">
        <ele>260</ele>
        <time>2016-06-11T08:38:41Z</time>
      </trkpt>
      <trkpt lat="43.603" lon="1.16961">
        <ele>260</ele>
        <time>2016-06-11T08:38:43Z</time>
      </trkpt>
      <trkpt lat="43.60303" lon="1.16959">
        <ele>260</ele>
        <time>2016-06-11T08:38:45Z</time>
      </trkpt>
      <trkpt lat="43.60304" lon="1.16957">
        <ele>260</ele>
        <time>2016-06-11T08:38:46Z</time>
      </trkpt>
      <trkpt lat="43.60308" lon="1.16951">
        <ele>260</ele>
        <time>2016-06-11T08:38:49Z</time>
      </trkpt>
      <trkpt lat="43.60311" lon="1.16949">
        <ele>259</ele>
        <time>2016-06-11T08:38:51Z</time>
      </trkpt>
      <trkpt lat="43.60312" lon="1.16947">
        <ele>259</ele>
        <time>2016-06-11T08:38:52Z</time>
      </trkpt>
      <trkpt lat="43.60315" lon="1.16944">
        <ele>259</ele>
        <time>2016-06-11T08:38:54Z</time>
      </trkpt>
      <trkpt lat="43.60317" lon="1.16943">
        <ele>258</ele>
        <time>2016-06-11T08:38:55Z</time>
      </trkpt>
      <trkpt lat="43.6032" lon="1.1694">
        <ele>258</ele>
        <time>2016-06-11T08:38:57Z</time>
      </trkpt>
      <trkpt lat="43.60321" lon="1.16938">
        <ele>258</ele>
        <time>2016-06-11T08:38:58Z</time>
      </trkpt>
      <trkpt lat="43.60322" lon="1.16934">
        <ele>258</ele>
        <time>2016-06-11T08:39:00Z</time>
      </trkpt>
      <trkpt lat="43.60323" lon="1.16933">
        <ele>257</ele>
        <time>2016-06-11T08:39:01Z</time>
      </trkpt>
      <trkpt lat="43.60325" lon="1.16931">
        <ele>257</ele>
        <time>2016-06-11T08:39:03Z</time>
      </trkpt>
      <trkpt lat="43.60326" lon="1.16929">
        <ele>257</ele>
        <time>2016-06-11T08:39:04Z</time>
      </trkpt>
      <trkpt lat="43.60327" lon="1.16927">
        <ele>257</ele>
        <time>2016-06-11T08:39:06Z</time>
      </trkpt>
      <trkpt lat="43.60329" lon="1.16925">
        <ele>257</ele>
        <time>2016-06-11T08:39:08Z</time>
      </trkpt>
      <trkpt lat="43.60331" lon="1.16923">
        <ele>257</ele>
        <time>2016-06-11T08:39:10Z</time>
      </trkpt>
      <trkpt lat="43.60332" lon="1.16922">
        <ele>257</ele>
        <time>2016-06-11T08:39:11Z</time>
      </trkpt>
      <trkpt lat="43.60334" lon="1.16918">
        <ele>257</ele>
        <time>2016-06-11T08:39:13Z</time>
      </trkpt>
      <trkpt lat="43.60334" lon="1.16916">
        <ele>257</ele>
        <time>2016-06-11T08:39:14Z</time>
      </trkpt>
      <trkpt lat="43.60335" lon="1.16912">
        <ele>257</ele>
        <time>2016-06-11T08:39:16Z</time>
      </trkpt>
      <trkpt lat="43.60336" lon="1.16907">
        <ele>257</ele>
        <time>2016-06-11T08:39:18Z</time>
      </trkpt>
      <trkpt lat="43.60337" lon="1.16905">
        <ele>257</ele>
        <time>2016-06-11T08:39:20Z</time>
      </trkpt>
      <trkpt lat="43.60339" lon="1.16903">
        <ele>258</ele>
        <time>2016-06-11T08:39:22Z</time>
      </trkpt>
      <trkpt lat="43.6034" lon="1.16901">
        <ele>258</ele>
        <time>2016-06-11T08:39:23Z</time>
      </trkpt>
      <trkpt lat="43.60342" lon="1.16899">
        <ele>258</ele>
        <time>2016-06-11T08:39:25Z</time>
      </trkpt>
      <trkpt lat="43.60343" lon="1.16897">
        <ele>258</ele>
        <time>2016-06-11T08:39:26Z</time>
      </trkpt>
      <trkpt lat="43.60346" lon="1.16896">
        <ele>258</ele>
        <time>2016-06-11T08:39:28Z</time>
      </trkpt>
      <trkpt lat="43.60349" lon="1.16893">
        <ele>258</ele>
        <time>2016-06-11T08:39:30Z</time>
      </trkpt>
      <trkpt lat="43.60352" lon="1.16891">
        <ele>258</ele>
        <time>2016-06-11T08:39:32Z</time>
      </trkpt>
      <trkpt lat="43.60354" lon="1.1689">
        <ele>258</ele>
        <time>2016-06-11T08:39:34Z</time>
      </trkpt>
      <trkpt lat="43.60357" lon="1.1689">
        <ele>258</ele>
        <time>2016-06-11T08:39:36Z</time>
      </trkpt>
      <trkpt lat="43.60359" lon="1.16888">
        <ele>259</ele>
        <time>2016-06-11T08:39:38Z</time>
      </trkpt>
      <trkpt lat="43.60362" lon="1.16886">
        <ele>259</ele>
        <time>2016-06-11T08:39:40Z</time>
      </trkpt>
      <trkpt lat="43.60366" lon="1.16881">
        <ele>259</ele>
        <time>2016-06-11T08:39:43Z</time>
      </trkpt>
      <trkpt lat="43.60374" lon="1.16873">
        <ele>259</ele>
        <time>2016-06-11T08:39:48Z</time>
      </trkpt>
      <trkpt lat="43.60378" lon="1.1687">
        <ele>259</ele>
        <time>2016-06-11T08:39:51Z</time>
      </trkpt>
      <trkpt lat="43.60383" lon="1.16868">
        <ele>259</ele>
        <time>2016-06-11T08:39:54Z</time>
      </trkpt>
      <trkpt lat="43.60386" lon="1.16866">
        <ele>259</ele>
        <time>2016-06-11T08:39:56Z</time>
      </trkpt>
      <trkpt lat="43.60389" lon="1.16865">
        <ele>259</ele>
        <time>2016-06-11T08:39:58Z</time>
      </trkpt>
      <trkpt lat="43.60391" lon="1.16865">
        <ele>259</ele>
        <time>2016-06-11T08:40:00Z</time>
      </trkpt>
      <trkpt lat="43.60392" lon="1.16864">
        <ele>259</ele>
        <time>2016-06-11T08:40:01Z</time>
      </trkpt>
      <trkpt lat="43.60394" lon="1.16864">
        <ele>259</ele>
        <time>2016-06-11T08:40:03Z</time>
      </trkpt>
      <trkpt lat="43.60395" lon="1.16863">
        <ele>259</ele>
        <time>2016-06-11T08:40:04Z</time>
      </trkpt>
      <trkpt lat="43.60397" lon="1.16861">
        <ele>260</ele>
        <time>2016-06-11T08:40:06Z</time>
      </trkpt>
      <trkpt lat="43.60399" lon="1.1686">
        <ele>260</ele>
        <time>2016-06-11T08:40:08Z</time>
      </trkpt>
      <trkpt lat="43.604" lon="1.1686">
        <ele>260</ele>
        <time>2016-06-11T08:40:09Z</time>
      </trkpt>
      <trkpt lat="43.60402" lon="1.1686">
        <ele>260</ele>
        <time>2016-06-11T08:40:10Z</time>
      </trkpt>
      <trkpt lat="43.60407" lon="1.16857">
        <ele>260</ele>
        <time>2016-06-11T08:40:14Z</time>
      </trkpt>
      <trkpt lat="43.6041" lon="1.16854">
        <ele>261</ele>
        <time>2016-06-11T08:40:16Z</time>
      </trkpt>
      <trkpt lat="43.60412" lon="1.16851">
        <ele>261</ele>
        <time>2016-06-11T08:40:18Z</time>
      </trkpt>
      <trkpt lat="43.60415" lon="1.16848">
        <ele>262</ele>
        <time>2016-06-11T08:40:20Z</time>
      </trkpt>
      <trkpt lat="43.60418" lon="1.16846">
        <ele>262</ele>
        <time>2016-06-11T08:40:22Z</time>
      </trkpt>
      <trkpt lat="43.60421" lon="1.16843">
        <ele>262</ele>
        <time>2016-06-11T08:40:24Z</time>
      </trkpt>
      <trkpt lat="43.60423" lon="1.16841">
        <ele>263</ele>
        <time>2016-06-11T08:40:26Z</time>
      </trkpt>
      <trkpt lat="43.60425" lon="1.16839">
        <ele>263</ele>
        <time>2016-06-11T08:40:28Z</time>
      </trkpt>
      <trkpt lat="43.60427" lon="1.16836">
        <ele>263</ele>
        <time>2016-06-11T08:40:30Z</time>
      </trkpt>
      <trkpt lat="43.60429" lon="1.16835">
        <ele>263</ele>
        <time>2016-06-11T08:40:32Z</time>
      </trkpt>
      <trkpt lat="43.60431" lon="1.16834">
        <ele>263</ele>
        <time>2016-06-11T08:40:33Z</time>
      </trkpt>
      <trkpt lat="43.60432" lon="1.16833">
        <ele>263</ele>
        <time>2016-06-11T08:40:34Z</time>
      </trkpt>
      <trkpt lat="43.60436" lon="1.16832">
        <ele>264</ele>
        <time>2016-06-11T08:40:36Z</time>
      </trkpt>
      <trkpt lat="43.60439" lon="1.16829">
        <ele>264</ele>
        <time>2016-06-11T08:40:38Z</time>
      </trkpt>
      <trkpt lat="43.60441" lon="1.16827">
        <ele>264</ele>
        <time>2016-06-11T08:40:40Z</time>
      </trkpt>
      <trkpt lat="43.60443" lon="1.16825">
        <ele>264</ele>
        <time>2016-06-11T08:40:42Z</time>
      </trkpt>
      <trkpt lat="43.60444" lon="1.16824">
        <ele>265</ele>
        <time>2016-06-11T08:40:43Z</time>
      </trkpt>
      <trkpt lat="43.60446" lon="1.16822">
        <ele>265</ele>
        <time>2016-06-11T08:40:45Z</time>
      </trkpt>
      <trkpt lat="43.60447" lon="1.16822">
        <ele>265</ele>
        <time>2016-06-11T08:40:47Z</time>
      </trkpt>
      <trkpt lat="43.60449" lon="1.16822">
        <ele>265</ele>
        <time>2016-06-11T08:40:48Z</time>
      </trkpt>
      <trkpt lat="43.60452" lon="1.16818">
        <ele>265</ele>
        <time>2016-06-11T08:40:50Z</time>
      </trkpt>
      <trkpt lat="43.60452" lon="1.16817">
        <ele>265</ele>
        <time>2016-06-11T08:40:52Z</time>
      </trkpt>
      <trkpt lat="43.6046" lon="1.16809">
        <ele>264</ele>
        <time>2016-06-11T08:40:58Z</time>
      </trkpt>
      <trkpt lat="43.60463" lon="1.16804">
        <ele>261</ele>
        <time>2016-06-11T08:41:01Z</time>
      </trkpt>
      <trkpt lat="43.60463" lon="1.16804">
        <ele>261</ele>
        <time>2016-06-11T08:41:16Z</time>
      </trkpt>
      <trkpt lat="43.60463" lon="1.16804">
        <ele>260</ele>
        <time>2016-06-11T08:41:18Z</time>
      </trkpt>
      <trkpt lat="43.60471" lon="1.16795">
        <ele>258</ele>
        <time>2016-06-11T08:41:22Z</time>
      </trkpt>
      <trkpt lat="43.60472" lon="1.16794">
        <ele>256</ele>
        <time>2016-06-11T08:41:24Z</time>
      </trkpt>
      <trkpt lat="43.60482" lon="1.16791">
        <ele>253</ele>
        <time>2016-06-11T08:41:56Z</time>
      </trkpt>
      <trkpt lat="43.60481" lon="1.16791">
        <ele>249</ele>
        <time>2016-06-11T08:41:58Z</time>
      </trkpt>
      <trkpt lat="43.60481" lon="1.16791">
        <ele>246</ele>
        <time>2016-06-11T08:42:19Z</time>
      </trkpt>
      <trkpt lat="43.60481" lon="1.16791">
        <ele>245</ele>
        <time>2016-06-11T08:42:20Z</time>
      </trkpt>
      <trkpt lat="43.60481" lon="1.16791">
        <ele>243</ele>
        <time>2016-06-11T08:42:37Z</time>
      </trkpt>
      <trkpt lat="43.60471" lon="1.16788">
        <ele>243</ele>
        <time>2016-06-11T08:42:39Z</time>
      </trkpt>
      <trkpt lat="43.60471" lon="1.16788">
        <ele>242</ele>
        <time>2016-06-11T08:42:40Z</time>
      </trkpt>
      <trkpt lat="43.60471" lon="1.16788">
        <ele>241</ele>
        <time>2016-06-11T08:42:42Z</time>
      </trkpt>
      <trkpt lat="43.60471" lon="1.16788">
        <ele>241</ele>
        <time>2016-06-11T08:42:58Z</time>
      </trkpt>
      <trkpt lat="43.60471" lon="1.16788">
        <ele>240</ele>
        <time>2016-06-11T08:42:59Z</time>
      </trkpt>
      <trkpt lat="43.60467" lon="1.16787">
        <ele>240</ele>
        <time>2016-06-11T08:43:14Z</time>
      </trkpt>
      <trkpt lat="43.60468" lon="1.16788">
        <ele>239</ele>
        <time>2016-06-11T08:43:16Z</time>
      </trkpt>
      <trkpt lat="43.60468" lon="1.1679">
        <ele>238</ele>
        <time>2016-06-11T08:43:18Z</time>
      </trkpt>
      <trkpt lat="43.60469" lon="1.1679">
        <ele>237</ele>
        <time>2016-06-11T08:43:20Z</time>
      </trkpt>
      <trkpt lat="43.60471" lon="1.16791">
        <ele>236</ele>
        <time>2016-06-11T08:43:22Z</time>
      </trkpt>
      <trkpt lat="43.60471" lon="1.16794">
        <ele>236</ele>
        <time>2016-06-11T08:43:24Z</time>
      </trkpt>
      <trkpt lat="43.60472" lon="1.16795">
        <ele>236</ele>
        <time>2016-06-11T08:43:25Z</time>
      </trkpt>
      <trkpt lat="43.60473" lon="1.16796">
        <ele>236</ele>
        <time>2016-06-11T08:43:27Z</time>
      </trkpt>
      <trkpt lat="43.60475" lon="1.16797">
        <ele>236</ele>
        <time>2016-06-11T08:43:29Z</time>
      </trkpt>
      <trkpt lat="43.60477" lon="1.16797">
        <ele>236</ele>
        <time>2016-06-11T08:43:31Z</time>
      </trkpt>
      <trkpt lat="43.60481" lon="1.16796">
        <ele>236</ele>
        <time>2016-06-11T08:43:33Z</time>
      </trkpt>
      <trkpt lat="43.60482" lon="1.16795">
        <ele>236</ele>
        <time>2016-06-11T08:43:34Z</time>
      </trkpt>
      <trkpt lat="43.60484" lon="1.16796">
        <ele>235</ele>
        <time>2016-06-11T08:43:36Z</time>
      </trkpt>
      <trkpt lat="43.60486" lon="1.16796">
        <ele>235</ele>
        <time>2016-06-11T08:43:38Z</time>
      </trkpt>
      <trkpt lat="43.60487" lon="1.16796">
        <ele>235</ele>
        <time>2016-06-11T08:43:40Z</time>
      </trkpt>
      <trkpt lat="43.60489" lon="1.16795">
        <ele>235</ele>
        <time>2016-06-11T08:43:42Z</time>
      </trkpt>
      <trkpt lat="43.6049" lon="1.16794">
        <ele>236</ele>
        <time>2016-06-11T08:43:43Z</time>
      </trkpt>
      <trkpt lat="43.60494" lon="1.16792">
        <ele>236</ele>
        <time>2016-06-11T08:43:45Z</time>
      </trkpt>
      <trkpt lat="43.60494" lon="1.1679">
        <ele>236</ele>
        <time>2016-06-11T08:43:46Z</time>
      </trkpt>
      <trkpt lat="43.60497" lon="1.16789">
        <ele>237</ele>
        <time>2016-06-11T08:43:48Z</time>
      </trkpt>
      <trkpt lat="43.605" lon="1.16788">
        <ele>237</ele>
        <time>2016-06-11T08:43:50Z</time>
      </trkpt>
      <trkpt lat="43.60502" lon="1.16787">
        <ele>237</ele>
        <time>2016-06-11T08:43:51Z</time>
      </trkpt>
      <trkpt lat="43.60504" lon="1.16786">
        <ele>238</ele>
        <time>2016-06-11T08:43:53Z</time>
      </trkpt>
      <trkpt lat="43.60505" lon="1.16784">
        <ele>238</ele>
        <time>2016-06-11T08:43:54Z</time>
      </trkpt>
      <trkpt lat="43.60506" lon="1.16781">
        <ele>238</ele>
        <time>2016-06-11T08:43:56Z</time>
      </trkpt>
      <trkpt lat="43.60507" lon="1.16778">
        <ele>239</ele>
        <time>2016-06-11T08:43:58Z</time>
      </trkpt>
      <trkpt lat="43.60508" lon="1.16774">
        <ele>239</ele>
        <time>2016-06-11T08:44:00Z</time>
      </trkpt>
      <trkpt lat="43.60509" lon="1.16772">
        <ele>239</ele>
        <time>2016-06-11T08:44:01Z</time>
      </trkpt>
      <trkpt lat="43.60512" lon="1.1677">
        <ele>239</ele>
        <time>2016-06-11T08:44:03Z</time>
      </trkpt>
      <trkpt lat="43.60513" lon="1.1677">
        <ele>239</ele>
        <time>2016-06-11T08:44:04Z</time>
      </trkpt>
      <trkpt lat="43.60515" lon="1.16769">
        <ele>239</ele>
        <time>2016-06-11T08:44:06Z</time>
      </trkpt>
      <trkpt lat="43.60519" lon="1.16769">
        <ele>239</ele>
        <time>2016-06-11T08:44:08Z</time>
      </trkpt>
      <trkpt lat="43.60522" lon="1.16769">
        <ele>238</ele>
        <time>2016-06-11T08:44:10Z</time>
      </trkpt>
      <trkpt lat="43.60523" lon="1.16769">
        <ele>238</ele>
        <time>2016-06-11T08:44:11Z</time>
      </trkpt>
      <trkpt lat="43.60526" lon="1.1677">
        <ele>238</ele>
        <time>2016-06-11T08:44:13Z</time>
      </trkpt>
      <trkpt lat="43.60527" lon="1.16769">
        <ele>238</ele>
        <time>2016-06-11T08:44:14Z</time>
      </trkpt>
      <trkpt lat="43.6053" lon="1.16769">
        <ele>237</ele>
        <time>2016-06-11T08:44:16Z</time>
      </trkpt>
      <trkpt lat="43.60532" lon="1.16769">
        <ele>237</ele>
        <time>2016-06-11T08:44:18Z</time>
      </trkpt>
      <trkpt lat="43.60538" lon="1.16768">
        <ele>237</ele>
        <time>2016-06-11T08:44:22Z</time>
      </trkpt>
      <trkpt lat="43.60539" lon="1.16769">
        <ele>237</ele>
        <time>2016-06-11T08:44:24Z</time>
      </trkpt>
      <trkpt lat="43.6054" lon="1.16769">
        <ele>237</ele>
        <time>2016-06-11T08:44:26Z</time>
      </trkpt>
      <trkpt lat="43.60543" lon="1.1677">
        <ele>236</ele>
        <time>2016-06-11T08:44:28Z</time>
      </trkpt>
      <trkpt lat="43.60545" lon="1.16771">
        <ele>236</ele>
        <time>2016-06-11T08:44:30Z</time>
      </trkpt>
      <trkpt lat="43.60547" lon="1.16773">
        <ele>236</ele>
        <time>2016-06-11T08:44:31Z</time>
      </trkpt>
      <trkpt lat="43.60549" lon="1.16774">
        <ele>236</ele>
        <time>2016-06-11T08:44:33Z</time>
      </trkpt>
      <trkpt lat="43.6055" lon="1.16776">
        <ele>236</ele>
        <time>2016-06-11T08:44:34Z</time>
      </trkpt>
      <trkpt lat="43.60552" lon="1.16779">
        <ele>236</ele>
        <time>2016-06-11T08:44:36Z</time>
      </trkpt>
      <trkpt lat="43.60555" lon="1.16782">
        <ele>235</ele>
        <time>2016-06-11T08:44:38Z</time>
      </trkpt>
      <trkpt lat="43.60556" lon="1.16784">
        <ele>235</ele>
        <time>2016-06-11T08:44:40Z</time>
      </trkpt>
      <trkpt lat="43.60563" lon="1.16792">
        <ele>235</ele>
        <time>2016-06-11T08:44:44Z</time>
      </trkpt>
      <trkpt lat="43.60564" lon="1.16794">
        <ele>234</ele>
        <time>2016-06-11T08:44:45Z</time>
      </trkpt>
      <trkpt lat="43.60565" lon="1.16798">
        <ele>234</ele>
        <time>2016-06-11T08:44:47Z</time>
      </trkpt>
      <trkpt lat="43.60567" lon="1.168">
        <ele>233</ele>
        <time>2016-06-11T08:44:49Z</time>
      </trkpt>
      <trkpt lat="43.60569" lon="1.16801">
        <ele>233</ele>
        <time>2016-06-11T08:44:50Z</time>
      </trkpt>
      <trkpt lat="43.60569" lon="1.16802">
        <ele>233</ele>
        <time>2016-06-11T08:44:51Z</time>
      </trkpt>
      <trkpt lat="43.60568" lon="1.16803">
        <ele>232</ele>
        <time>2016-06-11T08:44:52Z</time>
      </trkpt>
      <trkpt lat="43.60569" lon="1.16807">
        <ele>232</ele>
        <time>2016-06-11T08:44:54Z</time>
      </trkpt>
      <trkpt lat="43.6057" lon="1.16809">
        <ele>232</ele>
        <time>2016-06-11T08:44:56Z</time>
      </trkpt>
      <trkpt lat="43.60571" lon="1.16812">
        <ele>232</ele>
        <time>2016-06-11T08:44:58Z</time>
      </trkpt>
      <trkpt lat="43.60571" lon="1.16814">
        <ele>232</ele>
        <time>2016-06-11T08:45:00Z</time>
      </trkpt>
      <trkpt lat="43.60572" lon="1.16815">
        <ele>232</ele>
        <time>2016-06-11T08:45:01Z</time>
      </trkpt>
      <trkpt lat="43.60573" lon="1.16818">
        <ele>232</ele>
        <time>2016-06-11T08:45:03Z</time>
      </trkpt>
      <trkpt lat="43.60574" lon="1.1682">
        <ele>232</ele>
        <time>2016-06-11T08:45:04Z</time>
      </trkpt>
      <trkpt lat="43.60576" lon="1.16823">
        <ele>232</ele>
        <time>2016-06-11T08:45:06Z</time>
      </trkpt>
      <trkpt lat="43.60578" lon="1.16827">
        <ele>232</ele>
        <time>2016-06-11T08:45:08Z</time>
      </trkpt>
      <trkpt lat="43.60584" lon="1.16834">
        <ele>232</ele>
        <time>2016-06-11T08:45:12Z</time>
      </trkpt>
      <trkpt lat="43.60586" lon="1.16836">
        <ele>232</ele>
        <time>2016-06-11T08:45:14Z</time>
      </trkpt>
      <trkpt lat="43.60587" lon="1.16839">
        <ele>232</ele>
        <time>2016-06-11T08:45:16Z</time>
      </trkpt>
      <trkpt lat="43.60588" lon="1.16843">
        <ele>232</ele>
        <time>2016-06-11T08:45:18Z</time>
      </trkpt>
      <trkpt lat="43.60589" lon="1.16844">
        <ele>232</ele>
        <time>2016-06-11T08:45:19Z</time>
      </trkpt>
      <trkpt lat="43.60591" lon="1.16847">
        <ele>232</ele>
        <time>2016-06-11T08:45:21Z</time>
      </trkpt>
      <trkpt lat="43.60592" lon="1.16848">
        <ele>232</ele>
        <time>2016-06-11T08:45:22Z</time>
      </trkpt>
      <trkpt lat="43.60593" lon="1.16849">
        <ele>232</ele>
        <time>2016-06-11T08:45:23Z</time>
      </trkpt>
      <trkpt lat="43.60595" lon="1.16853">
        <ele>232</ele>
        <time>2016-06-11T08:45:25Z</time>
      </trkpt>
      <trkpt lat="43.60597" lon="1.16856">
        <ele>232</ele>
        <time>2016-06-11T08:45:27Z</time>
      </trkpt>
      <trkpt lat="43.60599" lon="1.16859">
        <ele>232</ele>
        <time>2016-06-11T08:45:29Z</time>
      </trkpt>
      <trkpt lat="43.60601" lon="1.16863">
        <ele>232</ele>
        <time>2016-06-11T08:45:31Z</time>
      </trkpt>
      <trkpt lat="43.60602" lon="1.16867">
        <ele>232</ele>
        <time>2016-06-11T08:45:33Z</time>
      </trkpt>
      <trkpt lat="43.60603" lon="1.16868">
        <ele>232</ele>
        <time>2016-06-11T08:45:34Z</time>
      </trkpt>
      <trkpt lat="43.60605" lon="1.16873">
        <ele>232</ele>
        <time>2016-06-11T08:45:36Z</time>
      </trkpt>
      <trkpt lat="43.60606" lon="1.16876">
        <ele>232</ele>
        <time>2016-06-11T08:45:38Z</time>
      </trkpt>
      <trkpt lat="43.60612" lon="1.1688">
        <ele>232</ele>
        <time>2016-06-11T08:45:41Z</time>
      </trkpt>
      <trkpt lat="43.60614" lon="1.16885">
        <ele>232</ele>
        <time>2016-06-11T08:45:43Z</time>
      </trkpt>
      <trkpt lat="43.60616" lon="1.16887">
        <ele>232</ele>
        <time>2016-06-11T08:45:44Z</time>
      </trkpt>
      <trkpt lat="43.60617" lon="1.16888">
        <ele>232</ele>
        <time>2016-06-11T08:45:45Z</time>
      </trkpt>
      <trkpt lat="43.60619" lon="1.16892">
        <ele>232</ele>
        <time>2016-06-11T08:45:47Z</time>
      </trkpt>
      <trkpt lat="43.6062" lon="1.16895">
        <ele>232</ele>
        <time>2016-06-11T08:45:49Z</time>
      </trkpt>
      <trkpt lat="43.60621" lon="1.16898">
        <ele>232</ele>
        <time>2016-06-11T08:45:51Z</time>
      </trkpt>
      <trkpt lat="43.60621" lon="1.16899">
        <ele>232</ele>
        <time>2016-06-11T08:45:52Z</time>
      </trkpt>
      <trkpt lat="43.60622" lon="1.16902">
        <ele>232</ele>
        <time>2016-06-11T08:45:54Z</time>
      </trkpt>
      <trkpt lat="43.60623" lon="1.16905">
        <ele>232</ele>
        <time>2016-06-11T08:45:56Z</time>
      </trkpt>
      <trkpt lat="43.60624" lon="1.16908">
        <ele>232</ele>
        <time>2016-06-11T08:45:58Z</time>
      </trkpt>
      <trkpt lat="43.60623" lon="1.16912">
        <ele>232</ele>
        <time>2016-06-11T08:46:00Z</time>
      </trkpt>
      <trkpt lat="43.60622" lon="1.16914">
        <ele>232</ele>
        <time>2016-06-11T08:46:01Z</time>
      </trkpt>
      <trkpt lat="43.60623" lon="1.16919">
        <ele>232</ele>
        <time>2016-06-11T08:46:03Z</time>
      </trkpt>
      <trkpt lat="43.60625" lon="1.16924">
        <ele>232</ele>
        <time>2016-06-11T08:46:06Z</time>
      </trkpt>
      <trkpt lat="43.60625" lon="1.16928">
        <ele>231</ele>
        <time>2016-06-11T08:46:09Z</time>
      </trkpt>
      <trkpt lat="43.60626" lon="1.16929">
        <ele>231</ele>
        <time>2016-06-11T08:46:10Z</time>
      </trkpt>
      <trkpt lat="43.60628" lon="1.16935">
        <ele>231</ele>
        <time>2016-06-11T08:46:12Z</time>
      </trkpt>
      <trkpt lat="43.60629" lon="1.16939">
        <ele>231</ele>
        <time>2016-06-11T08:46:14Z</time>
      </trkpt>
      <trkpt lat="43.60627" lon="1.16941">
        <ele>232</ele>
        <time>2016-06-11T08:46:16Z</time>
      </trkpt>
      <trkpt lat="43.60626" lon="1.16943">
        <ele>232</ele>
        <time>2016-06-11T08:46:18Z</time>
      </trkpt>
      <trkpt lat="43.60626" lon="1.16944">
        <ele>232</ele>
        <time>2016-06-11T08:46:19Z</time>
      </trkpt>
      <trkpt lat="43.60626" lon="1.16946">
        <ele>232</ele>
        <time>2016-06-11T08:46:20Z</time>
      </trkpt>
      <trkpt lat="43.60626" lon="1.16947">
        <ele>232</ele>
        <time>2016-06-11T08:46:21Z</time>
      </trkpt>
      <trkpt lat="43.60626" lon="1.16951">
        <ele>233</ele>
        <time>2016-06-11T08:46:23Z</time>
      </trkpt>
      <trkpt lat="43.60625" lon="1.16954">
        <ele>233</ele>
        <time>2016-06-11T08:46:25Z</time>
      </trkpt>
      <trkpt lat="43.60627" lon="1.16958">
        <ele>233</ele>
        <time>2016-06-11T08:46:28Z</time>
      </trkpt>
      <trkpt lat="43.60626" lon="1.16962">
        <ele>233</ele>
        <time>2016-06-11T08:46:30Z</time>
      </trkpt>
      <trkpt lat="43.60627" lon="1.16965">
        <ele>233</ele>
        <time>2016-06-11T08:46:32Z</time>
      </trkpt>
      <trkpt lat="43.60627" lon="1.16967">
        <ele>233</ele>
        <time>2016-06-11T08:46:34Z</time>
      </trkpt>
      <trkpt lat="43.60628" lon="1.16969">
        <ele>234</ele>
        <time>2016-06-11T08:46:36Z</time>
      </trkpt>
      <trkpt lat="43.60629" lon="1.16972">
        <ele>234</ele>
        <time>2016-06-11T08:46:38Z</time>
      </trkpt>
      <trkpt lat="43.60629" lon="1.16974">
        <ele>234</ele>
        <time>2016-06-11T08:46:40Z</time>
      </trkpt>
      <trkpt lat="43.60629" lon="1.16977">
        <ele>234</ele>
        <time>2016-06-11T08:46:42Z</time>
      </trkpt>
      <trkpt lat="43.60629" lon="1.16978">
        <ele>235</ele>
        <time>2016-06-11T08:46:45Z</time>
      </trkpt>
      <trkpt lat="43.60629" lon="1.16982">
        <ele>235</ele>
        <time>2016-06-11T08:46:48Z</time>
      </trkpt>
      <trkpt lat="43.60629" lon="1.16986">
        <ele>235</ele>
        <time>2016-06-11T08:46:50Z</time>
      </trkpt>
      <trkpt lat="43.60629" lon="1.16991">
        <ele>235</ele>
        <time>2016-06-11T08:46:51Z</time>
      </trkpt>
      <trkpt lat="43.6063" lon="1.16993">
        <ele>235</ele>
        <time>2016-06-11T08:46:53Z</time>
      </trkpt>
      <trkpt lat="43.60631" lon="1.17007">
        <ele>234</ele>
        <time>2016-06-11T08:47:01Z</time>
      </trkpt>
      <trkpt lat="43.60632" lon="1.1701">
        <ele>233</ele>
        <time>2016-06-11T08:47:03Z</time>
      </trkpt>
      <trkpt lat="43.60633" lon="1.17012">
        <ele>232</ele>
        <time>2016-06-11T08:47:05Z</time>
      </trkpt>
      <trkpt lat="43.60635" lon="1.17021">
        <ele>231</ele>
        <time>2016-06-11T08:47:12Z</time>
      </trkpt>
      <trkpt lat="43.60635" lon="1.17021">
        <ele>230</ele>
        <time>2016-06-11T08:47:13Z</time>
      </trkpt>
      <trkpt lat="43.60635" lon="1.17022">
        <ele>230</ele>
        <time>2016-06-11T08:47:14Z</time>
      </trkpt>
      <trkpt lat="43.60636" lon="1.17024">
        <ele>229</ele>
        <time>2016-06-11T08:47:16Z</time>
      </trkpt>
      <trkpt lat="43.60637" lon="1.17026">
        <ele>229</ele>
        <time>2016-06-11T08:47:18Z</time>
      </trkpt>
      <trkpt lat="43.60637" lon="1.17027">
        <ele>229</ele>
        <time>2016-06-11T08:47:20Z</time>
      </trkpt>
      <trkpt lat="43.60638" lon="1.17029">
        <ele>229</ele>
        <time>2016-06-11T08:47:22Z</time>
      </trkpt>
      <trkpt lat="43.60639" lon="1.17031">
        <ele>229</ele>
        <time>2016-06-11T08:47:24Z</time>
      </trkpt>
      <trkpt lat="43.6064" lon="1.17032">
        <ele>228</ele>
        <time>2016-06-11T08:47:25Z</time>
      </trkpt>
      <trkpt lat="43.60641" lon="1.17035">
        <ele>228</ele>
        <time>2016-06-11T08:47:27Z</time>
      </trkpt>
      <trkpt lat="43.60642" lon="1.17036">
        <ele>228</ele>
        <time>2016-06-11T08:47:28Z</time>
      </trkpt>
      <trkpt lat="43.60644" lon="1.17039">
        <ele>228</ele>
        <time>2016-06-11T08:47:30Z</time>
      </trkpt>
      <trkpt lat="43.60646" lon="1.17041">
        <ele>228</ele>
        <time>2016-06-11T08:47:32Z</time>
      </trkpt>
      <trkpt lat="43.60647" lon="1.17044">
        <ele>228</ele>
        <time>2016-06-11T08:47:34Z</time>
      </trkpt>
      <trkpt lat="43.60648" lon="1.17046">
        <ele>228</ele>
        <time>2016-06-11T08:47:36Z</time>
      </trkpt>
      <trkpt lat="43.60649" lon="1.1705">
        <ele>228</ele>
        <time>2016-06-11T08:47:38Z</time>
      </trkpt>
      <trkpt lat="43.6065" lon="1.17053">
        <ele>228</ele>
        <time>2016-06-11T08:47:40Z</time>
      </trkpt>
      <trkpt lat="43.60651" lon="1.17055">
        <ele>228</ele>
        <time>2016-06-11T08:47:42Z</time>
      </trkpt>
      <trkpt lat="43.60652" lon="1.17059">
        <ele>227</ele>
        <time>2016-06-11T08:47:44Z</time>
      </trkpt>
      <trkpt lat="43.60653" lon="1.17063">
        <ele>227</ele>
        <time>2016-06-11T08:47:46Z</time>
      </trkpt>
      <trkpt lat="43.60655" lon="1.17067">
        <ele>227</ele>
        <time>2016-06-11T08:47:48Z</time>
      </trkpt>
      <trkpt lat="43.60655" lon="1.17068">
        <ele>227</ele>
        <time>2016-06-11T08:47:49Z</time>
      </trkpt>
      <trkpt lat="43.60656" lon="1.17071">
        <ele>227</ele>
        <time>2016-06-11T08:47:51Z</time>
      </trkpt>
      <trkpt lat="43.60657" lon="1.17073">
        <ele>227</ele>
        <time>2016-06-11T08:47:52Z</time>
      </trkpt>
      <trkpt lat="43.60659" lon="1.17075">
        <ele>228</ele>
        <time>2016-06-11T08:47:54Z</time>
      </trkpt>
      <trkpt lat="43.60659" lon="1.17079">
        <ele>228</ele>
        <time>2016-06-11T08:47:56Z</time>
      </trkpt>
      <trkpt lat="43.6066" lon="1.17081">
        <ele>228</ele>
        <time>2016-06-11T08:47:58Z</time>
      </trkpt>
      <trkpt lat="43.60663" lon="1.17084">
        <ele>228</ele>
        <time>2016-06-11T08:48:00Z</time>
      </trkpt>
      <trkpt lat="43.60663" lon="1.17086">
        <ele>228</ele>
        <time>2016-06-11T08:48:01Z</time>
      </trkpt>
      <trkpt lat="43.60663" lon="1.17091">
        <ele>228</ele>
        <time>2016-06-11T08:48:03Z</time>
      </trkpt>
      <trkpt lat="43.60664" lon="1.17096">
        <ele>228</ele>
        <time>2016-06-11T08:48:05Z</time>
      </trkpt>
      <trkpt lat="43.60665" lon="1.171">
        <ele>228</ele>
        <time>2016-06-11T08:48:07Z</time>
      </trkpt>
      <trkpt lat="43.60665" lon="1.17102">
        <ele>228</ele>
        <time>2016-06-11T08:48:08Z</time>
      </trkpt>
      <trkpt lat="43.60666" lon="1.17106">
        <ele>228</ele>
        <time>2016-06-11T08:48:10Z</time>
      </trkpt>
      <trkpt lat="43.60667" lon="1.17109">
        <ele>228</ele>
        <time>2016-06-11T08:48:11Z</time>
      </trkpt>
      <trkpt lat="43.60669" lon="1.17113">
        <ele>227</ele>
        <time>2016-06-11T08:48:13Z</time>
      </trkpt>
      <trkpt lat="43.60669" lon="1.17114">
        <ele>227</ele>
        <time>2016-06-11T08:48:14Z</time>
      </trkpt>
      <trkpt lat="43.60671" lon="1.17117">
        <ele>227</ele>
        <time>2016-06-11T08:48:16Z</time>
      </trkpt>
      <trkpt lat="43.60672" lon="1.1712">
        <ele>227</ele>
        <time>2016-06-11T08:48:19Z</time>
      </trkpt>
      <trkpt lat="43.60673" lon="1.17122">
        <ele>227</ele>
        <time>2016-06-11T08:48:21Z</time>
      </trkpt>
      <trkpt lat="43.60674" lon="1.17124">
        <ele>227</ele>
        <time>2016-06-11T08:48:22Z</time>
      </trkpt>
      <trkpt lat="43.60675" lon="1.17128">
        <ele>226</ele>
        <time>2016-06-11T08:48:24Z</time>
      </trkpt>
      <trkpt lat="43.60674" lon="1.17134">
        <ele>226</ele>
        <time>2016-06-11T08:48:26Z</time>
      </trkpt>
      <trkpt lat="43.60675" lon="1.17138">
        <ele>226</ele>
        <time>2016-06-11T08:48:28Z</time>
      </trkpt>
      <trkpt lat="43.60677" lon="1.17139">
        <ele>226</ele>
        <time>2016-06-11T08:48:30Z</time>
      </trkpt>
      <trkpt lat="43.60679" lon="1.17139">
        <ele>226</ele>
        <time>2016-06-11T08:48:32Z</time>
      </trkpt>
      <trkpt lat="43.6068" lon="1.17141">
        <ele>226</ele>
        <time>2016-06-11T08:48:34Z</time>
      </trkpt>
      <trkpt lat="43.60681" lon="1.17143">
        <ele>226</ele>
        <time>2016-06-11T08:48:36Z</time>
      </trkpt>
      <trkpt lat="43.60683" lon="1.17146">
        <ele>226</ele>
        <time>2016-06-11T08:48:38Z</time>
      </trkpt>
      <trkpt lat="43.60685" lon="1.1715">
        <ele>225</ele>
        <time>2016-06-11T08:48:40Z</time>
      </trkpt>
      <trkpt lat="43.60687" lon="1.17153">
        <ele>225</ele>
        <time>2016-06-11T08:48:42Z</time>
      </trkpt>
      <trkpt lat="43.60688" lon="1.17157">
        <ele>225</ele>
        <time>2016-06-11T08:48:44Z</time>
      </trkpt>
      <trkpt lat="43.6069" lon="1.1716">
        <ele>225</ele>
        <time>2016-06-11T08:48:46Z</time>
      </trkpt>
      <trkpt lat="43.60692" lon="1.17164">
        <ele>225</ele>
        <time>2016-06-11T08:48:48Z</time>
      </trkpt>
      <trkpt lat="43.60693" lon="1.17167">
        <ele>225</ele>
        <time>2016-06-11T08:48:50Z</time>
      </trkpt>
      <trkpt lat="43.60693" lon="1.17171">
        <ele>225</ele>
        <time>2016-06-11T08:48:52Z</time>
      </trkpt>
      <trkpt lat="43.60693" lon="1.17173">
        <ele>225</ele>
        <time>2016-06-11T08:48:53Z</time>
      </trkpt>
      <trkpt lat="43.60693" lon="1.17174">
        <ele>225</ele>
        <time>2016-06-11T08:48:54Z</time>
      </trkpt>
      <trkpt lat="43.60695" lon="1.17178">
        <ele>225</ele>
        <time>2016-06-11T08:48:56Z</time>
      </trkpt>
      <trkpt lat="43.60696" lon="1.17181">
        <ele>225</ele>
        <time>2016-06-11T08:48:58Z</time>
      </trkpt>
      <trkpt lat="43.60698" lon="1.17184">
        <ele>225</ele>
        <time>2016-06-11T08:49:00Z</time>
      </trkpt>
      <trkpt lat="43.60698" lon="1.17185">
        <ele>225</ele>
        <time>2016-06-11T08:49:01Z</time>
      </trkpt>
      <trkpt lat="43.60698" lon="1.17188">
        <ele>225</ele>
        <time>2016-06-11T08:49:03Z</time>
      </trkpt>
      <trkpt lat="43.60697" lon="1.17189">
        <ele>225</ele>
        <time>2016-06-11T08:49:04Z</time>
      </trkpt>
      <trkpt lat="43.60696" lon="1.17192">
        <ele>225</ele>
        <time>2016-06-11T08:49:06Z</time>
      </trkpt>
      <trkpt lat="43.60695" lon="1.17197">
        <ele>225</ele>
        <time>2016-06-11T08:49:08Z</time>
      </trkpt>
      <trkpt lat="43.60695" lon="1.17199">
        <ele>225</ele>
        <time>2016-06-11T08:49:10Z</time>
      </trkpt>
      <trkpt lat="43.60696" lon="1.17202">
        <ele>225</ele>
        <time>2016-06-11T08:49:12Z</time>
      </trkpt>
      <trkpt lat="43.60698" lon="1.17204">
        <ele>226</ele>
        <time>2016-06-11T08:49:14Z</time>
      </trkpt>
      <trkpt lat="43.60699" lon="1.17207">
        <ele>226</ele>
        <time>2016-06-11T08:49:16Z</time>
      </trkpt>
      <trkpt lat="43.607" lon="1.17208">
        <ele>226</ele>
        <time>2016-06-11T08:49:17Z</time>
      </trkpt>
      <trkpt lat="43.607" lon="1.17212">
        <ele>226</ele>
        <time>2016-06-11T08:49:19Z</time>
      </trkpt>
      <trkpt lat="43.60701" lon="1.17214">
        <ele>226</ele>
        <time>2016-06-11T08:49:20Z</time>
      </trkpt>
      <trkpt lat="43.60702" lon="1.17217">
        <ele>227</ele>
        <time>2016-06-11T08:49:22Z</time>
      </trkpt>
      <trkpt lat="43.60704" lon="1.1722">
        <ele>227</ele>
        <time>2016-06-11T08:49:24Z</time>
      </trkpt>
      <trkpt lat="43.60705" lon="1.17221">
        <ele>227</ele>
        <time>2016-06-11T08:49:25Z</time>
      </trkpt>
      <trkpt lat="43.60706" lon="1.17225">
        <ele>227</ele>
        <time>2016-06-11T08:49:27Z</time>
      </trkpt>
      <trkpt lat="43.60708" lon="1.17227">
        <ele>227</ele>
        <time>2016-06-11T08:49:28Z</time>
      </trkpt>
      <trkpt lat="43.60708" lon="1.17232">
        <ele>227</ele>
        <time>2016-06-11T08:49:30Z</time>
      </trkpt>
      <trkpt lat="43.60709" lon="1.17236">
        <ele>228</ele>
        <time>2016-06-11T08:49:32Z</time>
      </trkpt>
      <trkpt lat="43.60711" lon="1.17242">
        <ele>228</ele>
        <time>2016-06-11T08:49:34Z</time>
      </trkpt>
      <trkpt lat="43.60713" lon="1.17246">
        <ele>228</ele>
        <time>2016-06-11T08:49:36Z</time>
      </trkpt>
      <trkpt lat="43.60715" lon="1.17249">
        <ele>228</ele>
        <time>2016-06-11T08:49:38Z</time>
      </trkpt>
      <trkpt lat="43.60716" lon="1.17251">
        <ele>228</ele>
        <time>2016-06-11T08:49:40Z</time>
      </trkpt>
      <trkpt lat="43.60718" lon="1.17252">
        <ele>228</ele>
        <time>2016-06-11T08:49:42Z</time>
      </trkpt>
      <trkpt lat="43.60719" lon="1.17256">
        <ele>228</ele>
        <time>2016-06-11T08:49:44Z</time>
      </trkpt>
      <trkpt lat="43.6072" lon="1.17259">
        <ele>228</ele>
        <time>2016-06-11T08:49:46Z</time>
      </trkpt>
      <trkpt lat="43.60719" lon="1.17262">
        <ele>228</ele>
        <time>2016-06-11T08:49:48Z</time>
      </trkpt>
      <trkpt lat="43.60719" lon="1.17264">
        <ele>228</ele>
        <time>2016-06-11T08:49:49Z</time>
      </trkpt>
      <trkpt lat="43.60719" lon="1.17268">
        <ele>228</ele>
        <time>2016-06-11T08:49:51Z</time>
      </trkpt>
      <trkpt lat="43.60719" lon="1.17269">
        <ele>229</ele>
        <time>2016-06-11T08:49:52Z</time>
      </trkpt>
      <trkpt lat="43.6072" lon="1.17273">
        <ele>229</ele>
        <time>2016-06-11T08:49:54Z</time>
      </trkpt>
      <trkpt lat="43.60723" lon="1.17276">
        <ele>229</ele>
        <time>2016-06-11T08:49:56Z</time>
      </trkpt>
      <trkpt lat="43.60726" lon="1.1728">
        <ele>229</ele>
        <time>2016-06-11T08:49:58Z</time>
      </trkpt>
      <trkpt lat="43.60727" lon="1.17282">
        <ele>229</ele>
        <time>2016-06-11T08:50:00Z</time>
      </trkpt>
      <trkpt lat="43.60729" lon="1.17284">
        <ele>229</ele>
        <time>2016-06-11T08:50:01Z</time>
      </trkpt>
      <trkpt lat="43.60732" lon="1.17286">
        <ele>229</ele>
        <time>2016-06-11T08:50:03Z</time>
      </trkpt>
      <trkpt lat="43.60736" lon="1.17295">
        <ele>229</ele>
        <time>2016-06-11T08:50:06Z</time>
      </trkpt>
      <trkpt lat="43.60741" lon="1.17305">
        <ele>229</ele>
        <time>2016-06-11T08:50:09Z</time>
      </trkpt>
      <trkpt lat="43.60745" lon="1.17307">
        <ele>229</ele>
        <time>2016-06-11T08:50:11Z</time>
      </trkpt>
      <trkpt lat="43.60746" lon="1.17308">
        <ele>229</ele>
        <time>2016-06-11T08:50:12Z</time>
      </trkpt>
      <trkpt lat="43.60748" lon="1.1731">
        <ele>229</ele>
        <time>2016-06-11T08:50:14Z</time>
      </trkpt>
      <trkpt lat="43.60751" lon="1.17312">
        <ele>229</ele>
        <time>2016-06-11T08:50:16Z</time>
      </trkpt>
      <trkpt lat="43.60753" lon="1.17314">
        <ele>230</ele>
        <time>2016-06-11T08:50:18Z</time>
      </trkpt>
      <trkpt lat="43.60754" lon="1.17315">
        <ele>230</ele>
        <time>2016-06-11T08:50:19Z</time>
      </trkpt>
      <trkpt lat="43.60756" lon="1.17316">
        <ele>230</ele>
        <time>2016-06-11T08:50:20Z</time>
      </trkpt>
      <trkpt lat="43.60757" lon="1.17317">
        <ele>231</ele>
        <time>2016-06-11T08:50:21Z</time>
      </trkpt>
      <trkpt lat="43.60761" lon="1.17317">
        <ele>231</ele>
        <time>2016-06-11T08:50:23Z</time>
      </trkpt>
      <trkpt lat="43.60763" lon="1.17317">
        <ele>231</ele>
        <time>2016-06-11T08:50:24Z</time>
      </trkpt>
      <trkpt lat="43.60766" lon="1.1732">
        <ele>231</ele>
        <time>2016-06-11T08:50:26Z</time>
      </trkpt>
      <trkpt lat="43.60767" lon="1.17321">
        <ele>232</ele>
        <time>2016-06-11T08:50:27Z</time>
      </trkpt>
      <trkpt lat="43.60768" lon="1.17321">
        <ele>232</ele>
        <time>2016-06-11T08:50:28Z</time>
      </trkpt>
      <trkpt lat="43.6077" lon="1.17323">
        <ele>232</ele>
        <time>2016-06-11T08:50:30Z</time>
      </trkpt>
      <trkpt lat="43.60773" lon="1.17325">
        <ele>232</ele>
        <time>2016-06-11T08:50:32Z</time>
      </trkpt>
      <trkpt lat="43.60775" lon="1.17326">
        <ele>232</ele>
        <time>2016-06-11T08:50:33Z</time>
      </trkpt>
      <trkpt lat="43.60776" lon="1.17327">
        <ele>233</ele>
        <time>2016-06-11T08:50:34Z</time>
      </trkpt>
      <trkpt lat="43.60777" lon="1.17328">
        <ele>233</ele>
        <time>2016-06-11T08:50:35Z</time>
      </trkpt>
      <trkpt lat="43.60786" lon="1.17329">
        <ele>233</ele>
        <time>2016-06-11T08:50:40Z</time>
      </trkpt>
      <trkpt lat="43.60789" lon="1.1733">
        <ele>233</ele>
        <time>2016-06-11T08:50:42Z</time>
      </trkpt>
      <trkpt lat="43.60796" lon="1.17333">
        <ele>233</ele>
        <time>2016-06-11T08:50:46Z</time>
      </trkpt>
      <trkpt lat="43.60798" lon="1.17335">
        <ele>233</ele>
        <time>2016-06-11T08:50:48Z</time>
      </trkpt>
      <trkpt lat="43.60801" lon="1.17337">
        <ele>233</ele>
        <time>2016-06-11T08:50:50Z</time>
      </trkpt>
      <trkpt lat="43.60803" lon="1.17338">
        <ele>233</ele>
        <time>2016-06-11T08:50:52Z</time>
      </trkpt>
      <trkpt lat="43.60805" lon="1.17339">
        <ele>233</ele>
        <time>2016-06-11T08:50:54Z</time>
      </trkpt>
      <trkpt lat="43.60808" lon="1.1734">
        <ele>233</ele>
        <time>2016-06-11T08:50:56Z</time>
      </trkpt>
      <trkpt lat="43.6081" lon="1.17342">
        <ele>233</ele>
        <time>2016-06-11T08:50:58Z</time>
      </trkpt>
      <trkpt lat="43.60812" lon="1.17344">
        <ele>233</ele>
        <time>2016-06-11T08:51:00Z</time>
      </trkpt>
      <trkpt lat="43.60814" lon="1.17344">
        <ele>233</ele>
        <time>2016-06-11T08:51:01Z</time>
      </trkpt>
      <trkpt lat="43.60815" lon="1.17345">
        <ele>233</ele>
        <time>2016-06-11T08:51:03Z</time>
      </trkpt>
      <trkpt lat="43.60817" lon="1.17347">
        <ele>233</ele>
        <time>2016-06-11T08:51:05Z</time>
      </trkpt>
      <trkpt lat="43.60819" lon="1.17348">
        <ele>233</ele>
        <time>2016-06-11T08:51:06Z</time>
      </trkpt>
      <trkpt lat="43.6082" lon="1.17349">
        <ele>233</ele>
        <time>2016-06-11T08:51:07Z</time>
      </trkpt>
      <trkpt lat="43.60821" lon="1.17349">
        <ele>233</ele>
        <time>2016-06-11T08:51:08Z</time>
      </trkpt>
      <trkpt lat="43.60828" lon="1.17351">
        <ele>233</ele>
        <time>2016-06-11T08:51:12Z</time>
      </trkpt>
      <trkpt lat="43.6083" lon="1.17352">
        <ele>233</ele>
        <time>2016-06-11T08:51:14Z</time>
      </trkpt>
      <trkpt lat="43.60833" lon="1.17352">
        <ele>233</ele>
        <time>2016-06-11T08:51:16Z</time>
      </trkpt>
      <trkpt lat="43.60835" lon="1.17351">
        <ele>233</ele>
        <time>2016-06-11T08:51:18Z</time>
      </trkpt>
      <trkpt lat="43.60836" lon="1.17351">
        <ele>232</ele>
        <time>2016-06-11T08:51:19Z</time>
      </trkpt>
      <trkpt lat="43.60837" lon="1.17352">
        <ele>232</ele>
        <time>2016-06-11T08:51:20Z</time>
      </trkpt>
      <trkpt lat="43.60838" lon="1.17354">
        <ele>232</ele>
        <time>2016-06-11T08:51:21Z</time>
      </trkpt>
      <trkpt lat="43.6084" lon="1.17355">
        <ele>232</ele>
        <time>2016-06-11T08:51:23Z</time>
      </trkpt>
      <trkpt lat="43.60842" lon="1.17357">
        <ele>232</ele>
        <time>2016-06-11T08:51:25Z</time>
      </trkpt>
      <trkpt lat="43.60843" lon="1.17358">
        <ele>232</ele>
        <time>2016-06-11T08:51:26Z</time>
      </trkpt>
      <trkpt lat="43.60844" lon="1.17358">
        <ele>232</ele>
        <time>2016-06-11T08:51:27Z</time>
      </trkpt>
      <trkpt lat="43.60846" lon="1.17359">
        <ele>232</ele>
        <time>2016-06-11T08:51:29Z</time>
      </trkpt>
      <trkpt lat="43.60848" lon="1.17361">
        <ele>232</ele>
        <time>2016-06-11T08:51:31Z</time>
      </trkpt>
      <trkpt lat="43.6085" lon="1.17363">
        <ele>232</ele>
        <time>2016-06-11T08:51:33Z</time>
      </trkpt>
      <trkpt lat="43.6085" lon="1.17363">
        <ele>232</ele>
        <time>2016-06-11T08:51:34Z</time>
      </trkpt>
      <trkpt lat="43.60852" lon="1.17364">
        <ele>232</ele>
        <time>2016-06-11T08:51:36Z</time>
      </trkpt>
      <trkpt lat="43.60854" lon="1.17365">
        <ele>232</ele>
        <time>2016-06-11T08:51:38Z</time>
      </trkpt>
      <trkpt lat="43.60858" lon="1.17367">
        <ele>232</ele>
        <time>2016-06-11T08:51:41Z</time>
      </trkpt>
      <trkpt lat="43.60858" lon="1.17367">
        <ele>232</ele>
        <time>2016-06-11T08:51:42Z</time>
      </trkpt>
      <trkpt lat="43.6086" lon="1.17368">
        <ele>232</ele>
        <time>2016-06-11T08:51:44Z</time>
      </trkpt>
      <trkpt lat="43.60861" lon="1.17368">
        <ele>232</ele>
        <time>2016-06-11T08:51:45Z</time>
      </trkpt>
      <trkpt lat="43.60864" lon="1.17369">
        <ele>232</ele>
        <time>2016-06-11T08:51:47Z</time>
      </trkpt>
      <trkpt lat="43.60865" lon="1.1737">
        <ele>232</ele>
        <time>2016-06-11T08:51:49Z</time>
      </trkpt>
      <trkpt lat="43.60866" lon="1.17369">
        <ele>232</ele>
        <time>2016-06-11T08:51:51Z</time>
      </trkpt>
      <trkpt lat="43.60867" lon="1.1737">
        <ele>232</ele>
        <time>2016-06-11T08:51:52Z</time>
      </trkpt>
      <trkpt lat="43.60869" lon="1.1737">
        <ele>232</ele>
        <time>2016-06-11T08:51:54Z</time>
      </trkpt>
      <trkpt lat="43.6087" lon="1.17371">
        <ele>232</ele>
        <time>2016-06-11T08:51:56Z</time>
      </trkpt>
      <trkpt lat="43.60872" lon="1.17372">
        <ele>232</ele>
        <time>2016-06-11T08:51:58Z</time>
      </trkpt>
      <trkpt lat="43.60874" lon="1.17373">
        <ele>232</ele>
        <time>2016-06-11T08:52:00Z</time>
      </trkpt>
      <trkpt lat="43.60875" lon="1.17374">
        <ele>232</ele>
        <time>2016-06-11T08:52:01Z</time>
      </trkpt>
      <trkpt lat="43.60877" lon="1.17375">
        <ele>232</ele>
        <time>2016-06-11T08:52:03Z</time>
      </trkpt>
      <trkpt lat="43.60878" lon="1.17375">
        <ele>232</ele>
        <time>2016-06-11T08:52:04Z</time>
      </trkpt>
      <trkpt lat="43.60879" lon="1.17376">
        <ele>232</ele>
        <time>2016-06-11T08:52:06Z</time>
      </trkpt>
      <trkpt lat="43.6088" lon="1.17377">
        <ele>232</ele>
        <time>2016-06-11T08:52:08Z</time>
      </trkpt>
      <trkpt lat="43.60883" lon="1.17378">
        <ele>232</ele>
        <time>2016-06-11T08:52:10Z</time>
      </trkpt>
      <trkpt lat="43.60884" lon="1.17377">
        <ele>232</ele>
        <time>2016-06-11T08:52:11Z</time>
      </trkpt>
      <trkpt lat="43.60886" lon="1.17376">
        <ele>231</ele>
        <time>2016-06-11T08:52:13Z</time>
      </trkpt>
      <trkpt lat="43.60887" lon="1.17376">
        <ele>231</ele>
        <time>2016-06-11T08:52:14Z</time>
      </trkpt>
      <trkpt lat="43.60889" lon="1.17376">
        <ele>231</ele>
        <time>2016-06-11T08:52:16Z</time>
      </trkpt>
      <trkpt lat="43.60891" lon="1.17376">
        <ele>231</ele>
        <time>2016-06-11T08:52:18Z</time>
      </trkpt>
      <trkpt lat="43.60894" lon="1.17377">
        <ele>231</ele>
        <time>2016-06-11T08:52:20Z</time>
      </trkpt>
      <trkpt lat="43.60897" lon="1.17378">
        <ele>231</ele>
        <time>2016-06-11T08:52:22Z</time>
      </trkpt>
      <trkpt lat="43.609" lon="1.17379">
        <ele>231</ele>
        <time>2016-06-11T08:52:24Z</time>
      </trkpt>
      <trkpt lat="43.60902" lon="1.17382">
        <ele>231</ele>
        <time>2016-06-11T08:52:26Z</time>
      </trkpt>
      <trkpt lat="43.60903" lon="1.17382">
        <ele>231</ele>
        <time>2016-06-11T08:52:28Z</time>
      </trkpt>
      <trkpt lat="43.60904" lon="1.17383">
        <ele>231</ele>
        <time>2016-06-11T08:52:29Z</time>
      </trkpt>
      <trkpt lat="43.60906" lon="1.17382">
        <ele>231</ele>
        <time>2016-06-11T08:52:31Z</time>
      </trkpt>
      <trkpt lat="43.60909" lon="1.17382">
        <ele>231</ele>
        <time>2016-06-11T08:52:33Z</time>
      </trkpt>
      <trkpt lat="43.6091" lon="1.17382">
        <ele>230</ele>
        <time>2016-06-11T08:52:34Z</time>
      </trkpt>
      <trkpt lat="43.60912" lon="1.17382">
        <ele>230</ele>
        <time>2016-06-11T08:52:36Z</time>
      </trkpt>
      <trkpt lat="43.60914" lon="1.17382">
        <ele>230</ele>
        <time>2016-06-11T08:52:38Z</time>
      </trkpt>
      <trkpt lat="43.60915" lon="1.17383">
        <ele>230</ele>
        <time>2016-06-11T08:52:39Z</time>
      </trkpt>
      <trkpt lat="43.60915" lon="1.17383">
        <ele>229</ele>
        <time>2016-06-11T08:52:40Z</time>
      </trkpt>
      <trkpt lat="43.60917" lon="1.17383">
        <ele>229</ele>
        <time>2016-06-11T08:52:41Z</time>
      </trkpt>
      <trkpt lat="43.60918" lon="1.17385">
        <ele>229</ele>
        <time>2016-06-11T08:52:43Z</time>
      </trkpt>
      <trkpt lat="43.60921" lon="1.17387">
        <ele>229</ele>
        <time>2016-06-11T08:52:45Z</time>
      </trkpt>
      <trkpt lat="43.60924" lon="1.17391">
        <ele>229</ele>
        <time>2016-06-11T08:52:47Z</time>
      </trkpt>
      <trkpt lat="43.60929" lon="1.17392">
        <ele>229</ele>
        <time>2016-06-11T08:52:50Z</time>
      </trkpt>
      <trkpt lat="43.60933" lon="1.17396">
        <ele>229</ele>
        <time>2016-06-11T08:52:53Z</time>
      </trkpt>
      <trkpt lat="43.60934" lon="1.17395">
        <ele>228</ele>
        <time>2016-06-11T08:52:54Z</time>
      </trkpt>
      <trkpt lat="43.60936" lon="1.17396">
        <ele>228</ele>
        <time>2016-06-11T08:52:56Z</time>
      </trkpt>
      <trkpt lat="43.60938" lon="1.17396">
        <ele>228</ele>
        <time>2016-06-11T08:52:58Z</time>
      </trkpt>
      <trkpt lat="43.6094" lon="1.17399">
        <ele>228</ele>
        <time>2016-06-11T08:53:00Z</time>
      </trkpt>
      <trkpt lat="43.60941" lon="1.17399">
        <ele>228</ele>
        <time>2016-06-11T08:53:01Z</time>
      </trkpt>
      <trkpt lat="43.60943" lon="1.174">
        <ele>228</ele>
        <time>2016-06-11T08:53:03Z</time>
      </trkpt>
      <trkpt lat="43.60944" lon="1.17401">
        <ele>228</ele>
        <time>2016-06-11T08:53:05Z</time>
      </trkpt>
      <trkpt lat="43.60952" lon="1.17404">
        <ele>228</ele>
        <time>2016-06-11T08:53:09Z</time>
      </trkpt>
      <trkpt lat="43.60958" lon="1.17407">
        <ele>228</ele>
        <time>2016-06-11T08:53:12Z</time>
      </trkpt>
      <trkpt lat="43.60961" lon="1.17408">
        <ele>228</ele>
        <time>2016-06-11T08:53:14Z</time>
      </trkpt>
      <trkpt lat="43.60973" lon="1.17414">
        <ele>228</ele>
        <time>2016-06-11T08:53:20Z</time>
      </trkpt>
      <trkpt lat="43.60976" lon="1.17415">
        <ele>228</ele>
        <time>2016-06-11T08:53:22Z</time>
      </trkpt>
      <trkpt lat="43.60979" lon="1.17418">
        <ele>228</ele>
        <time>2016-06-11T08:53:24Z</time>
      </trkpt>
      <trkpt lat="43.6098" lon="1.1742">
        <ele>228</ele>
        <time>2016-06-11T08:53:25Z</time>
      </trkpt>
      <trkpt lat="43.60982" lon="1.17421">
        <ele>228</ele>
        <time>2016-06-11T08:53:26Z</time>
      </trkpt>
      <trkpt lat="43.60986" lon="1.17427">
        <ele>228</ele>
        <time>2016-06-11T08:53:28Z</time>
      </trkpt>
      <trkpt lat="43.60988" lon="1.17429">
        <ele>228</ele>
        <time>2016-06-11T08:53:30Z</time>
      </trkpt>
      <trkpt lat="43.60989" lon="1.17429">
        <ele>228</ele>
        <time>2016-06-11T08:53:31Z</time>
      </trkpt>
      <trkpt lat="43.60991" lon="1.17432">
        <ele>228</ele>
        <time>2016-06-11T08:53:33Z</time>
      </trkpt>
      <trkpt lat="43.60992" lon="1.17433">
        <ele>228</ele>
        <time>2016-06-11T08:53:34Z</time>
      </trkpt>
      <trkpt lat="43.60994" lon="1.17435">
        <ele>228</ele>
        <time>2016-06-11T08:53:36Z</time>
      </trkpt>
      <trkpt lat="43.60997" lon="1.17436">
        <ele>227</ele>
        <time>2016-06-11T08:53:38Z</time>
      </trkpt>
      <trkpt lat="43.61001" lon="1.17437">
        <ele>227</ele>
        <time>2016-06-11T08:53:40Z</time>
      </trkpt>
      <trkpt lat="43.61004" lon="1.17439">
        <ele>227</ele>
        <time>2016-06-11T08:53:42Z</time>
      </trkpt>
      <trkpt lat="43.61009" lon="1.17441">
        <ele>227</ele>
        <time>2016-06-11T08:53:45Z</time>
      </trkpt>
      <trkpt lat="43.6101" lon="1.17442">
        <ele>227</ele>
        <time>2016-06-11T08:53:46Z</time>
      </trkpt>
      <trkpt lat="43.61011" lon="1.17445">
        <ele>227</ele>
        <time>2016-06-11T08:53:47Z</time>
      </trkpt>
      <trkpt lat="43.61013" lon="1.17446">
        <ele>227</ele>
        <time>2016-06-11T08:53:49Z</time>
      </trkpt>
      <trkpt lat="43.61021" lon="1.17452">
        <ele>227</ele>
        <time>2016-06-11T08:53:54Z</time>
      </trkpt>
      <trkpt lat="43.61023" lon="1.17455">
        <ele>227</ele>
        <time>2016-06-11T08:53:56Z</time>
      </trkpt>
      <trkpt lat="43.61025" lon="1.17457">
        <ele>227</ele>
        <time>2016-06-11T08:53:58Z</time>
      </trkpt>
      <trkpt lat="43.61027" lon="1.17461">
        <ele>227</ele>
        <time>2016-06-11T08:54:00Z</time>
      </trkpt>
      <trkpt lat="43.61028" lon="1.17463">
        <ele>226</ele>
        <time>2016-06-11T08:54:01Z</time>
      </trkpt>
      <trkpt lat="43.6103" lon="1.17466">
        <ele>226</ele>
        <time>2016-06-11T08:54:03Z</time>
      </trkpt>
      <trkpt lat="43.61031" lon="1.17468">
        <ele>226</ele>
        <time>2016-06-11T08:54:04Z</time>
      </trkpt>
      <trkpt lat="43.61033" lon="1.1747">
        <ele>226</ele>
        <time>2016-06-11T08:54:06Z</time>
      </trkpt>
      <trkpt lat="43.61034" lon="1.17472">
        <ele>226</ele>
        <time>2016-06-11T08:54:08Z</time>
      </trkpt>
      <trkpt lat="43.61036" lon="1.17475">
        <ele>226</ele>
        <time>2016-06-11T08:54:10Z</time>
      </trkpt>
      <trkpt lat="43.61037" lon="1.17477">
        <ele>226</ele>
        <time>2016-06-11T08:54:11Z</time>
      </trkpt>
      <trkpt lat="43.6104" lon="1.17479">
        <ele>226</ele>
        <time>2016-06-11T08:54:13Z</time>
      </trkpt>
      <trkpt lat="43.61041" lon="1.1748">
        <ele>226</ele>
        <time>2016-06-11T08:54:14Z</time>
      </trkpt>
      <trkpt lat="43.61044" lon="1.17482">
        <ele>226</ele>
        <time>2016-06-11T08:54:16Z</time>
      </trkpt>
      <trkpt lat="43.61047" lon="1.17484">
        <ele>226</ele>
        <time>2016-06-11T08:54:18Z</time>
      </trkpt>
      <trkpt lat="43.61048" lon="1.17485">
        <ele>226</ele>
        <time>2016-06-11T08:54:19Z</time>
      </trkpt>
      <trkpt lat="43.6105" lon="1.17485">
        <ele>226</ele>
        <time>2016-06-11T08:54:20Z</time>
      </trkpt>
      <trkpt lat="43.61054" lon="1.17488">
        <ele>226</ele>
        <time>2016-06-11T08:54:22Z</time>
      </trkpt>
      <trkpt lat="43.61055" lon="1.17488">
        <ele>226</ele>
        <time>2016-06-11T08:54:23Z</time>
      </trkpt>
      <trkpt lat="43.61058" lon="1.1749">
        <ele>226</ele>
        <time>2016-06-11T08:54:25Z</time>
      </trkpt>
      <trkpt lat="43.6106" lon="1.17491">
        <ele>226</ele>
        <time>2016-06-11T08:54:26Z</time>
      </trkpt>
      <trkpt lat="43.61078" lon="1.17497">
        <ele>225</ele>
        <time>2016-06-11T08:54:36Z</time>
      </trkpt>
      <trkpt lat="43.61079" lon="1.17499">
        <ele>225</ele>
        <time>2016-06-11T08:54:38Z</time>
      </trkpt>
      <trkpt lat="43.61082" lon="1.17501">
        <ele>225</ele>
        <time>2016-06-11T08:54:40Z</time>
      </trkpt>
      <trkpt lat="43.61084" lon="1.17503">
        <ele>225</ele>
        <time>2016-06-11T08:54:42Z</time>
      </trkpt>
      <trkpt lat="43.61084" lon="1.17505">
        <ele>225</ele>
        <time>2016-06-11T08:54:44Z</time>
      </trkpt>
      <trkpt lat="43.61086" lon="1.17508">
        <ele>225</ele>
        <time>2016-06-11T08:54:46Z</time>
      </trkpt>
      <trkpt lat="43.61087" lon="1.17511">
        <ele>225</ele>
        <time>2016-06-11T08:54:48Z</time>
      </trkpt>
      <trkpt lat="43.61088" lon="1.17513">
        <ele>225</ele>
        <time>2016-06-11T08:54:50Z</time>
      </trkpt>
      <trkpt lat="43.61088" lon="1.17516">
        <ele>225</ele>
        <time>2016-06-11T08:54:52Z</time>
      </trkpt>
      <trkpt lat="43.61089" lon="1.17519">
        <ele>225</ele>
        <time>2016-06-11T08:54:54Z</time>
      </trkpt>
      <trkpt lat="43.61089" lon="1.17522">
        <ele>225</ele>
        <time>2016-06-11T08:54:55Z</time>
      </trkpt>
      <trkpt lat="43.61091" lon="1.17525">
        <ele>225</ele>
        <time>2016-06-11T08:54:57Z</time>
      </trkpt>
      <trkpt lat="43.61092" lon="1.17533">
        <ele>225</ele>
        <time>2016-06-11T08:55:00Z</time>
      </trkpt>
      <trkpt lat="43.61096" lon="1.17534">
        <ele>225</ele>
        <time>2016-06-11T08:55:02Z</time>
      </trkpt>
      <trkpt lat="43.61102" lon="1.17543">
        <ele>225</ele>
        <time>2016-06-11T08:55:06Z</time>
      </trkpt>
      <trkpt lat="43.61103" lon="1.17544">
        <ele>225</ele>
        <time>2016-06-11T08:55:07Z</time>
      </trkpt>
      <trkpt lat="43.61104" lon="1.17547">
        <ele>225</ele>
        <time>2016-06-11T08:55:09Z</time>
      </trkpt>
      <trkpt lat="43.61105" lon="1.17548">
        <ele>224</ele>
        <time>2016-06-11T08:55:10Z</time>
      </trkpt>
      <trkpt lat="43.61105" lon="1.17552">
        <ele>224</ele>
        <time>2016-06-11T08:55:12Z</time>
      </trkpt>
      <trkpt lat="43.61105" lon="1.17555">
        <ele>224</ele>
        <time>2016-06-11T08:55:14Z</time>
      </trkpt>
      <trkpt lat="43.61107" lon="1.17559">
        <ele>224</ele>
        <time>2016-06-11T08:55:16Z</time>
      </trkpt>
      <trkpt lat="43.61109" lon="1.17562">
        <ele>223</ele>
        <time>2016-06-11T08:55:18Z</time>
      </trkpt>
      <trkpt lat="43.61111" lon="1.17564">
        <ele>223</ele>
        <time>2016-06-11T08:55:20Z</time>
      </trkpt>
      <trkpt lat="43.61112" lon="1.17564">
        <ele>223</ele>
        <time>2016-06-11T08:55:21Z</time>
      </trkpt>
      <trkpt lat="43.61114" lon="1.17565">
        <ele>222</ele>
        <time>2016-06-11T08:55:23Z</time>
      </trkpt>
      <trkpt lat="43.61115" lon="1.17566">
        <ele>222</ele>
        <time>2016-06-11T08:55:24Z</time>
      </trkpt>
      <trkpt lat="43.61117" lon="1.17567">
        <ele>222</ele>
        <time>2016-06-11T08:55:26Z</time>
      </trkpt>
      <trkpt lat="43.6112" lon="1.17569">
        <ele>222</ele>
        <time>2016-06-11T08:55:28Z</time>
      </trkpt>
      <trkpt lat="43.61121" lon="1.17569">
        <ele>221</ele>
        <time>2016-06-11T08:55:29Z</time>
      </trkpt>
      <trkpt lat="43.61121" lon="1.1757">
        <ele>221</ele>
        <time>2016-06-11T08:55:31Z</time>
      </trkpt>
      <trkpt lat="43.61124" lon="1.17573">
        <ele>221</ele>
        <time>2016-06-11T08:55:33Z</time>
      </trkpt>
      <trkpt lat="43.61126" lon="1.17575">
        <ele>221</ele>
        <time>2016-06-11T08:55:34Z</time>
      </trkpt>
      <trkpt lat="43.61131" lon="1.17576">
        <ele>220</ele>
        <time>2016-06-11T08:55:38Z</time>
      </trkpt>
      <trkpt lat="43.61133" lon="1.17578">
        <ele>220</ele>
        <time>2016-06-11T08:55:40Z</time>
      </trkpt>
      <trkpt lat="43.61135" lon="1.17581">
        <ele>220</ele>
        <time>2016-06-11T08:55:42Z</time>
      </trkpt>
      <trkpt lat="43.61136" lon="1.17583">
        <ele>220</ele>
        <time>2016-06-11T08:55:44Z</time>
      </trkpt>
      <trkpt lat="43.61137" lon="1.17583">
        <ele>220</ele>
        <time>2016-06-11T08:55:45Z</time>
      </trkpt>
      <trkpt lat="43.61139" lon="1.17585">
        <ele>220</ele>
        <time>2016-06-11T08:55:47Z</time>
      </trkpt>
      <trkpt lat="43.6114" lon="1.17586">
        <ele>220</ele>
        <time>2016-06-11T08:55:48Z</time>
      </trkpt>
      <trkpt lat="43.61142" lon="1.17589">
        <ele>220</ele>
        <time>2016-06-11T08:55:50Z</time>
      </trkpt>
      <trkpt lat="43.61143" lon="1.17591">
        <ele>220</ele>
        <time>2016-06-11T08:55:52Z</time>
      </trkpt>
      <trkpt lat="43.61144" lon="1.17592">
        <ele>220</ele>
        <time>2016-06-11T08:55:53Z</time>
      </trkpt>
      <trkpt lat="43.61145" lon="1.17593">
        <ele>220</ele>
        <time>2016-06-11T08:55:54Z</time>
      </trkpt>
      <trkpt lat="43.61146" lon="1.17596">
        <ele>220</ele>
        <time>2016-06-11T08:55:56Z</time>
      </trkpt>
      <trkpt lat="43.61149" lon="1.176">
        <ele>219</ele>
        <time>2016-06-11T08:55:58Z</time>
      </trkpt>
      <trkpt lat="43.6115" lon="1.17603">
        <ele>219</ele>
        <time>2016-06-11T08:56:01Z</time>
      </trkpt>
      <trkpt lat="43.61152" lon="1.17605">
        <ele>219</ele>
        <time>2016-06-11T08:56:03Z</time>
      </trkpt>
      <trkpt lat="43.61153" lon="1.17607">
        <ele>219</ele>
        <time>2016-06-11T08:56:04Z</time>
      </trkpt>
      <trkpt lat="43.61155" lon="1.17609">
        <ele>219</ele>
        <time>2016-06-11T08:56:06Z</time>
      </trkpt>
      <trkpt lat="43.61163" lon="1.17619">
        <ele>219</ele>
        <time>2016-06-11T08:56:09Z</time>
      </trkpt>
      <trkpt lat="43.61164" lon="1.17624">
        <ele>219</ele>
        <time>2016-06-11T08:56:11Z</time>
      </trkpt>
      <trkpt lat="43.61167" lon="1.17628">
        <ele>219</ele>
        <time>2016-06-11T08:56:13Z</time>
      </trkpt>
      <trkpt lat="43.61168" lon="1.17629">
        <ele>219</ele>
        <time>2016-06-11T08:56:14Z</time>
      </trkpt>
      <trkpt lat="43.6117" lon="1.17632">
        <ele>219</ele>
        <time>2016-06-11T08:56:16Z</time>
      </trkpt>
      <trkpt lat="43.61171" lon="1.17634">
        <ele>219</ele>
        <time>2016-06-11T08:56:18Z</time>
      </trkpt>
      <trkpt lat="43.61173" lon="1.17636">
        <ele>219</ele>
        <time>2016-06-11T08:56:20Z</time>
      </trkpt>
      <trkpt lat="43.61175" lon="1.17639">
        <ele>219</ele>
        <time>2016-06-11T08:56:22Z</time>
      </trkpt>
      <trkpt lat="43.61176" lon="1.1764">
        <ele>219</ele>
        <time>2016-06-11T08:56:23Z</time>
      </trkpt>
      <trkpt lat="43.61177" lon="1.17644">
        <ele>219</ele>
        <time>2016-06-11T08:56:25Z</time>
      </trkpt>
      <trkpt lat="43.61178" lon="1.17645">
        <ele>219</ele>
        <time>2016-06-11T08:56:26Z</time>
      </trkpt>
      <trkpt lat="43.61179" lon="1.17647">
        <ele>219</ele>
        <time>2016-06-11T08:56:28Z</time>
      </trkpt>
      <trkpt lat="43.61182" lon="1.1765">
        <ele>219</ele>
        <time>2016-06-11T08:56:30Z</time>
      </trkpt>
      <trkpt lat="43.61192" lon="1.17658">
        <ele>219</ele>
        <time>2016-06-11T08:56:36Z</time>
      </trkpt>
      <trkpt lat="43.61194" lon="1.17661">
        <ele>220</ele>
        <time>2016-06-11T08:56:38Z</time>
      </trkpt>
      <trkpt lat="43.61195" lon="1.17667">
        <ele>220</ele>
        <time>2016-06-11T08:56:40Z</time>
      </trkpt>
      <trkpt lat="43.61198" lon="1.17673">
        <ele>219</ele>
        <time>2016-06-11T08:56:42Z</time>
      </trkpt>
      <trkpt lat="43.612" lon="1.17674">
        <ele>219</ele>
        <time>2016-06-11T08:56:44Z</time>
      </trkpt>
      <trkpt lat="43.61202" lon="1.17675">
        <ele>219</ele>
        <time>2016-06-11T08:56:45Z</time>
      </trkpt>
      <trkpt lat="43.61204" lon="1.17675">
        <ele>219</ele>
        <time>2016-06-11T08:56:46Z</time>
      </trkpt>
      <trkpt lat="43.61206" lon="1.17677">
        <ele>219</ele>
        <time>2016-06-11T08:56:48Z</time>
      </trkpt>
      <trkpt lat="43.61208" lon="1.1768">
        <ele>219</ele>
        <time>2016-06-11T08:56:50Z</time>
      </trkpt>
      <trkpt lat="43.6121" lon="1.17681">
        <ele>219</ele>
        <time>2016-06-11T08:56:52Z</time>
      </trkpt>
      <trkpt lat="43.61212" lon="1.17684">
        <ele>218</ele>
        <time>2016-06-11T08:56:54Z</time>
      </trkpt>
      <trkpt lat="43.61212" lon="1.17688">
        <ele>218</ele>
        <time>2016-06-11T08:56:56Z</time>
      </trkpt>
      <trkpt lat="43.61213" lon="1.17691">
        <ele>218</ele>
        <time>2016-06-11T08:56:58Z</time>
      </trkpt>
      <trkpt lat="43.61214" lon="1.17693">
        <ele>218</ele>
        <time>2016-06-11T08:57:00Z</time>
      </trkpt>
      <trkpt lat="43.61214" lon="1.17695">
        <ele>218</ele>
        <time>2016-06-11T08:57:01Z</time>
      </trkpt>
      <trkpt lat="43.61215" lon="1.17697">
        <ele>218</ele>
        <time>2016-06-11T08:57:03Z</time>
      </trkpt>
      <trkpt lat="43.61216" lon="1.177">
        <ele>218</ele>
        <time>2016-06-11T08:57:05Z</time>
      </trkpt>
      <trkpt lat="43.61218" lon="1.17702">
        <ele>218</ele>
        <time>2016-06-11T08:57:06Z</time>
      </trkpt>
      <trkpt lat="43.61219" lon="1.17703">
        <ele>218</ele>
        <time>2016-06-11T08:57:07Z</time>
      </trkpt>
      <trkpt lat="43.6122" lon="1.17705">
        <ele>218</ele>
        <time>2016-06-11T08:57:08Z</time>
      </trkpt>
      <trkpt lat="43.61221" lon="1.17707">
        <ele>218</ele>
        <time>2016-06-11T08:57:10Z</time>
      </trkpt>
      <trkpt lat="43.61221" lon="1.17711">
        <ele>218</ele>
        <time>2016-06-11T08:57:12Z</time>
      </trkpt>
      <trkpt lat="43.61221" lon="1.17714">
        <ele>219</ele>
        <time>2016-06-11T08:57:14Z</time>
      </trkpt>
      <trkpt lat="43.61222" lon="1.17717">
        <ele>219</ele>
        <time>2016-06-11T08:57:16Z</time>
      </trkpt>
      <trkpt lat="43.61223" lon="1.17721">
        <ele>219</ele>
        <time>2016-06-11T08:57:18Z</time>
      </trkpt>
      <trkpt lat="43.61221" lon="1.17734">
        <ele>219</ele>
        <time>2016-06-11T08:57:22Z</time>
      </trkpt>
      <trkpt lat="43.61223" lon="1.17736">
        <ele>220</ele>
        <time>2016-06-11T08:57:23Z</time>
      </trkpt>
      <trkpt lat="43.61224" lon="1.1774">
        <ele>220</ele>
        <time>2016-06-11T08:57:25Z</time>
      </trkpt>
      <trkpt lat="43.61226" lon="1.17743">
        <ele>220</ele>
        <time>2016-06-11T08:57:27Z</time>
      </trkpt>
      <trkpt lat="43.61226" lon="1.17744">
        <ele>220</ele>
        <time>2016-06-11T08:57:28Z</time>
      </trkpt>
      <trkpt lat="43.61226" lon="1.17747">
        <ele>220</ele>
        <time>2016-06-11T08:57:30Z</time>
      </trkpt>
      <trkpt lat="43.61227" lon="1.17748">
        <ele>220</ele>
        <time>2016-06-11T08:57:31Z</time>
      </trkpt>
      <trkpt lat="43.6123" lon="1.17752">
        <ele>220</ele>
        <time>2016-06-11T08:57:33Z</time>
      </trkpt>
      <trkpt lat="43.61231" lon="1.17752">
        <ele>219</ele>
        <time>2016-06-11T08:57:34Z</time>
      </trkpt>
      <trkpt lat="43.61232" lon="1.17754">
        <ele>219</ele>
        <time>2016-06-11T08:57:36Z</time>
      </trkpt>
      <trkpt lat="43.61234" lon="1.17756">
        <ele>219</ele>
        <time>2016-06-11T08:57:38Z</time>
      </trkpt>
      <trkpt lat="43.61235" lon="1.1776">
        <ele>219</ele>
        <time>2016-06-11T08:57:40Z</time>
      </trkpt>
      <trkpt lat="43.61237" lon="1.17762">
        <ele>219</ele>
        <time>2016-06-11T08:57:42Z</time>
      </trkpt>
      <trkpt lat="43.61238" lon="1.17763">
        <ele>219</ele>
        <time>2016-06-11T08:57:44Z</time>
      </trkpt>
      <trkpt lat="43.6124" lon="1.17765">
        <ele>219</ele>
        <time>2016-06-11T08:57:46Z</time>
      </trkpt>
      <trkpt lat="43.61241" lon="1.17768">
        <ele>219</ele>
        <time>2016-06-11T08:57:48Z</time>
      </trkpt>
      <trkpt lat="43.61241" lon="1.17769">
        <ele>219</ele>
        <time>2016-06-11T08:57:49Z</time>
      </trkpt>
      <trkpt lat="43.61243" lon="1.17773">
        <ele>219</ele>
        <time>2016-06-11T08:57:51Z</time>
      </trkpt>
      <trkpt lat="43.61244" lon="1.17776">
        <ele>219</ele>
        <time>2016-06-11T08:57:52Z</time>
      </trkpt>
      <trkpt lat="43.61246" lon="1.17778">
        <ele>219</ele>
        <time>2016-06-11T08:57:54Z</time>
      </trkpt>
      <trkpt lat="43.61248" lon="1.1778">
        <ele>218</ele>
        <time>2016-06-11T08:57:56Z</time>
      </trkpt>
      <trkpt lat="43.61254" lon="1.17788">
        <ele>218</ele>
        <time>2016-06-11T08:58:04Z</time>
      </trkpt>
      <trkpt lat="43.61255" lon="1.1779">
        <ele>217</ele>
        <time>2016-06-11T08:58:06Z</time>
      </trkpt>
      <trkpt lat="43.61255" lon="1.17791">
        <ele>217</ele>
        <time>2016-06-11T08:58:07Z</time>
      </trkpt>
      <trkpt lat="43.61255" lon="1.17791">
        <ele>217</ele>
        <time>2016-06-11T08:58:24Z</time>
      </trkpt>
      <trkpt lat="43.61255" lon="1.17791">
        <ele>216</ele>
        <time>2016-06-11T08:58:25Z</time>
      </trkpt>
      <trkpt lat="43.61255" lon="1.17791">
        <ele>216</ele>
        <time>2016-06-11T08:58:45Z</time>
      </trkpt>
      <trkpt lat="43.61255" lon="1.17791">
        <ele>216</ele>
        <time>2016-06-11T08:58:46Z</time>
      </trkpt>
      <trkpt lat="43.61258" lon="1.17802">
        <ele>216</ele>
        <time>2016-06-11T08:59:00Z</time>
      </trkpt>
      <trkpt lat="43.61258" lon="1.17802">
        <ele>215</ele>
        <time>2016-06-11T08:59:03Z</time>
      </trkpt>
      <trkpt lat="43.61258" lon="1.17802">
        <ele>214</ele>
        <time>2016-06-11T08:59:25Z</time>
      </trkpt>
      <trkpt lat="43.61258" lon="1.17802">
        <ele>213</ele>
        <time>2016-06-11T08:59:27Z</time>
      </trkpt>
      <trkpt lat="43.61258" lon="1.17802">
        <ele>212</ele>
        <time>2016-06-11T08:59:44Z</time>
      </trkpt>
      <trkpt lat="43.61258" lon="1.17802">
        <ele>212</ele>
        <time>2016-06-11T08:59:46Z</time>
      </trkpt>
      <trkpt lat="43.61258" lon="1.17802">
        <ele>212</ele>
        <time>2016-06-11T09:00:04Z</time>
      </trkpt>
      <trkpt lat="43.61258" lon="1.17802">
        <ele>212</ele>
        <time>2016-06-11T09:00:05Z</time>
      </trkpt>
      <trkpt lat="43.61258" lon="1.17802">
        <ele>212</ele>
        <time>2016-06-11T09:00:24Z</time>
      </trkpt>
      <trkpt lat="43.61258" lon="1.17802">
        <ele>212</ele>
        <time>2016-06-11T09:00:25Z</time>
      </trkpt>
      <trkpt lat="43.61258" lon="1.17802">
        <ele>212</ele>
        <time>2016-06-11T09:00:46Z</time>
      </trkpt>
      <trkpt lat="43.61258" lon="1.17802">
        <ele>212</ele>
        <time>2016-06-11T09:01:04Z</time>
      </trkpt>
      <trkpt lat="43.61258" lon="1.17802">
        <ele>212</ele>
        <time>2016-06-11T09:01:06Z</time>
      </trkpt>
      <trkpt lat="43.61258" lon="1.17802">
        <ele>212</ele>
        <time>2016-06-11T09:01:25Z</time>
      </trkpt>
      <trkpt lat="43.61258" lon="1.17802">
        <ele>212</ele>
        <time>2016-06-11T09:01:27Z</time>
      </trkpt>
      <trkpt lat="43.61258" lon="1.17802">
        <ele>212</ele>
        <time>2016-06-11T09:01:46Z</time>
      </trkpt>
      <trkpt lat="43.61258" lon="1.17802">
        <ele>212</ele>
        <time>2016-06-11T09:01:47Z</time>
      </trkpt>
      <trkpt lat="43.61258" lon="1.17802">
        <ele>212</ele>
        <time>2016-06-11T09:02:04Z</time>
      </trkpt>
      <trkpt lat="43.61258" lon="1.17802">
        <ele>212</ele>
        <time>2016-06-11T09:02:06Z</time>
      </trkpt>
      <trkpt lat="43.61258" lon="1.17802">
        <ele>212</ele>
        <time>2016-06-11T09:02:25Z</time>
      </trkpt>
      <trkpt lat="43.61258" lon="1.17802">
        <ele>212</ele>
        <time>2016-06-11T09:02:26Z</time>
      </trkpt>
      <trkpt lat="43.6126" lon="1.17798">
        <ele>212</ele>
        <time>2016-06-11T09:02:33Z</time>
      </trkpt>
      <trkpt lat="43.61261" lon="1.17798">
        <ele>211</ele>
        <time>2016-06-11T09:02:34Z</time>
      </trkpt>
      <trkpt lat="43.61261" lon="1.17796">
        <ele>211</ele>
        <time>2016-06-11T09:02:36Z</time>
      </trkpt>
      <trkpt lat="43.61263" lon="1.17796">
        <ele>211</ele>
        <time>2016-06-11T09:02:38Z</time>
      </trkpt>
      <trkpt lat="43.61265" lon="1.17796">
        <ele>211</ele>
        <time>2016-06-11T09:02:40Z</time>
      </trkpt>
      <trkpt lat="43.61266" lon="1.17797">
        <ele>211</ele>
        <time>2016-06-11T09:02:42Z</time>
      </trkpt>
      <trkpt lat="43.61268" lon="1.17797">
        <ele>211</ele>
        <time>2016-06-11T09:02:44Z</time>
      </trkpt>
      <trkpt lat="43.61269" lon="1.17797">
        <ele>211</ele>
        <time>2016-06-11T09:02:46Z</time>
      </trkpt>
      <trkpt lat="43.61269" lon="1.17798">
        <ele>212</ele>
        <time>2016-06-11T09:02:47Z</time>
      </trkpt>
      <trkpt lat="43.6127" lon="1.17798">
        <ele>212</ele>
        <time>2016-06-11T09:02:49Z</time>
      </trkpt>
      <trkpt lat="43.61271" lon="1.17798">
        <ele>212</ele>
        <time>2016-06-11T09:02:50Z</time>
      </trkpt>
      <trkpt lat="43.61272" lon="1.17799">
        <ele>212</ele>
        <time>2016-06-11T09:02:52Z</time>
      </trkpt>
      <trkpt lat="43.61274" lon="1.178">
        <ele>213</ele>
        <time>2016-06-11T09:02:54Z</time>
      </trkpt>
      <trkpt lat="43.61276" lon="1.17802">
        <ele>213</ele>
        <time>2016-06-11T09:02:56Z</time>
      </trkpt>
      <trkpt lat="43.61277" lon="1.17804">
        <ele>213</ele>
        <time>2016-06-11T09:02:58Z</time>
      </trkpt>
      <trkpt lat="43.6128" lon="1.17806">
        <ele>213</ele>
        <time>2016-06-11T09:03:00Z</time>
      </trkpt>
      <trkpt lat="43.61281" lon="1.17807">
        <ele>214</ele>
        <time>2016-06-11T09:03:01Z</time>
      </trkpt>
      <trkpt lat="43.61284" lon="1.1781">
        <ele>214</ele>
        <time>2016-06-11T09:03:03Z</time>
      </trkpt>
      <trkpt lat="43.61287" lon="1.17814">
        <ele>214</ele>
        <time>2016-06-11T09:03:06Z</time>
      </trkpt>
      <trkpt lat="43.61292" lon="1.17819">
        <ele>214</ele>
        <time>2016-06-11T09:03:10Z</time>
      </trkpt>
      <trkpt lat="43.61297" lon="1.17826">
        <ele>215</ele>
        <time>2016-06-11T09:03:16Z</time>
      </trkpt>
      <trkpt lat="43.61298" lon="1.17832">
        <ele>216</ele>
        <time>2016-06-11T09:03:20Z</time>
      </trkpt>
      <trkpt lat="43.61302" lon="1.17838">
        <ele>217</ele>
        <time>2016-06-11T09:03:24Z</time>
      </trkpt>
      <trkpt lat="43.61306" lon="1.17845">
        <ele>218</ele>
        <time>2016-06-11T09:03:30Z</time>
      </trkpt>
      <trkpt lat="43.61309" lon="1.17851">
        <ele>219</ele>
        <time>2016-06-11T09:03:34Z</time>
      </trkpt>
      <trkpt lat="43.61313" lon="1.17858">
        <ele>220</ele>
        <time>2016-06-11T09:03:38Z</time>
      </trkpt>
      <trkpt lat="43.61317" lon="1.17868">
        <ele>221</ele>
        <time>2016-06-11T09:03:40Z</time>
      </trkpt>
      <trkpt lat="43.61321" lon="1.17877">
        <ele>222</ele>
        <time>2016-06-11T09:03:44Z</time>
      </trkpt>
      <trkpt lat="43.61324" lon="1.17885">
        <ele>223</ele>
        <time>2016-06-11T09:03:48Z</time>
      </trkpt>
      <trkpt lat="43.61329" lon="1.17889">
        <ele>223</ele>
        <time>2016-06-11T09:03:51Z</time>
      </trkpt>
      <trkpt lat="43.61334" lon="1.17892">
        <ele>224</ele>
        <time>2016-06-11T09:03:56Z</time>
      </trkpt>
      <trkpt lat="43.61338" lon="1.17896">
        <ele>225</ele>
        <time>2016-06-11T09:04:01Z</time>
      </trkpt>
      <trkpt lat="43.61342" lon="1.17901">
        <ele>226</ele>
        <time>2016-06-11T09:04:06Z</time>
      </trkpt>
      <trkpt lat="43.61346" lon="1.17905">
        <ele>227</ele>
        <time>2016-06-11T09:04:10Z</time>
      </trkpt>
      <trkpt lat="43.61349" lon="1.17912">
        <ele>229</ele>
        <time>2016-06-11T09:04:16Z</time>
      </trkpt>
      <trkpt lat="43.61353" lon="1.17917">
        <ele>230</ele>
        <time>2016-06-11T09:04:20Z</time>
      </trkpt>
      <trkpt lat="43.61359" lon="1.17922">
        <ele>231</ele>
        <time>2016-06-11T09:04:24Z</time>
      </trkpt>
      <trkpt lat="43.61374" lon="1.17932">
        <ele>234</ele>
        <time>2016-06-11T09:04:33Z</time>
      </trkpt>
      <trkpt lat="43.61382" lon="1.17944">
        <ele>234</ele>
        <time>2016-06-11T09:04:40Z</time>
      </trkpt>
      <trkpt lat="43.61387" lon="1.17946">
        <ele>235</ele>
        <time>2016-06-11T09:04:44Z</time>
      </trkpt>
      <trkpt lat="43.61391" lon="1.17946">
        <ele>235</ele>
        <time>2016-06-11T09:04:47Z</time>
      </trkpt>
      <trkpt lat="43.61396" lon="1.17948">
        <ele>236</ele>
        <time>2016-06-11T09:04:52Z</time>
      </trkpt>
      <trkpt lat="43.61403" lon="1.17945">
        <ele>236</ele>
        <time>2016-06-11T09:04:56Z</time>
      </trkpt>
      <trkpt lat="43.61417" lon="1.17954">
        <ele>238</ele>
        <time>2016-06-11T09:05:05Z</time>
      </trkpt>
      <trkpt lat="43.61419" lon="1.17956">
        <ele>238</ele>
        <time>2016-06-11T09:05:07Z</time>
      </trkpt>
      <trkpt lat="43.6142" lon="1.17956">
        <ele>238</ele>
        <time>2016-06-11T09:05:08Z</time>
      </trkpt>
      <trkpt lat="43.61422" lon="1.17959">
        <ele>238</ele>
        <time>2016-06-11T09:05:11Z</time>
      </trkpt>
      <trkpt lat="43.61427" lon="1.17962">
        <ele>238</ele>
        <time>2016-06-11T09:05:15Z</time>
      </trkpt>
      <trkpt lat="43.61428" lon="1.17963">
        <ele>238</ele>
        <time>2016-06-11T09:05:16Z</time>
      </trkpt>
      <trkpt lat="43.6143" lon="1.17966">
        <ele>237</ele>
        <time>2016-06-11T09:05:19Z</time>
      </trkpt>
      <trkpt lat="43.61435" lon="1.1797">
        <ele>237</ele>
        <time>2016-06-11T09:05:25Z</time>
      </trkpt>
      <trkpt lat="43.61437" lon="1.17973">
        <ele>238</ele>
        <time>2016-06-11T09:05:27Z</time>
      </trkpt>
      <trkpt lat="43.61438" lon="1.17974">
        <ele>238</ele>
        <time>2016-06-11T09:05:28Z</time>
      </trkpt>
      <trkpt lat="43.61439" lon="1.17977">
        <ele>238</ele>
        <time>2016-06-11T09:05:31Z</time>
      </trkpt>
      <trkpt lat="43.61441" lon="1.17979">
        <ele>238</ele>
        <time>2016-06-11T09:05:33Z</time>
      </trkpt>
      <trkpt lat="43.61441" lon="1.1798">
        <ele>238</ele>
        <time>2016-06-11T09:05:34Z</time>
      </trkpt>
      <trkpt lat="43.61445" lon="1.17984">
        <ele>238</ele>
        <time>2016-06-11T09:05:37Z</time>
      </trkpt>
      <trkpt lat="43.6145" lon="1.17987">
        <ele>238</ele>
        <time>2016-06-11T09:05:41Z</time>
      </trkpt>
      <trkpt lat="43.61457" lon="1.1799">
        <ele>239</ele>
        <time>2016-06-11T09:05:45Z</time>
      </trkpt>
      <trkpt lat="43.61462" lon="1.17996">
        <ele>239</ele>
        <time>2016-06-11T09:05:49Z</time>
      </trkpt>
      <trkpt lat="43.61464" lon="1.18">
        <ele>240</ele>
        <time>2016-06-11T09:05:53Z</time>
      </trkpt>
      <trkpt lat="43.61465" lon="1.18003">
        <ele>240</ele>
        <time>2016-06-11T09:05:56Z</time>
      </trkpt>
      <trkpt lat="43.61466" lon="1.18005">
        <ele>241</ele>
        <time>2016-06-11T09:05:57Z</time>
      </trkpt>
      <trkpt lat="43.61467" lon="1.18013">
        <ele>242</ele>
        <time>2016-06-11T09:06:02Z</time>
      </trkpt>
      <trkpt lat="43.6147" lon="1.18019">
        <ele>243</ele>
        <time>2016-06-11T09:06:08Z</time>
      </trkpt>
      <trkpt lat="43.6147" lon="1.18022">
        <ele>243</ele>
        <time>2016-06-11T09:06:10Z</time>
      </trkpt>
      <trkpt lat="43.61473" lon="1.18024">
        <ele>244</ele>
        <time>2016-06-11T09:06:14Z</time>
      </trkpt>
      <trkpt lat="43.61475" lon="1.18026">
        <ele>245</ele>
        <time>2016-06-11T09:06:16Z</time>
      </trkpt>
      <trkpt lat="43.61477" lon="1.18027">
        <ele>246</ele>
        <time>2016-06-11T09:06:17Z</time>
      </trkpt>
      <trkpt lat="43.61481" lon="1.18029">
        <ele>246</ele>
        <time>2016-06-11T09:06:20Z</time>
      </trkpt>
      <trkpt lat="43.61485" lon="1.18031">
        <ele>247</ele>
        <time>2016-06-11T09:06:22Z</time>
      </trkpt>
      <trkpt lat="43.61488" lon="1.18034">
        <ele>247</ele>
        <time>2016-06-11T09:06:24Z</time>
      </trkpt>
      <trkpt lat="43.61489" lon="1.18035">
        <ele>248</ele>
        <time>2016-06-11T09:06:25Z</time>
      </trkpt>
      <trkpt lat="43.61491" lon="1.1804">
        <ele>248</ele>
        <time>2016-06-11T09:06:27Z</time>
      </trkpt>
      <trkpt lat="43.61492" lon="1.18044">
        <ele>248</ele>
        <time>2016-06-11T09:06:29Z</time>
      </trkpt>
      <trkpt lat="43.61494" lon="1.18048">
        <ele>249</ele>
        <time>2016-06-11T09:06:31Z</time>
      </trkpt>
      <trkpt lat="43.61501" lon="1.18052">
        <ele>249</ele>
        <time>2016-06-11T09:06:36Z</time>
      </trkpt>
      <trkpt lat="43.61506" lon="1.18053">
        <ele>250</ele>
        <time>2016-06-11T09:06:39Z</time>
      </trkpt>
      <trkpt lat="43.6151" lon="1.18053">
        <ele>251</ele>
        <time>2016-06-11T09:06:42Z</time>
      </trkpt>
      <trkpt lat="43.61517" lon="1.18056">
        <ele>253</ele>
        <time>2016-06-11T09:06:47Z</time>
      </trkpt>
      <trkpt lat="43.61519" lon="1.18057">
        <ele>254</ele>
        <time>2016-06-11T09:06:49Z</time>
      </trkpt>
      <trkpt lat="43.6152" lon="1.18059">
        <ele>254</ele>
        <time>2016-06-11T09:06:51Z</time>
      </trkpt>
      <trkpt lat="43.61522" lon="1.18059">
        <ele>255</ele>
        <time>2016-06-11T09:06:52Z</time>
      </trkpt>
      <trkpt lat="43.61525" lon="1.18062">
        <ele>255</ele>
        <time>2016-06-11T09:06:54Z</time>
      </trkpt>
      <trkpt lat="43.61527" lon="1.18062">
        <ele>256</ele>
        <time>2016-06-11T09:06:56Z</time>
      </trkpt>
      <trkpt lat="43.61528" lon="1.18063">
        <ele>256</ele>
        <time>2016-06-11T09:06:57Z</time>
      </trkpt>
      <trkpt lat="43.6153" lon="1.18065">
        <ele>257</ele>
        <time>2016-06-11T09:06:59Z</time>
      </trkpt>
      <trkpt lat="43.61534" lon="1.18066">
        <ele>257</ele>
        <time>2016-06-11T09:07:03Z</time>
      </trkpt>
      <trkpt lat="43.61535" lon="1.18066">
        <ele>258</ele>
        <time>2016-06-11T09:07:04Z</time>
      </trkpt>
      <trkpt lat="43.61537" lon="1.18068">
        <ele>258</ele>
        <time>2016-06-11T09:07:06Z</time>
      </trkpt>
      <trkpt lat="43.61538" lon="1.18069">
        <ele>259</ele>
        <time>2016-06-11T09:07:07Z</time>
      </trkpt>
      <trkpt lat="43.61544" lon="1.18074">
        <ele>259</ele>
        <time>2016-06-11T09:07:11Z</time>
      </trkpt>
      <trkpt lat="43.6155" lon="1.18078">
        <ele>259</ele>
        <time>2016-06-11T09:07:15Z</time>
      </trkpt>
      <trkpt lat="43.61552" lon="1.1808">
        <ele>259</ele>
        <time>2016-06-11T09:07:16Z</time>
      </trkpt>
      <trkpt lat="43.61553" lon="1.1808">
        <ele>259</ele>
        <time>2016-06-11T09:07:17Z</time>
      </trkpt>
      <trkpt lat="43.61559" lon="1.18088">
        <ele>258</ele>
        <time>2016-06-11T09:07:22Z</time>
      </trkpt>
      <trkpt lat="43.61569" lon="1.18102">
        <ele>258</ele>
        <time>2016-06-11T09:07:29Z</time>
      </trkpt>
      <trkpt lat="43.6157" lon="1.18107">
        <ele>258</ele>
        <time>2016-06-11T09:07:33Z</time>
      </trkpt>
      <trkpt lat="43.6157" lon="1.18108">
        <ele>258</ele>
        <time>2016-06-11T09:07:34Z</time>
      </trkpt>
      <trkpt lat="43.6157" lon="1.18109">
        <ele>258</ele>
        <time>2016-06-11T09:07:35Z</time>
      </trkpt>
      <trkpt lat="43.61574" lon="1.18113">
        <ele>258</ele>
        <time>2016-06-11T09:07:39Z</time>
      </trkpt>
      <trkpt lat="43.61577" lon="1.18117">
        <ele>258</ele>
        <time>2016-06-11T09:07:41Z</time>
      </trkpt>
      <trkpt lat="43.61582" lon="1.18121">
        <ele>258</ele>
        <time>2016-06-11T09:07:45Z</time>
      </trkpt>
      <trkpt lat="43.61586" lon="1.18122">
        <ele>258</ele>
        <time>2016-06-11T09:07:47Z</time>
      </trkpt>
      <trkpt lat="43.61593" lon="1.18124">
        <ele>258</ele>
        <time>2016-06-11T09:07:51Z</time>
      </trkpt>
      <trkpt lat="43.61597" lon="1.1813">
        <ele>258</ele>
        <time>2016-06-11T09:07:54Z</time>
      </trkpt>
      <trkpt lat="43.61597" lon="1.18127">
        <ele>258</ele>
        <time>2016-06-11T09:07:57Z</time>
      </trkpt>
      <trkpt lat="43.61597" lon="1.18127">
        <ele>258</ele>
        <time>2016-06-11T09:07:59Z</time>
      </trkpt>
      <trkpt lat="43.61606" lon="1.18136">
        <ele>257</ele>
        <time>2016-06-11T09:08:07Z</time>
      </trkpt>
      <trkpt lat="43.61611" lon="1.18138">
        <ele>256</ele>
        <time>2016-06-11T09:08:13Z</time>
      </trkpt>
      <trkpt lat="43.61613" lon="1.18138">
        <ele>255</ele>
        <time>2016-06-11T09:08:15Z</time>
      </trkpt>
      <trkpt lat="43.61621" lon="1.18142">
        <ele>252</ele>
        <time>2016-06-11T09:08:21Z</time>
      </trkpt>
      <trkpt lat="43.61622" lon="1.18142">
        <ele>252</ele>
        <time>2016-06-11T09:08:22Z</time>
      </trkpt>
      <trkpt lat="43.61623" lon="1.18144">
        <ele>251</ele>
        <time>2016-06-11T09:08:24Z</time>
      </trkpt>
      <trkpt lat="43.61623" lon="1.18146">
        <ele>251</ele>
        <time>2016-06-11T09:08:25Z</time>
      </trkpt>
      <trkpt lat="43.61627" lon="1.18148">
        <ele>250</ele>
        <time>2016-06-11T09:08:28Z</time>
      </trkpt>
      <trkpt lat="43.61635" lon="1.18154">
        <ele>249</ele>
        <time>2016-06-11T09:08:32Z</time>
      </trkpt>
      <trkpt lat="43.61639" lon="1.18158">
        <ele>249</ele>
        <time>2016-06-11T09:08:34Z</time>
      </trkpt>
      <trkpt lat="43.61639" lon="1.18158">
        <ele>249</ele>
        <time>2016-06-11T09:08:35Z</time>
      </trkpt>
      <trkpt lat="43.61643" lon="1.1816">
        <ele>248</ele>
        <time>2016-06-11T09:08:37Z</time>
      </trkpt>
      <trkpt lat="43.61643" lon="1.1816">
        <ele>248</ele>
        <time>2016-06-11T09:08:38Z</time>
      </trkpt>
      <trkpt lat="43.61645" lon="1.18161">
        <ele>248</ele>
        <time>2016-06-11T09:08:40Z</time>
      </trkpt>
      <trkpt lat="43.61648" lon="1.18166">
        <ele>248</ele>
        <time>2016-06-11T09:08:42Z</time>
      </trkpt>
      <trkpt lat="43.61651" lon="1.18167">
        <ele>247</ele>
        <time>2016-06-11T09:08:45Z</time>
      </trkpt>
      <trkpt lat="43.61655" lon="1.18168">
        <ele>247</ele>
        <time>2016-06-11T09:08:49Z</time>
      </trkpt>
      <trkpt lat="43.61655" lon="1.18168">
        <ele>247</ele>
        <time>2016-06-11T09:08:50Z</time>
      </trkpt>
      <trkpt lat="43.61656" lon="1.18169">
        <ele>246</ele>
        <time>2016-06-11T09:08:52Z</time>
      </trkpt>
      <trkpt lat="43.61658" lon="1.18172">
        <ele>246</ele>
        <time>2016-06-11T09:08:56Z</time>
      </trkpt>
      <trkpt lat="43.6166" lon="1.18177">
        <ele>246</ele>
        <time>2016-06-11T09:08:59Z</time>
      </trkpt>
      <trkpt lat="43.61664" lon="1.18182">
        <ele>245</ele>
        <time>2016-06-11T09:09:03Z</time>
      </trkpt>
      <trkpt lat="43.61666" lon="1.18189">
        <ele>245</ele>
        <time>2016-06-11T09:09:06Z</time>
      </trkpt>
      <trkpt lat="43.6167" lon="1.18195">
        <ele>246</ele>
        <time>2016-06-11T09:09:10Z</time>
      </trkpt>
      <trkpt lat="43.61672" lon="1.18196">
        <ele>246</ele>
        <time>2016-06-11T09:09:12Z</time>
      </trkpt>
      <trkpt lat="43.61675" lon="1.18198">
        <ele>246</ele>
        <time>2016-06-11T09:09:14Z</time>
      </trkpt>
      <trkpt lat="43.61676" lon="1.18199">
        <ele>246</ele>
        <time>2016-06-11T09:09:15Z</time>
      </trkpt>
      <trkpt lat="43.61681" lon="1.18201">
        <ele>246</ele>
        <time>2016-06-11T09:09:19Z</time>
      </trkpt>
      <trkpt lat="43.61684" lon="1.18207">
        <ele>246</ele>
        <time>2016-06-11T09:09:23Z</time>
      </trkpt>
      <trkpt lat="43.61687" lon="1.18213">
        <ele>246</ele>
        <time>2016-06-11T09:09:26Z</time>
      </trkpt>
      <trkpt lat="43.6169" lon="1.18216">
        <ele>246</ele>
        <time>2016-06-11T09:09:28Z</time>
      </trkpt>
      <trkpt lat="43.61691" lon="1.1822">
        <ele>246</ele>
        <time>2016-06-11T09:09:30Z</time>
      </trkpt>
      <trkpt lat="43.61692" lon="1.18225">
        <ele>246</ele>
        <time>2016-06-11T09:09:33Z</time>
      </trkpt>
      <trkpt lat="43.61694" lon="1.18233">
        <ele>246</ele>
        <time>2016-06-11T09:09:36Z</time>
      </trkpt>
      <trkpt lat="43.61697" lon="1.18238">
        <ele>246</ele>
        <time>2016-06-11T09:09:39Z</time>
      </trkpt>
      <trkpt lat="43.61699" lon="1.18249">
        <ele>246</ele>
        <time>2016-06-11T09:09:42Z</time>
      </trkpt>
      <trkpt lat="43.61698" lon="1.18256">
        <ele>246</ele>
        <time>2016-06-11T09:09:44Z</time>
      </trkpt>
      <trkpt lat="43.61697" lon="1.18261">
        <ele>245</ele>
        <time>2016-06-11T09:09:46Z</time>
      </trkpt>
      <trkpt lat="43.61698" lon="1.18266">
        <ele>245</ele>
        <time>2016-06-11T09:09:50Z</time>
      </trkpt>
      <trkpt lat="43.61699" lon="1.18269">
        <ele>244</ele>
        <time>2016-06-11T09:09:52Z</time>
      </trkpt>
      <trkpt lat="43.61698" lon="1.18274">
        <ele>244</ele>
        <time>2016-06-11T09:09:55Z</time>
      </trkpt>
      <trkpt lat="43.61697" lon="1.18275">
        <ele>243</ele>
        <time>2016-06-11T09:09:56Z</time>
      </trkpt>
      <trkpt lat="43.61698" lon="1.18282">
        <ele>243</ele>
        <time>2016-06-11T09:10:00Z</time>
      </trkpt>
      <trkpt lat="43.61699" lon="1.18284">
        <ele>243</ele>
        <time>2016-06-11T09:10:02Z</time>
      </trkpt>
      <trkpt lat="43.61698" lon="1.18287">
        <ele>243</ele>
        <time>2016-06-11T09:10:04Z</time>
      </trkpt>
      <trkpt lat="43.61701" lon="1.18293">
        <ele>243</ele>
        <time>2016-06-11T09:10:08Z</time>
      </trkpt>
      <trkpt lat="43.61702" lon="1.18295">
        <ele>243</ele>
        <time>2016-06-11T09:10:10Z</time>
      </trkpt>
      <trkpt lat="43.61704" lon="1.18298">
        <ele>243</ele>
        <time>2016-06-11T09:10:12Z</time>
      </trkpt>
      <trkpt lat="43.61704" lon="1.18299">
        <ele>243</ele>
        <time>2016-06-11T09:10:13Z</time>
      </trkpt>
      <trkpt lat="43.61706" lon="1.18301">
        <ele>243</ele>
        <time>2016-06-11T09:10:15Z</time>
      </trkpt>
      <trkpt lat="43.61706" lon="1.18303">
        <ele>243</ele>
        <time>2016-06-11T09:10:16Z</time>
      </trkpt>
      <trkpt lat="43.61707" lon="1.18304">
        <ele>243</ele>
        <time>2016-06-11T09:10:17Z</time>
      </trkpt>
      <trkpt lat="43.61709" lon="1.18309">
        <ele>243</ele>
        <time>2016-06-11T09:10:19Z</time>
      </trkpt>
      <trkpt lat="43.61711" lon="1.18315">
        <ele>243</ele>
        <time>2016-06-11T09:10:22Z</time>
      </trkpt>
      <trkpt lat="43.6172" lon="1.18328">
        <ele>243</ele>
        <time>2016-06-11T09:10:28Z</time>
      </trkpt>
      <trkpt lat="43.61723" lon="1.18335">
        <ele>242</ele>
        <time>2016-06-11T09:10:30Z</time>
      </trkpt>
      <trkpt lat="43.61727" lon="1.18337">
        <ele>242</ele>
        <time>2016-06-11T09:10:34Z</time>
      </trkpt>
      <trkpt lat="43.61728" lon="1.18338">
        <ele>241</ele>
        <time>2016-06-11T09:10:35Z</time>
      </trkpt>
      <trkpt lat="43.61729" lon="1.18339">
        <ele>241</ele>
        <time>2016-06-11T09:10:37Z</time>
      </trkpt>
      <trkpt lat="43.61733" lon="1.18342">
        <ele>241</ele>
        <time>2016-06-11T09:10:41Z</time>
      </trkpt>
      <trkpt lat="43.61736" lon="1.18347">
        <ele>241</ele>
        <time>2016-06-11T09:10:43Z</time>
      </trkpt>
      <trkpt lat="43.61737" lon="1.1835">
        <ele>241</ele>
        <time>2016-06-11T09:10:45Z</time>
      </trkpt>
      <trkpt lat="43.61738" lon="1.18351">
        <ele>241</ele>
        <time>2016-06-11T09:10:46Z</time>
      </trkpt>
      <trkpt lat="43.61739" lon="1.18353">
        <ele>241</ele>
        <time>2016-06-11T09:10:48Z</time>
      </trkpt>
      <trkpt lat="43.6174" lon="1.18354">
        <ele>240</ele>
        <time>2016-06-11T09:10:49Z</time>
      </trkpt>
      <trkpt lat="43.61741" lon="1.18358">
        <ele>240</ele>
        <time>2016-06-11T09:10:51Z</time>
      </trkpt>
      <trkpt lat="43.61742" lon="1.1836">
        <ele>241</ele>
        <time>2016-06-11T09:10:53Z</time>
      </trkpt>
      <trkpt lat="43.61744" lon="1.18363">
        <ele>240</ele>
        <time>2016-06-11T09:10:55Z</time>
      </trkpt>
      <trkpt lat="43.61746" lon="1.18365">
        <ele>240</ele>
        <time>2016-06-11T09:10:57Z</time>
      </trkpt>
      <trkpt lat="43.6175" lon="1.18369">
        <ele>240</ele>
        <time>2016-06-11T09:11:01Z</time>
      </trkpt>
      <trkpt lat="43.61752" lon="1.1837">
        <ele>240</ele>
        <time>2016-06-11T09:11:03Z</time>
      </trkpt>
      <trkpt lat="43.61752" lon="1.18371">
        <ele>240</ele>
        <time>2016-06-11T09:11:04Z</time>
      </trkpt>
      <trkpt lat="43.61754" lon="1.18372">
        <ele>240</ele>
        <time>2016-06-11T09:11:05Z</time>
      </trkpt>
      <trkpt lat="43.61755" lon="1.18372">
        <ele>240</ele>
        <time>2016-06-11T09:11:07Z</time>
      </trkpt>
      <trkpt lat="43.61757" lon="1.18374">
        <ele>240</ele>
        <time>2016-06-11T09:11:09Z</time>
      </trkpt>
      <trkpt lat="43.61761" lon="1.18376">
        <ele>240</ele>
        <time>2016-06-11T09:11:13Z</time>
      </trkpt>
      <trkpt lat="43.61763" lon="1.18377">
        <ele>240</ele>
        <time>2016-06-11T09:11:15Z</time>
      </trkpt>
      <trkpt lat="43.61765" lon="1.18379">
        <ele>240</ele>
        <time>2016-06-11T09:11:17Z</time>
      </trkpt>
      <trkpt lat="43.61767" lon="1.1838">
        <ele>240</ele>
        <time>2016-06-11T09:11:19Z</time>
      </trkpt>
      <trkpt lat="43.61768" lon="1.18382">
        <ele>240</ele>
        <time>2016-06-11T09:11:21Z</time>
      </trkpt>
      <trkpt lat="43.6177" lon="1.18385">
        <ele>240</ele>
        <time>2016-06-11T09:11:24Z</time>
      </trkpt>
      <trkpt lat="43.6177" lon="1.18386">
        <ele>240</ele>
        <time>2016-06-11T09:11:25Z</time>
      </trkpt>
      <trkpt lat="43.61773" lon="1.18388">
        <ele>240</ele>
        <time>2016-06-11T09:11:27Z</time>
      </trkpt>
      <trkpt lat="43.61777" lon="1.18393">
        <ele>241</ele>
        <time>2016-06-11T09:11:31Z</time>
      </trkpt>
      <trkpt lat="43.6178" lon="1.18398">
        <ele>241</ele>
        <time>2016-06-11T09:11:33Z</time>
      </trkpt>
      <trkpt lat="43.61795" lon="1.18413">
        <ele>242</ele>
        <time>2016-06-11T09:11:42Z</time>
      </trkpt>
      <trkpt lat="43.61797" lon="1.18415">
        <ele>241</ele>
        <time>2016-06-11T09:11:43Z</time>
      </trkpt>
      <trkpt lat="43.61803" lon="1.18421">
        <ele>241</ele>
        <time>2016-06-11T09:11:47Z</time>
      </trkpt>
      <trkpt lat="43.61811" lon="1.18423">
        <ele>241</ele>
        <time>2016-06-11T09:11:51Z</time>
      </trkpt>
      <trkpt lat="43.61812" lon="1.18425">
        <ele>241</ele>
        <time>2016-06-11T09:11:52Z</time>
      </trkpt>
      <trkpt lat="43.61813" lon="1.18429">
        <ele>241</ele>
        <time>2016-06-11T09:11:54Z</time>
      </trkpt>
      <trkpt lat="43.61817" lon="1.18434">
        <ele>241</ele>
        <time>2016-06-11T09:11:57Z</time>
      </trkpt>
      <trkpt lat="43.61822" lon="1.18439">
        <ele>241</ele>
        <time>2016-06-11T09:12:00Z</time>
      </trkpt>
      <trkpt lat="43.61824" lon="1.18441">
        <ele>241</ele>
        <time>2016-06-11T09:12:02Z</time>
      </trkpt>
      <trkpt lat="43.61826" lon="1.18445">
        <ele>241</ele>
        <time>2016-06-11T09:12:04Z</time>
      </trkpt>
      <trkpt lat="43.61829" lon="1.18451">
        <ele>240</ele>
        <time>2016-06-11T09:12:06Z</time>
      </trkpt>
      <trkpt lat="43.61832" lon="1.18458">
        <ele>240</ele>
        <time>2016-06-11T09:12:08Z</time>
      </trkpt>
      <trkpt lat="43.61834" lon="1.18462">
        <ele>240</ele>
        <time>2016-06-11T09:12:10Z</time>
      </trkpt>
      <trkpt lat="43.61836" lon="1.18469">
        <ele>240</ele>
        <time>2016-06-11T09:12:14Z</time>
      </trkpt>
      <trkpt lat="43.61836" lon="1.18471">
        <ele>240</ele>
        <time>2016-06-11T09:12:15Z</time>
      </trkpt>
      <trkpt lat="43.61837" lon="1.18475">
        <ele>239</ele>
        <time>2016-06-11T09:12:17Z</time>
      </trkpt>
      <trkpt lat="43.61839" lon="1.18478">
        <ele>239</ele>
        <time>2016-06-11T09:12:19Z</time>
      </trkpt>
      <trkpt lat="43.61839" lon="1.18479">
        <ele>239</ele>
        <time>2016-06-11T09:12:20Z</time>
      </trkpt>
      <trkpt lat="43.61842" lon="1.18481">
        <ele>239</ele>
        <time>2016-06-11T09:12:24Z</time>
      </trkpt>
      <trkpt lat="43.61842" lon="1.18482">
        <ele>239</ele>
        <time>2016-06-11T09:12:25Z</time>
      </trkpt>
      <trkpt lat="43.61844" lon="1.18483">
        <ele>239</ele>
        <time>2016-06-11T09:12:27Z</time>
      </trkpt>
      <trkpt lat="43.61844" lon="1.18484">
        <ele>239</ele>
        <time>2016-06-11T09:12:28Z</time>
      </trkpt>
      <trkpt lat="43.61845" lon="1.18489">
        <ele>239</ele>
        <time>2016-06-11T09:12:32Z</time>
      </trkpt>
      <trkpt lat="43.61845" lon="1.18491">
        <ele>239</ele>
        <time>2016-06-11T09:12:34Z</time>
      </trkpt>
      <trkpt lat="43.61845" lon="1.18492">
        <ele>240</ele>
        <time>2016-06-11T09:12:35Z</time>
      </trkpt>
      <trkpt lat="43.61844" lon="1.18496">
        <ele>240</ele>
        <time>2016-06-11T09:12:37Z</time>
      </trkpt>
      <trkpt lat="43.61844" lon="1.18499">
        <ele>240</ele>
        <time>2016-06-11T09:12:39Z</time>
      </trkpt>
      <trkpt lat="43.61847" lon="1.18502">
        <ele>240</ele>
        <time>2016-06-11T09:12:42Z</time>
      </trkpt>
      <trkpt lat="43.6185" lon="1.18505">
        <ele>240</ele>
        <time>2016-06-11T09:12:45Z</time>
      </trkpt>
      <trkpt lat="43.61852" lon="1.18507">
        <ele>240</ele>
        <time>2016-06-11T09:12:46Z</time>
      </trkpt>
      <trkpt lat="43.6186" lon="1.1852">
        <ele>239</ele>
        <time>2016-06-11T09:12:50Z</time>
      </trkpt>
      <trkpt lat="43.6186" lon="1.18523">
        <ele>239</ele>
        <time>2016-06-11T09:12:51Z</time>
      </trkpt>
      <trkpt lat="43.61863" lon="1.18528">
        <ele>239</ele>
        <time>2016-06-11T09:12:53Z</time>
      </trkpt>
      <trkpt lat="43.61864" lon="1.18533">
        <ele>239</ele>
        <time>2016-06-11T09:12:55Z</time>
      </trkpt>
      <trkpt lat="43.61865" lon="1.18535">
        <ele>238</ele>
        <time>2016-06-11T09:12:57Z</time>
      </trkpt>
      <trkpt lat="43.61866" lon="1.18544">
        <ele>238</ele>
        <time>2016-06-11T09:13:01Z</time>
      </trkpt>
      <trkpt lat="43.61867" lon="1.18547">
        <ele>238</ele>
        <time>2016-06-11T09:13:03Z</time>
      </trkpt>
      <trkpt lat="43.61868" lon="1.18548">
        <ele>237</ele>
        <time>2016-06-11T09:13:04Z</time>
      </trkpt>
      <trkpt lat="43.61868" lon="1.18548">
        <ele>237</ele>
        <time>2016-06-11T09:13:05Z</time>
      </trkpt>
      <trkpt lat="43.6187" lon="1.18551">
        <ele>237</ele>
        <time>2016-06-11T09:13:07Z</time>
      </trkpt>
      <trkpt lat="43.61871" lon="1.18553">
        <ele>237</ele>
        <time>2016-06-11T09:13:08Z</time>
      </trkpt>
      <trkpt lat="43.61873" lon="1.18555">
        <ele>237</ele>
        <time>2016-06-11T09:13:10Z</time>
      </trkpt>
      <trkpt lat="43.61877" lon="1.1856">
        <ele>237</ele>
        <time>2016-06-11T09:13:14Z</time>
      </trkpt>
      <trkpt lat="43.61878" lon="1.18562">
        <ele>237</ele>
        <time>2016-06-11T09:13:15Z</time>
      </trkpt>
      <trkpt lat="43.61878" lon="1.18564">
        <ele>237</ele>
        <time>2016-06-11T09:13:16Z</time>
      </trkpt>
      <trkpt lat="43.61879" lon="1.18574">
        <ele>237</ele>
        <time>2016-06-11T09:13:19Z</time>
      </trkpt>
      <trkpt lat="43.61883" lon="1.18577">
        <ele>237</ele>
        <time>2016-06-11T09:13:22Z</time>
      </trkpt>
      <trkpt lat="43.61884" lon="1.1858">
        <ele>237</ele>
        <time>2016-06-11T09:13:24Z</time>
      </trkpt>
      <trkpt lat="43.61885" lon="1.18582">
        <ele>237</ele>
        <time>2016-06-11T09:13:26Z</time>
      </trkpt>
      <trkpt lat="43.61887" lon="1.18587">
        <ele>237</ele>
        <time>2016-06-11T09:13:30Z</time>
      </trkpt>
      <trkpt lat="43.61889" lon="1.18589">
        <ele>237</ele>
        <time>2016-06-11T09:13:32Z</time>
      </trkpt>
      <trkpt lat="43.61892" lon="1.18594">
        <ele>238</ele>
        <time>2016-06-11T09:13:35Z</time>
      </trkpt>
      <trkpt lat="43.61894" lon="1.18596">
        <ele>238</ele>
        <time>2016-06-11T09:13:37Z</time>
      </trkpt>
      <trkpt lat="43.61899" lon="1.18602">
        <ele>239</ele>
        <time>2016-06-11T09:13:42Z</time>
      </trkpt>
      <trkpt lat="43.61899" lon="1.18606">
        <ele>239</ele>
        <time>2016-06-11T09:13:44Z</time>
      </trkpt>
      <trkpt lat="43.61899" lon="1.18607">
        <ele>240</ele>
        <time>2016-06-11T09:13:45Z</time>
      </trkpt>
      <trkpt lat="43.61897" lon="1.1861">
        <ele>240</ele>
        <time>2016-06-11T09:13:47Z</time>
      </trkpt>
      <trkpt lat="43.61897" lon="1.18612">
        <ele>240</ele>
        <time>2016-06-11T09:13:48Z</time>
      </trkpt>
      <trkpt lat="43.61898" lon="1.18615">
        <ele>241</ele>
        <time>2016-06-11T09:13:50Z</time>
      </trkpt>
      <trkpt lat="43.61899" lon="1.18621">
        <ele>241</ele>
        <time>2016-06-11T09:13:54Z</time>
      </trkpt>
      <trkpt lat="43.619" lon="1.18622">
        <ele>241</ele>
        <time>2016-06-11T09:13:55Z</time>
      </trkpt>
      <trkpt lat="43.61901" lon="1.18624">
        <ele>241</ele>
        <time>2016-06-11T09:13:56Z</time>
      </trkpt>
      <trkpt lat="43.61902" lon="1.18626">
        <ele>242</ele>
        <time>2016-06-11T09:13:57Z</time>
      </trkpt>
      <trkpt lat="43.61902" lon="1.18628">
        <ele>242</ele>
        <time>2016-06-11T09:13:58Z</time>
      </trkpt>
      <trkpt lat="43.61903" lon="1.18631">
        <ele>242</ele>
        <time>2016-06-11T09:14:00Z</time>
      </trkpt>
      <trkpt lat="43.61902" lon="1.18634">
        <ele>243</ele>
        <time>2016-06-11T09:14:02Z</time>
      </trkpt>
      <trkpt lat="43.61902" lon="1.18637">
        <ele>243</ele>
        <time>2016-06-11T09:14:04Z</time>
      </trkpt>
      <trkpt lat="43.61903" lon="1.18638">
        <ele>243</ele>
        <time>2016-06-11T09:14:05Z</time>
      </trkpt>
      <trkpt lat="43.61902" lon="1.18642">
        <ele>244</ele>
        <time>2016-06-11T09:14:09Z</time>
      </trkpt>
      <trkpt lat="43.61902" lon="1.18643">
        <ele>244</ele>
        <time>2016-06-11T09:14:11Z</time>
      </trkpt>
      <trkpt lat="43.61902" lon="1.18644">
        <ele>245</ele>
        <time>2016-06-11T09:14:12Z</time>
      </trkpt>
      <trkpt lat="43.61899" lon="1.1865">
        <ele>245</ele>
        <time>2016-06-11T09:14:15Z</time>
      </trkpt>
      <trkpt lat="43.61897" lon="1.18655">
        <ele>245</ele>
        <time>2016-06-11T09:14:17Z</time>
      </trkpt>
      <trkpt lat="43.61897" lon="1.18658">
        <ele>246</ele>
        <time>2016-06-11T09:14:19Z</time>
      </trkpt>
      <trkpt lat="43.61896" lon="1.1866">
        <ele>246</ele>
        <time>2016-06-11T09:14:21Z</time>
      </trkpt>
      <trkpt lat="43.61895" lon="1.18665">
        <ele>246</ele>
        <time>2016-06-11T09:14:24Z</time>
      </trkpt>
      <trkpt lat="43.61895" lon="1.18667">
        <ele>247</ele>
        <time>2016-06-11T09:14:25Z</time>
      </trkpt>
      <trkpt lat="43.61892" lon="1.18672">
        <ele>247</ele>
        <time>2016-06-11T09:14:27Z</time>
      </trkpt>
      <trkpt lat="43.6189" lon="1.18676">
        <ele>247</ele>
        <time>2016-06-11T09:14:28Z</time>
      </trkpt>
      <trkpt lat="43.61887" lon="1.18684">
        <ele>248</ele>
        <time>2016-06-11T09:14:30Z</time>
      </trkpt>
      <trkpt lat="43.61887" lon="1.18688">
        <ele>248</ele>
        <time>2016-06-11T09:14:32Z</time>
      </trkpt>
      <trkpt lat="43.61887" lon="1.18691">
        <ele>248</ele>
        <time>2016-06-11T09:14:33Z</time>
      </trkpt>
      <trkpt lat="43.61886" lon="1.18693">
        <ele>248</ele>
        <time>2016-06-11T09:14:34Z</time>
      </trkpt>
      <trkpt lat="43.61886" lon="1.18694">
        <ele>249</ele>
        <time>2016-06-11T09:14:35Z</time>
      </trkpt>
      <trkpt lat="43.61885" lon="1.18698">
        <ele>249</ele>
        <time>2016-06-11T09:14:37Z</time>
      </trkpt>
      <trkpt lat="43.61884" lon="1.18702">
        <ele>249</ele>
        <time>2016-06-11T09:14:39Z</time>
      </trkpt>
      <trkpt lat="43.6188" lon="1.18707">
        <ele>250</ele>
        <time>2016-06-11T09:14:42Z</time>
      </trkpt>
      <trkpt lat="43.6188" lon="1.1871">
        <ele>250</ele>
        <time>2016-06-11T09:14:44Z</time>
      </trkpt>
      <trkpt lat="43.61879" lon="1.18714">
        <ele>250</ele>
        <time>2016-06-11T09:14:47Z</time>
      </trkpt>
      <trkpt lat="43.61879" lon="1.18715">
        <ele>250</ele>
        <time>2016-06-11T09:14:48Z</time>
      </trkpt>
      <trkpt lat="43.61878" lon="1.18717">
        <ele>251</ele>
        <time>2016-06-11T09:14:50Z</time>
      </trkpt>
      <trkpt lat="43.61876" lon="1.1872">
        <ele>251</ele>
        <time>2016-06-11T09:14:52Z</time>
      </trkpt>
      <trkpt lat="43.61876" lon="1.18722">
        <ele>251</ele>
        <time>2016-06-11T09:14:53Z</time>
      </trkpt>
      <trkpt lat="43.61875" lon="1.18724">
        <ele>252</ele>
        <time>2016-06-11T09:14:55Z</time>
      </trkpt>
      <trkpt lat="43.61875" lon="1.18725">
        <ele>252</ele>
        <time>2016-06-11T09:14:56Z</time>
      </trkpt>
      <trkpt lat="43.61875" lon="1.18726">
        <ele>252</ele>
        <time>2016-06-11T09:14:57Z</time>
      </trkpt>
      <trkpt lat="43.61875" lon="1.18728">
        <ele>253</ele>
        <time>2016-06-11T09:14:59Z</time>
      </trkpt>
      <trkpt lat="43.61875" lon="1.18729">
        <ele>253</ele>
        <time>2016-06-11T09:15:01Z</time>
      </trkpt>
      <trkpt lat="43.61873" lon="1.18733">
        <ele>253</ele>
        <time>2016-06-11T09:15:03Z</time>
      </trkpt>
      <trkpt lat="43.61869" lon="1.18739">
        <ele>253</ele>
        <time>2016-06-11T09:15:05Z</time>
      </trkpt>
      <trkpt lat="43.61868" lon="1.1874">
        <ele>254</ele>
        <time>2016-06-11T09:15:07Z</time>
      </trkpt>
      <trkpt lat="43.61868" lon="1.18741">
        <ele>254</ele>
        <time>2016-06-11T09:15:08Z</time>
      </trkpt>
      <trkpt lat="43.61868" lon="1.18743">
        <ele>254</ele>
        <time>2016-06-11T09:15:10Z</time>
      </trkpt>
      <trkpt lat="43.61866" lon="1.18745">
        <ele>254</ele>
        <time>2016-06-11T09:15:13Z</time>
      </trkpt>
      <trkpt lat="43.61866" lon="1.18747">
        <ele>254</ele>
        <time>2016-06-11T09:15:15Z</time>
      </trkpt>
      <trkpt lat="43.61865" lon="1.18748">
        <ele>255</ele>
        <time>2016-06-11T09:15:16Z</time>
      </trkpt>
      <trkpt lat="43.61865" lon="1.1875">
        <ele>255</ele>
        <time>2016-06-11T09:15:17Z</time>
      </trkpt>
      <trkpt lat="43.61865" lon="1.18752">
        <ele>255</ele>
        <time>2016-06-11T09:15:19Z</time>
      </trkpt>
      <trkpt lat="43.61863" lon="1.18756">
        <ele>256</ele>
        <time>2016-06-11T09:15:21Z</time>
      </trkpt>
      <trkpt lat="43.61858" lon="1.18758">
        <ele>256</ele>
        <time>2016-06-11T09:15:23Z</time>
      </trkpt>
      <trkpt lat="43.61855" lon="1.18762">
        <ele>256</ele>
        <time>2016-06-11T09:15:25Z</time>
      </trkpt>
      <trkpt lat="43.61856" lon="1.18765">
        <ele>256</ele>
        <time>2016-06-11T09:15:27Z</time>
      </trkpt>
      <trkpt lat="43.61857" lon="1.18767">
        <ele>256</ele>
        <time>2016-06-11T09:15:28Z</time>
      </trkpt>
      <trkpt lat="43.61857" lon="1.1877">
        <ele>257</ele>
        <time>2016-06-11T09:15:30Z</time>
      </trkpt>
      <trkpt lat="43.61857" lon="1.18771">
        <ele>257</ele>
        <time>2016-06-11T09:15:31Z</time>
      </trkpt>
      <trkpt lat="43.61867" lon="1.18774">
        <ele>257</ele>
        <time>2016-06-11T09:15:35Z</time>
      </trkpt>
      <trkpt lat="43.61869" lon="1.18779">
        <ele>256</ele>
        <time>2016-06-11T09:15:37Z</time>
      </trkpt>
      <trkpt lat="43.61869" lon="1.18783">
        <ele>256</ele>
        <time>2016-06-11T09:15:39Z</time>
      </trkpt>
      <trkpt lat="43.61869" lon="1.18786">
        <ele>256</ele>
        <time>2016-06-11T09:15:41Z</time>
      </trkpt>
      <trkpt lat="43.61869" lon="1.18789">
        <ele>256</ele>
        <time>2016-06-11T09:15:43Z</time>
      </trkpt>
      <trkpt lat="43.61869" lon="1.18792">
        <ele>257</ele>
        <time>2016-06-11T09:15:45Z</time>
      </trkpt>
      <trkpt lat="43.61869" lon="1.18796">
        <ele>257</ele>
        <time>2016-06-11T09:15:47Z</time>
      </trkpt>
      <trkpt lat="43.6187" lon="1.18797">
        <ele>258</ele>
        <time>2016-06-11T09:15:48Z</time>
      </trkpt>
      <trkpt lat="43.61868" lon="1.18803">
        <ele>258</ele>
        <time>2016-06-11T09:15:49Z</time>
      </trkpt>
      <trkpt lat="43.61868" lon="1.18805">
        <ele>258</ele>
        <time>2016-06-11T09:15:51Z</time>
      </trkpt>
      <trkpt lat="43.61869" lon="1.18806">
        <ele>258</ele>
        <time>2016-06-11T09:15:52Z</time>
      </trkpt>
      <trkpt lat="43.61869" lon="1.18808">
        <ele>257</ele>
        <time>2016-06-11T09:15:54Z</time>
      </trkpt>
      <trkpt lat="43.61869" lon="1.18811">
        <ele>257</ele>
        <time>2016-06-11T09:15:55Z</time>
      </trkpt>
      <trkpt lat="43.6187" lon="1.18813">
        <ele>257</ele>
        <time>2016-06-11T09:15:56Z</time>
      </trkpt>
      <trkpt lat="43.6187" lon="1.18814">
        <ele>257</ele>
        <time>2016-06-11T09:15:57Z</time>
      </trkpt>
      <trkpt lat="43.61869" lon="1.18819">
        <ele>257</ele>
        <time>2016-06-11T09:15:59Z</time>
      </trkpt>
      <trkpt lat="43.61871" lon="1.18824">
        <ele>257</ele>
        <time>2016-06-11T09:16:01Z</time>
      </trkpt>
      <trkpt lat="43.61871" lon="1.1883">
        <ele>257</ele>
        <time>2016-06-11T09:16:03Z</time>
      </trkpt>
      <trkpt lat="43.61872" lon="1.18842">
        <ele>255</ele>
        <time>2016-06-11T09:16:06Z</time>
      </trkpt>
      <trkpt lat="43.61871" lon="1.18843">
        <ele>254</ele>
        <time>2016-06-11T09:16:07Z</time>
      </trkpt>
      <trkpt lat="43.61869" lon="1.18845">
        <ele>253</ele>
        <time>2016-06-11T09:16:09Z</time>
      </trkpt>
      <trkpt lat="43.61868" lon="1.18847">
        <ele>252</ele>
        <time>2016-06-11T09:16:10Z</time>
      </trkpt>
      <trkpt lat="43.61866" lon="1.18851">
        <ele>252</ele>
        <time>2016-06-11T09:16:12Z</time>
      </trkpt>
      <trkpt lat="43.61865" lon="1.18852">
        <ele>251</ele>
        <time>2016-06-11T09:16:13Z</time>
      </trkpt>
      <trkpt lat="43.61863" lon="1.18856">
        <ele>251</ele>
        <time>2016-06-11T09:16:15Z</time>
      </trkpt>
      <trkpt lat="43.61863" lon="1.18858">
        <ele>251</ele>
        <time>2016-06-11T09:16:16Z</time>
      </trkpt>
      <trkpt lat="43.61863" lon="1.18859">
        <ele>251</ele>
        <time>2016-06-11T09:16:17Z</time>
      </trkpt>
      <trkpt lat="43.61855" lon="1.18869">
        <ele>249</ele>
        <time>2016-06-11T09:16:22Z</time>
      </trkpt>
      <trkpt lat="43.61854" lon="1.18872">
        <ele>249</ele>
        <time>2016-06-11T09:16:24Z</time>
      </trkpt>
      <trkpt lat="43.61853" lon="1.18876">
        <ele>248</ele>
        <time>2016-06-11T09:16:26Z</time>
      </trkpt>
      <trkpt lat="43.61852" lon="1.18879">
        <ele>248</ele>
        <time>2016-06-11T09:16:28Z</time>
      </trkpt>
      <trkpt lat="43.61851" lon="1.18884">
        <ele>248</ele>
        <time>2016-06-11T09:16:30Z</time>
      </trkpt>
      <trkpt lat="43.61852" lon="1.1889">
        <ele>248</ele>
        <time>2016-06-11T09:16:32Z</time>
      </trkpt>
      <trkpt lat="43.61851" lon="1.18893">
        <ele>248</ele>
        <time>2016-06-11T09:16:34Z</time>
      </trkpt>
      <trkpt lat="43.61852" lon="1.18896">
        <ele>248</ele>
        <time>2016-06-11T09:16:35Z</time>
      </trkpt>
      <trkpt lat="43.61852" lon="1.18903">
        <ele>247</ele>
        <time>2016-06-11T09:16:37Z</time>
      </trkpt>
      <trkpt lat="43.61851" lon="1.18909">
        <ele>247</ele>
        <time>2016-06-11T09:16:39Z</time>
      </trkpt>
      <trkpt lat="43.61851" lon="1.1891">
        <ele>246</ele>
        <time>2016-06-11T09:16:40Z</time>
      </trkpt>
      <trkpt lat="43.61851" lon="1.18916">
        <ele>245</ele>
        <time>2016-06-11T09:16:42Z</time>
      </trkpt>
      <trkpt lat="43.6185" lon="1.18917">
        <ele>245</ele>
        <time>2016-06-11T09:16:43Z</time>
      </trkpt>
      <trkpt lat="43.6185" lon="1.18919">
        <ele>244</ele>
        <time>2016-06-11T09:16:44Z</time>
      </trkpt>
      <trkpt lat="43.61849" lon="1.18924">
        <ele>244</ele>
        <time>2016-06-11T09:16:46Z</time>
      </trkpt>
      <trkpt lat="43.6185" lon="1.18928">
        <ele>244</ele>
        <time>2016-06-11T09:16:48Z</time>
      </trkpt>
      <trkpt lat="43.6185" lon="1.1893">
        <ele>244</ele>
        <time>2016-06-11T09:16:49Z</time>
      </trkpt>
      <trkpt lat="43.61849" lon="1.18934">
        <ele>243</ele>
        <time>2016-06-11T09:16:51Z</time>
      </trkpt>
      <trkpt lat="43.61848" lon="1.18937">
        <ele>243</ele>
        <time>2016-06-11T09:16:52Z</time>
      </trkpt>
      <trkpt lat="43.61846" lon="1.18942">
        <ele>242</ele>
        <time>2016-06-11T09:16:54Z</time>
      </trkpt>
      <trkpt lat="43.61845" lon="1.18944">
        <ele>241</ele>
        <time>2016-06-11T09:16:55Z</time>
      </trkpt>
      <trkpt lat="43.61845" lon="1.18946">
        <ele>239</ele>
        <time>2016-06-11T09:16:56Z</time>
      </trkpt>
      <trkpt lat="43.61845" lon="1.18949">
        <ele>238</ele>
        <time>2016-06-11T09:16:57Z</time>
      </trkpt>
      <trkpt lat="43.61844" lon="1.18955">
        <ele>237</ele>
        <time>2016-06-11T09:16:59Z</time>
      </trkpt>
      <trkpt lat="43.61842" lon="1.18961">
        <ele>236</ele>
        <time>2016-06-11T09:17:01Z</time>
      </trkpt>
      <trkpt lat="43.61841" lon="1.18966">
        <ele>234</ele>
        <time>2016-06-11T09:17:03Z</time>
      </trkpt>
      <trkpt lat="43.61839" lon="1.18968">
        <ele>233</ele>
        <time>2016-06-11T09:17:04Z</time>
      </trkpt>
      <trkpt lat="43.61839" lon="1.18972">
        <ele>231</ele>
        <time>2016-06-11T09:17:06Z</time>
      </trkpt>
      <trkpt lat="43.6184" lon="1.18975">
        <ele>229</ele>
        <time>2016-06-11T09:17:08Z</time>
      </trkpt>
      <trkpt lat="43.6184" lon="1.1898">
        <ele>228</ele>
        <time>2016-06-11T09:17:10Z</time>
      </trkpt>
      <trkpt lat="43.6184" lon="1.18984">
        <ele>226</ele>
        <time>2016-06-11T09:17:12Z</time>
      </trkpt>
      <trkpt lat="43.6184" lon="1.18988">
        <ele>225</ele>
        <time>2016-06-11T09:17:14Z</time>
      </trkpt>
      <trkpt lat="43.6184" lon="1.1899">
        <ele>223</ele>
        <time>2016-06-11T09:17:15Z</time>
      </trkpt>
      <trkpt lat="43.61841" lon="1.18992">
        <ele>222</ele>
        <time>2016-06-11T09:17:16Z</time>
      </trkpt>
      <trkpt lat="43.61842" lon="1.18995">
        <ele>221</ele>
        <time>2016-06-11T09:17:18Z</time>
      </trkpt>
      <trkpt lat="43.61841" lon="1.19003">
        <ele>220</ele>
        <time>2016-06-11T09:17:21Z</time>
      </trkpt>
      <trkpt lat="43.6184" lon="1.19008">
        <ele>218</ele>
        <time>2016-06-11T09:17:22Z</time>
      </trkpt>
      <trkpt lat="43.6184" lon="1.19012">
        <ele>215</ele>
        <time>2016-06-11T09:17:24Z</time>
      </trkpt>
      <trkpt lat="43.6184" lon="1.19014">
        <ele>212</ele>
        <time>2016-06-11T09:17:25Z</time>
      </trkpt>
      <trkpt lat="43.6184" lon="1.19017">
        <ele>209</ele>
        <time>2016-06-11T09:17:28Z</time>
      </trkpt>
      <trkpt lat="43.61839" lon="1.19019">
        <ele>207</ele>
        <time>2016-06-11T09:17:30Z</time>
      </trkpt>
      <trkpt lat="43.61839" lon="1.19019">
        <ele>205</ele>
        <time>2016-06-11T09:17:32Z</time>
      </trkpt>
      <trkpt lat="43.61839" lon="1.19019">
        <ele>204</ele>
        <time>2016-06-11T09:17:57Z</time>
      </trkpt>
      <trkpt lat="43.61839" lon="1.19019">
        <ele>204</ele>
        <time>2016-06-11T09:17:59Z</time>
      </trkpt>
      <trkpt lat="43.61837" lon="1.19032">
        <ele>201</ele>
        <time>2016-06-11T09:18:10Z</time>
      </trkpt>
      <trkpt lat="43.61837" lon="1.19033">
        <ele>199</ele>
        <time>2016-06-11T09:18:12Z</time>
      </trkpt>
      <trkpt lat="43.61837" lon="1.19033">
        <ele>197</ele>
        <time>2016-06-11T09:18:35Z</time>
      </trkpt>
      <trkpt lat="43.61837" lon="1.19033">
        <ele>195</ele>
        <time>2016-06-11T09:18:37Z</time>
      </trkpt>
      <trkpt lat="43.61837" lon="1.19033">
        <ele>193</ele>
        <time>2016-06-11T09:18:57Z</time>
      </trkpt>
      <trkpt lat="43.61837" lon="1.19033">
        <ele>193</ele>
        <time>2016-06-11T09:18:59Z</time>
      </trkpt>
      <trkpt lat="43.61837" lon="1.19033">
        <ele>193</ele>
        <time>2016-06-11T09:19:16Z</time>
      </trkpt>
      <trkpt lat="43.61837" lon="1.19033">
        <ele>193</ele>
        <time>2016-06-11T09:19:17Z</time>
      </trkpt>
      <trkpt lat="43.61837" lon="1.19033">
        <ele>193</ele>
        <time>2016-06-11T09:19:35Z</time>
      </trkpt>
      <trkpt lat="43.61837" lon="1.19033">
        <ele>193</ele>
        <time>2016-06-11T09:19:37Z</time>
      </trkpt>
      <trkpt lat="43.61837" lon="1.19033">
        <ele>193</ele>
        <time>2016-06-11T09:19:56Z</time>
      </trkpt>
      <trkpt lat="43.61837" lon="1.19033">
        <ele>193</ele>
        <time>2016-06-11T09:19:57Z</time>
      </trkpt>
      <trkpt lat="43.61839" lon="1.19039">
        <ele>190</ele>
        <time>2016-06-11T09:21:22Z</time>
      </trkpt>
      <trkpt lat="43.61837" lon="1.19038">
        <ele>187</ele>
        <time>2016-06-11T09:21:24Z</time>
      </trkpt>
      <trkpt lat="43.61837" lon="1.19039">
        <ele>184</ele>
        <time>2016-06-11T09:21:25Z</time>
      </trkpt>
      <trkpt lat="43.61834" lon="1.19042">
        <ele>181</ele>
        <time>2016-06-11T09:21:27Z</time>
      </trkpt>
      <trkpt lat="43.61834" lon="1.19042">
        <ele>177</ele>
        <time>2016-06-11T09:21:28Z</time>
      </trkpt>
      <trkpt lat="43.61834" lon="1.19042">
        <ele>177</ele>
        <time>2016-06-11T09:21:49Z</time>
      </trkpt>
      <trkpt lat="43.61828" lon="1.19035">
        <ele>178</ele>
        <time>2016-06-11T09:21:52Z</time>
      </trkpt>
      <trkpt lat="43.6183" lon="1.19035">
        <ele>178</ele>
        <time>2016-06-11T09:21:54Z</time>
      </trkpt>
      <trkpt lat="43.61829" lon="1.19034">
        <ele>178</ele>
        <time>2016-06-11T09:21:56Z</time>
      </trkpt>
      <trkpt lat="43.6183" lon="1.19034">
        <ele>178</ele>
        <time>2016-06-11T09:21:57Z</time>
      </trkpt>
      <trkpt lat="43.61829" lon="1.19034">
        <ele>178</ele>
        <time>2016-06-11T09:21:59Z</time>
      </trkpt>
      <trkpt lat="43.61829" lon="1.19034">
        <ele>178</ele>
        <time>2016-06-11T09:22:19Z</time>
      </trkpt>
      <trkpt lat="43.61829" lon="1.19034">
        <ele>177</ele>
        <time>2016-06-11T09:22:20Z</time>
      </trkpt>
      <trkpt lat="43.61829" lon="1.19034">
        <ele>177</ele>
        <time>2016-06-11T09:22:48Z</time>
      </trkpt>
      <trkpt lat="43.61829" lon="1.19034">
        <ele>177</ele>
        <time>2016-06-11T09:22:50Z</time>
      </trkpt>
      <trkpt lat="43.61829" lon="1.19034">
        <ele>177</ele>
        <time>2016-06-11T09:23:20Z</time>
      </trkpt>
      <trkpt lat="43.61829" lon="1.19034">
        <ele>177</ele>
        <time>2016-06-11T09:23:23Z</time>
      </trkpt>
      <trkpt lat="43.61829" lon="1.19034">
        <ele>177</ele>
        <time>2016-06-11T09:23:43Z</time>
      </trkpt>
      <trkpt lat="43.61829" lon="1.19034">
        <ele>177</ele>
        <time>2016-06-11T09:23:45Z</time>
      </trkpt>
      <trkpt lat="43.61833" lon="1.19036">
        <ele>177</ele>
        <time>2016-06-11T09:23:49Z</time>
      </trkpt>
      <trkpt lat="43.61833" lon="1.19036">
        <ele>177</ele>
        <time>2016-06-11T09:23:50Z</time>
      </trkpt>
      <trkpt lat="43.61833" lon="1.19036">
        <ele>177</ele>
        <time>2016-06-11T09:23:51Z</time>
      </trkpt>
      <trkpt lat="43.61833" lon="1.19035">
        <ele>176</ele>
        <time>2016-06-11T09:23:53Z</time>
      </trkpt>
      <trkpt lat="43.61833" lon="1.19035">
        <ele>176</ele>
        <time>2016-06-11T09:24:24Z</time>
      </trkpt>
      <trkpt lat="43.61833" lon="1.19035">
        <ele>176</ele>
        <time>2016-06-11T09:24:25Z</time>
      </trkpt>
      <trkpt lat="43.61833" lon="1.19035">
        <ele>176</ele>
        <time>2016-06-11T09:24:44Z</time>
      </trkpt>
      <trkpt lat="43.61833" lon="1.19035">
        <ele>176</ele>
        <time>2016-06-11T09:24:46Z</time>
      </trkpt>
      <trkpt lat="43.61834" lon="1.19041">
        <ele>176</ele>
        <time>2016-06-11T09:24:50Z</time>
      </trkpt>
      <trkpt lat="43.61832" lon="1.19041">
        <ele>176</ele>
        <time>2016-06-11T09:24:51Z</time>
      </trkpt>
      <trkpt lat="43.61829" lon="1.1904">
        <ele>176</ele>
        <time>2016-06-11T09:24:53Z</time>
      </trkpt>
      <trkpt lat="43.61827" lon="1.19039">
        <ele>177</ele>
        <time>2016-06-11T09:24:55Z</time>
      </trkpt>
      <trkpt lat="43.61826" lon="1.19038">
        <ele>177</ele>
        <time>2016-06-11T09:24:56Z</time>
      </trkpt>
      <trkpt lat="43.61823" lon="1.19038">
        <ele>177</ele>
        <time>2016-06-11T09:24:58Z</time>
      </trkpt>
      <trkpt lat="43.61821" lon="1.19038">
        <ele>177</ele>
        <time>2016-06-11T09:25:00Z</time>
      </trkpt>
      <trkpt lat="43.61821" lon="1.19038">
        <ele>177</ele>
        <time>2016-06-11T09:25:01Z</time>
      </trkpt>
      <trkpt lat="43.61818" lon="1.19038">
        <ele>177</ele>
        <time>2016-06-11T09:25:03Z</time>
      </trkpt>
      <trkpt lat="43.61818" lon="1.19038">
        <ele>178</ele>
        <time>2016-06-11T09:25:04Z</time>
      </trkpt>
      <trkpt lat="43.61816" lon="1.19038">
        <ele>178</ele>
        <time>2016-06-11T09:25:06Z</time>
      </trkpt>
      <trkpt lat="43.61814" lon="1.19038">
        <ele>178</ele>
        <time>2016-06-11T09:25:08Z</time>
      </trkpt>
      <trkpt lat="43.61811" lon="1.19038">
        <ele>178</ele>
        <time>2016-06-11T09:25:10Z</time>
      </trkpt>
      <trkpt lat="43.6181" lon="1.19038">
        <ele>178</ele>
        <time>2016-06-11T09:25:12Z</time>
      </trkpt>
      <trkpt lat="43.61806" lon="1.19037">
        <ele>178</ele>
        <time>2016-06-11T09:25:14Z</time>
      </trkpt>
      <trkpt lat="43.61804" lon="1.19038">
        <ele>179</ele>
        <time>2016-06-11T09:25:16Z</time>
      </trkpt>
      <trkpt lat="43.61802" lon="1.19038">
        <ele>179</ele>
        <time>2016-06-11T09:25:18Z</time>
      </trkpt>
      <trkpt lat="43.61799" lon="1.19037">
        <ele>179</ele>
        <time>2016-06-11T09:25:20Z</time>
      </trkpt>
      <trkpt lat="43.61798" lon="1.19036">
        <ele>179</ele>
        <time>2016-06-11T09:25:21Z</time>
      </trkpt>
      <trkpt lat="43.61795" lon="1.19035">
        <ele>179</ele>
        <time>2016-06-11T09:25:23Z</time>
      </trkpt>
      <trkpt lat="43.61792" lon="1.19034">
        <ele>180</ele>
        <time>2016-06-11T09:25:25Z</time>
      </trkpt>
      <trkpt lat="43.61791" lon="1.19033">
        <ele>180</ele>
        <time>2016-06-11T09:25:26Z</time>
      </trkpt>
      <trkpt lat="43.6179" lon="1.19033">
        <ele>180</ele>
        <time>2016-06-11T09:25:27Z</time>
      </trkpt>
      <trkpt lat="43.61788" lon="1.19033">
        <ele>180</ele>
        <time>2016-06-11T09:25:29Z</time>
      </trkpt>
      <trkpt lat="43.61786" lon="1.19032">
        <ele>180</ele>
        <time>2016-06-11T09:25:31Z</time>
      </trkpt>
      <trkpt lat="43.61784" lon="1.19031">
        <ele>181</ele>
        <time>2016-06-11T09:25:33Z</time>
      </trkpt>
      <trkpt lat="43.61783" lon="1.19031">
        <ele>181</ele>
        <time>2016-06-11T09:25:35Z</time>
      </trkpt>
      <trkpt lat="43.61782" lon="1.1903">
        <ele>181</ele>
        <time>2016-06-11T09:25:36Z</time>
      </trkpt>
      <trkpt lat="43.61779" lon="1.1903">
        <ele>181</ele>
        <time>2016-06-11T09:25:38Z</time>
      </trkpt>
      <trkpt lat="43.61778" lon="1.19029">
        <ele>181</ele>
        <time>2016-06-11T09:25:40Z</time>
      </trkpt>
      <trkpt lat="43.61776" lon="1.19029">
        <ele>181</ele>
        <time>2016-06-11T09:25:42Z</time>
      </trkpt>
      <trkpt lat="43.61774" lon="1.19028">
        <ele>181</ele>
        <time>2016-06-11T09:25:43Z</time>
      </trkpt>
      <trkpt lat="43.61773" lon="1.19028">
        <ele>182</ele>
        <time>2016-06-11T09:25:44Z</time>
      </trkpt>
      <trkpt lat="43.61771" lon="1.19027">
        <ele>182</ele>
        <time>2016-06-11T09:25:46Z</time>
      </trkpt>
      <trkpt lat="43.61768" lon="1.19026">
        <ele>182</ele>
        <time>2016-06-11T09:25:48Z</time>
      </trkpt>
      <trkpt lat="43.61767" lon="1.19025">
        <ele>182</ele>
        <time>2016-06-11T09:25:49Z</time>
      </trkpt>
      <trkpt lat="43.61764" lon="1.19024">
        <ele>182</ele>
        <time>2016-06-11T09:25:51Z</time>
      </trkpt>
      <trkpt lat="43.61763" lon="1.19023">
        <ele>182</ele>
        <time>2016-06-11T09:25:52Z</time>
      </trkpt>
      <trkpt lat="43.6176" lon="1.19022">
        <ele>183</ele>
        <time>2016-06-11T09:25:54Z</time>
      </trkpt>
      <trkpt lat="43.61754" lon="1.19019">
        <ele>183</ele>
        <time>2016-06-11T09:25:58Z</time>
      </trkpt>
      <trkpt lat="43.61751" lon="1.19017">
        <ele>184</ele>
        <time>2016-06-11T09:26:00Z</time>
      </trkpt>
      <trkpt lat="43.6175" lon="1.19016">
        <ele>184</ele>
        <time>2016-06-11T09:26:01Z</time>
      </trkpt>
      <trkpt lat="43.61747" lon="1.19015">
        <ele>184</ele>
        <time>2016-06-11T09:26:03Z</time>
      </trkpt>
      <trkpt lat="43.61745" lon="1.19014">
        <ele>185</ele>
        <time>2016-06-11T09:26:04Z</time>
      </trkpt>
      <trkpt lat="43.61742" lon="1.19013">
        <ele>185</ele>
        <time>2016-06-11T09:26:06Z</time>
      </trkpt>
      <trkpt lat="43.61739" lon="1.19011">
        <ele>186</ele>
        <time>2016-06-11T09:26:08Z</time>
      </trkpt>
      <trkpt lat="43.61737" lon="1.19009">
        <ele>186</ele>
        <time>2016-06-11T09:26:10Z</time>
      </trkpt>
      <trkpt lat="43.61734" lon="1.19007">
        <ele>187</ele>
        <time>2016-06-11T09:26:12Z</time>
      </trkpt>
      <trkpt lat="43.61733" lon="1.19006">
        <ele>188</ele>
        <time>2016-06-11T09:26:13Z</time>
      </trkpt>
      <trkpt lat="43.61732" lon="1.19006">
        <ele>188</ele>
        <time>2016-06-11T09:26:14Z</time>
      </trkpt>
      <trkpt lat="43.6173" lon="1.19005">
        <ele>189</ele>
        <time>2016-06-11T09:26:16Z</time>
      </trkpt>
      <trkpt lat="43.61728" lon="1.19005">
        <ele>190</ele>
        <time>2016-06-11T09:26:18Z</time>
      </trkpt>
      <trkpt lat="43.61725" lon="1.19006">
        <ele>190</ele>
        <time>2016-06-11T09:26:20Z</time>
      </trkpt>
      <trkpt lat="43.61723" lon="1.19006">
        <ele>191</ele>
        <time>2016-06-11T09:26:21Z</time>
      </trkpt>
      <trkpt lat="43.61723" lon="1.19006">
        <ele>192</ele>
        <time>2016-06-11T09:26:22Z</time>
      </trkpt>
      <trkpt lat="43.61722" lon="1.19006">
        <ele>192</ele>
        <time>2016-06-11T09:26:23Z</time>
      </trkpt>
      <trkpt lat="43.6172" lon="1.19007">
        <ele>193</ele>
        <time>2016-06-11T09:26:25Z</time>
      </trkpt>
      <trkpt lat="43.61716" lon="1.19007">
        <ele>194</ele>
        <time>2016-06-11T09:26:27Z</time>
      </trkpt>
      <trkpt lat="43.61713" lon="1.19006">
        <ele>194</ele>
        <time>2016-06-11T09:26:29Z</time>
      </trkpt>
      <trkpt lat="43.6171" lon="1.19004">
        <ele>195</ele>
        <time>2016-06-11T09:26:31Z</time>
      </trkpt>
      <trkpt lat="43.61708" lon="1.19004">
        <ele>195</ele>
        <time>2016-06-11T09:26:33Z</time>
      </trkpt>
      <trkpt lat="43.61705" lon="1.19003">
        <ele>196</ele>
        <time>2016-06-11T09:26:35Z</time>
      </trkpt>
      <trkpt lat="43.61704" lon="1.19003">
        <ele>197</ele>
        <time>2016-06-11T09:26:36Z</time>
      </trkpt>
      <trkpt lat="43.61702" lon="1.19002">
        <ele>197</ele>
        <time>2016-06-11T09:26:38Z</time>
      </trkpt>
      <trkpt lat="43.61699" lon="1.19001">
        <ele>198</ele>
        <time>2016-06-11T09:26:40Z</time>
      </trkpt>
      <trkpt lat="43.61698" lon="1.19001">
        <ele>198</ele>
        <time>2016-06-11T09:26:41Z</time>
      </trkpt>
      <trkpt lat="43.61696" lon="1.19">
        <ele>198</ele>
        <time>2016-06-11T09:26:43Z</time>
      </trkpt>
      <trkpt lat="43.61694" lon="1.19">
        <ele>199</ele>
        <time>2016-06-11T09:26:44Z</time>
      </trkpt>
      <trkpt lat="43.61691" lon="1.19001">
        <ele>199</ele>
        <time>2016-06-11T09:26:46Z</time>
      </trkpt>
      <trkpt lat="43.61688" lon="1.19002">
        <ele>200</ele>
        <time>2016-06-11T09:26:48Z</time>
      </trkpt>
      <trkpt lat="43.61684" lon="1.19003">
        <ele>200</ele>
        <time>2016-06-11T09:26:50Z</time>
      </trkpt>
      <trkpt lat="43.61681" lon="1.19004">
        <ele>201</ele>
        <time>2016-06-11T09:26:52Z</time>
      </trkpt>
      <trkpt lat="43.61678" lon="1.19005">
        <ele>201</ele>
        <time>2016-06-11T09:26:54Z</time>
      </trkpt>
      <trkpt lat="43.61676" lon="1.19005">
        <ele>201</ele>
        <time>2016-06-11T09:26:55Z</time>
      </trkpt>
      <trkpt lat="43.61675" lon="1.19005">
        <ele>202</ele>
        <time>2016-06-11T09:26:56Z</time>
      </trkpt>
      <trkpt lat="43.61665" lon="1.19005">
        <ele>202</ele>
        <time>2016-06-11T09:27:00Z</time>
      </trkpt>
      <trkpt lat="43.61664" lon="1.19005">
        <ele>203</ele>
        <time>2016-06-11T09:27:01Z</time>
      </trkpt>
      <trkpt lat="43.61662" lon="1.19005">
        <ele>203</ele>
        <time>2016-06-11T09:27:03Z</time>
      </trkpt>
      <trkpt lat="43.61661" lon="1.19005">
        <ele>203</ele>
        <time>2016-06-11T09:27:04Z</time>
      </trkpt>
      <trkpt lat="43.61652" lon="1.19004">
        <ele>205</ele>
        <time>2016-06-11T09:27:09Z</time>
      </trkpt>
      <trkpt lat="43.61651" lon="1.19003">
        <ele>205</ele>
        <time>2016-06-11T09:27:11Z</time>
      </trkpt>
      <trkpt lat="43.6165" lon="1.19003">
        <ele>206</ele>
        <time>2016-06-11T09:27:12Z</time>
      </trkpt>
      <trkpt lat="43.61647" lon="1.19003">
        <ele>206</ele>
        <time>2016-06-11T09:27:14Z</time>
      </trkpt>
      <trkpt lat="43.61646" lon="1.19002">
        <ele>206</ele>
        <time>2016-06-11T09:27:15Z</time>
      </trkpt>
      <trkpt lat="43.61645" lon="1.19002">
        <ele>207</ele>
        <time>2016-06-11T09:27:16Z</time>
      </trkpt>
      <trkpt lat="43.61639" lon="1.18999">
        <ele>207</ele>
        <time>2016-06-11T09:27:20Z</time>
      </trkpt>
      <trkpt lat="43.61636" lon="1.18998">
        <ele>208</ele>
        <time>2016-06-11T09:27:22Z</time>
      </trkpt>
      <trkpt lat="43.61633" lon="1.18997">
        <ele>208</ele>
        <time>2016-06-11T09:27:24Z</time>
      </trkpt>
      <trkpt lat="43.6163" lon="1.18996">
        <ele>208</ele>
        <time>2016-06-11T09:27:26Z</time>
      </trkpt>
      <trkpt lat="43.61628" lon="1.18997">
        <ele>209</ele>
        <time>2016-06-11T09:27:28Z</time>
      </trkpt>
      <trkpt lat="43.6162" lon="1.18995">
        <ele>209</ele>
        <time>2016-06-11T09:27:30Z</time>
      </trkpt>
      <trkpt lat="43.61617" lon="1.18996">
        <ele>210</ele>
        <time>2016-06-11T09:27:32Z</time>
      </trkpt>
      <trkpt lat="43.61612" lon="1.18998">
        <ele>210</ele>
        <time>2016-06-11T09:27:35Z</time>
      </trkpt>
      <trkpt lat="43.6161" lon="1.18998">
        <ele>211</ele>
        <time>2016-06-11T09:27:36Z</time>
      </trkpt>
      <trkpt lat="43.61609" lon="1.18999">
        <ele>211</ele>
        <time>2016-06-11T09:27:37Z</time>
      </trkpt>
      <trkpt lat="43.61607" lon="1.18999">
        <ele>211</ele>
        <time>2016-06-11T09:27:38Z</time>
      </trkpt>
      <trkpt lat="43.61601" lon="1.19">
        <ele>211</ele>
        <time>2016-06-11T09:27:42Z</time>
      </trkpt>
      <trkpt lat="43.616" lon="1.19001">
        <ele>211</ele>
        <time>2016-06-11T09:27:43Z</time>
      </trkpt>
      <trkpt lat="43.61597" lon="1.19003">
        <ele>211</ele>
        <time>2016-06-11T09:27:45Z</time>
      </trkpt>
      <trkpt lat="43.61596" lon="1.19004">
        <ele>211</ele>
        <time>2016-06-11T09:27:46Z</time>
      </trkpt>
      <trkpt lat="43.61594" lon="1.19006">
        <ele>211</ele>
        <time>2016-06-11T09:27:48Z</time>
      </trkpt>
      <trkpt lat="43.61592" lon="1.19009">
        <ele>212</ele>
        <time>2016-06-11T09:27:50Z</time>
      </trkpt>
      <trkpt lat="43.61591" lon="1.19009">
        <ele>212</ele>
        <time>2016-06-11T09:27:51Z</time>
      </trkpt>
      <trkpt lat="43.61589" lon="1.19011">
        <ele>212</ele>
        <time>2016-06-11T09:27:53Z</time>
      </trkpt>
      <trkpt lat="43.61585" lon="1.19011">
        <ele>212</ele>
        <time>2016-06-11T09:27:56Z</time>
      </trkpt>
      <trkpt lat="43.6157" lon="1.19012">
        <ele>213</ele>
        <time>2016-06-11T09:28:03Z</time>
      </trkpt>
      <trkpt lat="43.61565" lon="1.19014">
        <ele>213</ele>
        <time>2016-06-11T09:28:06Z</time>
      </trkpt>
      <trkpt lat="43.61564" lon="1.19016">
        <ele>213</ele>
        <time>2016-06-11T09:28:07Z</time>
      </trkpt>
      <trkpt lat="43.61562" lon="1.19017">
        <ele>213</ele>
        <time>2016-06-11T09:28:09Z</time>
      </trkpt>
      <trkpt lat="43.61562" lon="1.19018">
        <ele>214</ele>
        <time>2016-06-11T09:28:10Z</time>
      </trkpt>
      <trkpt lat="43.6156" lon="1.19019">
        <ele>214</ele>
        <time>2016-06-11T09:28:12Z</time>
      </trkpt>
      <trkpt lat="43.61557" lon="1.19021">
        <ele>214</ele>
        <time>2016-06-11T09:28:14Z</time>
      </trkpt>
      <trkpt lat="43.61555" lon="1.19022">
        <ele>214</ele>
        <time>2016-06-11T09:28:16Z</time>
      </trkpt>
      <trkpt lat="43.61552" lon="1.19024">
        <ele>214</ele>
        <time>2016-06-11T09:28:18Z</time>
      </trkpt>
      <trkpt lat="43.6155" lon="1.19025">
        <ele>214</ele>
        <time>2016-06-11T09:28:20Z</time>
      </trkpt>
      <trkpt lat="43.61549" lon="1.19026">
        <ele>214</ele>
        <time>2016-06-11T09:28:21Z</time>
      </trkpt>
      <trkpt lat="43.61548" lon="1.19027">
        <ele>214</ele>
        <time>2016-06-11T09:28:22Z</time>
      </trkpt>
      <trkpt lat="43.61547" lon="1.19027">
        <ele>214</ele>
        <time>2016-06-11T09:28:23Z</time>
      </trkpt>
      <trkpt lat="43.61541" lon="1.19032">
        <ele>214</ele>
        <time>2016-06-11T09:28:27Z</time>
      </trkpt>
      <trkpt lat="43.6154" lon="1.19033">
        <ele>214</ele>
        <time>2016-06-11T09:28:28Z</time>
      </trkpt>
      <trkpt lat="43.61538" lon="1.19034">
        <ele>214</ele>
        <time>2016-06-11T09:28:29Z</time>
      </trkpt>
      <trkpt lat="43.61528" lon="1.19041">
        <ele>214</ele>
        <time>2016-06-11T09:28:36Z</time>
      </trkpt>
      <trkpt lat="43.61526" lon="1.19044">
        <ele>214</ele>
        <time>2016-06-11T09:28:38Z</time>
      </trkpt>
      <trkpt lat="43.61525" lon="1.19045">
        <ele>213</ele>
        <time>2016-06-11T09:28:39Z</time>
      </trkpt>
      <trkpt lat="43.61524" lon="1.19047">
        <ele>213</ele>
        <time>2016-06-11T09:28:41Z</time>
      </trkpt>
      <trkpt lat="43.61523" lon="1.19048">
        <ele>213</ele>
        <time>2016-06-11T09:28:42Z</time>
      </trkpt>
      <trkpt lat="43.61523" lon="1.19049">
        <ele>213</ele>
        <time>2016-06-11T09:28:43Z</time>
      </trkpt>
      <trkpt lat="43.61521" lon="1.19053">
        <ele>213</ele>
        <time>2016-06-11T09:28:45Z</time>
      </trkpt>
      <trkpt lat="43.61521" lon="1.19054">
        <ele>213</ele>
        <time>2016-06-11T09:28:46Z</time>
      </trkpt>
      <trkpt lat="43.61522" lon="1.19056">
        <ele>214</ele>
        <time>2016-06-11T09:28:48Z</time>
      </trkpt>
      <trkpt lat="43.61521" lon="1.19059">
        <ele>214</ele>
        <time>2016-06-11T09:28:50Z</time>
      </trkpt>
      <trkpt lat="43.61522" lon="1.19063">
        <ele>214</ele>
        <time>2016-06-11T09:28:52Z</time>
      </trkpt>
      <trkpt lat="43.61522" lon="1.19065">
        <ele>214</ele>
        <time>2016-06-11T09:28:54Z</time>
      </trkpt>
      <trkpt lat="43.61523" lon="1.19068">
        <ele>214</ele>
        <time>2016-06-11T09:28:55Z</time>
      </trkpt>
      <trkpt lat="43.61523" lon="1.19069">
        <ele>214</ele>
        <time>2016-06-11T09:28:56Z</time>
      </trkpt>
      <trkpt lat="43.61523" lon="1.19073">
        <ele>214</ele>
        <time>2016-06-11T09:28:58Z</time>
      </trkpt>
      <trkpt lat="43.61523" lon="1.19077">
        <ele>214</ele>
        <time>2016-06-11T09:29:00Z</time>
      </trkpt>
      <trkpt lat="43.61523" lon="1.19079">
        <ele>215</ele>
        <time>2016-06-11T09:29:01Z</time>
      </trkpt>
      <trkpt lat="43.61523" lon="1.19084">
        <ele>215</ele>
        <time>2016-06-11T09:29:03Z</time>
      </trkpt>
      <trkpt lat="43.61524" lon="1.19087">
        <ele>215</ele>
        <time>2016-06-11T09:29:04Z</time>
      </trkpt>
      <trkpt lat="43.61524" lon="1.19091">
        <ele>215</ele>
        <time>2016-06-11T09:29:06Z</time>
      </trkpt>
      <trkpt lat="43.61525" lon="1.19093">
        <ele>215</ele>
        <time>2016-06-11T09:29:07Z</time>
      </trkpt>
      <trkpt lat="43.61525" lon="1.19098">
        <ele>215</ele>
        <time>2016-06-11T09:29:09Z</time>
      </trkpt>
      <trkpt lat="43.61527" lon="1.191">
        <ele>215</ele>
        <time>2016-06-11T09:29:10Z</time>
      </trkpt>
      <trkpt lat="43.61527" lon="1.19104">
        <ele>215</ele>
        <time>2016-06-11T09:29:12Z</time>
      </trkpt>
      <trkpt lat="43.61527" lon="1.19106">
        <ele>216</ele>
        <time>2016-06-11T09:29:13Z</time>
      </trkpt>
      <trkpt lat="43.61528" lon="1.19109">
        <ele>216</ele>
        <time>2016-06-11T09:29:15Z</time>
      </trkpt>
      <trkpt lat="43.61528" lon="1.1911">
        <ele>216</ele>
        <time>2016-06-11T09:29:16Z</time>
      </trkpt>
      <trkpt lat="43.61529" lon="1.19114">
        <ele>216</ele>
        <time>2016-06-11T09:29:18Z</time>
      </trkpt>
      <trkpt lat="43.61531" lon="1.19117">
        <ele>216</ele>
        <time>2016-06-11T09:29:20Z</time>
      </trkpt>
      <trkpt lat="43.61532" lon="1.1912">
        <ele>216</ele>
        <time>2016-06-11T09:29:22Z</time>
      </trkpt>
      <trkpt lat="43.61532" lon="1.19123">
        <ele>216</ele>
        <time>2016-06-11T09:29:24Z</time>
      </trkpt>
      <trkpt lat="43.61533" lon="1.19125">
        <ele>217</ele>
        <time>2016-06-11T09:29:26Z</time>
      </trkpt>
      <trkpt lat="43.61533" lon="1.19126">
        <ele>217</ele>
        <time>2016-06-11T09:29:27Z</time>
      </trkpt>
      <trkpt lat="43.61536" lon="1.19129">
        <ele>217</ele>
        <time>2016-06-11T09:29:29Z</time>
      </trkpt>
      <trkpt lat="43.61537" lon="1.19129">
        <ele>217</ele>
        <time>2016-06-11T09:29:30Z</time>
      </trkpt>
      <trkpt lat="43.61538" lon="1.19132">
        <ele>218</ele>
        <time>2016-06-11T09:29:32Z</time>
      </trkpt>
      <trkpt lat="43.61541" lon="1.19135">
        <ele>218</ele>
        <time>2016-06-11T09:29:34Z</time>
      </trkpt>
      <trkpt lat="43.61546" lon="1.19148">
        <ele>217</ele>
        <time>2016-06-11T09:29:38Z</time>
      </trkpt>
      <trkpt lat="43.61546" lon="1.19148">
        <ele>216</ele>
        <time>2016-06-11T09:29:40Z</time>
      </trkpt>
      <trkpt lat="43.61546" lon="1.19159">
        <ele>215</ele>
        <time>2016-06-11T09:29:49Z</time>
      </trkpt>
      <trkpt lat="43.61545" lon="1.19161">
        <ele>214</ele>
        <time>2016-06-11T09:29:51Z</time>
      </trkpt>
      <trkpt lat="43.61544" lon="1.19163">
        <ele>213</ele>
        <time>2016-06-11T09:29:53Z</time>
      </trkpt>
      <trkpt lat="43.61544" lon="1.19165">
        <ele>213</ele>
        <time>2016-06-11T09:29:55Z</time>
      </trkpt>
      <trkpt lat="43.61544" lon="1.19165">
        <ele>212</ele>
        <time>2016-06-11T09:29:56Z</time>
      </trkpt>
      <trkpt lat="43.61543" lon="1.19167">
        <ele>212</ele>
        <time>2016-06-11T09:29:58Z</time>
      </trkpt>
      <trkpt lat="43.61542" lon="1.19168">
        <ele>212</ele>
        <time>2016-06-11T09:30:00Z</time>
      </trkpt>
      <trkpt lat="43.61541" lon="1.19169">
        <ele>212</ele>
        <time>2016-06-11T09:30:01Z</time>
      </trkpt>
      <trkpt lat="43.6154" lon="1.19173">
        <ele>212</ele>
        <time>2016-06-11T09:30:03Z</time>
      </trkpt>
      <trkpt lat="43.61538" lon="1.19174">
        <ele>212</ele>
        <time>2016-06-11T09:30:04Z</time>
      </trkpt>
      <trkpt lat="43.61537" lon="1.19175">
        <ele>212</ele>
        <time>2016-06-11T09:30:06Z</time>
      </trkpt>
      <trkpt lat="43.61535" lon="1.19176">
        <ele>212</ele>
        <time>2016-06-11T09:30:08Z</time>
      </trkpt>
      <trkpt lat="43.61532" lon="1.19177">
        <ele>212</ele>
        <time>2016-06-11T09:30:10Z</time>
      </trkpt>
      <trkpt lat="43.6153" lon="1.19178">
        <ele>212</ele>
        <time>2016-06-11T09:30:12Z</time>
      </trkpt>
      <trkpt lat="43.61528" lon="1.19179">
        <ele>212</ele>
        <time>2016-06-11T09:30:14Z</time>
      </trkpt>
      <trkpt lat="43.61526" lon="1.19181">
        <ele>212</ele>
        <time>2016-06-11T09:30:16Z</time>
      </trkpt>
      <trkpt lat="43.61524" lon="1.19182">
        <ele>212</ele>
        <time>2016-06-11T09:30:18Z</time>
      </trkpt>
      <trkpt lat="43.61521" lon="1.19184">
        <ele>212</ele>
        <time>2016-06-11T09:30:20Z</time>
      </trkpt>
      <trkpt lat="43.61512" lon="1.19189">
        <ele>212</ele>
        <time>2016-06-11T09:30:24Z</time>
      </trkpt>
      <trkpt lat="43.61505" lon="1.19193">
        <ele>211</ele>
        <time>2016-06-11T09:30:28Z</time>
      </trkpt>
      <trkpt lat="43.61503" lon="1.19195">
        <ele>211</ele>
        <time>2016-06-11T09:30:30Z</time>
      </trkpt>
      <trkpt lat="43.615" lon="1.19196">
        <ele>211</ele>
        <time>2016-06-11T09:30:32Z</time>
      </trkpt>
      <trkpt lat="43.61496" lon="1.19196">
        <ele>211</ele>
        <time>2016-06-11T09:30:34Z</time>
      </trkpt>
      <trkpt lat="43.61494" lon="1.19197">
        <ele>211</ele>
        <time>2016-06-11T09:30:36Z</time>
      </trkpt>
      <trkpt lat="43.61491" lon="1.19198">
        <ele>211</ele>
        <time>2016-06-11T09:30:38Z</time>
      </trkpt>
      <trkpt lat="43.61486" lon="1.19201">
        <ele>211</ele>
        <time>2016-06-11T09:30:42Z</time>
      </trkpt>
      <trkpt lat="43.61484" lon="1.19203">
        <ele>211</ele>
        <time>2016-06-11T09:30:44Z</time>
      </trkpt>
      <trkpt lat="43.61482" lon="1.19203">
        <ele>211</ele>
        <time>2016-06-11T09:30:46Z</time>
      </trkpt>
      <trkpt lat="43.6148" lon="1.19205">
        <ele>212</ele>
        <time>2016-06-11T09:30:48Z</time>
      </trkpt>
      <trkpt lat="43.61478" lon="1.19206">
        <ele>212</ele>
        <time>2016-06-11T09:30:50Z</time>
      </trkpt>
      <trkpt lat="43.61475" lon="1.19207">
        <ele>212</ele>
        <time>2016-06-11T09:30:52Z</time>
      </trkpt>
      <trkpt lat="43.61473" lon="1.1921">
        <ele>212</ele>
        <time>2016-06-11T09:30:54Z</time>
      </trkpt>
      <trkpt lat="43.6147" lon="1.19211">
        <ele>212</ele>
        <time>2016-06-11T09:30:55Z</time>
      </trkpt>
      <trkpt lat="43.61461" lon="1.19217">
        <ele>212</ele>
        <time>2016-06-11T09:31:00Z</time>
      </trkpt>
      <trkpt lat="43.61451" lon="1.19223">
        <ele>211</ele>
        <time>2016-06-11T09:31:06Z</time>
      </trkpt>
      <trkpt lat="43.61449" lon="1.19225">
        <ele>211</ele>
        <time>2016-06-11T09:31:08Z</time>
      </trkpt>
      <trkpt lat="43.61448" lon="1.19225">
        <ele>212</ele>
        <time>2016-06-11T09:31:09Z</time>
      </trkpt>
      <trkpt lat="43.61446" lon="1.19226">
        <ele>212</ele>
        <time>2016-06-11T09:31:10Z</time>
      </trkpt>
      <trkpt lat="43.61443" lon="1.19226">
        <ele>212</ele>
        <time>2016-06-11T09:31:12Z</time>
      </trkpt>
      <trkpt lat="43.6144" lon="1.19228">
        <ele>212</ele>
        <time>2016-06-11T09:31:14Z</time>
      </trkpt>
      <trkpt lat="43.61437" lon="1.19229">
        <ele>212</ele>
        <time>2016-06-11T09:31:16Z</time>
      </trkpt>
      <trkpt lat="43.61429" lon="1.19231">
        <ele>212</ele>
        <time>2016-06-11T09:31:21Z</time>
      </trkpt>
      <trkpt lat="43.61425" lon="1.19233">
        <ele>212</ele>
        <time>2016-06-11T09:31:23Z</time>
      </trkpt>
      <trkpt lat="43.61423" lon="1.19234">
        <ele>212</ele>
        <time>2016-06-11T09:31:24Z</time>
      </trkpt>
      <trkpt lat="43.61419" lon="1.19237">
        <ele>212</ele>
        <time>2016-06-11T09:31:26Z</time>
      </trkpt>
      <trkpt lat="43.61417" lon="1.19238">
        <ele>212</ele>
        <time>2016-06-11T09:31:28Z</time>
      </trkpt>
      <trkpt lat="43.61414" lon="1.1924">
        <ele>212</ele>
        <time>2016-06-11T09:31:30Z</time>
      </trkpt>
      <trkpt lat="43.61403" lon="1.19245">
        <ele>212</ele>
        <time>2016-06-11T09:31:36Z</time>
      </trkpt>
      <trkpt lat="43.614" lon="1.19247">
        <ele>212</ele>
        <time>2016-06-11T09:31:38Z</time>
      </trkpt>
      <trkpt lat="43.61397" lon="1.19249">
        <ele>212</ele>
        <time>2016-06-11T09:31:40Z</time>
      </trkpt>
      <trkpt lat="43.61396" lon="1.19249">
        <ele>212</ele>
        <time>2016-06-11T09:31:42Z</time>
      </trkpt>
      <trkpt lat="43.61395" lon="1.19249">
        <ele>212</ele>
        <time>2016-06-11T09:31:43Z</time>
      </trkpt>
      <trkpt lat="43.61393" lon="1.19249">
        <ele>212</ele>
        <time>2016-06-11T09:31:45Z</time>
      </trkpt>
      <trkpt lat="43.61393" lon="1.1925">
        <ele>212</ele>
        <time>2016-06-11T09:31:46Z</time>
      </trkpt>
      <trkpt lat="43.6139" lon="1.19253">
        <ele>212</ele>
        <time>2016-06-11T09:31:48Z</time>
      </trkpt>
      <trkpt lat="43.61389" lon="1.19254">
        <ele>212</ele>
        <time>2016-06-11T09:31:49Z</time>
      </trkpt>
      <trkpt lat="43.61388" lon="1.19255">
        <ele>212</ele>
        <time>2016-06-11T09:31:50Z</time>
      </trkpt>
      <trkpt lat="43.61387" lon="1.19256">
        <ele>212</ele>
        <time>2016-06-11T09:31:52Z</time>
      </trkpt>
      <trkpt lat="43.61385" lon="1.19257">
        <ele>212</ele>
        <time>2016-06-11T09:31:54Z</time>
      </trkpt>
      <trkpt lat="43.61382" lon="1.19258">
        <ele>212</ele>
        <time>2016-06-11T09:31:56Z</time>
      </trkpt>
      <trkpt lat="43.6138" lon="1.19261">
        <ele>212</ele>
        <time>2016-06-11T09:31:58Z</time>
      </trkpt>
      <trkpt lat="43.61375" lon="1.19264">
        <ele>212</ele>
        <time>2016-06-11T09:32:01Z</time>
      </trkpt>
      <trkpt lat="43.61364" lon="1.19266">
        <ele>213</ele>
        <time>2016-06-11T09:32:07Z</time>
      </trkpt>
      <trkpt lat="43.61363" lon="1.19266">
        <ele>213</ele>
        <time>2016-06-11T09:32:08Z</time>
      </trkpt>
      <trkpt lat="43.61361" lon="1.19269">
        <ele>213</ele>
        <time>2016-06-11T09:32:10Z</time>
      </trkpt>
      <trkpt lat="43.61358" lon="1.1927">
        <ele>213</ele>
        <time>2016-06-11T09:32:12Z</time>
      </trkpt>
      <trkpt lat="43.61356" lon="1.19272">
        <ele>213</ele>
        <time>2016-06-11T09:32:14Z</time>
      </trkpt>
      <trkpt lat="43.61353" lon="1.19273">
        <ele>213</ele>
        <time>2016-06-11T09:32:16Z</time>
      </trkpt>
      <trkpt lat="43.61352" lon="1.19273">
        <ele>213</ele>
        <time>2016-06-11T09:32:17Z</time>
      </trkpt>
      <trkpt lat="43.61351" lon="1.19274">
        <ele>213</ele>
        <time>2016-06-11T09:32:19Z</time>
      </trkpt>
      <trkpt lat="43.6135" lon="1.19275">
        <ele>213</ele>
        <time>2016-06-11T09:32:20Z</time>
      </trkpt>
      <trkpt lat="43.61348" lon="1.19276">
        <ele>213</ele>
        <time>2016-06-11T09:32:21Z</time>
      </trkpt>
      <trkpt lat="43.61347" lon="1.19277">
        <ele>213</ele>
        <time>2016-06-11T09:32:22Z</time>
      </trkpt>
      <trkpt lat="43.61345" lon="1.19278">
        <ele>214</ele>
        <time>2016-06-11T09:32:24Z</time>
      </trkpt>
      <trkpt lat="43.61343" lon="1.19279">
        <ele>214</ele>
        <time>2016-06-11T09:32:25Z</time>
      </trkpt>
      <trkpt lat="43.61334" lon="1.19288">
        <ele>214</ele>
        <time>2016-06-11T09:32:30Z</time>
      </trkpt>
      <trkpt lat="43.61332" lon="1.19291">
        <ele>214</ele>
        <time>2016-06-11T09:32:32Z</time>
      </trkpt>
      <trkpt lat="43.6133" lon="1.19292">
        <ele>214</ele>
        <time>2016-06-11T09:32:33Z</time>
      </trkpt>
      <trkpt lat="43.61328" lon="1.19293">
        <ele>214</ele>
        <time>2016-06-11T09:32:35Z</time>
      </trkpt>
      <trkpt lat="43.61327" lon="1.19293">
        <ele>214</ele>
        <time>2016-06-11T09:32:36Z</time>
      </trkpt>
      <trkpt lat="43.61324" lon="1.19295">
        <ele>214</ele>
        <time>2016-06-11T09:32:38Z</time>
      </trkpt>
      <trkpt lat="43.61321" lon="1.19295">
        <ele>214</ele>
        <time>2016-06-11T09:32:40Z</time>
      </trkpt>
      <trkpt lat="43.61318" lon="1.19295">
        <ele>214</ele>
        <time>2016-06-11T09:32:42Z</time>
      </trkpt>
      <trkpt lat="43.61316" lon="1.19296">
        <ele>214</ele>
        <time>2016-06-11T09:32:43Z</time>
      </trkpt>
      <trkpt lat="43.61315" lon="1.19296">
        <ele>214</ele>
        <time>2016-06-11T09:32:44Z</time>
      </trkpt>
      <trkpt lat="43.61313" lon="1.19297">
        <ele>214</ele>
        <time>2016-06-11T09:32:46Z</time>
      </trkpt>
      <trkpt lat="43.61311" lon="1.19298">
        <ele>214</ele>
        <time>2016-06-11T09:32:48Z</time>
      </trkpt>
      <trkpt lat="43.61309" lon="1.19301">
        <ele>214</ele>
        <time>2016-06-11T09:32:50Z</time>
      </trkpt>
      <trkpt lat="43.61305" lon="1.19303">
        <ele>214</ele>
        <time>2016-06-11T09:32:52Z</time>
      </trkpt>
      <trkpt lat="43.61303" lon="1.19305">
        <ele>214</ele>
        <time>2016-06-11T09:32:54Z</time>
      </trkpt>
      <trkpt lat="43.613" lon="1.19307">
        <ele>214</ele>
        <time>2016-06-11T09:32:56Z</time>
      </trkpt>
      <trkpt lat="43.61298" lon="1.19308">
        <ele>214</ele>
        <time>2016-06-11T09:32:58Z</time>
      </trkpt>
      <trkpt lat="43.61295" lon="1.1931">
        <ele>214</ele>
        <time>2016-06-11T09:33:00Z</time>
      </trkpt>
      <trkpt lat="43.61295" lon="1.1931">
        <ele>214</ele>
        <time>2016-06-11T09:33:01Z</time>
      </trkpt>
      <trkpt lat="43.61293" lon="1.19311">
        <ele>214</ele>
        <time>2016-06-11T09:33:02Z</time>
      </trkpt>
      <trkpt lat="43.61292" lon="1.19312">
        <ele>214</ele>
        <time>2016-06-11T09:33:03Z</time>
      </trkpt>
      <trkpt lat="43.6129" lon="1.19312">
        <ele>214</ele>
        <time>2016-06-11T09:33:05Z</time>
      </trkpt>
      <trkpt lat="43.61288" lon="1.19313">
        <ele>214</ele>
        <time>2016-06-11T09:33:06Z</time>
      </trkpt>
      <trkpt lat="43.61285" lon="1.19314">
        <ele>214</ele>
        <time>2016-06-11T09:33:08Z</time>
      </trkpt>
      <trkpt lat="43.61284" lon="1.19315">
        <ele>214</ele>
        <time>2016-06-11T09:33:09Z</time>
      </trkpt>
      <trkpt lat="43.61282" lon="1.19316">
        <ele>214</ele>
        <time>2016-06-11T09:33:10Z</time>
      </trkpt>
      <trkpt lat="43.61281" lon="1.19317">
        <ele>214</ele>
        <time>2016-06-11T09:33:11Z</time>
      </trkpt>
      <trkpt lat="43.61273" lon="1.19314">
        <ele>215</ele>
        <time>2016-06-11T09:33:13Z</time>
      </trkpt>
      <trkpt lat="43.61272" lon="1.19314">
        <ele>215</ele>
        <time>2016-06-11T09:33:14Z</time>
      </trkpt>
      <trkpt lat="43.61269" lon="1.19318">
        <ele>215</ele>
        <time>2016-06-11T09:33:16Z</time>
      </trkpt>
      <trkpt lat="43.61268" lon="1.19322">
        <ele>215</ele>
        <time>2016-06-11T09:33:18Z</time>
      </trkpt>
      <trkpt lat="43.61265" lon="1.19325">
        <ele>215</ele>
        <time>2016-06-11T09:33:20Z</time>
      </trkpt>
      <trkpt lat="43.61263" lon="1.19327">
        <ele>215</ele>
        <time>2016-06-11T09:33:22Z</time>
      </trkpt>
      <trkpt lat="43.61261" lon="1.19327">
        <ele>215</ele>
        <time>2016-06-11T09:33:23Z</time>
      </trkpt>
      <trkpt lat="43.61258" lon="1.19328">
        <ele>215</ele>
        <time>2016-06-11T09:33:25Z</time>
      </trkpt>
      <trkpt lat="43.61256" lon="1.19328">
        <ele>215</ele>
        <time>2016-06-11T09:33:26Z</time>
      </trkpt>
      <trkpt lat="43.61253" lon="1.19329">
        <ele>215</ele>
        <time>2016-06-11T09:33:28Z</time>
      </trkpt>
      <trkpt lat="43.61245" lon="1.19334">
        <ele>216</ele>
        <time>2016-06-11T09:33:32Z</time>
      </trkpt>
      <trkpt lat="43.61244" lon="1.19334">
        <ele>216</ele>
        <time>2016-06-11T09:33:33Z</time>
      </trkpt>
      <trkpt lat="43.61242" lon="1.19336">
        <ele>216</ele>
        <time>2016-06-11T09:33:35Z</time>
      </trkpt>
      <trkpt lat="43.6124" lon="1.19337">
        <ele>216</ele>
        <time>2016-06-11T09:33:36Z</time>
      </trkpt>
      <trkpt lat="43.61234" lon="1.1934">
        <ele>216</ele>
        <time>2016-06-11T09:33:40Z</time>
      </trkpt>
      <trkpt lat="43.61231" lon="1.19341">
        <ele>216</ele>
        <time>2016-06-11T09:33:42Z</time>
      </trkpt>
      <trkpt lat="43.61228" lon="1.1934">
        <ele>216</ele>
        <time>2016-06-11T09:33:43Z</time>
      </trkpt>
      <trkpt lat="43.6122" lon="1.19341">
        <ele>216</ele>
        <time>2016-06-11T09:33:48Z</time>
      </trkpt>
      <trkpt lat="43.61218" lon="1.19344">
        <ele>216</ele>
        <time>2016-06-11T09:33:50Z</time>
      </trkpt>
      <trkpt lat="43.61216" lon="1.19346">
        <ele>216</ele>
        <time>2016-06-11T09:33:52Z</time>
      </trkpt>
      <trkpt lat="43.61214" lon="1.19347">
        <ele>216</ele>
        <time>2016-06-11T09:33:54Z</time>
      </trkpt>
      <trkpt lat="43.61213" lon="1.19347">
        <ele>216</ele>
        <time>2016-06-11T09:33:55Z</time>
      </trkpt>
      <trkpt lat="43.61211" lon="1.19348">
        <ele>216</ele>
        <time>2016-06-11T09:33:56Z</time>
      </trkpt>
      <trkpt lat="43.6121" lon="1.1935">
        <ele>216</ele>
        <time>2016-06-11T09:33:58Z</time>
      </trkpt>
      <trkpt lat="43.61207" lon="1.19351">
        <ele>216</ele>
        <time>2016-06-11T09:34:00Z</time>
      </trkpt>
      <trkpt lat="43.61206" lon="1.19351">
        <ele>216</ele>
        <time>2016-06-11T09:34:01Z</time>
      </trkpt>
      <trkpt lat="43.61205" lon="1.19353">
        <ele>216</ele>
        <time>2016-06-11T09:34:03Z</time>
      </trkpt>
      <trkpt lat="43.61204" lon="1.19354">
        <ele>216</ele>
        <time>2016-06-11T09:34:04Z</time>
      </trkpt>
      <trkpt lat="43.61204" lon="1.19355">
        <ele>216</ele>
        <time>2016-06-11T09:34:05Z</time>
      </trkpt>
      <trkpt lat="43.61199" lon="1.19356">
        <ele>216</ele>
        <time>2016-06-11T09:34:07Z</time>
      </trkpt>
      <trkpt lat="43.61189" lon="1.1936">
        <ele>216</ele>
        <time>2016-06-11T09:34:10Z</time>
      </trkpt>
      <trkpt lat="43.61185" lon="1.19361">
        <ele>215</ele>
        <time>2016-06-11T09:34:12Z</time>
      </trkpt>
      <trkpt lat="43.61175" lon="1.19368">
        <ele>214</ele>
        <time>2016-06-11T09:34:21Z</time>
      </trkpt>
      <trkpt lat="43.61174" lon="1.19368">
        <ele>213</ele>
        <time>2016-06-11T09:34:23Z</time>
      </trkpt>
      <trkpt lat="43.61174" lon="1.19368">
        <ele>211</ele>
        <time>2016-06-11T09:34:44Z</time>
      </trkpt>
      <trkpt lat="43.61174" lon="1.19368">
        <ele>210</ele>
        <time>2016-06-11T09:34:48Z</time>
      </trkpt>
      <trkpt lat="43.61171" lon="1.19369">
        <ele>209</ele>
        <time>2016-06-11T09:34:54Z</time>
      </trkpt>
      <trkpt lat="43.61173" lon="1.19368">
        <ele>208</ele>
        <time>2016-06-11T09:34:56Z</time>
      </trkpt>
      <trkpt lat="43.61174" lon="1.19368">
        <ele>207</ele>
        <time>2016-06-11T09:34:57Z</time>
      </trkpt>
      <trkpt lat="43.61175" lon="1.19368">
        <ele>206</ele>
        <time>2016-06-11T09:34:58Z</time>
      </trkpt>
      <trkpt lat="43.61176" lon="1.19368">
        <ele>205</ele>
        <time>2016-06-11T09:34:59Z</time>
      </trkpt>
      <trkpt lat="43.61178" lon="1.19368">
        <ele>205</ele>
        <time>2016-06-11T09:35:01Z</time>
      </trkpt>
      <trkpt lat="43.61179" lon="1.19369">
        <ele>205</ele>
        <time>2016-06-11T09:35:03Z</time>
      </trkpt>
      <trkpt lat="43.61181" lon="1.1937">
        <ele>205</ele>
        <time>2016-06-11T09:35:04Z</time>
      </trkpt>
      <trkpt lat="43.61182" lon="1.1937">
        <ele>205</ele>
        <time>2016-06-11T09:35:05Z</time>
      </trkpt>
      <trkpt lat="43.61189" lon="1.1937">
        <ele>204</ele>
        <time>2016-06-11T09:35:09Z</time>
      </trkpt>
      <trkpt lat="43.61192" lon="1.19371">
        <ele>204</ele>
        <time>2016-06-11T09:35:11Z</time>
      </trkpt>
      <trkpt lat="43.61193" lon="1.19372">
        <ele>204</ele>
        <time>2016-06-11T09:35:12Z</time>
      </trkpt>
      <trkpt lat="43.61194" lon="1.19373">
        <ele>204</ele>
        <time>2016-06-11T09:35:13Z</time>
      </trkpt>
      <trkpt lat="43.61197" lon="1.19376">
        <ele>204</ele>
        <time>2016-06-11T09:35:15Z</time>
      </trkpt>
      <trkpt lat="43.61198" lon="1.19377">
        <ele>204</ele>
        <time>2016-06-11T09:35:16Z</time>
      </trkpt>
      <trkpt lat="43.61199" lon="1.19378">
        <ele>204</ele>
        <time>2016-06-11T09:35:17Z</time>
      </trkpt>
      <trkpt lat="43.61201" lon="1.19382">
        <ele>204</ele>
        <time>2016-06-11T09:35:19Z</time>
      </trkpt>
      <trkpt lat="43.61202" lon="1.19385">
        <ele>204</ele>
        <time>2016-06-11T09:35:21Z</time>
      </trkpt>
      <trkpt lat="43.61203" lon="1.19388">
        <ele>204</ele>
        <time>2016-06-11T09:35:23Z</time>
      </trkpt>
      <trkpt lat="43.61203" lon="1.19391">
        <ele>204</ele>
        <time>2016-06-11T09:35:25Z</time>
      </trkpt>
      <trkpt lat="43.61204" lon="1.19394">
        <ele>204</ele>
        <time>2016-06-11T09:35:27Z</time>
      </trkpt>
      <trkpt lat="43.61205" lon="1.19395">
        <ele>204</ele>
        <time>2016-06-11T09:35:28Z</time>
      </trkpt>
      <trkpt lat="43.61205" lon="1.19397">
        <ele>204</ele>
        <time>2016-06-11T09:35:29Z</time>
      </trkpt>
      <trkpt lat="43.61206" lon="1.194">
        <ele>204</ele>
        <time>2016-06-11T09:35:31Z</time>
      </trkpt>
      <trkpt lat="43.61207" lon="1.19403">
        <ele>204</ele>
        <time>2016-06-11T09:35:33Z</time>
      </trkpt>
      <trkpt lat="43.61208" lon="1.19405">
        <ele>204</ele>
        <time>2016-06-11T09:35:34Z</time>
      </trkpt>
      <trkpt lat="43.6121" lon="1.19409">
        <ele>204</ele>
        <time>2016-06-11T09:35:36Z</time>
      </trkpt>
      <trkpt lat="43.61211" lon="1.1941">
        <ele>204</ele>
        <time>2016-06-11T09:35:37Z</time>
      </trkpt>
      <trkpt lat="43.61212" lon="1.19412">
        <ele>204</ele>
        <time>2016-06-11T09:35:38Z</time>
      </trkpt>
      <trkpt lat="43.61213" lon="1.19415">
        <ele>204</ele>
        <time>2016-06-11T09:35:39Z</time>
      </trkpt>
      <trkpt lat="43.61214" lon="1.1942">
        <ele>204</ele>
        <time>2016-06-11T09:35:41Z</time>
      </trkpt>
      <trkpt lat="43.61214" lon="1.19424">
        <ele>204</ele>
        <time>2016-06-11T09:35:43Z</time>
      </trkpt>
      <trkpt lat="43.61216" lon="1.1943">
        <ele>204</ele>
        <time>2016-06-11T09:35:45Z</time>
      </trkpt>
      <trkpt lat="43.61218" lon="1.19433">
        <ele>204</ele>
        <time>2016-06-11T09:35:46Z</time>
      </trkpt>
      <trkpt lat="43.61218" lon="1.19436">
        <ele>204</ele>
        <time>2016-06-11T09:35:48Z</time>
      </trkpt>
      <trkpt lat="43.61218" lon="1.19438">
        <ele>204</ele>
        <time>2016-06-11T09:35:49Z</time>
      </trkpt>
      <trkpt lat="43.61217" lon="1.19442">
        <ele>204</ele>
        <time>2016-06-11T09:35:51Z</time>
      </trkpt>
      <trkpt lat="43.61216" lon="1.19444">
        <ele>204</ele>
        <time>2016-06-11T09:35:52Z</time>
      </trkpt>
      <trkpt lat="43.61216" lon="1.19448">
        <ele>204</ele>
        <time>2016-06-11T09:35:54Z</time>
      </trkpt>
      <trkpt lat="43.61216" lon="1.1945">
        <ele>204</ele>
        <time>2016-06-11T09:35:56Z</time>
      </trkpt>
      <trkpt lat="43.61216" lon="1.19453">
        <ele>204</ele>
        <time>2016-06-11T09:35:58Z</time>
      </trkpt>
      <trkpt lat="43.61215" lon="1.19456">
        <ele>205</ele>
        <time>2016-06-11T09:36:00Z</time>
      </trkpt>
      <trkpt lat="43.61215" lon="1.19458">
        <ele>205</ele>
        <time>2016-06-11T09:36:01Z</time>
      </trkpt>
      <trkpt lat="43.61215" lon="1.19461">
        <ele>205</ele>
        <time>2016-06-11T09:36:03Z</time>
      </trkpt>
      <trkpt lat="43.61216" lon="1.19462">
        <ele>205</ele>
        <time>2016-06-11T09:36:04Z</time>
      </trkpt>
      <trkpt lat="43.61218" lon="1.19463">
        <ele>206</ele>
        <time>2016-06-11T09:36:06Z</time>
      </trkpt>
      <trkpt lat="43.6122" lon="1.19465">
        <ele>206</ele>
        <time>2016-06-11T09:36:08Z</time>
      </trkpt>
      <trkpt lat="43.61221" lon="1.19467">
        <ele>206</ele>
        <time>2016-06-11T09:36:10Z</time>
      </trkpt>
      <trkpt lat="43.61224" lon="1.1947">
        <ele>206</ele>
        <time>2016-06-11T09:36:12Z</time>
      </trkpt>
      <trkpt lat="43.61225" lon="1.19472">
        <ele>206</ele>
        <time>2016-06-11T09:36:13Z</time>
      </trkpt>
      <trkpt lat="43.61227" lon="1.19473">
        <ele>207</ele>
        <time>2016-06-11T09:36:15Z</time>
      </trkpt>
      <trkpt lat="43.61227" lon="1.19474">
        <ele>207</ele>
        <time>2016-06-11T09:36:16Z</time>
      </trkpt>
      <trkpt lat="43.61229" lon="1.19474">
        <ele>207</ele>
        <time>2016-06-11T09:36:17Z</time>
      </trkpt>
      <trkpt lat="43.61229" lon="1.19474">
        <ele>207</ele>
        <time>2016-06-11T09:36:18Z</time>
      </trkpt>
      <trkpt lat="43.61231" lon="1.19474">
        <ele>207</ele>
        <time>2016-06-11T09:36:19Z</time>
      </trkpt>
      <trkpt lat="43.61232" lon="1.19474">
        <ele>208</ele>
        <time>2016-06-11T09:36:21Z</time>
      </trkpt>
      <trkpt lat="43.61233" lon="1.19474">
        <ele>208</ele>
        <time>2016-06-11T09:36:22Z</time>
      </trkpt>
      <trkpt lat="43.61235" lon="1.19474">
        <ele>208</ele>
        <time>2016-06-11T09:36:24Z</time>
      </trkpt>
      <trkpt lat="43.61237" lon="1.19474">
        <ele>208</ele>
        <time>2016-06-11T09:36:26Z</time>
      </trkpt>
      <trkpt lat="43.61239" lon="1.19474">
        <ele>209</ele>
        <time>2016-06-11T09:36:28Z</time>
      </trkpt>
      <trkpt lat="43.61242" lon="1.19472">
        <ele>209</ele>
        <time>2016-06-11T09:36:31Z</time>
      </trkpt>
      <trkpt lat="43.61245" lon="1.19471">
        <ele>209</ele>
        <time>2016-06-11T09:36:34Z</time>
      </trkpt>
      <trkpt lat="43.61247" lon="1.19471">
        <ele>210</ele>
        <time>2016-06-11T09:36:36Z</time>
      </trkpt>
      <trkpt lat="43.61248" lon="1.19472">
        <ele>210</ele>
        <time>2016-06-11T09:36:37Z</time>
      </trkpt>
      <trkpt lat="43.6125" lon="1.19472">
        <ele>211</ele>
        <time>2016-06-11T09:36:38Z</time>
      </trkpt>
      <trkpt lat="43.6125" lon="1.19473">
        <ele>211</ele>
        <time>2016-06-11T09:36:39Z</time>
      </trkpt>
      <trkpt lat="43.61252" lon="1.19473">
        <ele>211</ele>
        <time>2016-06-11T09:36:41Z</time>
      </trkpt>
      <trkpt lat="43.61254" lon="1.19474">
        <ele>212</ele>
        <time>2016-06-11T09:36:43Z</time>
      </trkpt>
      <trkpt lat="43.61255" lon="1.19473">
        <ele>212</ele>
        <time>2016-06-11T09:36:44Z</time>
      </trkpt>
      <trkpt lat="43.61256" lon="1.19474">
        <ele>212</ele>
        <time>2016-06-11T09:36:46Z</time>
      </trkpt>
      <trkpt lat="43.61258" lon="1.19473">
        <ele>212</ele>
        <time>2016-06-11T09:36:48Z</time>
      </trkpt>
      <trkpt lat="43.6126" lon="1.19473">
        <ele>212</ele>
        <time>2016-06-11T09:36:49Z</time>
      </trkpt>
      <trkpt lat="43.61262" lon="1.19473">
        <ele>213</ele>
        <time>2016-06-11T09:36:51Z</time>
      </trkpt>
      <trkpt lat="43.61263" lon="1.19474">
        <ele>213</ele>
        <time>2016-06-11T09:36:52Z</time>
      </trkpt>
      <trkpt lat="43.61266" lon="1.19475">
        <ele>213</ele>
        <time>2016-06-11T09:36:54Z</time>
      </trkpt>
      <trkpt lat="43.61267" lon="1.19475">
        <ele>213</ele>
        <time>2016-06-11T09:36:55Z</time>
      </trkpt>
      <trkpt lat="43.6127" lon="1.19477">
        <ele>213</ele>
        <time>2016-06-11T09:36:57Z</time>
      </trkpt>
      <trkpt lat="43.61277" lon="1.19482">
        <ele>214</ele>
        <time>2016-06-11T09:37:01Z</time>
      </trkpt>
      <trkpt lat="43.61285" lon="1.19489">
        <ele>214</ele>
        <time>2016-06-11T09:37:06Z</time>
      </trkpt>
      <trkpt lat="43.61286" lon="1.19492">
        <ele>214</ele>
        <time>2016-06-11T09:37:08Z</time>
      </trkpt>
      <trkpt lat="43.61287" lon="1.19496">
        <ele>214</ele>
        <time>2016-06-11T09:37:10Z</time>
      </trkpt>
      <trkpt lat="43.61289" lon="1.195">
        <ele>214</ele>
        <time>2016-06-11T09:37:12Z</time>
      </trkpt>
      <trkpt lat="43.6129" lon="1.19504">
        <ele>214</ele>
        <time>2016-06-11T09:37:14Z</time>
      </trkpt>
      <trkpt lat="43.61292" lon="1.19506">
        <ele>214</ele>
        <time>2016-06-11T09:37:16Z</time>
      </trkpt>
      <trkpt lat="43.61292" lon="1.19508">
        <ele>214</ele>
        <time>2016-06-11T09:37:17Z</time>
      </trkpt>
      <trkpt lat="43.61293" lon="1.19512">
        <ele>214</ele>
        <time>2016-06-11T09:37:19Z</time>
      </trkpt>
      <trkpt lat="43.61293" lon="1.19516">
        <ele>214</ele>
        <time>2016-06-11T09:37:21Z</time>
      </trkpt>
      <trkpt lat="43.61293" lon="1.19518">
        <ele>214</ele>
        <time>2016-06-11T09:37:22Z</time>
      </trkpt>
      <trkpt lat="43.61293" lon="1.19522">
        <ele>214</ele>
        <time>2016-06-11T09:37:24Z</time>
      </trkpt>
      <trkpt lat="43.61294" lon="1.19524">
        <ele>214</ele>
        <time>2016-06-11T09:37:25Z</time>
      </trkpt>
      <trkpt lat="43.61295" lon="1.19529">
        <ele>215</ele>
        <time>2016-06-11T09:37:27Z</time>
      </trkpt>
      <trkpt lat="43.61296" lon="1.19535">
        <ele>215</ele>
        <time>2016-06-11T09:37:29Z</time>
      </trkpt>
      <trkpt lat="43.61297" lon="1.1954">
        <ele>215</ele>
        <time>2016-06-11T09:37:31Z</time>
      </trkpt>
      <trkpt lat="43.61301" lon="1.19557">
        <ele>216</ele>
        <time>2016-06-11T09:37:37Z</time>
      </trkpt>
      <trkpt lat="43.61302" lon="1.1956">
        <ele>216</ele>
        <time>2016-06-11T09:37:38Z</time>
      </trkpt>
      <trkpt lat="43.61301" lon="1.19561">
        <ele>216</ele>
        <time>2016-06-11T09:37:39Z</time>
      </trkpt>
      <trkpt lat="43.613" lon="1.19564">
        <ele>216</ele>
        <time>2016-06-11T09:37:41Z</time>
      </trkpt>
      <trkpt lat="43.613" lon="1.19565">
        <ele>216</ele>
        <time>2016-06-11T09:37:42Z</time>
      </trkpt>
      <trkpt lat="43.613" lon="1.19568">
        <ele>216</ele>
        <time>2016-06-11T09:37:44Z</time>
      </trkpt>
      <trkpt lat="43.61298" lon="1.19572">
        <ele>216</ele>
        <time>2016-06-11T09:37:46Z</time>
      </trkpt>
      <trkpt lat="43.61297" lon="1.19574">
        <ele>216</ele>
        <time>2016-06-11T09:37:47Z</time>
      </trkpt>
      <trkpt lat="43.61296" lon="1.19576">
        <ele>216</ele>
        <time>2016-06-11T09:37:49Z</time>
      </trkpt>
      <trkpt lat="43.61295" lon="1.19579">
        <ele>216</ele>
        <time>2016-06-11T09:37:50Z</time>
      </trkpt>
      <trkpt lat="43.61294" lon="1.19583">
        <ele>216</ele>
        <time>2016-06-11T09:37:52Z</time>
      </trkpt>
      <trkpt lat="43.61295" lon="1.19586">
        <ele>216</ele>
        <time>2016-06-11T09:37:54Z</time>
      </trkpt>
      <trkpt lat="43.61295" lon="1.1959">
        <ele>216</ele>
        <time>2016-06-11T09:37:56Z</time>
      </trkpt>
      <trkpt lat="43.61295" lon="1.19591">
        <ele>216</ele>
        <time>2016-06-11T09:37:57Z</time>
      </trkpt>
      <trkpt lat="43.61294" lon="1.19593">
        <ele>216</ele>
        <time>2016-06-11T09:37:58Z</time>
      </trkpt>
      <trkpt lat="43.61293" lon="1.19595">
        <ele>216</ele>
        <time>2016-06-11T09:37:59Z</time>
      </trkpt>
      <trkpt lat="43.6129" lon="1.19604">
        <ele>216</ele>
        <time>2016-06-11T09:38:03Z</time>
      </trkpt>
      <trkpt lat="43.61291" lon="1.19606">
        <ele>216</ele>
        <time>2016-06-11T09:38:04Z</time>
      </trkpt>
      <trkpt lat="43.61293" lon="1.1961">
        <ele>216</ele>
        <time>2016-06-11T09:38:06Z</time>
      </trkpt>
      <trkpt lat="43.61294" lon="1.19614">
        <ele>216</ele>
        <time>2016-06-11T09:38:08Z</time>
      </trkpt>
      <trkpt lat="43.61294" lon="1.19616">
        <ele>216</ele>
        <time>2016-06-11T09:38:09Z</time>
      </trkpt>
      <trkpt lat="43.61296" lon="1.19618">
        <ele>216</ele>
        <time>2016-06-11T09:38:11Z</time>
      </trkpt>
      <trkpt lat="43.61296" lon="1.1962">
        <ele>216</ele>
        <time>2016-06-11T09:38:13Z</time>
      </trkpt>
      <trkpt lat="43.61297" lon="1.19621">
        <ele>216</ele>
        <time>2016-06-11T09:38:14Z</time>
      </trkpt>
      <trkpt lat="43.61297" lon="1.19623">
        <ele>216</ele>
        <time>2016-06-11T09:38:16Z</time>
      </trkpt>
      <trkpt lat="43.61298" lon="1.19625">
        <ele>216</ele>
        <time>2016-06-11T09:38:17Z</time>
      </trkpt>
      <trkpt lat="43.613" lon="1.19629">
        <ele>216</ele>
        <time>2016-06-11T09:38:19Z</time>
      </trkpt>
      <trkpt lat="43.61301" lon="1.19633">
        <ele>215</ele>
        <time>2016-06-11T09:38:21Z</time>
      </trkpt>
      <trkpt lat="43.61302" lon="1.19636">
        <ele>215</ele>
        <time>2016-06-11T09:38:22Z</time>
      </trkpt>
      <trkpt lat="43.61304" lon="1.1964">
        <ele>214</ele>
        <time>2016-06-11T09:38:24Z</time>
      </trkpt>
      <trkpt lat="43.61303" lon="1.19643">
        <ele>213</ele>
        <time>2016-06-11T09:38:25Z</time>
      </trkpt>
      <trkpt lat="43.61304" lon="1.19646">
        <ele>213</ele>
        <time>2016-06-11T09:38:27Z</time>
      </trkpt>
      <trkpt lat="43.61305" lon="1.19648">
        <ele>213</ele>
        <time>2016-06-11T09:38:29Z</time>
      </trkpt>
      <trkpt lat="43.61305" lon="1.19651">
        <ele>212</ele>
        <time>2016-06-11T09:38:31Z</time>
      </trkpt>
      <trkpt lat="43.61305" lon="1.19653">
        <ele>212</ele>
        <time>2016-06-11T09:38:32Z</time>
      </trkpt>
      <trkpt lat="43.61305" lon="1.19655">
        <ele>212</ele>
        <time>2016-06-11T09:38:33Z</time>
      </trkpt>
      <trkpt lat="43.61306" lon="1.19658">
        <ele>212</ele>
        <time>2016-06-11T09:38:35Z</time>
      </trkpt>
      <trkpt lat="43.61307" lon="1.1966">
        <ele>212</ele>
        <time>2016-06-11T09:38:36Z</time>
      </trkpt>
      <trkpt lat="43.61309" lon="1.19663">
        <ele>212</ele>
        <time>2016-06-11T09:38:37Z</time>
      </trkpt>
      <trkpt lat="43.61309" lon="1.19666">
        <ele>212</ele>
        <time>2016-06-11T09:38:38Z</time>
      </trkpt>
      <trkpt lat="43.61309" lon="1.19668">
        <ele>212</ele>
        <time>2016-06-11T09:38:39Z</time>
      </trkpt>
      <trkpt lat="43.6131" lon="1.19669">
        <ele>212</ele>
        <time>2016-06-11T09:38:41Z</time>
      </trkpt>
      <trkpt lat="43.61311" lon="1.1967">
        <ele>212</ele>
        <time>2016-06-11T09:38:43Z</time>
      </trkpt>
      <trkpt lat="43.61311" lon="1.19672">
        <ele>212</ele>
        <time>2016-06-11T09:38:45Z</time>
      </trkpt>
      <trkpt lat="43.61312" lon="1.19672">
        <ele>212</ele>
        <time>2016-06-11T09:38:46Z</time>
      </trkpt>
      <trkpt lat="43.61314" lon="1.19674">
        <ele>212</ele>
        <time>2016-06-11T09:38:48Z</time>
      </trkpt>
      <trkpt lat="43.61315" lon="1.19675">
        <ele>212</ele>
        <time>2016-06-11T09:38:49Z</time>
      </trkpt>
      <trkpt lat="43.61317" lon="1.19677">
        <ele>213</ele>
        <time>2016-06-11T09:38:51Z</time>
      </trkpt>
      <trkpt lat="43.61318" lon="1.19679">
        <ele>213</ele>
        <time>2016-06-11T09:38:53Z</time>
      </trkpt>
      <trkpt lat="43.61319" lon="1.19681">
        <ele>213</ele>
        <time>2016-06-11T09:38:55Z</time>
      </trkpt>
      <trkpt lat="43.61319" lon="1.19682">
        <ele>213</ele>
        <time>2016-06-11T09:38:56Z</time>
      </trkpt>
      <trkpt lat="43.61319" lon="1.19683">
        <ele>213</ele>
        <time>2016-06-11T09:38:57Z</time>
      </trkpt>
      <trkpt lat="43.61321" lon="1.19685">
        <ele>213</ele>
        <time>2016-06-11T09:38:58Z</time>
      </trkpt>
      <trkpt lat="43.61321" lon="1.19686">
        <ele>213</ele>
        <time>2016-06-11T09:38:59Z</time>
      </trkpt>
      <trkpt lat="43.61322" lon="1.19688">
        <ele>213</ele>
        <time>2016-06-11T09:39:01Z</time>
      </trkpt>
      <trkpt lat="43.61323" lon="1.19691">
        <ele>213</ele>
        <time>2016-06-11T09:39:03Z</time>
      </trkpt>
      <trkpt lat="43.61325" lon="1.19694">
        <ele>214</ele>
        <time>2016-06-11T09:39:05Z</time>
      </trkpt>
      <trkpt lat="43.61326" lon="1.19696">
        <ele>214</ele>
        <time>2016-06-11T09:39:06Z</time>
      </trkpt>
      <trkpt lat="43.61329" lon="1.19697">
        <ele>214</ele>
        <time>2016-06-11T09:39:09Z</time>
      </trkpt>
      <trkpt lat="43.6133" lon="1.19697">
        <ele>214</ele>
        <time>2016-06-11T09:39:10Z</time>
      </trkpt>
      <trkpt lat="43.61332" lon="1.19698">
        <ele>214</ele>
        <time>2016-06-11T09:39:12Z</time>
      </trkpt>
      <trkpt lat="43.61333" lon="1.19699">
        <ele>214</ele>
        <time>2016-06-11T09:39:13Z</time>
      </trkpt>
      <trkpt lat="43.61334" lon="1.19701">
        <ele>214</ele>
        <time>2016-06-11T09:39:15Z</time>
      </trkpt>
      <trkpt lat="43.61333" lon="1.19703">
        <ele>214</ele>
        <time>2016-06-11T09:39:16Z</time>
      </trkpt>
      <trkpt lat="43.61334" lon="1.19705">
        <ele>214</ele>
        <time>2016-06-11T09:39:17Z</time>
      </trkpt>
      <trkpt lat="43.61334" lon="1.19709">
        <ele>214</ele>
        <time>2016-06-11T09:39:19Z</time>
      </trkpt>
      <trkpt lat="43.61337" lon="1.19715">
        <ele>214</ele>
        <time>2016-06-11T09:39:21Z</time>
      </trkpt>
      <trkpt lat="43.61337" lon="1.19717">
        <ele>214</ele>
        <time>2016-06-11T09:39:22Z</time>
      </trkpt>
      <trkpt lat="43.61337" lon="1.19721">
        <ele>214</ele>
        <time>2016-06-11T09:39:24Z</time>
      </trkpt>
      <trkpt lat="43.61338" lon="1.19722">
        <ele>214</ele>
        <time>2016-06-11T09:39:25Z</time>
      </trkpt>
      <trkpt lat="43.61342" lon="1.19724">
        <ele>214</ele>
        <time>2016-06-11T09:39:27Z</time>
      </trkpt>
      <trkpt lat="43.61342" lon="1.19725">
        <ele>215</ele>
        <time>2016-06-11T09:39:28Z</time>
      </trkpt>
      <trkpt lat="43.61343" lon="1.19728">
        <ele>215</ele>
        <time>2016-06-11T09:39:30Z</time>
      </trkpt>
      <trkpt lat="43.61347" lon="1.19731">
        <ele>214</ele>
        <time>2016-06-11T09:39:32Z</time>
      </trkpt>
      <trkpt lat="43.61349" lon="1.19732">
        <ele>214</ele>
        <time>2016-06-11T09:39:33Z</time>
      </trkpt>
      <trkpt lat="43.61351" lon="1.19735">
        <ele>214</ele>
        <time>2016-06-11T09:39:35Z</time>
      </trkpt>
      <trkpt lat="43.61352" lon="1.19735">
        <ele>214</ele>
        <time>2016-06-11T09:39:37Z</time>
      </trkpt>
      <trkpt lat="43.61354" lon="1.19737">
        <ele>214</ele>
        <time>2016-06-11T09:39:39Z</time>
      </trkpt>
      <trkpt lat="43.61356" lon="1.19737">
        <ele>214</ele>
        <time>2016-06-11T09:39:41Z</time>
      </trkpt>
      <trkpt lat="43.61358" lon="1.19739">
        <ele>214</ele>
        <time>2016-06-11T09:39:43Z</time>
      </trkpt>
      <trkpt lat="43.61359" lon="1.1974">
        <ele>213</ele>
        <time>2016-06-11T09:39:45Z</time>
      </trkpt>
      <trkpt lat="43.61361" lon="1.19746">
        <ele>213</ele>
        <time>2016-06-11T09:39:49Z</time>
      </trkpt>
      <trkpt lat="43.61361" lon="1.19748">
        <ele>212</ele>
        <time>2016-06-11T09:39:51Z</time>
      </trkpt>
      <trkpt lat="43.61361" lon="1.19749">
        <ele>211</ele>
        <time>2016-06-11T09:39:52Z</time>
      </trkpt>
      <trkpt lat="43.61362" lon="1.19752">
        <ele>211</ele>
        <time>2016-06-11T09:39:54Z</time>
      </trkpt>
      <trkpt lat="43.61363" lon="1.19752">
        <ele>210</ele>
        <time>2016-06-11T09:39:55Z</time>
      </trkpt>
      <trkpt lat="43.61363" lon="1.19754">
        <ele>210</ele>
        <time>2016-06-11T09:39:56Z</time>
      </trkpt>
      <trkpt lat="43.61365" lon="1.19757">
        <ele>210</ele>
        <time>2016-06-11T09:40:00Z</time>
      </trkpt>
      <trkpt lat="43.61366" lon="1.19771">
        <ele>209</ele>
        <time>2016-06-11T09:40:22Z</time>
      </trkpt>
      <trkpt lat="43.61366" lon="1.19771">
        <ele>208</ele>
        <time>2016-06-11T09:40:24Z</time>
      </trkpt>
      <trkpt lat="43.61366" lon="1.19771">
        <ele>207</ele>
        <time>2016-06-11T09:40:43Z</time>
      </trkpt>
      <trkpt lat="43.61367" lon="1.19782">
        <ele>204</ele>
        <time>2016-06-11T09:40:46Z</time>
      </trkpt>
      <trkpt lat="43.61368" lon="1.19783">
        <ele>203</ele>
        <time>2016-06-11T09:40:48Z</time>
      </trkpt>
      <trkpt lat="43.61369" lon="1.19783">
        <ele>202</ele>
        <time>2016-06-11T09:40:49Z</time>
      </trkpt>
      <trkpt lat="43.61369" lon="1.19785">
        <ele>201</ele>
        <time>2016-06-11T09:40:51Z</time>
      </trkpt>
      <trkpt lat="43.6137" lon="1.19785">
        <ele>201</ele>
        <time>2016-06-11T09:40:52Z</time>
      </trkpt>
      <trkpt lat="43.61371" lon="1.19787">
        <ele>201</ele>
        <time>2016-06-11T09:40:54Z</time>
      </trkpt>
      <trkpt lat="43.61372" lon="1.19788">
        <ele>201</ele>
        <time>2016-06-11T09:40:56Z</time>
      </trkpt>
      <trkpt lat="43.61372" lon="1.19788">
        <ele>200</ele>
        <time>2016-06-11T09:40:57Z</time>
      </trkpt>
      <trkpt lat="43.61374" lon="1.1979">
        <ele>200</ele>
        <time>2016-06-11T09:40:59Z</time>
      </trkpt>
      <trkpt lat="43.61375" lon="1.1979">
        <ele>200</ele>
        <time>2016-06-11T09:41:01Z</time>
      </trkpt>
      <trkpt lat="43.61377" lon="1.19792">
        <ele>200</ele>
        <time>2016-06-11T09:41:03Z</time>
      </trkpt>
      <trkpt lat="43.61379" lon="1.19793">
        <ele>200</ele>
        <time>2016-06-11T09:41:05Z</time>
      </trkpt>
      <trkpt lat="43.6138" lon="1.19794">
        <ele>199</ele>
        <time>2016-06-11T09:41:07Z</time>
      </trkpt>
      <trkpt lat="43.61382" lon="1.19795">
        <ele>199</ele>
        <time>2016-06-11T09:41:09Z</time>
      </trkpt>
      <trkpt lat="43.61387" lon="1.19799">
        <ele>199</ele>
        <time>2016-06-11T09:41:12Z</time>
      </trkpt>
      <trkpt lat="43.61389" lon="1.19803">
        <ele>198</ele>
        <time>2016-06-11T09:41:14Z</time>
      </trkpt>
      <trkpt lat="43.6139" lon="1.19803">
        <ele>198</ele>
        <time>2016-06-11T09:41:16Z</time>
      </trkpt>
      <trkpt lat="43.61396" lon="1.19813">
        <ele>197</ele>
        <time>2016-06-11T09:41:27Z</time>
      </trkpt>
      <trkpt lat="43.61396" lon="1.19813">
        <ele>196</ele>
        <time>2016-06-11T09:41:29Z</time>
      </trkpt>
      <trkpt lat="43.61396" lon="1.19813">
        <ele>195</ele>
        <time>2016-06-11T09:41:46Z</time>
      </trkpt>
      <trkpt lat="43.61396" lon="1.19813">
        <ele>195</ele>
        <time>2016-06-11T09:41:48Z</time>
      </trkpt>
      <trkpt lat="43.61396" lon="1.19813">
        <ele>194</ele>
        <time>2016-06-11T09:42:06Z</time>
      </trkpt>
      <trkpt lat="43.61396" lon="1.19813">
        <ele>194</ele>
        <time>2016-06-11T09:42:07Z</time>
      </trkpt>
      <trkpt lat="43.61396" lon="1.19813">
        <ele>194</ele>
        <time>2016-06-11T09:42:25Z</time>
      </trkpt>
      <trkpt lat="43.61396" lon="1.19813">
        <ele>194</ele>
        <time>2016-06-11T09:42:27Z</time>
      </trkpt>
      <trkpt lat="43.61388" lon="1.1982">
        <ele>193</ele>
        <time>2016-06-11T09:42:29Z</time>
      </trkpt>
      <trkpt lat="43.61387" lon="1.19819">
        <ele>192</ele>
        <time>2016-06-11T09:42:30Z</time>
      </trkpt>
      <trkpt lat="43.61385" lon="1.19816">
        <ele>191</ele>
        <time>2016-06-11T09:42:32Z</time>
      </trkpt>
      <trkpt lat="43.61385" lon="1.19816">
        <ele>190</ele>
        <time>2016-06-11T09:43:06Z</time>
      </trkpt>
      <trkpt lat="43.61385" lon="1.19816">
        <ele>189</ele>
        <time>2016-06-11T09:43:08Z</time>
      </trkpt>
      <trkpt lat="43.61385" lon="1.19816">
        <ele>189</ele>
        <time>2016-06-11T09:43:26Z</time>
      </trkpt>
      <trkpt lat="43.61385" lon="1.19816">
        <ele>189</ele>
        <time>2016-06-11T09:43:28Z</time>
      </trkpt>
      <trkpt lat="43.61385" lon="1.19816">
        <ele>189</ele>
        <time>2016-06-11T09:43:47Z</time>
      </trkpt>
      <trkpt lat="43.61385" lon="1.19816">
        <ele>189</ele>
        <time>2016-06-11T09:43:49Z</time>
      </trkpt>
      <trkpt lat="43.61385" lon="1.19816">
        <ele>189</ele>
        <time>2016-06-11T09:44:06Z</time>
      </trkpt>
      <trkpt lat="43.61385" lon="1.19816">
        <ele>189</ele>
        <time>2016-06-11T09:44:08Z</time>
      </trkpt>
      <trkpt lat="43.61385" lon="1.19816">
        <ele>189</ele>
        <time>2016-06-11T09:44:28Z</time>
      </trkpt>
      <trkpt lat="43.61385" lon="1.19816">
        <ele>189</ele>
        <time>2016-06-11T09:44:29Z</time>
      </trkpt>
      <trkpt lat="43.61379" lon="1.19824">
        <ele>186</ele>
        <time>2016-06-11T09:45:26Z</time>
      </trkpt>
      <trkpt lat="43.61388" lon="1.19824">
        <ele>185</ele>
        <time>2016-06-11T09:45:52Z</time>
      </trkpt>
      <trkpt lat="43.61388" lon="1.19823">
        <ele>183</ele>
        <time>2016-06-11T09:45:54Z</time>
      </trkpt>
      <trkpt lat="43.61389" lon="1.19822">
        <ele>182</ele>
        <time>2016-06-11T09:45:56Z</time>
      </trkpt>
      <trkpt lat="43.61389" lon="1.19822">
        <ele>182</ele>
        <time>2016-06-11T09:46:10Z</time>
      </trkpt>
      <trkpt lat="43.61389" lon="1.19822">
        <ele>181</ele>
        <time>2016-06-11T09:46:11Z</time>
      </trkpt>
      <trkpt lat="43.61389" lon="1.19822">
        <ele>181</ele>
        <time>2016-06-11T09:46:33Z</time>
      </trkpt>
      <trkpt lat="43.61396" lon="1.19813">
        <ele>181</ele>
        <time>2016-06-11T09:46:34Z</time>
      </trkpt>
      <trkpt lat="43.61397" lon="1.19813">
        <ele>181</ele>
        <time>2016-06-11T09:46:36Z</time>
      </trkpt>
      <trkpt lat="43.61397" lon="1.19813">
        <ele>180</ele>
        <time>2016-06-11T09:46:38Z</time>
      </trkpt>
      <trkpt lat="43.61388" lon="1.19818">
        <ele>180</ele>
        <time>2016-06-11T09:46:52Z</time>
      </trkpt>
      <trkpt lat="43.61388" lon="1.19819">
        <ele>180</ele>
        <time>2016-06-11T09:46:54Z</time>
      </trkpt>
      <trkpt lat="43.61388" lon="1.19819">
        <ele>180</ele>
        <time>2016-06-11T09:46:56Z</time>
      </trkpt>
      <trkpt lat="43.61388" lon="1.19819">
        <ele>180</ele>
        <time>2016-06-11T09:47:14Z</time>
      </trkpt>
      <trkpt lat="43.61388" lon="1.19819">
        <ele>180</ele>
        <time>2016-06-11T09:47:15Z</time>
      </trkpt>
      <trkpt lat="43.61388" lon="1.19819">
        <ele>180</ele>
        <time>2016-06-11T09:47:31Z</time>
      </trkpt>
      <trkpt lat="43.61388" lon="1.19819">
        <ele>180</ele>
        <time>2016-06-11T09:47:33Z</time>
      </trkpt>
      <trkpt lat="43.61388" lon="1.19819">
        <ele>180</ele>
        <time>2016-06-11T09:47:53Z</time>
      </trkpt>
      <trkpt lat="43.61388" lon="1.19819">
        <ele>180</ele>
        <time>2016-06-11T09:47:55Z</time>
      </trkpt>
      <trkpt lat="43.61388" lon="1.19819">
        <ele>180</ele>
        <time>2016-06-11T09:48:12Z</time>
      </trkpt>
      <trkpt lat="43.61388" lon="1.19819">
        <ele>180</ele>
        <time>2016-06-11T09:48:14Z</time>
      </trkpt>
      <trkpt lat="43.61388" lon="1.19819">
        <ele>180</ele>
        <time>2016-06-11T09:48:36Z</time>
      </trkpt>
      <trkpt lat="43.61388" lon="1.19819">
        <ele>180</ele>
        <time>2016-06-11T09:48:56Z</time>
      </trkpt>
      <trkpt lat="43.61388" lon="1.19819">
        <ele>180</ele>
        <time>2016-06-11T09:48:58Z</time>
      </trkpt>
      <trkpt lat="43.61391" lon="1.19806">
        <ele>178</ele>
        <time>2016-06-11T09:49:01Z</time>
      </trkpt>
      <trkpt lat="43.61392" lon="1.19804">
        <ele>177</ele>
        <time>2016-06-11T09:49:03Z</time>
      </trkpt>
      <trkpt lat="43.61393" lon="1.19804">
        <ele>176</ele>
        <time>2016-06-11T09:49:05Z</time>
      </trkpt>
      <trkpt lat="43.61394" lon="1.19805">
        <ele>175</ele>
        <time>2016-06-11T09:49:06Z</time>
      </trkpt>
      <trkpt lat="43.61394" lon="1.19805">
        <ele>175</ele>
        <time>2016-06-11T09:49:35Z</time>
      </trkpt>
      <trkpt lat="43.61394" lon="1.19805">
        <ele>175</ele>
        <time>2016-06-11T09:49:37Z</time>
      </trkpt>
      <trkpt lat="43.61387" lon="1.19812">
        <ele>175</ele>
        <time>2016-06-11T09:49:43Z</time>
      </trkpt>
      <trkpt lat="43.61386" lon="1.19812">
        <ele>176</ele>
        <time>2016-06-11T09:49:44Z</time>
      </trkpt>
      <trkpt lat="43.61387" lon="1.19812">
        <ele>176</ele>
        <time>2016-06-11T09:49:45Z</time>
      </trkpt>
      <trkpt lat="43.61387" lon="1.19812">
        <ele>176</ele>
        <time>2016-06-11T09:49:48Z</time>
      </trkpt>
      <trkpt lat="43.61387" lon="1.19812">
        <ele>176</ele>
        <time>2016-06-11T09:50:16Z</time>
      </trkpt>
      <trkpt lat="43.61387" lon="1.19812">
        <ele>176</ele>
        <time>2016-06-11T09:50:17Z</time>
      </trkpt>
      <trkpt lat="43.61387" lon="1.19812">
        <ele>176</ele>
        <time>2016-06-11T09:50:37Z</time>
      </trkpt>
      <trkpt lat="43.61387" lon="1.19812">
        <ele>176</ele>
        <time>2016-06-11T09:50:39Z</time>
      </trkpt>
      <trkpt lat="43.61387" lon="1.19812">
        <ele>176</ele>
        <time>2016-06-11T09:50:58Z</time>
      </trkpt>
      <trkpt lat="43.61387" lon="1.19812">
        <ele>176</ele>
        <time>2016-06-11T09:51:00Z</time>
      </trkpt>
      <trkpt lat="43.61395" lon="1.19808">
        <ele>176</ele>
        <time>2016-06-11T09:51:13Z</time>
      </trkpt>
      <trkpt lat="43.61395" lon="1.19808">
        <ele>175</ele>
        <time>2016-06-11T09:51:15Z</time>
      </trkpt>
      <trkpt lat="43.61395" lon="1.19808">
        <ele>175</ele>
        <time>2016-06-11T09:51:17Z</time>
      </trkpt>
      <trkpt lat="43.61386" lon="1.19808">
        <ele>175</ele>
        <time>2016-06-11T09:51:27Z</time>
      </trkpt>
      <trkpt lat="43.61388" lon="1.19809">
        <ele>174</ele>
        <time>2016-06-11T09:51:29Z</time>
      </trkpt>
      <trkpt lat="43.61388" lon="1.19809">
        <ele>174</ele>
        <time>2016-06-11T09:51:30Z</time>
      </trkpt>
      <trkpt lat="43.61388" lon="1.19809">
        <ele>174</ele>
        <time>2016-06-11T09:51:58Z</time>
      </trkpt>
      <trkpt lat="43.61388" lon="1.19809">
        <ele>175</ele>
        <time>2016-06-11T09:52:00Z</time>
      </trkpt>
      <trkpt lat="43.61388" lon="1.19809">
        <ele>175</ele>
        <time>2016-06-11T09:52:18Z</time>
      </trkpt>
      <trkpt lat="43.61388" lon="1.19809">
        <ele>175</ele>
        <time>2016-06-11T09:52:20Z</time>
      </trkpt>
      <trkpt lat="43.61388" lon="1.19809">
        <ele>175</ele>
        <time>2016-06-11T09:52:38Z</time>
      </trkpt>
      <trkpt lat="43.61388" lon="1.19809">
        <ele>175</ele>
        <time>2016-06-11T09:52:40Z</time>
      </trkpt>
      <trkpt lat="43.61388" lon="1.19809">
        <ele>175</ele>
        <time>2016-06-11T09:52:58Z</time>
      </trkpt>
      <trkpt lat="43.61388" lon="1.19809">
        <ele>175</ele>
        <time>2016-06-11T09:53:00Z</time>
      </trkpt>
      <trkpt lat="43.61388" lon="1.19821">
        <ele>175</ele>
        <time>2016-06-11T09:53:09Z</time>
      </trkpt>
      <trkpt lat="43.61388" lon="1.19822">
        <ele>175</ele>
        <time>2016-06-11T09:53:10Z</time>
      </trkpt>
      <trkpt lat="43.61388" lon="1.19824">
        <ele>175</ele>
        <time>2016-06-11T09:53:12Z</time>
      </trkpt>
      <trkpt lat="43.61391" lon="1.19832">
        <ele>175</ele>
        <time>2016-06-11T09:53:20Z</time>
      </trkpt>
      <trkpt lat="43.61392" lon="1.19832">
        <ele>175</ele>
        <time>2016-06-11T09:53:22Z</time>
      </trkpt>
      <trkpt lat="43.61394" lon="1.19832">
        <ele>175</ele>
        <time>2016-06-11T09:53:24Z</time>
      </trkpt>
      <trkpt lat="43.61396" lon="1.19832">
        <ele>175</ele>
        <time>2016-06-11T09:53:26Z</time>
      </trkpt>
      <trkpt lat="43.61398" lon="1.19832">
        <ele>175</ele>
        <time>2016-06-11T09:53:28Z</time>
      </trkpt>
      <trkpt lat="43.614" lon="1.19831">
        <ele>175</ele>
        <time>2016-06-11T09:53:30Z</time>
      </trkpt>
      <trkpt lat="43.61401" lon="1.19831">
        <ele>175</ele>
        <time>2016-06-11T09:53:32Z</time>
      </trkpt>
      <trkpt lat="43.61401" lon="1.19831">
        <ele>175</ele>
        <time>2016-06-11T09:53:34Z</time>
      </trkpt>
      <trkpt lat="43.61402" lon="1.19831">
        <ele>175</ele>
        <time>2016-06-11T09:53:36Z</time>
      </trkpt>
      <trkpt lat="43.61402" lon="1.19829">
        <ele>175</ele>
        <time>2016-06-11T09:53:42Z</time>
      </trkpt>
      <trkpt lat="43.61402" lon="1.19828">
        <ele>175</ele>
        <time>2016-06-11T09:53:44Z</time>
      </trkpt>
      <trkpt lat="43.61402" lon="1.19827">
        <ele>175</ele>
        <time>2016-06-11T09:53:46Z</time>
      </trkpt>
      <trkpt lat="43.61402" lon="1.19827">
        <ele>174</ele>
        <time>2016-06-11T09:54:02Z</time>
      </trkpt>
      <trkpt lat="43.61402" lon="1.19827">
        <ele>174</ele>
        <time>2016-06-11T09:54:04Z</time>
      </trkpt>
      <trkpt lat="43.61402" lon="1.19827">
        <ele>174</ele>
        <time>2016-06-11T09:54:21Z</time>
      </trkpt>
      <trkpt lat="43.61402" lon="1.19827">
        <ele>174</ele>
        <time>2016-06-11T09:54:23Z</time>
      </trkpt>
      <trkpt lat="43.61402" lon="1.19827">
        <ele>174</ele>
        <time>2016-06-11T09:54:42Z</time>
      </trkpt>
      <trkpt lat="43.61402" lon="1.19827">
        <ele>174</ele>
        <time>2016-06-11T09:54:43Z</time>
      </trkpt>
      <trkpt lat="43.61402" lon="1.19827">
        <ele>174</ele>
        <time>2016-06-11T09:55:03Z</time>
      </trkpt>
      <trkpt lat="43.61402" lon="1.19827">
        <ele>174</ele>
        <time>2016-06-11T09:55:05Z</time>
      </trkpt>
      <trkpt lat="43.61402" lon="1.19827">
        <ele>174</ele>
        <time>2016-06-11T09:55:23Z</time>
      </trkpt>
      <trkpt lat="43.61402" lon="1.19827">
        <ele>174</ele>
        <time>2016-06-11T09:55:26Z</time>
      </trkpt>
      <trkpt lat="43.61402" lon="1.19827">
        <ele>174</ele>
        <time>2016-06-11T09:55:45Z</time>
      </trkpt>
      <trkpt lat="43.61393" lon="1.19831">
        <ele>174</ele>
        <time>2016-06-11T09:56:00Z</time>
      </trkpt>
      <trkpt lat="43.61391" lon="1.19832">
        <ele>174</ele>
        <time>2016-06-11T09:56:02Z</time>
      </trkpt>
      <trkpt lat="43.6139" lon="1.19833">
        <ele>174</ele>
        <time>2016-06-11T09:56:04Z</time>
      </trkpt>
      <trkpt lat="43.614" lon="1.19831">
        <ele>174</ele>
        <time>2016-06-11T09:56:28Z</time>
      </trkpt>
    </trkseg>
  </trk>
</gpx>